# Wetter Temperatur Luftdruck Luftfeuchtigkeit Sichtweite Windgeschwindigkeit Windrichtung Zeit
1 Clouds 26 1015 69 8000 2.57 270 10:55 14.08.2022
2 Clouds 23 1014 73 8000 3.6 240 08:53 14.08.2022
3 Clouds 24 1013 64 8000 3.09 260 06:22 14.08.2022
4 Clouds 29 1013 51 8000 1.03 0 03:48 14.08.2022
5 Clouds 30 1015 48 8000 3.6 40 00:39 14.08.2022
6 Clouds 32 1014 40 8000 3.09 350 22:56 13.08.2022
7 Clouds 34 1014 38 8000 3.09 340 21:47 13.08.2022
8 Clouds 36 1013 32 8000 4.63 330 20:47 13.08.2022
9 Clouds 37 1012 30 8000 3.6 310 19:46 13.08.2022
10 Clouds 38 1012 34 8000 3.6 320 18:19 13.08.2022
11 Clouds 38 1012 32 8000 3.6 280 15:57 13.08.2022
12 Clouds 35 1013 38 8000 3.6 290 14:40 13.08.2022
13 Clouds 34 1013 38 8000 3.6 300 13:46 13.08.2022
14 Clouds 31 1013 48 10000 2.57 0 11:59 13.08.2022
15 Clouds 28 1013 57 10000 2.06 270 10:33 13.08.2022
16 Clouds 25 1012 65 10000 1.03 0 09:22 13.08.2022
17 Clear 26 1012 57 10000 1.54 260 05:59 13.08.2022
18 Clouds 31 1014 45 10000 2.57 290 00:36 13.08.2022
19 Clouds 34 1013 38 8000 2.57 30 22:26 12.08.2022
20 Clouds 37 1012 32 8000 4.12 330 21:35 12.08.2022
21 Clouds 40 1011 25 8000 4.63 340 19:46 12.08.2022
22 Clouds 42 1010 23 8000 4.12 330 19:21 12.08.2022
23 Clouds 42 1010 23 8000 5.14 300 17:58 12.08.2022
24 Clouds 42 1012 21 8000 3.6 290 16:25 12.08.2022
25 Clouds 39 1012 27 8000 3.09 340 14:50 12.08.2022
26 Clear 35 1013 34 10000 2.57 300 13:26 12.08.2022
27 Clear 30 1013 45 10000 1.54 240 11:40 12.08.2022
28 Clear 25 1013 53 10000 1.54 250 08:50 12.08.2022
29 Clear 25 1013 53 10000 2.06 250 07:45 12.08.2022
30 Clear 28 1013 47 10000 0.51 0 03:56 12.08.2022
31 Clouds 30 1015 42 8000 2.06 40 00:31 12.08.2022
32 Clouds 31 1015 40 8000 2.06 10 23:52 11.08.2022
33 Clouds 32 1014 37 8000 3.09 30 22:42 11.08.2022
34 Clouds 34 1014 31 8000 3.6 10 21:52 11.08.2022
35 Clouds 34 1013 31 8000 4.12 360 21:23 11.08.2022
36 Clouds 36 1013 26 8000 2.06 320 20:30 11.08.2022
37 Clouds 38 1012 23 8000 3.09 330 19:33 11.08.2022
38 Clouds 37 1012 25 8000 3.09 340 18:41 11.08.2022
39 Clouds 36 1013 30 8000 1.03 0 16:46 11.08.2022
40 Clouds 34 1014 33 8000 2.57 330 15:42 11.08.2022
41 Clouds 34 1014 33 8000 2.57 330 15:42 11.08.2022
42 Clear 32 1014 37 10000 2.57 70 14:31 11.08.2022
43 Clear 26 1015 53 10000 1.54 0 11:53 11.08.2022
44 Clear 20 1015 73 10000 2.06 250 08:48 11.08.2022
45 Clear 22 1014 60 10000 2.57 260 05:44 11.08.2022
46 Clear 27 1014 47 10000 1.54 30 02:26 11.08.2022
47 Clear 31 1014 35 10000 5.14 360 22:55 10.08.2022
48 Clear 33 1013 29 10000 3.09 340 21:45 10.08.2022
49 Clear 34 1013 31 10000 3.09 330 20:56 10.08.2022
50 Clear 34 1013 33 10000 3.09 350 20:24 10.08.2022
51 Clear 35 1013 31 10000 2.06 0 18:46 10.08.2022
52 Clear 36 1014 34 10000 2.06 0 17:26 10.08.2022
53 Clear 30 1015 45 8000 2.06 0 14:25 10.08.2022
54 Clear 26 1016 57 8000 1.54 0 12:54 10.08.2022
55 Clear 21 1016 73 8000 3.09 260 10:31 10.08.2022
56 Clear 19 1015 77 8000 3.09 240 08:37 10.08.2022
57 Clear 20 1014 73 8000 2.57 250 07:23 10.08.2022
58 Clear 21 1015 68 8000 2.57 240 04:50 10.08.2022
59 Clear 25 1016 53 8000 2.57 40 00:50 10.08.2022
60 Clear 27 1016 47 8000 4.12 40 23:29 09.08.2022
61 Clear 31 1015 37 10000 4.63 340 21:41 09.08.2022
62 Clear 33 1014 29 8000 4.63 350 21:22 09.08.2022
63 Clear 36 1014 30 8000 2.06 0 18:56 09.08.2022
64 Clear 34 1014 33 8000 2.57 290 17:31 09.08.2022
65 Clear 34 1014 36 8000 2.06 0 16:46 09.08.2022
66 Clear 33 1014 38 8000 2.06 0 16:22 09.08.2022
67 Clear 31 1015 42 8000 2.06 0 14:50 09.08.2022
68 Clear 24 1016 64 8000 1.54 0 11:29 09.08.2022
69 Clear 19 1016 82 8000 2.57 240 08:52 09.08.2022
70 Clear 19 1016 82 8000 3.09 240 07:58 09.08.2022
71 Clear 20 1015 73 8000 3.09 250 05:24 09.08.2022
72 Clear 26 1016 50 10000 2.57 330 00:36 09.08.2022
73 Clear 27 1016 50 10000 4.12 350 23:24 08.08.2022
74 Clear 29 1014 42 10000 6.17 360 22:40 08.08.2022
75 Clear 31 1014 37 10000 6.69 360 21:44 08.08.2022
76 Clear 35 1013 24 10000 4.63 350 20:39 08.08.2022
77 Clear 36 1013 24 10000 4.63 340 19:35 08.08.2022
78 Clouds 36 1013 24 10000 3.6 350 18:18 08.08.2022
79 Clouds 35 1014 28 10000 4.12 320 15:54 08.08.2022
80 Clouds 34 1014 31 10000 2.57 0 15:36 08.08.2022
81 Clear 28 1016 51 10000 1.54 0 12:30 08.08.2022
82 Clear 24 1017 69 10000 0.51 0 10:33 08.08.2022
83 Clear 20 1016 77 10000 3.09 240 07:59 08.08.2022
84 Clear 22 1017 64 10000 3.09 230 04:31 08.08.2022
85 Clear 27 1017 44 10000 2.57 80 00:33 08.08.2022
86 Clear 34 1015 24 10000 4.12 340 21:42 07.08.2022
87 Clear 34 1015 24 10000 4.12 340 21:19 07.08.2022
88 Clear 36 1014 19 10000 3.6 330 20:23 07.08.2022
89 Clear 37 1014 18 10000 3.6 320 19:52 07.08.2022
90 Clear 36 1014 19 10000 3.6 320 19:22 07.08.2022
91 Clear 36 1015 23 10000 2.57 360 17:31 07.08.2022
92 Clear 36 1015 23 10000 3.6 340 16:52 07.08.2022
93 Clear 34 1016 31 10000 3.09 310 15:39 07.08.2022
94 Clear 31 1017 48 10000 2.06 0 13:58 07.08.2022
95 Clear 28 1018 54 10000 3.09 260 12:41 07.08.2022
96 Clear 23 1018 68 10000 2.57 260 10:51 07.08.2022
97 Clear 22 1018 73 10000 3.6 240 10:20 07.08.2022
98 Clouds 24 1016 60 10000 3.6 240 04:37 07.08.2022
99 Clouds 27 1017 47 10000 2.57 240 02:25 07.08.2022
100 Clouds 35 1015 26 10000 4.63 360 22:39 06.08.2022
101 Clouds 35 1015 26 10000 4.63 360 22:18 06.08.2022
102 Clouds 40 1014 16 10000 2.57 360 19:46 06.08.2022
103 Clouds 40 1014 16 10000 3.09 330 18:49 06.08.2022
104 Clouds 40 1015 17 10000 3.09 330 17:45 06.08.2022
105 Clouds 40 1015 17 10000 2.06 340 16:29 06.08.2022
106 Clear 35 1016 31 10000 1.54 0 13:51 06.08.2022
107 Clear 31 1016 40 10000 1.54 0 12:38 06.08.2022
108 Clear 29 1016 48 10000 1.54 30 11:21 06.08.2022
109 Clear 24 1016 60 10000 1.54 270 09:41 06.08.2022
110 Clear 23 1015 64 10000 2.06 220 07:28 06.08.2022
111 Clear 29 1016 39 10000 1.54 50 01:47 06.08.2022
112 Clear 35 1014 29 10000 4.12 10 22:36 05.08.2022
113 Clouds 38 1013 19 10000 4.63 350 21:18 05.08.2022
114 Clouds 41 1013 13 10000 3.6 330 19:20 05.08.2022
115 Clouds 41 1013 11 10000 3.6 320 18:44 05.08.2022
116 Clear 40 1013 21 10000 2.57 350 16:53 05.08.2022
117 Clear 39 1013 22 10000 2.57 300 15:55 05.08.2022
118 Clear 37 1014 28 10000 2.57 340 14:54 05.08.2022
119 Clear 35 1014 29 10000 1.54 0 13:39 05.08.2022
120 Clear 35 1014 29 10000 1.54 0 13:19 05.08.2022
121 Clear 31 1015 40 10000 1.54 0 11:58 05.08.2022
122 Clouds 27 1014 54 10000 1.03 0 10:24 05.08.2022
123 Clear 22 1013 64 10000 1.54 270 07:57 05.08.2022
124 Clear 23 1014 60 10000 2.57 250 04:48 05.08.2022
125 Clouds 31 1014 35 10000 2.57 340 23:49 04.08.2022
126 Clouds 37 1012 22 10000 4.12 320 21:37 04.08.2022
127 Clouds 37 1012 22 10000 4.12 320 21:18 04.08.2022
128 Clouds 39 1011 19 10000 4.12 340 20:38 04.08.2022
129 Clouds 40 1011 17 10000 4.63 340 19:00 04.08.2022
130 Clouds 41 1011 16 10000 2.06 30 18:34 04.08.2022
131 Clouds 40 1012 18 10000 2.57 0 15:59 04.08.2022
132 Clouds 34 1012 31 10000 3.09 350 13:34 04.08.2022
133 Clouds 30 1013 45 10000 2.06 90 11:42 04.08.2022
134 Clouds 25 1013 65 10000 1.03 0 10:24 04.08.2022
135 Clouds 21 1013 73 10000 2.06 260 07:49 04.08.2022
136 Clouds 27 1013 47 10000 2.57 250 03:29 04.08.2022
137 Clouds 30 1014 37 10000 1.54 80 01:42 04.08.2022
138 Clouds 32 1014 33 10000 3.09 20 23:41 03.08.2022
139 Clouds 37 1012 23 10000 5.14 350 21:34 03.08.2022
140 Clouds 40 1011 18 10000 4.63 340 20:22 03.08.2022
141 Clouds 41 1011 17 10000 4.12 340 20:22 03.08.2022
142 Clouds 41 1009 11 10000 7.6 336 19:28 03.08.2022
143 Clouds 42 1012 12 10000 2.57 0 17:20 03.08.2022
144 Clouds 40 1012 24 10000 3.09 310 16:23 03.08.2022
145 Clouds 36 1013 34 10000 4.12 320 14:23 03.08.2022
146 Clouds 31 1014 42 10000 2.57 280 11:46 03.08.2022
147 Clouds 25 1013 61 8000 2.57 260 07:45 03.08.2022
148 Clouds 29 1012 48 8000 4.12 250 04:46 03.08.2022
149 Clouds 32 1012 33 8000 2.57 260 03:26 03.08.2022
150 Clouds 36 1013 23 8000 3.09 40 00:58 03.08.2022
151 Clouds 37 1013 23 8000 4.12 250 22:49 02.08.2022
152 Clouds 39 1013 19 6000 4.63 300 21:52 02.08.2022
153 Dust 39 1012 19 2000 5.66 290 20:37 02.08.2022
154 Clouds 43 1011 12 10000 3.09 110 18:42 02.08.2022
155 Clouds 45 1011 11 10000 2.06 0 15:36 02.08.2022
156 Clouds 38 1013 18 10000 1.54 40 11:32 02.08.2022
157 Clouds 34 1013 21 10000 2.06 30 09:18 02.08.2022
158 Clouds 34 1012 21 10000 2.06 170 07:53 02.08.2022
159 Clear 35 1012 20 10000 2.57 150 06:43 02.08.2022
160 Clear 34 1013 22 10000 1.03 0 04:54 02.08.2022
161 Clouds 40 1014 15 10000 2.06 0 23:38 01.08.2022
162 Clouds 40 1013 15 8000 5.66 30 22:24 01.08.2022
163 Dust 41 1012 14 3000 6.69 350 20:52 01.08.2022
164 Clouds 44 1012 13 8000 4.12 10 19:25 01.08.2022
165 Dust 43 1012 13 5000 6.17 70 18:40 01.08.2022
166 Clouds 45 1012 9 10000 2.06 150 16:53 01.08.2022
167 Clouds 46 1012 11 10000 2.57 0 15:52 01.08.2022
168 Clouds 45 1012 11 10000 3.6 360 15:30 01.08.2022
169 Clouds 45 1013 12 10000 2.06 0 14:43 01.08.2022
170 Clouds 41 1014 20 8000 2.06 360 12:47 01.08.2022
171 Clouds 32 1014 31 8000 2.06 90 09:43 01.08.2022
172 Clouds 28 1014 39 8000 2.06 70 08:34 01.08.2022
173 Clouds 32 1014 35 8000 0.51 0 04:56 01.08.2022
174 Clouds 34 1014 31 8000 1.54 130 03:49 01.08.2022
175 Clouds 36 1016 26 8000 5.14 220 00:36 01.08.2022
176 Clouds 40 1013 18 8000 4.12 360 22:40 31.07.2022
177 Clouds 41 1012 16 10000 5.14 360 21:29 31.07.2022
178 Clouds 44 1011 10 10000 3.6 50 19:56 31.07.2022
179 Clouds 46 1011 8 10000 3.09 10 18:35 31.07.2022
180 Clouds 45 1013 9 10000 4.63 30 15:45 31.07.2022
181 Clouds 44 1014 10 10000 2.06 0 13:44 31.07.2022
182 Clouds 37 1014 22 10000 2.06 70 11:59 31.07.2022
183 Clouds 31 1014 30 10000 2.06 80 09:55 31.07.2022
184 Clear 26 1014 47 10000 0.51 0 07:59 31.07.2022
185 Clear 29 1015 39 10000 1.54 250 03:28 31.07.2022
186 Clouds 34 1016 31 10000 1.54 40 23:46 30.07.2022
187 Clouds 37 1014 26 10000 3.6 350 22:19 30.07.2022
188 Clouds 38 1013 23 10000 3.6 360 21:49 30.07.2022
189 Clouds 40 1012 21 10000 5.14 340 20:57 30.07.2022
190 Clouds 40 1012 21 10000 5.14 340 20:57 30.07.2022
191 Clouds 43 1011 17 10000 5.14 360 19:59 30.07.2022
192 Clouds 45 1011 13 10000 4.12 320 18:53 30.07.2022
193 Clouds 45 1011 11 10000 3.6 350 17:44 30.07.2022
194 Clouds 42 1012 20 10000 2.57 340 15:54 30.07.2022
195 Clouds 41 1013 24 10000 3.6 340 15:24 30.07.2022
196 Clear 34 1014 38 10000 2.57 10 13:19 30.07.2022
197 Clear 32 1014 43 10000 1.54 0 12:19 30.07.2022
198 Clear 28 1014 54 10000 1.03 0 10:31 30.07.2022
199 Clear 28 1014 54 10000 1.03 0 10:31 30.07.2022
200 Clear 27 1014 57 10000 2.06 60 09:56 30.07.2022
201 Clear 25 1014 61 10000 2.06 80 07:55 30.07.2022
202 Clear 27 1014 54 10000 1.03 0 03:55 30.07.2022
203 Clear 29 1015 48 10000 1.54 60 02:25 30.07.2022
204 Clouds 33 1014 38 10000 4.63 20 22:46 29.07.2022
205 Clouds 36 1014 28 10000 2.06 340 21:24 29.07.2022
206 Clouds 37 1013 26 10000 2.57 0 20:41 29.07.2022
207 Clouds 37 1013 26 10000 2.06 350 18:26 29.07.2022
208 Clouds 33 1014 38 10000 2.06 0 15:38 29.07.2022
209 Clear 30 1015 48 10000 2.06 0 13:45 29.07.2022
210 Clear 25 1015 65 10000 2.06 0 11:30 29.07.2022
211 Clouds 20 1015 83 8000 3.09 240 08:50 29.07.2022
212 Clouds 20 1014 83 8000 3.6 240 08:20 29.07.2022
213 Clear 26 1015 53 8000 1.03 0 02:29 29.07.2022
214 Clouds 30 1014 37 10000 4.63 360 23:18 28.07.2022
215 Clouds 34 1012 27 10000 3.09 340 21:29 28.07.2022
216 Clouds 35 1012 26 10000 3.6 350 20:45 28.07.2022
217 Clouds 36 1012 24 10000 2.06 0 19:44 28.07.2022
218 Clouds 36 1012 24 10000 2.06 0 19:25 28.07.2022
219 Clear 35 1012 26 10000 2.06 0 17:44 28.07.2022
220 Clear 35 1013 26 10000 1.54 0 16:59 28.07.2022
221 Clear 34 1013 27 10000 3.09 350 16:36 28.07.2022
222 Clear 29 1014 48 10000 2.06 0 13:35 28.07.2022
223 Clear 25 1014 65 10000 2.57 260 11:43 28.07.2022
224 Clear 20 1013 77 10000 3.09 250 06:59 28.07.2022
225 Clear 22 1014 64 10000 3.09 240 05:33 28.07.2022
226 Clear 24 1014 57 10000 2.57 240 03:53 28.07.2022
227 Clear 31 1014 35 10000 4.12 30 22:56 27.07.2022
228 Clouds 36 1013 20 10000 4.63 360 21:29 27.07.2022
229 Clouds 38 1013 14 10000 3.6 340 19:45 27.07.2022
230 Clouds 40 1013 12 10000 2.06 340 18:41 27.07.2022
231 Clouds 39 1014 14 10000 3.09 340 16:31 27.07.2022
232 Clouds 38 1015 14 10000 2.57 0 15:40 27.07.2022
233 Clouds 37 1016 14 10000 2.06 0 14:41 27.07.2022
234 Clouds 35 1017 16 10000 3.09 30 13:29 27.07.2022
235 Clear 28 1017 26 10000 1.54 300 09:27 27.07.2022
236 Clouds 25 1017 29 10000 0.51 0 07:40 27.07.2022
237 Clear 31 1019 19 10000 3.09 40 02:52 27.07.2022
238 Clouds 35 1017 18 8000 5.14 30 22:47 26.07.2022
239 Clouds 38 1015 17 10000 6.69 10 21:25 26.07.2022
240 Clouds 39 1014 17 10000 7.2 360 20:49 26.07.2022
241 Clouds 43 1014 13 10000 3.09 30 18:46 26.07.2022
242 Clouds 43 1014 13 10000 4.63 20 18:28 26.07.2022
243 Clouds 43 1015 14 10000 4.63 50 16:54 26.07.2022
244 Clouds 42 1016 15 10000 2.06 0 15:43 26.07.2022
245 Clear 39 1017 18 10000 3.09 50 14:00 26.07.2022
246 Clear 35 1018 23 10000 2.06 70 11:47 26.07.2022
247 Clear 35 1018 23 10000 1.54 0 11:47 26.07.2022
248 Clear 30 1017 28 10000 1.54 250 09:35 26.07.2022
249 Clear 29 1017 30 10000 1.03 0 07:56 26.07.2022
250 Clouds 34 1018 22 8000 1.54 20 01:44 26.07.2022
251 Thunderstorm 37 1017 19 8000 6.17 30 23:37 25.07.2022
252 Clouds 39 1016 17 10000 5.14 10 22:33 25.07.2022
253 Clouds 40 1015 16 10000 6.69 10 21:43 25.07.2022
254 Clouds 42 1014 15 10000 5.66 10 20:42 25.07.2022
255 Clouds 44 1014 13 10000 4.63 350 19:51 25.07.2022
256 Clouds 45 1014 13 10000 1.54 340 18:23 25.07.2022
257 Clouds 44 1014 14 10000 2.57 0 17:34 25.07.2022
258 Clouds 44 1015 15 10000 1.54 0 16:40 25.07.2022
259 Clouds 39 1017 21 8000 2.06 70 12:47 25.07.2022
260 Clouds 35 1017 26 8000 2.06 80 10:42 25.07.2022
261 Clouds 31 1016 30 8000 1.03 0 06:52 25.07.2022
262 Clouds 38 1017 19 8000 3.09 60 23:57 24.07.2022
263 Clouds 39 1016 18 8000 3.6 40 23:22 24.07.2022
264 Clouds 39 1016 19 8000 4.12 40 22:41 24.07.2022
265 Clouds 40 1015 20 8000 0.51 0 21:30 24.07.2022
266 Clouds 40 1014 17 8000 3.09 230 20:57 24.07.2022
267 Clouds 41 1014 15 8000 2.57 190 20:32 24.07.2022
268 Clouds 42 1013 14 8000 2.57 290 18:59 24.07.2022
269 Clouds 42 1014 13 5000 9.26 20 16:53 24.07.2022
270 Clouds 44 1014 13 8000 3.09 320 15:53 24.07.2022
271 Clouds 44 1014 15 8000 2.06 0 14:41 24.07.2022
272 Clouds 42 1015 17 8000 2.06 30 13:43 24.07.2022
273 Clouds 39 1015 22 8000 2.57 60 12:19 24.07.2022
274 Clouds 37 1015 23 8000 2.57 80 11:28 24.07.2022
275 Clouds 31 1015 30 8000 2.57 170 09:33 24.07.2022
276 Clouds 30 1015 30 8000 1.54 160 07:53 24.07.2022
277 Clouds 30 1014 30 8000 0.51 0 06:39 24.07.2022
278 Clouds 35 1015 21 8000 2.06 20 02:41 24.07.2022
279 Clouds 38 1015 20 8000 4.63 40 22:37 23.07.2022
280 Clouds 40 1014 22 8000 4.63 360 20:47 23.07.2022
281 Clouds 42 1014 13 8000 3.09 10 18:55 23.07.2022
282 Clouds 42 1014 14 8000 3.09 340 17:48 23.07.2022
283 Clouds 43 1014 14 8000 3.09 350 17:24 23.07.2022
284 Clouds 40 1015 18 8000 4.12 330 15:55 23.07.2022
285 Clouds 39 1015 19 8000 5.14 300 15:21 23.07.2022
286 Clouds 40 1015 17 8000 5.14 300 14:50 23.07.2022
287 Clouds 39 1016 18 8000 3.09 310 13:54 23.07.2022
288 Clouds 37 1016 22 8000 2.06 80 11:47 23.07.2022
289 Clouds 32 1016 29 8000 3.09 110 10:28 23.07.2022
290 Clouds 30 1015 30 8000 2.06 80 09:26 23.07.2022
291 Clouds 31 1015 27 8000 2.06 0 06:40 23.07.2022
292 Clouds 32 1015 25 8000 0.51 0 03:37 23.07.2022
293 Clouds 37 1016 18 6000 1.54 0 23:59 22.07.2022
294 Clouds 37 1014 20 5000 6.69 340 21:28 22.07.2022
295 Clouds 43 1012 10 8000 2.57 240 19:58 22.07.2022
296 Clouds 41 1010 8 10000 6.42 250 18:41 22.07.2022
297 Clouds 43 1013 10 10000 3.09 140 17:38 22.07.2022
298 Clouds 44 1014 10 10000 1.54 210 15:35 22.07.2022
299 Clouds 42 1014 12 10000 2.57 90 12:41 22.07.2022
300 Clouds 31 1014 30 10000 2.06 80 09:52 22.07.2022
301 Clouds 29 1014 34 10000 2.57 90 09:20 22.07.2022
302 Clouds 28 1013 36 8000 3.09 90 07:30 22.07.2022
303 Clouds 31 1014 30 8000 3.6 150 04:19 22.07.2022
304 Clouds 34 1017 27 8000 4.63 240 23:27 21.07.2022
305 Clouds 37 1015 23 8000 5.66 350 21:37 21.07.2022
306 Clouds 42 1013 14 10000 3.09 320 19:35 21.07.2022
307 Clouds 43 1013 14 10000 3.09 270 18:29 21.07.2022
308 Clouds 42 1014 15 10000 3.6 290 17:20 21.07.2022
309 Clouds 41 1014 16 10000 2.57 340 15:39 21.07.2022
310 Clouds 40 1015 18 10000 3.09 340 14:44 21.07.2022
311 Clouds 36 1016 26 10000 1.54 0 13:22 21.07.2022
312 Clouds 36 1016 26 10000 1.54 0 11:42 21.07.2022
313 Clouds 31 1015 35 10000 1.03 0 09:44 21.07.2022
314 Clouds 28 1015 39 10000 2.06 100 08:53 21.07.2022
315 Clouds 30 1014 35 10000 2.57 130 07:50 21.07.2022
316 Clouds 29 1014 39 10000 0.51 0 06:25 21.07.2022
317 Clouds 33 1016 29 10000 3.6 130 01:54 21.07.2022
318 Clouds 36 1016 24 10000 2.06 20 22:24 20.07.2022
319 Clouds 36 1016 23 10000 2.57 350 21:49 20.07.2022
320 Clouds 36 1015 24 10000 2.06 340 20:45 20.07.2022
321 Clouds 38 1015 20 10000 6.69 130 19:46 20.07.2022
322 Clouds 40 1015 20 10000 7.72 160 18:53 20.07.2022
323 Clouds 40 1014 20 10000 8.23 190 18:30 20.07.2022
324 Clouds 41 1014 18 10000 4.63 240 16:49 20.07.2022
325 Clouds 40 1014 22 10000 3.09 50 15:32 20.07.2022
326 Clouds 38 1015 25 10000 1.54 0 14:35 20.07.2022
327 Clouds 32 1016 40 10000 3.6 280 12:41 20.07.2022
328 Clouds 31 1016 40 10000 1.54 360 10:28 20.07.2022
329 Clouds 29 1014 42 10000 2.06 80 05:44 20.07.2022
330 Clouds 33 1016 31 10000 3.09 180 00:58 20.07.2022
331 Clouds 32 1017 35 10000 3.09 220 00:40 20.07.2022
332 Thunderstorm 35 1016 28 6000 4.63 270 22:35 19.07.2022
333 Thunderstorm 35 1016 28 6000 4.12 280 21:53 19.07.2022
334 Sand 37 1014 25 2000 8.75 190 20:49 19.07.2022
335 Clouds 42 1013 20 10000 5.66 360 19:22 19.07.2022
336 Clouds 42 1013 20 10000 3.09 0 18:35 19.07.2022
337 Clouds 42 1014 20 10000 2.57 40 17:53 19.07.2022
338 Clouds 39 1015 30 10000 2.57 340 15:26 19.07.2022
339 Clouds 35 1017 38 10000 1.03 0 12:44 19.07.2022
340 Clouds 29 1017 51 10000 1.03 0 11:32 19.07.2022
341 Clouds 26 1017 57 10000 1.54 270 09:51 19.07.2022
342 Clouds 24 1017 60 10000 2.06 240 08:42 19.07.2022
343 Clouds 25 1016 57 10000 2.57 240 07:19 19.07.2022
344 Clouds 25 1016 57 10000 2.06 260 05:50 19.07.2022
345 Clouds 26 1016 57 10000 3.09 260 05:18 19.07.2022
346 Clouds 29 1017 48 10000 1.03 0 02:37 19.07.2022
347 Clouds 31 1017 42 8000 4.12 20 23:52 18.07.2022
348 Clouds 32 1017 40 8000 4.12 30 23:19 18.07.2022
349 Clouds 34 1016 38 8000 5.14 20 22:26 18.07.2022
350 Clouds 36 1015 34 8000 1.03 0 21:20 18.07.2022
351 Clouds 36 1015 32 8000 4.63 230 20:22 18.07.2022
352 Clouds 36 1016 34 10000 4.12 250 18:29 18.07.2022
353 Clouds 36 1016 34 10000 3.09 0 16:30 18.07.2022
354 Clouds 35 1016 38 10000 2.57 300 15:26 18.07.2022
355 Clear 31 1017 48 10000 1.03 0 13:32 18.07.2022
356 Clear 27 1017 61 8000 1.03 0 11:43 18.07.2022
357 Clear 24 1017 69 8000 3.09 280 09:55 18.07.2022
358 Clear 24 1017 69 8000 3.09 280 09:55 18.07.2022
359 Clear 23 1016 68 8000 2.57 230 07:58 18.07.2022
360 Clear 23 1016 68 8000 3.6 260 05:25 18.07.2022
361 Clouds 32 1016 45 8000 3.6 30 22:57 17.07.2022
362 Clouds 34 1016 40 8000 4.63 30 22:31 17.07.2022
363 Clouds 36 1015 36 8000 4.12 360 21:39 17.07.2022
364 Clouds 36 1015 34 8000 4.12 340 20:46 17.07.2022
365 Clouds 39 1014 29 8000 4.12 300 19:50 17.07.2022
366 Clouds 39 1014 29 8000 5.66 250 19:24 17.07.2022
367 Clouds 38 1014 30 8000 4.12 250 17:54 17.07.2022
368 Clouds 39 1014 27 8000 3.09 260 17:36 17.07.2022
369 Clouds 38 1014 30 8000 2.57 0 16:33 17.07.2022
370 Clouds 38 1015 30 8000 3.6 260 15:50 17.07.2022
371 Clouds 35 1015 36 8000 2.06 0 13:51 17.07.2022
372 Clouds 33 1016 43 8000 1.54 0 12:43 17.07.2022
373 Clouds 26 1016 61 8000 1.54 270 10:20 17.07.2022
374 Clouds 23 1014 68 8000 2.57 260 06:59 17.07.2022
375 Clouds 28 1016 51 8000 2.57 0 02:35 17.07.2022
376 Clouds 34 1015 27 8000 2.57 100 23:26 16.07.2022
377 Clouds 33 1015 33 7000 3.6 120 22:33 16.07.2022
378 Clouds 40 1012 25 8000 4.12 320 20:40 16.07.2022
379 Clouds 42 1012 20 8000 3.6 300 18:58 16.07.2022
380 Clouds 43 1012 22 8000 2.06 280 17:47 16.07.2022
381 Clouds 39 1012 29 10000 3.09 340 15:54 16.07.2022
382 Clear 31 1014 51 10000 1.54 10 12:37 16.07.2022
383 Clear 26 1014 69 10000 0.51 0 10:28 16.07.2022
384 Clear 23 1014 73 10000 2.06 270 09:25 16.07.2022
385 Clear 22 1014 78 10000 1.54 270 08:41 16.07.2022
386 Clear 23 1013 68 10000 1.54 270 06:59 16.07.2022
387 Clear 25 1014 61 10000 2.06 260 03:33 16.07.2022
388 Clouds 28 1015 54 10000 5.14 250 00:45 16.07.2022
389 Clouds 32 1013 45 8000 4.63 260 22:56 15.07.2022
390 Clouds 34 1013 38 8000 7.2 240 22:24 15.07.2022
391 Thunderstorm 37 1012 25 5000 8.23 130 20:41 15.07.2022
392 Clouds 42 1010 20 10000 5.14 330 19:34 15.07.2022
393 Clouds 42 1011 20 10000 3.6 290 18:23 15.07.2022
394 Clouds 43 1011 18 10000 3.6 300 16:53 15.07.2022
395 Clouds 38 1012 28 10000 2.06 10 14:19 15.07.2022
396 Clouds 33 1013 46 10000 1.03 0 12:28 15.07.2022
397 Clouds 28 1014 61 10000 1.03 0 10:52 15.07.2022
398 Clouds 23 1013 73 10000 3.09 250 07:48 15.07.2022
399 Clouds 28 1013 54 10000 1.54 260 03:41 15.07.2022
400 Clouds 34 1014 29 8000 2.06 140 00:40 15.07.2022
401 Clouds 39 1013 14 8000 2.57 100 22:56 14.07.2022
402 Thunderstorm 37 1014 19 7000 6.17 120 22:19 14.07.2022
403 Thunderstorm 36 1015 23 5000 9.77 140 21:39 14.07.2022
404 Thunderstorm 36 1015 24 4000 7.72 130 21:19 14.07.2022
405 Thunderstorm 40 1012 25 8000 4.63 320 20:42 14.07.2022
406 Thunderstorm 40 1012 25 8000 4.63 320 20:18 14.07.2022
407 Clouds 45 1012 14 10000 4.12 300 17:59 14.07.2022
408 Clouds 43 1013 15 10000 4.12 300 16:19 14.07.2022
409 Clouds 41 1013 20 10000 2.57 340 14:56 14.07.2022
410 Clouds 40 1014 22 10000 2.06 350 13:51 14.07.2022
411 Clouds 36 1015 30 10000 2.57 360 12:34 14.07.2022
412 Clouds 35 1015 31 10000 3.09 50 11:26 14.07.2022
413 Clouds 33 1015 35 10000 3.6 90 10:51 14.07.2022
414 Clouds 27 1015 61 10000 3.6 100 08:52 14.07.2022
415 Clouds 27 1015 57 10000 2.06 240 04:44 14.07.2022
416 Clouds 30 1017 48 10000 3.6 250 01:19 14.07.2022
417 Clouds 30 1017 48 10000 3.6 250 00:50 14.07.2022
418 Clouds 34 1017 40 8000 2.57 270 22:30 13.07.2022
419 Clouds 37 1016 23 8000 7.2 220 21:42 13.07.2022
420 Clouds 40 1014 17 8000 2.06 330 20:38 13.07.2022
421 Thunderstorm 42 1013 13 5000 10.8 80 18:36 13.07.2022
422 Clouds 44 1013 15 10000 3.6 280 17:31 13.07.2022
423 Clouds 44 1013 15 10000 3.6 280 17:31 13.07.2022
424 Clouds 44 1014 17 10000 3.09 310 16:19 13.07.2022
425 Clouds 40 1015 25 10000 2.57 330 14:46 13.07.2022
426 Clouds 29 1016 54 8000 1.54 0 11:36 13.07.2022
427 Clouds 27 1016 57 8000 1.03 0 10:44 13.07.2022
428 Clouds 24 1016 64 8000 2.06 260 09:49 13.07.2022
429 Clouds 23 1016 64 8000 2.57 250 09:20 13.07.2022
430 Clear 26 1015 53 8000 2.06 240 05:21 13.07.2022
431 Clouds 28 1016 51 8000 4.63 240 00:49 13.07.2022
432 Clouds 32 1015 40 8000 2.57 330 22:48 12.07.2022
433 Clouds 34 1014 36 8000 4.12 330 21:49 12.07.2022
434 Clouds 37 1013 28 8000 4.12 340 20:54 12.07.2022
435 Clouds 38 1013 23 8000 5.66 280 20:36 12.07.2022
436 Clouds 40 1012 21 8000 4.63 270 18:53 12.07.2022
437 Clouds 41 1012 20 8000 5.66 260 17:29 12.07.2022
438 Clouds 38 1012 25 8000 4.12 300 15:35 12.07.2022
439 Clouds 33 1013 35 8000 3.6 300 13:43 12.07.2022
440 Clouds 30 1013 45 8000 1.54 320 11:55 12.07.2022
441 Clouds 27 1013 54 8000 2.57 280 10:46 12.07.2022
442 Clouds 24 1012 60 8000 3.6 270 09:18 12.07.2022
443 Clouds 26 1011 50 8000 1.54 0 07:55 12.07.2022
444 Clouds 25 1011 53 8000 1.54 270 05:53 12.07.2022
445 Clouds 25 1011 53 8000 1.54 280 05:34 12.07.2022
446 Clouds 28 1012 47 8000 2.57 250 01:36 12.07.2022
447 Clouds 32 1011 35 8000 5.66 260 22:50 11.07.2022
448 Clouds 37 1009 20 8000 5.66 310 21:37 11.07.2022
449 Clouds 40 1008 17 8000 6.69 310 20:33 11.07.2022
450 Clouds 42 1007 12 8000 6.69 280 19:28 11.07.2022
451 Clouds 44 1008 8 8000 5.66 280 18:30 11.07.2022
452 Clouds 44 1008 10 8000 2.57 320 16:34 11.07.2022
453 Clouds 43 1009 10 8000 3.09 360 15:33 11.07.2022
454 Clouds 41 1010 14 10000 2.06 0 13:27 11.07.2022
455 Clouds 35 1011 18 8000 1.54 40 11:33 11.07.2022
456 Clouds 30 1010 25 8000 1.54 60 10:18 11.07.2022
457 Clouds 29 1010 24 8000 1.54 80 09:40 11.07.2022
458 Clouds 26 1011 27 8000 1.54 70 08:33 11.07.2022
459 Clear 31 1013 20 8000 3.09 240 02:59 11.07.2022
460 Clouds 36 1013 19 8000 3.09 50 00:18 11.07.2022
461 Clouds 38 1012 16 8000 4.12 30 22:52 10.07.2022
462 Clouds 41 1011 9 8000 4.63 360 21:20 10.07.2022
463 Clouds 43 1010 7 8000 4.12 350 20:41 10.07.2022
464 Clouds 45 1011 6 8000 4.12 340 19:40 10.07.2022
465 Clouds 45 1011 6 8000 3.09 0 18:43 10.07.2022
466 Clouds 46 1012 8 8000 2.06 310 17:36 10.07.2022
467 Clouds 44 1012 8 8000 3.09 340 16:41 10.07.2022
468 Clouds 44 1013 7 8000 2.57 0 15:24 10.07.2022
469 Clouds 43 1014 13 8000 1.54 0 13:48 10.07.2022
470 Clouds 40 1014 14 10000 1.03 0 12:26 10.07.2022
471 Clear 32 1014 22 8000 1.03 0 09:57 10.07.2022
472 Clear 29 1014 23 8000 1.54 160 08:44 10.07.2022
473 Clouds 29 1014 21 8000 1.03 0 07:30 10.07.2022
474 Clouds 35 1016 17 8000 1.54 180 01:31 10.07.2022
475 Clouds 39 1015 13 8000 3.6 10 22:43 09.07.2022
476 Clouds 40 1015 12 8000 4.63 360 22:19 09.07.2022
477 Clouds 43 1013 10 10000 5.14 360 20:45 09.07.2022
478 Clouds 45 1013 10 10000 3.09 0 18:37 09.07.2022
479 Clouds 45 1013 10 10000 3.6 340 17:45 09.07.2022
480 Clouds 45 1014 10 10000 2.57 30 16:44 09.07.2022
481 Clear 45 1015 11 10000 2.57 10 15:40 09.07.2022
482 Clear 43 1016 13 10000 2.57 0 14:36 09.07.2022
483 Clear 42 1016 13 10000 2.06 20 13:50 09.07.2022
484 Clear 40 1016 15 10000 2.57 70 12:45 09.07.2022
485 Clear 37 1017 20 10000 1.54 0 11:22 09.07.2022
486 Clear 33 1017 24 10000 1.54 80 10:22 09.07.2022
487 Clear 28 1016 34 10000 2.06 80 07:45 09.07.2022
488 Clouds 30 1016 30 10000 0.51 0 04:59 09.07.2022
489 Clouds 33 1018 22 10000 2.06 190 02:33 09.07.2022
490 Clouds 39 1017 16 10000 2.57 330 22:54 08.07.2022
491 Clouds 41 1015 14 10000 5.66 360 21:58 08.07.2022
492 Clouds 43 1014 14 10000 6.17 360 20:41 08.07.2022
493 Clouds 44 1014 13 10000 4.63 340 19:53 08.07.2022
494 Clouds 45 1014 11 10000 2.57 0 18:24 08.07.2022
495 Clouds 45 1015 11 10000 2.06 0 16:40 08.07.2022
496 Clouds 43 1016 15 10000 2.06 350 14:53 08.07.2022
497 Clear 41 1017 17 10000 1.54 320 13:29 08.07.2022
498 Clear 36 1017 24 10000 1.54 30 11:42 08.07.2022
499 Clear 33 1018 25 10000 2.57 120 10:28 08.07.2022
500 Clear 26 1017 41 10000 1.03 0 08:33 08.07.2022
501 Clear 27 1017 36 10000 1.03 0 06:50 08.07.2022
502 Clouds 33 1019 24 10000 1.54 90 01:31 08.07.2022
503 Clouds 36 1018 23 8000 4.12 20 22:59 07.07.2022
504 Clouds 37 1018 22 8000 4.63 30 22:34 07.07.2022
505 Clouds 41 1016 18 8000 5.14 330 20:35 07.07.2022
506 Clouds 44 1016 16 10000 2.06 0 18:20 07.07.2022
507 Clouds 43 1016 17 10000 3.6 310 16:53 07.07.2022
508 Clear 38 1017 28 10000 2.57 360 14:35 07.07.2022
509 Clear 35 1018 34 10000 1.54 310 13:18 07.07.2022
510 Clear 33 1018 40 10000 1.54 0 12:24 07.07.2022
511 Clear 33 1018 40 10000 1.54 0 12:24 07.07.2022
512 Clear 32 1018 43 10000 1.54 300 11:45 07.07.2022
513 Clouds 31 1018 42 10000 1.03 0 11:24 07.07.2022
514 Clouds 29 1018 48 10000 1.03 0 10:41 07.07.2022
515 Clouds 28 1018 51 10000 1.03 0 10:23 07.07.2022
516 Clear 23 1017 56 10000 1.54 260 06:58 07.07.2022
517 Clear 28 1019 44 10000 1.54 270 01:51 07.07.2022
518 Clouds 30 1017 29 10000 4.45 17 23:36 06.07.2022
519 Clouds 33 1017 33 10000 4.63 20 23:18 06.07.2022
520 Clouds 33 1017 33 10000 4.63 20 22:52 06.07.2022
521 Clouds 34 1017 31 10000 5.14 20 22:34 06.07.2022
522 Clouds 38 1016 23 10000 2.57 340 20:36 06.07.2022
523 Clouds 40 1016 22 10000 2.06 0 19:35 06.07.2022
524 Clouds 39 1017 25 10000 2.06 0 17:32 06.07.2022
525 Clouds 36 1018 32 10000 1.54 350 15:59 06.07.2022
526 Clear 33 1019 38 10000 2.06 0 14:33 06.07.2022
527 Clear 29 1019 48 10000 2.06 60 12:31 06.07.2022
528 Clear 28 1019 47 10000 1.54 60 11:45 06.07.2022
529 Clear 22 1019 68 10000 1.54 250 10:18 06.07.2022
530 Clear 21 1018 64 10000 2.57 240 07:44 06.07.2022
531 Clear 20 1018 68 10000 1.54 260 07:19 06.07.2022
532 Clear 26 1019 50 10000 1.54 30 01:42 06.07.2022
533 Clouds 30 1018 39 8000 4.12 350 22:45 05.07.2022
534 Clouds 33 1018 33 8000 2.57 320 21:32 05.07.2022
535 Clouds 33 1018 33 8000 2.57 320 21:32 05.07.2022
536 Clouds 34 1017 33 8000 2.57 340 20:38 05.07.2022
537 Clouds 34 1017 33 8000 3.09 360 19:41 05.07.2022
538 Clouds 34 1018 33 8000 2.57 330 18:26 05.07.2022
539 Clouds 34 1018 36 8000 3.09 330 17:41 05.07.2022
540 Clouds 32 1018 40 8000 2.57 310 16:39 05.07.2022
541 Clouds 31 1018 45 8000 2.57 360 15:24 05.07.2022
542 Clear 28 1019 51 8000 2.06 310 13:47 05.07.2022
543 Clouds 25 1019 61 8000 2.06 280 12:41 05.07.2022
544 Clouds 21 1019 78 8000 2.57 260 10:46 05.07.2022
545 Clouds 20 1019 77 8000 2.57 250 10:25 05.07.2022
546 Clear 19 1018 77 8000 3.6 250 08:24 05.07.2022
547 Clear 19 1018 77 8000 3.6 250 07:21 05.07.2022
548 Clear 23 1017 60 8000 2.57 240 04:40 05.07.2022
549 Clear 24 1017 57 8000 2.57 250 02:48 05.07.2022
550 Clouds 29 1018 42 8000 3.09 30 23:42 04.07.2022
551 Clouds 30 1017 39 8000 4.12 20 22:59 04.07.2022
552 Clouds 33 1016 35 8000 4.12 360 22:20 04.07.2022
553 Clouds 35 1016 29 8000 2.57 0 20:59 04.07.2022
554 Clouds 35 1015 29 8000 2.57 320 20:38 04.07.2022
555 Clouds 35 1015 29 8000 2.57 320 20:18 04.07.2022
556 Clouds 35 1015 29 8000 1.54 0 19:43 04.07.2022
557 Clouds 35 1016 29 8000 2.06 310 19:24 04.07.2022
558 Clear 35 1016 29 8000 2.57 330 17:23 04.07.2022
559 Clouds 34 1017 33 8000 2.06 0 15:41 04.07.2022
560 Clear 30 1018 42 10000 2.06 0 14:21 04.07.2022
561 Clear 29 1018 45 10000 2.57 0 13:20 04.07.2022
562 Clear 27 1018 54 10000 1.03 0 11:43 04.07.2022
563 Clear 22 1018 64 10000 2.06 260 10:33 04.07.2022
564 Clear 20 1018 73 10000 2.06 270 09:33 04.07.2022
565 Clear 19 1018 72 10000 3.6 240 06:42 04.07.2022
566 Clear 24 1018 57 10000 3.09 230 02:59 04.07.2022
567 Clouds 27 1019 47 8000 4.63 30 23:53 03.07.2022
568 Clouds 27 1019 47 8000 4.63 30 23:53 03.07.2022
569 Clouds 29 1018 42 8000 2.57 300 22:48 03.07.2022
570 Clouds 32 1017 35 8000 2.06 360 20:46 03.07.2022
571 Clouds 32 1018 35 8000 2.06 300 19:59 03.07.2022
572 Clouds 32 1018 35 8000 3.09 290 19:25 03.07.2022
573 Clouds 33 1018 35 8000 2.06 0 18:30 03.07.2022
574 Clouds 34 1018 33 8000 2.57 0 17:41 03.07.2022
575 Clouds 30 1019 45 8000 1.54 0 15:28 03.07.2022
576 Clouds 29 1019 48 8000 1.54 0 14:53 03.07.2022
577 Clear 27 1019 54 10000 2.57 0 13:50 03.07.2022
578 Clear 26 1020 53 10000 1.03 0 12:49 03.07.2022
579 Clear 24 1019 60 10000 2.06 0 12:19 03.07.2022
580 Clear 23 1019 68 10000 1.03 0 10:54 03.07.2022
581 Clear 21 1019 73 10000 1.03 0 10:36 03.07.2022
582 Clear 18 1019 77 10000 2.57 240 07:38 03.07.2022
583 Clear 18 1019 77 10000 2.57 240 06:52 03.07.2022
584 Clear 23 1020 60 10000 2.57 320 00:41 03.07.2022
585 Clouds 25 1020 53 8000 3.6 330 23:38 02.07.2022
586 Clouds 26 1019 50 8000 5.14 310 22:31 02.07.2022
587 Clouds 30 1017 42 8000 7.72 270 20:31 02.07.2022
588 Clouds 32 1017 37 8000 4.12 280 19:49 02.07.2022
589 Clouds 33 1017 35 8000 1.54 0 18:36 02.07.2022
590 Clouds 32 1017 37 8000 3.09 0 17:39 02.07.2022
591 Clouds 32 1017 40 8000 2.06 0 16:30 02.07.2022
592 Clear 26 1017 53 8000 2.57 0 13:51 02.07.2022
593 Clouds 22 1017 73 8000 1.54 0 11:51 02.07.2022
594 Clouds 20 1018 83 6000 1.54 290 10:52 02.07.2022
595 Clouds 19 1017 88 6000 2.06 300 10:25 02.07.2022
596 Clouds 17 1017 88 4000 2.57 250 08:38 02.07.2022
597 Clouds 17 1017 88 4000 2.57 250 08:19 02.07.2022
598 Clear 19 1015 77 10000 4.63 250 04:19 02.07.2022
599 Clear 25 1015 50 10000 2.57 330 00:28 02.07.2022
600 Clear 26 1014 50 10000 3.6 340 23:26 01.07.2022
601 Clear 29 1013 39 10000 3.09 20 22:35 01.07.2022
602 Clear 32 1012 33 10000 1.54 0 21:38 01.07.2022
603 Clear 32 1012 35 10000 2.57 300 20:59 01.07.2022
604 Clear 32 1012 35 10000 2.06 0 20:34 01.07.2022
605 Clear 33 1012 33 10000 2.06 0 19:38 01.07.2022
606 Clear 32 1012 37 10000 2.06 0 17:18 01.07.2022
607 Clear 27 1013 44 10000 2.06 0 14:34 01.07.2022
608 Clear 25 1013 50 10000 2.57 350 13:54 01.07.2022
609 Clear 22 1014 60 10000 1.03 0 11:22 01.07.2022
610 Clear 19 1014 72 10000 1.03 0 10:19 01.07.2022
611 Clear 16 1014 77 10000 2.06 250 07:38 01.07.2022
612 Clear 21 1015 56 10000 2.57 50 02:43 01.07.2022
613 Clear 22 1015 56 10000 3.09 30 00:21 01.07.2022
614 Clear 24 1014 50 10000 5.14 360 22:52 30.06.2022
615 Clear 25 1013 47 10000 5.66 360 22:32 30.06.2022
616 Clear 26 1013 44 10000 6.17 350 21:54 30.06.2022
617 Clear 30 1012 35 8000 4.12 20 20:53 30.06.2022
618 Clear 30 1012 35 8000 2.06 0 20:22 30.06.2022
619 Clear 31 1012 33 8000 3.6 10 19:51 30.06.2022
620 Clear 31 1012 33 8000 3.09 340 19:18 30.06.2022
621 Clear 31 1012 33 8000 3.09 0 18:34 30.06.2022
622 Clear 29 1013 34 8000 2.06 0 17:37 30.06.2022
623 Clear 28 1014 39 8000 2.06 0 16:22 30.06.2022
624 Clear 26 1015 44 10000 3.09 360 14:20 30.06.2022
625 Clear 25 1015 50 10000 2.06 0 13:29 30.06.2022
626 Clear 23 1015 56 10000 2.57 0 12:34 30.06.2022
627 Clouds 22 1015 60 10000 2.06 0 11:23 30.06.2022
628 Clear 19 1015 72 10000 2.06 60 09:53 30.06.2022
629 Clear 19 1015 72 10000 2.06 60 09:29 30.06.2022
630 Clear 17 1015 77 10000 2.06 50 07:41 30.06.2022
631 Clear 18 1015 72 10000 3.6 20 05:47 30.06.2022
632 Clear 23 1016 56 10000 4.63 50 00:27 30.06.2022
633 Clear 25 1015 50 10000 5.14 360 22:58 29.06.2022
634 Clear 26 1014 44 10000 5.66 360 22:37 29.06.2022
635 Clear 29 1014 37 10000 6.69 360 21:31 29.06.2022
636 Clear 32 1013 29 10000 3.6 360 20:33 29.06.2022
637 Clear 32 1013 29 10000 3.6 360 20:33 29.06.2022
638 Clouds 31 1013 29 10000 3.09 300 19:34 29.06.2022
639 Clear 31 1015 29 10000 3.09 0 17:40 29.06.2022
640 Clear 30 1015 28 10000 3.09 360 16:35 29.06.2022
641 Clear 29 1016 32 10000 2.06 0 14:50 29.06.2022
642 Clear 24 1017 50 10000 2.06 0 12:39 29.06.2022
643 Clear 20 1017 68 10000 1.03 0 10:25 29.06.2022
644 Clear 18 1017 72 10000 2.57 250 09:31 29.06.2022
645 Clear 17 1017 63 10000 3.09 240 07:30 29.06.2022
646 Clear 20 1017 52 10000 2.57 30 04:49 29.06.2022
647 Clear 23 1018 49 10000 3.6 30 00:55 29.06.2022
648 Clear 23 1018 49 10000 4.63 30 00:35 29.06.2022
649 Clear 26 1017 44 10000 5.14 30 22:53 28.06.2022
650 Clear 27 1016 41 10000 5.14 360 22:21 28.06.2022
651 Clear 29 1016 39 10000 5.14 360 21:50 28.06.2022
652 Clear 31 1016 33 10000 5.14 360 21:30 28.06.2022
653 Clear 32 1015 27 10000 1.54 0 20:20 28.06.2022
654 Clear 32 1015 27 10000 3.09 30 19:32 28.06.2022
655 Clear 32 1015 27 10000 3.09 30 19:32 28.06.2022
656 Clear 34 1015 27 10000 1.54 0 18:44 28.06.2022
657 Clear 31 1016 33 10000 3.09 0 17:38 28.06.2022
658 Clear 29 1016 37 10000 2.57 0 15:56 28.06.2022
659 Clear 29 1016 37 10000 2.57 0 15:56 28.06.2022
660 Clear 28 1017 42 10000 2.06 0 14:59 28.06.2022
661 Clear 25 1018 50 10000 1.54 360 14:20 28.06.2022
662 Clear 25 1018 50 10000 1.54 360 13:49 28.06.2022
663 Clear 23 1018 56 10000 2.06 0 12:48 28.06.2022
664 Clear 20 1017 64 10000 2.06 0 10:46 28.06.2022
665 Clear 18 1017 68 10000 2.06 240 09:25 28.06.2022
666 Clear 17 1017 67 10000 1.54 240 08:43 28.06.2022
667 Clear 16 1017 72 10000 2.06 250 07:26 28.06.2022
668 Clear 18 1017 63 10000 2.57 40 04:59 28.06.2022
669 Clear 21 1018 56 10000 4.63 40 23:59 27.06.2022
670 Clear 22 1017 53 10000 5.14 40 23:36 27.06.2022
671 Clear 23 1017 49 10000 5.66 20 22:51 27.06.2022
672 Clear 28 1016 36 10000 4.12 350 21:33 27.06.2022
673 Clear 30 1015 35 10000 2.57 40 20:44 27.06.2022
674 Clear 31 1016 33 10000 3.6 0 18:58 27.06.2022
675 Clouds 30 1016 35 8000 2.57 30 17:46 27.06.2022
676 Clouds 27 1017 41 8000 3.09 90 16:18 27.06.2022
677 Clouds 25 1018 44 8000 5.14 40 14:44 27.06.2022
678 Clouds 23 1018 53 8000 3.6 10 13:25 27.06.2022
679 Clouds 22 1018 53 8000 3.6 20 12:52 27.06.2022
680 Clouds 18 1018 68 8000 3.09 50 10:22 27.06.2022
681 Clouds 17 1018 67 8000 4.12 50 08:47 27.06.2022
682 Clouds 16 1017 72 8000 3.6 50 07:59 27.06.2022
683 Clouds 17 1017 67 10000 4.12 30 06:38 27.06.2022
684 Clouds 19 1017 63 10000 4.12 30 01:55 27.06.2022
685 Clouds 21 1016 56 10000 4.63 40 23:49 26.06.2022
686 Clouds 25 1014 47 10000 6.17 10 21:58 26.06.2022
687 Clouds 29 1012 37 10000 6.69 360 20:34 26.06.2022
688 Clouds 31 1012 35 10000 3.09 360 19:23 26.06.2022
689 Clouds 30 1012 37 10000 2.57 0 18:24 26.06.2022
690 Clouds 28 1014 42 10000 2.57 0 15:53 26.06.2022
691 Clouds 26 1014 47 10000 2.06 0 14:34 26.06.2022
692 Clouds 25 1015 50 10000 2.57 60 13:30 26.06.2022
693 Clouds 24 1015 53 10000 2.06 0 12:44 26.06.2022
694 Clouds 21 1015 64 10000 3.09 40 11:21 26.06.2022
695 Clear 20 1015 64 10000 3.6 30 10:23 26.06.2022
696 Clear 18 1014 72 10000 3.09 70 08:45 26.06.2022
697 Clouds 18 1014 72 10000 3.09 30 07:23 26.06.2022
698 Clouds 22 1015 56 10000 3.6 10 00:48 26.06.2022
699 Clouds 22 1015 53 10000 4.63 30 00:20 26.06.2022
700 Clouds 24 1014 50 10000 5.14 30 23:33 25.06.2022
701 Clouds 25 1013 47 10000 5.14 20 22:51 25.06.2022
702 Clouds 26 1013 44 10000 5.66 20 22:26 25.06.2022
703 Clouds 30 1012 35 10000 5.14 360 21:23 25.06.2022
704 Clouds 30 1012 35 10000 5.14 360 20:59 25.06.2022
705 Clouds 31 1012 33 10000 4.12 20 20:25 25.06.2022
706 Clouds 31 1012 33 10000 2.57 20 18:45 25.06.2022
707 Clouds 30 1013 35 10000 3.6 360 17:28 25.06.2022
708 Clouds 31 1013 35 10000 2.06 0 16:44 25.06.2022
709 Clouds 28 1014 39 10000 3.09 0 14:50 25.06.2022
710 Clouds 24 1015 57 10000 2.06 0 12:56 25.06.2022
711 Clouds 23 1015 60 10000 2.57 340 12:37 25.06.2022
712 Clear 20 1016 68 10000 2.06 10 10:30 25.06.2022
713 Clear 18 1015 72 10000 2.06 70 08:56 25.06.2022
714 Clear 18 1015 72 10000 2.06 50 08:29 25.06.2022
715 Clear 18 1015 72 10000 2.57 70 06:53 25.06.2022
716 Clouds 19 1017 72 10000 3.6 20 03:26 25.06.2022
717 Clouds 22 1017 60 10000 4.63 40 00:21 25.06.2022
718 Clouds 26 1015 47 10000 6.69 360 22:31 24.06.2022
719 Clear 30 1014 32 10000 2.57 20 21:31 24.06.2022
720 Clouds 31 1014 30 10000 3.09 60 20:25 24.06.2022
721 Clouds 31 1014 30 10000 3.6 40 19:52 24.06.2022
722 Clouds 31 1015 30 10000 4.12 50 19:19 24.06.2022
723 Clouds 31 1015 30 10000 4.12 50 18:47 24.06.2022
724 Clouds 31 1015 30 10000 2.06 0 18:29 24.06.2022
725 Clouds 30 1016 35 10000 3.09 360 16:57 24.06.2022
726 Clouds 27 1017 41 10000 3.09 0 15:28 24.06.2022
727 Clouds 26 1018 47 10000 2.57 0 14:25 24.06.2022
728 Clear 26 1018 47 10000 3.6 20 13:53 24.06.2022
729 Clouds 23 1018 56 10000 2.06 0 11:42 24.06.2022
730 Clouds 23 1019 60 10000 1.03 0 10:43 24.06.2022
731 Clouds 20 1019 64 10000 1.54 120 09:42 24.06.2022
732 Clouds 19 1019 68 10000 2.06 30 08:58 24.06.2022
733 Clouds 19 1019 68 10000 1.54 30 08:40 24.06.2022
734 Clear 19 1019 68 10000 2.06 250 06:47 24.06.2022
735 Clear 18 1019 68 10000 2.06 260 06:27 24.06.2022
736 Clear 19 1019 63 10000 2.06 240 05:21 24.06.2022
737 Clear 21 1020 56 10000 4.12 300 00:47 24.06.2022
738 Clear 25 1018 47 10000 5.14 350 22:44 23.06.2022
739 Clouds 29 1017 30 10000 4.12 270 21:43 23.06.2022
740 Clear 30 1016 28 10000 2.57 310 20:43 23.06.2022
741 Clear 31 1016 25 10000 4.12 270 19:57 23.06.2022
742 Clear 31 1016 30 10000 2.57 0 18:43 23.06.2022
743 Clear 30 1017 30 10000 3.09 310 17:37 23.06.2022
744 Clear 28 1017 34 10000 3.09 0 16:32 23.06.2022
745 Clear 28 1017 36 10000 2.06 0 15:27 23.06.2022
746 Clear 27 1017 39 10000 2.06 0 14:51 23.06.2022
747 Clear 22 1018 56 10000 2.06 0 11:54 23.06.2022
748 Clear 20 1018 64 10000 1.54 0 10:56 23.06.2022
749 Clear 17 1017 72 10000 2.57 240 09:20 23.06.2022
750 Clear 16 1016 72 10000 3.09 240 05:51 23.06.2022
751 Clear 21 1017 52 10000 3.6 260 01:22 23.06.2022
752 Clear 22 1017 49 10000 3.09 300 00:25 23.06.2022
753 Clear 24 1016 43 10000 4.63 330 23:22 22.06.2022
754 Clouds 28 1015 34 10000 5.66 260 21:44 22.06.2022
755 Clouds 29 1014 30 10000 4.63 250 20:52 22.06.2022
756 Clouds 30 1014 28 10000 4.63 280 20:20 22.06.2022
757 Clouds 30 1014 28 10000 4.63 260 19:44 22.06.2022
758 Clouds 30 1015 32 10000 4.12 280 17:50 22.06.2022
759 Clouds 29 1016 37 10000 2.57 0 16:50 22.06.2022
760 Clouds 28 1016 42 10000 2.06 0 15:29 22.06.2022
761 Clouds 26 1016 47 10000 2.57 0 14:57 22.06.2022
762 Clouds 25 1017 50 10000 2.57 0 13:49 22.06.2022
763 Clouds 24 1017 53 10000 2.06 0 13:24 22.06.2022
764 Clouds 23 1017 56 10000 1.54 0 12:31 22.06.2022
765 Clouds 22 1017 56 10000 1.54 0 11:45 22.06.2022
766 Clouds 21 1017 60 10000 1.54 0 10:50 22.06.2022
767 Clear 19 1017 68 10000 0.51 0 09:42 22.06.2022
768 Clear 16 1016 77 10000 3.09 230 07:22 22.06.2022
769 Clear 21 1016 56 10000 2.57 360 02:39 22.06.2022
770 Clouds 22 1016 56 10000 3.6 30 01:19 22.06.2022
771 Clouds 27 1015 47 10000 1.54 350 22:57 21.06.2022
772 Clouds 28 1015 44 10000 3.09 320 21:21 21.06.2022
773 Clouds 30 1014 39 10000 2.57 310 19:30 21.06.2022
774 Clouds 29 1014 42 10000 2.57 0 17:56 21.06.2022
775 Clouds 29 1014 42 10000 2.57 350 16:49 21.06.2022
776 Clear 24 1015 57 10000 3.09 250 12:23 21.06.2022
777 Clouds 22 1016 60 10000 3.6 270 10:55 21.06.2022
778 Clouds 20 1015 68 10000 4.63 250 09:39 21.06.2022
779 Clouds 20 1014 68 10000 3.6 280 07:56 21.06.2022
780 Clouds 21 1013 68 10000 2.57 260 05:33 21.06.2022
781 Clouds 26 1014 53 10000 4.63 30 00:35 21.06.2022
782 Clouds 28 1013 44 10000 4.12 40 22:22 20.06.2022
783 Clouds 29 1013 42 10000 4.12 20 21:41 20.06.2022
784 Clouds 31 1013 37 10000 4.63 320 20:30 20.06.2022
785 Clouds 32 1013 37 10000 3.6 320 19:37 20.06.2022
786 Clouds 31 1013 37 10000 2.06 0 18:44 20.06.2022
787 Clouds 32 1014 37 10000 3.6 0 17:50 20.06.2022
788 Clouds 32 1014 40 10000 1.54 0 16:53 20.06.2022
789 Clouds 30 1015 42 10000 2.06 320 15:52 20.06.2022
790 Clear 25 1015 61 10000 2.06 0 12:38 20.06.2022
791 Clouds 22 1015 73 10000 2.06 300 10:32 20.06.2022
792 Clouds 20 1015 77 10000 3.09 250 08:56 20.06.2022
793 Clear 20 1015 73 8000 4.12 230 07:53 20.06.2022
794 Clear 21 1013 64 8000 3.09 240 05:35 20.06.2022
795 Clouds 26 1014 44 10000 2.06 40 01:33 20.06.2022
796 Clouds 26 1014 44 10000 3.09 30 00:25 20.06.2022
797 Clouds 28 1014 39 10000 4.12 30 22:46 19.06.2022
798 Clouds 30 1013 37 10000 4.63 10 21:51 19.06.2022
799 Clouds 31 1013 35 10000 5.14 350 21:31 19.06.2022
800 Clouds 34 1011 27 10000 4.63 350 20:38 19.06.2022
801 Clouds 35 1012 26 10000 3.6 340 19:47 19.06.2022
802 Clouds 35 1012 28 10000 3.6 300 18:43 19.06.2022
803 Clouds 36 1012 26 10000 4.12 330 17:48 19.06.2022
804 Clouds 36 1012 26 10000 3.6 310 17:22 19.06.2022
805 Clouds 35 1013 29 10000 3.6 300 16:35 19.06.2022
806 Clouds 35 1013 34 10000 2.57 350 15:41 19.06.2022
807 Clouds 34 1013 36 10000 2.06 0 14:57 19.06.2022
808 Clouds 33 1013 38 8000 1.54 0 14:19 19.06.2022
809 Clear 31 1014 42 8000 2.06 0 13:21 19.06.2022
810 Clear 26 1014 53 8000 1.03 0 10:55 19.06.2022
811 Clear 22 1015 64 8000 2.06 260 09:46 19.06.2022
812 Clouds 21 1015 68 10000 3.09 240 08:47 19.06.2022
813 Clouds 20 1015 68 10000 3.09 250 07:59 19.06.2022
814 Clouds 23 1014 56 10000 1.54 270 05:37 19.06.2022
815 Clouds 27 1016 47 10000 1.54 50 01:29 19.06.2022
816 Clouds 27 1017 47 10000 2.57 40 00:24 19.06.2022
817 Clouds 28 1016 44 10000 2.57 20 23:36 18.06.2022
818 Clouds 29 1015 45 10000 4.12 360 22:39 18.06.2022
819 Clear 34 1014 36 10000 4.12 340 20:57 18.06.2022
820 Clear 36 1014 30 10000 3.09 340 20:38 18.06.2022
821 Clear 36 1014 30 10000 4.12 340 19:38 18.06.2022
822 Clear 37 1014 30 10000 5.14 300 18:45 18.06.2022
823 Clear 37 1014 30 10000 3.09 0 17:35 18.06.2022
824 Clear 36 1014 32 10000 4.63 300 16:56 18.06.2022
825 Clear 34 1015 36 10000 3.09 310 15:33 18.06.2022
826 Clear 32 1015 45 10000 2.06 310 14:45 18.06.2022
827 Clear 30 1016 51 10000 1.54 0 13:23 18.06.2022
828 Clear 27 1017 57 10000 1.54 0 11:45 18.06.2022
829 Clear 25 1017 65 10000 1.03 0 10:55 18.06.2022
830 Clear 22 1017 73 10000 0.51 0 09:27 18.06.2022
831 Clear 20 1016 77 10000 1.54 270 08:30 18.06.2022
832 Clear 21 1016 73 10000 1.03 0 06:49 18.06.2022
833 Clear 23 1017 64 10000 2.06 250 03:46 18.06.2022
834 Clouds 26 1018 57 10000 1.54 70 01:26 18.06.2022
835 Clouds 26 1018 57 10000 1.54 70 01:26 18.06.2022
836 Clouds 26 1018 57 10000 1.54 70 01:26 18.06.2022
837 Clouds 26 1018 57 10000 1.54 70 01:26 18.06.2022
838 Clouds 26 1018 57 10000 2.06 70 00:48 18.06.2022
839 Clouds 27 1018 54 10000 3.09 40 23:58 17.06.2022
840 Clouds 29 1017 48 8000 1.54 10 23:24 17.06.2022
841 Clouds 33 1015 38 10000 4.63 10 21:18 17.06.2022
842 Clouds 35 1014 31 10000 4.63 330 20:24 17.06.2022
843 Clouds 38 1014 28 10000 3.6 320 18:49 17.06.2022
844 Clouds 38 1014 28 10000 4.12 320 17:44 17.06.2022
845 Clear 37 1014 30 10000 3.09 300 16:43 17.06.2022
846 Clear 37 1014 30 10000 3.09 300 16:43 17.06.2022
847 Clear 33 1015 40 10000 2.57 330 15:49 17.06.2022
848 Clear 33 1015 40 10000 2.57 330 15:22 17.06.2022
849 Clear 31 1015 45 10000 2.06 0 14:20 17.06.2022
850 Clear 30 1016 48 10000 1.54 0 14:20 17.06.2022
851 Clear 30 1016 48 10000 1.54 0 13:46 17.06.2022
852 Clear 29 1016 51 10000 2.06 0 13:24 17.06.2022
853 Clear 25 1017 65 10000 2.57 260 11:58 17.06.2022
854 Clear 24 1017 64 10000 1.54 0 11:36 17.06.2022
855 Clear 23 1017 68 10000 2.06 270 10:52 17.06.2022
856 Clear 19 1016 77 10000 3.09 250 08:30 17.06.2022
857 Clear 19 1016 77 10000 3.09 250 07:48 17.06.2022
858 Clear 20 1016 73 10000 2.57 260 06:22 17.06.2022
859 Clear 25 1017 57 10000 2.57 80 03:19 17.06.2022
860 Clouds 27 1018 54 10000 3.6 60 00:43 17.06.2022
861 Clouds 30 1017 42 10000 2.06 340 22:45 16.06.2022
862 Clouds 30 1016 45 10000 2.57 340 22:26 16.06.2022
863 Clouds 31 1016 42 10000 1.03 0 21:19 16.06.2022
864 Clouds 31 1016 42 10000 1.54 340 20:50 16.06.2022
865 Clouds 31 1016 42 10000 2.57 270 19:59 16.06.2022
866 Clouds 32 1016 43 10000 2.06 0 18:44 16.06.2022
867 Clouds 32 1016 43 10000 3.09 0 17:44 16.06.2022
868 Clouds 32 1017 45 8000 2.57 0 17:20 16.06.2022
869 Clouds 30 1017 51 8000 3.09 260 15:44 16.06.2022
870 Clouds 30 1017 51 8000 3.09 260 15:20 16.06.2022
871 Clear 29 1017 54 10000 2.57 0 13:55 16.06.2022
872 Clear 25 1017 65 10000 3.6 290 12:47 16.06.2022
873 Clear 25 1017 65 10000 3.6 290 12:20 16.06.2022
874 Clear 23 1017 73 8000 3.6 270 11:21 16.06.2022
875 Clear 21 1017 78 8000 3.09 280 10:35 16.06.2022
876 Clear 20 1017 77 8000 3.6 270 09:39 16.06.2022
877 Clear 19 1016 82 8000 3.6 260 08:50 16.06.2022
878 Clouds 19 1016 82 8000 2.57 250 07:38 16.06.2022
879 Clouds 20 1016 77 8000 2.57 260 05:48 16.06.2022
880 Clouds 23 1017 68 8000 3.09 100 03:44 16.06.2022
881 Clouds 23 1018 68 8000 2.06 90 01:52 16.06.2022
882 Clouds 23 1018 68 8000 2.06 90 01:52 16.06.2022
883 Clouds 23 1018 68 8000 3.6 110 01:22 16.06.2022
884 Clouds 23 1019 68 8000 2.06 260 23:58 15.06.2022
885 Clouds 23 1018 68 8000 3.09 270 22:53 15.06.2022
886 Clouds 25 1018 61 8000 4.63 300 21:34 15.06.2022
887 Clouds 26 1017 57 8000 4.63 280 20:59 15.06.2022
888 Clouds 26 1017 61 8000 4.63 300 20:36 15.06.2022
889 Clouds 27 1017 57 8000 4.63 280 19:57 15.06.2022
890 Clouds 29 1016 51 8000 6.69 280 18:37 15.06.2022
891 Clouds 30 1016 51 8000 7.72 270 17:46 15.06.2022
892 Clouds 29 1016 58 8000 5.66 290 16:23 15.06.2022
893 Clouds 26 1016 65 8000 3.09 280 14:57 15.06.2022
894 Clouds 23 1017 78 5000 5.66 260 13:29 15.06.2022
895 Clouds 23 1017 78 5000 4.12 270 12:47 15.06.2022
896 Clouds 22 1016 83 5000 5.14 270 11:25 15.06.2022
897 Clouds 22 1016 78 8000 6.69 280 10:22 15.06.2022
898 Clouds 23 1015 68 8000 6.69 260 08:59 15.06.2022
899 Clouds 29 1013 39 8000 5.14 120 07:36 15.06.2022
900 Clouds 27 1014 47 8000 5.14 250 05:57 15.06.2022
901 Clouds 29 1014 39 8000 8.23 80 02:54 15.06.2022
902 Clouds 29 1016 45 8000 5.66 70 01:36 15.06.2022
903 Clouds 29 1017 45 7000 2.57 80 00:36 15.06.2022
904 Clouds 30 1016 42 7000 5.14 70 23:38 14.06.2022
905 Clouds 30 1015 42 7000 3.6 30 22:47 14.06.2022
906 Clouds 29 1016 51 6000 5.14 270 21:43 14.06.2022
907 Clouds 30 1015 45 6000 7.2 290 21:20 14.06.2022
908 Rain 32 1016 43 5000 7.72 230 20:40 14.06.2022
909 Clouds 35 1013 31 6000 5.14 290 19:47 14.06.2022
910 Clouds 36 1013 30 6000 3.6 320 18:40 14.06.2022
911 Clouds 37 1013 20 6000 2.57 210 17:19 14.06.2022
912 Clouds 38 1013 18 6000 2.06 90 16:42 14.06.2022
913 Clouds 30 1015 51 8000 2.06 280 15:43 14.06.2022
914 Clouds 29 1016 54 8000 3.6 260 14:56 14.06.2022
915 Clouds 28 1015 57 8000 4.63 260 14:18 14.06.2022
916 Clouds 27 1016 61 8000 3.09 0 13:24 14.06.2022
917 Clouds 28 1015 57 8000 2.57 280 11:58 14.06.2022
918 Clouds 27 1015 61 8000 1.03 0 10:52 14.06.2022
919 Clouds 26 1015 65 8000 1.03 0 10:29 14.06.2022
920 Clouds 23 1015 73 8000 1.54 230 09:22 14.06.2022
921 Clouds 22 1015 73 8000 3.6 260 08:37 14.06.2022
922 Clouds 24 1013 69 10000 1.54 290 06:32 14.06.2022
923 Clouds 25 1014 65 10000 2.06 240 03:52 14.06.2022
924 Clouds 26 1016 61 8000 1.03 0 01:38 14.06.2022
925 Clouds 27 1016 57 8000 2.06 330 00:24 14.06.2022
926 Clouds 28 1016 54 7000 4.63 260 22:58 13.06.2022
927 Clouds 28 1015 54 7000 7.72 260 22:23 13.06.2022
928 Clouds 36 1014 21 7000 3.6 100 21:39 13.06.2022
929 Thunderstorm 35 1014 23 6000 7.72 60 19:59 13.06.2022
930 Thunderstorm 32 1015 43 7000 5.14 230 18:54 13.06.2022
931 Clouds 35 1014 38 8000 2.57 0 17:56 13.06.2022
932 Clouds 33 1014 40 8000 3.6 280 17:24 13.06.2022
933 Clouds 33 1015 40 8000 3.6 290 16:30 13.06.2022
934 Clouds 30 1015 51 8000 4.12 290 14:51 13.06.2022
935 Clouds 29 1016 54 8000 4.63 270 14:31 13.06.2022
936 Clouds 28 1016 57 8000 5.66 270 13:33 13.06.2022
937 Clouds 37 1013 17 10000 4.59 277 12:23 13.06.2022
938 Clouds 37 1013 15 10000 3.67 247 10:56 13.06.2022
939 Haze 26 1014 53 4000 6.69 270 10:26 13.06.2022
940 Clouds 30 1013 32 8000 3.09 100 08:52 13.06.2022
941 Clouds 29 1013 39 10000 4.12 110 06:37 13.06.2022
942 Clouds 29 1014 39 10000 5.66 100 05:35 13.06.2022
943 Clouds 29 1018 51 8000 2.06 120 01:55 13.06.2022
944 Clouds 29 1018 51 8000 1.54 0 01:34 13.06.2022
945 Thunderstorm 30 1017 48 8000 2.06 80 23:48 12.06.2022
946 Clouds 30 1017 51 8000 2.06 120 22:44 12.06.2022
947 Thunderstorm 29 1017 54 8000 1.54 0 21:53 12.06.2022
948 Clouds 29 1015 54 8000 6.17 260 20:53 12.06.2022
949 Clouds 33 1015 43 8000 2.57 280 19:59 12.06.2022
950 Clouds 32 1015 43 8000 3.6 280 19:30 12.06.2022
951 Thunderstorm 33 1015 43 8000 5.66 240 17:40 12.06.2022
952 Clouds 34 1014 40 8000 4.12 290 15:54 12.06.2022
953 Clouds 32 1015 45 8000 3.6 280 14:51 12.06.2022
954 Clouds 31 1015 48 8000 3.6 300 14:19 12.06.2022
955 Clouds 29 1016 54 8000 4.12 280 13:46 12.06.2022
956 Clouds 26 1016 65 8000 3.6 290 12:31 12.06.2022
957 Clouds 23 1016 73 8000 3.6 280 11:22 12.06.2022
958 Clouds 22 1016 78 10000 2.06 260 10:21 12.06.2022
959 Clouds 20 1015 83 10000 3.09 280 08:52 12.06.2022
960 Clouds 19 1015 82 10000 3.09 250 08:34 12.06.2022
961 Clear 21 1014 73 10000 4.12 270 06:49 12.06.2022
962 Clear 26 1013 47 10000 3.09 290 04:35 12.06.2022
963 Clouds 28 1014 54 10000 3.6 80 02:32 12.06.2022
964 Clouds 28 1015 51 10000 1.54 30 01:36 12.06.2022
965 Clouds 28 1016 54 10000 2.57 280 00:58 12.06.2022
966 Clouds 29 1016 51 10000 4.12 280 00:19 12.06.2022
967 Clouds 31 1015 45 10000 3.6 130 23:21 11.06.2022
968 Clouds 30 1014 48 10000 2.06 10 22:38 11.06.2022
969 Clouds 30 1014 48 10000 2.06 10 22:38 11.06.2022
970 Clouds 30 1014 48 8000 6.69 250 21:36 11.06.2022
971 Clouds 33 1013 40 6000 4.12 250 20:27 11.06.2022
972 Clouds 35 1013 38 7000 4.12 280 19:37 11.06.2022
973 Clouds 36 1012 34 7000 3.09 360 18:50 11.06.2022
974 Thunderstorm 36 1013 34 7000 5.14 0 18:31 11.06.2022
975 Thunderstorm 34 1012 40 7000 7.72 260 17:49 11.06.2022
976 Thunderstorm 35 1013 36 8000 5.14 220 17:26 11.06.2022
977 Thunderstorm 35 1013 36 8000 5.14 220 17:26 11.06.2022
978 Thunderstorm 36 1012 36 8000 5.66 260 16:44 11.06.2022
979 Thunderstorm 35 1012 38 8000 3.09 270 16:25 11.06.2022
980 Clouds 35 1012 38 8000 4.63 280 15:18 11.06.2022
981 Clouds 33 1013 46 10000 2.57 310 13:52 11.06.2022
982 Clear 27 1014 61 10000 2.57 300 12:19 11.06.2022
983 Clouds 24 1014 69 10000 2.57 300 10:40 11.06.2022
984 Clouds 23 1014 68 10000 3.09 270 09:42 11.06.2022
985 Clouds 23 1014 68 10000 2.57 250 08:45 11.06.2022
986 Clouds 22 1013 73 10000 2.57 260 06:34 11.06.2022
987 Clouds 22 1013 73 10000 2.57 280 05:58 11.06.2022
988 Clouds 23 1013 68 10000 2.06 240 03:45 11.06.2022
989 Clouds 25 1014 61 10000 4.12 250 01:52 11.06.2022
990 Clouds 26 1014 57 10000 3.6 240 01:26 11.06.2022
991 Clouds 31 1014 45 10000 3.09 280 23:28 10.06.2022
992 Clouds 32 1013 43 10000 4.63 250 22:27 10.06.2022
993 Clouds 33 1013 40 10000 4.12 280 21:46 10.06.2022
994 Clouds 38 1012 28 10000 2.57 330 20:39 10.06.2022
995 Clouds 38 1012 28 10000 2.57 350 20:20 10.06.2022
996 Clouds 38 1012 28 10000 2.57 300 19:19 10.06.2022
997 Clouds 38 1012 28 10000 2.57 300 18:46 10.06.2022
998 Clouds 37 1012 32 10000 2.06 0 17:54 10.06.2022
999 Clouds 37 1013 32 10000 2.57 0 17:23 10.06.2022
1000 Clouds 35 1013 36 10000 3.09 0 16:28 10.06.2022
1001 Clear 33 1013 40 10000 2.06 0 15:40 10.06.2022
1002 Clear 31 1014 45 10000 2.06 0 14:28 10.06.2022
1003 Clear 28 1014 54 10000 3.09 290 12:58 10.06.2022
1004 Clear 26 1014 61 10000 2.57 320 11:59 10.06.2022
1005 Clear 24 1015 69 10000 2.57 270 10:51 10.06.2022
1006 Clear 22 1015 73 10000 3.09 260 09:57 10.06.2022
1007 Clear 20 1014 77 10000 3.6 250 08:48 10.06.2022
1008 Clear 20 1014 77 10000 3.09 250 07:41 10.06.2022
1009 Clear 21 1013 73 10000 2.57 260 06:46 10.06.2022
1010 Clear 22 1013 68 10000 2.57 240 06:27 10.06.2022
1011 Clear 22 1014 68 10000 2.57 250 04:47 10.06.2022
1012 Clear 27 1015 50 10000 2.57 50 01:59 10.06.2022
1013 Clear 27 1015 50 10000 2.06 20 01:36 10.06.2022
1014 Clear 27 1015 50 10000 2.06 20 01:36 10.06.2022
1015 Clear 28 1016 47 10000 3.09 30 23:57 09.06.2022
1016 Clouds 30 1014 42 8000 4.12 10 22:24 09.06.2022
1017 Clouds 33 1013 38 8000 5.14 30 21:38 09.06.2022
1018 Clouds 33 1013 38 8000 5.14 30 21:18 09.06.2022
1019 Clouds 35 1012 34 6000 6.17 350 20:36 09.06.2022
1020 Clouds 36 1012 30 6000 6.17 330 19:41 09.06.2022
1021 Clouds 39 1012 19 10000 2.06 0 18:36 09.06.2022
1022 Clouds 37 1013 20 10000 3.6 50 17:28 09.06.2022
1023 Clouds 36 1013 23 10000 3.09 0 16:28 09.06.2022
1024 Clear 34 1014 29 10000 3.09 0 14:45 09.06.2022
1025 Clear 33 1014 31 10000 3.09 350 14:24 09.06.2022
1026 Clear 31 1015 35 10000 3.09 330 13:30 09.06.2022
1027 Clear 31 1015 35 10000 1.54 0 12:51 09.06.2022
1028 Clear 27 1015 41 10000 2.06 0 11:20 09.06.2022
1029 Clear 24 1016 46 10000 2.57 50 09:55 09.06.2022
1030 Clear 24 1016 46 10000 2.57 50 09:55 09.06.2022
1031 Clear 24 1016 46 10000 2.57 60 09:37 09.06.2022
1032 Clear 22 1015 53 10000 2.06 70 08:33 09.06.2022
1033 Clear 22 1015 53 10000 2.06 70 07:24 09.06.2022
1034 Clear 23 1017 50 10000 2.75 31 03:29 09.06.2022
1035 Clear 27 1018 41 10000 5.14 50 00:32 09.06.2022
1036 Clear 28 1018 42 10000 5.14 30 23:18 08.06.2022
1037 Clear 29 1017 39 10000 5.66 30 22:42 08.06.2022
1038 Clear 31 1016 35 10000 7.2 30 22:23 08.06.2022
1039 Clear 33 1016 31 10000 6.69 360 21:32 08.06.2022
1040 Clear 36 1016 20 10000 3.09 60 20:25 08.06.2022
1041 Clear 37 1016 19 10000 2.57 0 19:40 08.06.2022
1042 Clear 37 1016 20 10000 2.06 20 18:48 08.06.2022
1043 Clear 35 1016 21 10000 3.6 60 17:38 08.06.2022
1044 Clear 34 1017 26 10000 3.6 40 15:53 08.06.2022
1045 Clear 32 1018 31 10000 1.54 0 14:38 08.06.2022
1046 Clear 29 1019 39 10000 1.54 0 12:55 08.06.2022
1047 Clear 26 1020 53 10000 1.03 0 11:36 08.06.2022
1048 Clear 25 1020 57 10000 1.03 0 10:46 08.06.2022
1049 Clear 20 1019 73 10000 1.54 230 09:28 08.06.2022
1050 Clear 19 1019 72 10000 2.06 250 08:54 08.06.2022
1051 Clear 20 1018 64 10000 2.06 260 06:56 08.06.2022
1052 Clear 23 1018 56 10000 1.54 30 04:41 08.06.2022
1053 Clear 26 1019 44 10000 2.57 60 01:25 08.06.2022
1054 Clear 28 1018 39 10000 5.14 30 23:32 07.06.2022
1055 Clear 29 1018 37 10000 5.14 20 22:54 07.06.2022
1056 Clear 30 1018 37 10000 5.66 20 22:34 07.06.2022
1057 Clear 33 1017 27 10000 4.12 10 21:39 07.06.2022
1058 Clear 34 1016 27 10000 4.12 360 21:20 07.06.2022
1059 Clear 35 1016 24 10000 4.12 350 20:40 07.06.2022
1060 Clear 36 1016 24 10000 2.57 0 19:51 07.06.2022
1061 Clear 36 1017 26 10000 1.54 0 18:25 07.06.2022
1062 Clear 34 1017 27 10000 2.57 0 17:31 07.06.2022
1063 Clear 35 1018 26 10000 2.06 0 16:44 07.06.2022
1064 Clear 33 1018 33 10000 2.57 0 15:58 07.06.2022
1065 Clear 32 1019 35 10000 2.06 0 15:36 07.06.2022
1066 Clear 32 1019 35 10000 2.06 0 15:18 07.06.2022
1067 Clear 31 1019 37 10000 3.09 310 14:42 07.06.2022
1068 Clear 28 1020 47 10000 2.57 290 13:34 07.06.2022
1069 Clear 27 1020 50 10000 2.57 270 12:54 07.06.2022
1070 Clear 25 1020 57 10000 2.57 230 11:51 07.06.2022
1071 Clear 23 1020 60 10000 2.57 270 10:48 07.06.2022
1072 Clear 19 1020 72 10000 3.09 240 08:53 07.06.2022
1073 Clear 19 1019 72 10000 3.09 250 07:54 07.06.2022
1074 Clear 20 1019 68 10000 2.57 260 06:41 07.06.2022
1075 Clear 22 1019 60 10000 3.09 240 04:41 07.06.2022
1076 Clear 25 1020 50 10000 1.03 0 01:27 07.06.2022
1077 Clear 27 1019 41 10000 4.12 30 23:58 06.06.2022
1078 Clear 29 1018 37 10000 5.66 30 22:54 06.06.2022
1079 Clear 30 1017 37 10000 4.63 360 22:30 06.06.2022
1080 Clear 34 1016 27 10000 3.09 30 20:54 06.06.2022
1081 Clear 35 1016 26 10000 2.57 0 19:29 06.06.2022
1082 Clear 35 1016 28 10000 2.57 0 18:49 06.06.2022
1083 Clear 34 1016 27 10000 1.54 0 18:26 06.06.2022
1084 Clear 34 1017 29 10000 2.06 0 17:26 06.06.2022
1085 Clear 34 1017 29 10000 2.06 0 17:26 06.06.2022
1086 Clear 34 1017 31 10000 2.57 0 16:18 06.06.2022
1087 Clear 32 1018 37 10000 2.57 320 15:28 06.06.2022
1088 Clear 28 1019 44 10000 2.06 0 14:30 06.06.2022
1089 Clear 28 1019 47 10000 2.57 0 13:25 06.06.2022
1090 Clear 26 1019 53 10000 1.54 270 12:36 06.06.2022
1091 Clear 25 1019 57 10000 1.54 330 11:53 06.06.2022
1092 Clear 21 1020 68 10000 1.03 0 10:40 06.06.2022
1093 Clear 19 1019 77 10000 1.03 0 09:33 06.06.2022
1094 Clear 18 1019 77 10000 2.06 230 08:32 06.06.2022
1095 Clear 18 1018 72 10000 2.06 240 07:28 06.06.2022
1096 Clear 20 1018 68 10000 2.57 240 05:27 06.06.2022
1097 Clear 23 1019 56 10000 2.57 30 02:55 06.06.2022
1098 Clear 24 1019 53 10000 1.54 60 01:18 06.06.2022
1099 Clear 24 1019 57 10000 3.6 60 00:38 06.06.2022
1100 Clear 25 1019 53 10000 5.14 40 23:33 05.06.2022
1101 Clear 27 1018 44 10000 6.17 20 22:45 05.06.2022
1102 Clear 26 1018 47 10000 6.17 30 22:45 05.06.2022
1103 Clouds 33 1016 29 10000 3.09 80 20:46 05.06.2022
1104 Clouds 34 1016 29 10000 2.06 0 19:41 05.06.2022
1105 Clouds 33 1017 29 10000 2.57 0 18:29 05.06.2022
1106 Clouds 33 1017 31 10000 2.06 0 17:54 05.06.2022
1107 Clear 33 1017 31 10000 3.6 60 17:25 05.06.2022
1108 Clear 32 1018 35 10000 2.06 0 16:51 05.06.2022
1109 Clear 31 1018 37 10000 3.09 0 16:30 05.06.2022
1110 Clear 28 1019 44 10000 2.57 20 14:25 05.06.2022
1111 Clear 25 1019 50 10000 2.57 20 12:55 05.06.2022
1112 Clear 25 1019 50 10000 2.57 20 12:55 05.06.2022
1113 Clear 24 1020 57 10000 1.54 0 11:45 05.06.2022
1114 Clear 21 1020 64 10000 1.03 0 10:34 05.06.2022
1115 Clear 20 1019 68 10000 2.06 90 09:59 05.06.2022
1116 Clear 18 1019 72 10000 2.06 90 08:32 05.06.2022
1117 Clear 18 1019 68 10000 2.06 70 07:43 05.06.2022
1118 Clear 19 1019 68 10000 3.09 40 05:22 05.06.2022
1119 Clear 20 1019 64 10000 3.6 40 03:47 05.06.2022
1120 Clear 21 1020 60 10000 4.63 40 01:32 05.06.2022
1121 Clear 22 1019 56 10000 5.14 30 00:33 05.06.2022
1122 Clear 26 1018 44 10000 5.66 20 22:22 04.06.2022
1123 Clear 28 1017 39 10000 4.12 20 20:31 04.06.2022
1124 Clear 29 1017 37 10000 3.09 340 18:19 04.06.2022
1125 Clear 29 1017 34 10000 2.57 320 16:44 04.06.2022
1126 Clear 28 1017 39 10000 2.57 0 16:18 04.06.2022
1127 Clouds 26 1017 44 10000 2.57 0 14:53 04.06.2022
1128 Clouds 23 1018 56 10000 2.57 0 12:35 04.06.2022
1129 Clouds 21 1019 64 8000 2.57 0 11:19 04.06.2022
1130 Clouds 20 1019 68 8000 2.06 50 10:44 04.06.2022
1131 Clouds 20 1018 68 8000 2.06 60 09:44 04.06.2022
1132 Clouds 19 1018 68 8000 2.57 0 08:43 04.06.2022
1133 Clouds 18 1018 72 8000 2.57 30 07:41 04.06.2022
1134 Clouds 19 1017 68 8000 2.06 340 05:29 04.06.2022
1135 Clear 20 1018 64 8000 3.09 320 01:42 04.06.2022
1136 Clear 22 1018 56 8000 3.09 310 23:59 03.06.2022
1137 Clouds 24 1016 50 6000 5.14 340 22:40 03.06.2022
1138 Clouds 28 1015 34 10000 4.12 260 21:30 03.06.2022
1139 Clouds 29 1015 34 10000 4.63 270 20:37 03.06.2022
1140 Clouds 29 1015 34 10000 4.63 270 20:37 03.06.2022
1141 Clouds 29 1015 34 10000 4.63 270 20:37 03.06.2022
1142 Clouds 29 1015 34 10000 1.54 0 18:28 03.06.2022
1143 Clouds 28 1016 39 10000 2.57 0 16:49 03.06.2022
1144 Clouds 27 1016 44 10000 2.06 100 15:37 03.06.2022
1145 Clouds 24 1017 53 10000 2.06 120 13:28 03.06.2022
1146 Clouds 21 1017 68 10000 1.54 0 11:40 03.06.2022
1147 Clouds 20 1017 68 10000 1.03 0 09:50 03.06.2022
1148 Clouds 20 1017 68 10000 1.03 0 09:50 03.06.2022
1149 Clouds 19 1017 72 10000 1.54 30 09:28 03.06.2022
1150 Clouds 19 1016 72 10000 1.54 350 07:27 03.06.2022
1151 Clouds 19 1016 72 10000 2.57 280 06:44 03.06.2022
1152 Clouds 19 1016 72 10000 2.57 290 06:26 03.06.2022
1153 Clouds 20 1017 64 10000 4.12 310 01:23 03.06.2022
1154 Clouds 22 1016 56 10000 5.66 310 23:31 02.06.2022
1155 Clouds 27 1014 39 10000 4.63 300 21:57 02.06.2022
1156 Clouds 28 1014 39 10000 4.12 270 20:25 02.06.2022
1157 Clouds 29 1014 37 10000 2.57 290 19:52 02.06.2022
1158 Clouds 29 1014 37 10000 3.09 300 19:33 02.06.2022
1159 Clouds 27 1015 41 10000 2.57 0 17:58 02.06.2022
1160 Clouds 26 1016 50 10000 1.54 0 16:28 02.06.2022
1161 Clouds 25 1016 53 10000 2.57 0 14:34 02.06.2022
1162 Clouds 24 1017 60 10000 2.57 350 13:30 02.06.2022
1163 Clouds 23 1017 64 10000 1.03 0 12:42 02.06.2022
1164 Clouds 20 1018 73 10000 3.09 280 10:31 02.06.2022
1165 Clouds 19 1017 77 10000 3.09 270 09:28 02.06.2022
1166 Clouds 19 1017 77 10000 2.57 260 08:29 02.06.2022
1167 Clouds 19 1017 77 10000 2.57 260 07:48 02.06.2022
1168 Clouds 20 1017 73 10000 2.57 290 05:33 02.06.2022
1169 Clouds 20 1017 73 10000 2.57 300 03:48 02.06.2022
1170 Clear 22 1018 64 10000 4.12 320 00:31 02.06.2022
1171 Clear 24 1017 53 10000 6.17 280 22:55 01.06.2022
1172 Clear 28 1015 39 10000 6.17 310 21:45 01.06.2022
1173 Clear 30 1014 32 10000 5.14 300 21:20 01.06.2022
1174 Clear 31 1014 30 10000 4.12 300 20:38 01.06.2022
1175 Clear 32 1014 27 10000 4.12 300 19:48 01.06.2022
1176 Clear 32 1014 29 10000 3.09 310 18:19 01.06.2022
1177 Clear 32 1016 27 10000 1.54 0 16:46 01.06.2022
1178 Clear 29 1017 37 10000 2.06 0 15:39 01.06.2022
1179 Clear 28 1017 36 10000 1.54 0 14:31 01.06.2022
1180 Clear 25 1018 50 10000 2.06 0 12:42 01.06.2022
1181 Clear 22 1018 64 10000 2.06 290 10:41 01.06.2022
1182 Clear 20 1017 73 10000 1.03 0 09:26 01.06.2022
1183 Clear 16 1016 82 10000 1.54 250 07:56 01.06.2022
1184 Clear 16 1016 77 10000 1.54 260 06:41 01.06.2022
1185 Clear 21 1017 60 10000 2.57 300 01:44 01.06.2022
1186 Clear 23 1017 49 10000 3.09 290 23:47 31.05.2022
1187 Clear 25 1016 41 10000 4.12 280 22:38 31.05.2022
1188 Clear 25 1016 41 10000 4.12 280 22:38 31.05.2022
1189 Clear 26 1016 38 10000 4.12 310 21:46 31.05.2022
1190 Clear 28 1014 36 10000 6.69 300 20:57 31.05.2022
1191 Clear 29 1014 37 10000 6.17 300 20:33 31.05.2022
1192 Clear 33 1013 25 10000 5.66 280 18:57 31.05.2022
1193 Clear 33 1012 27 10000 4.12 300 18:19 31.05.2022
1194 Clear 33 1012 25 10000 4.63 280 17:35 31.05.2022
1195 Clear 31 1013 29 10000 3.6 300 15:42 31.05.2022
1196 Clear 29 1014 37 10000 2.57 0 14:36 31.05.2022
1197 Clear 24 1014 53 10000 2.06 320 12:39 31.05.2022
1198 Clear 24 1014 53 10000 2.06 320 12:18 31.05.2022
1199 Clear 18 1014 77 10000 2.06 270 09:53 31.05.2022
1200 Clear 16 1013 82 10000 3.09 230 07:42 31.05.2022
1201 Clear 17 1013 72 10000 2.57 240 05:25 31.05.2022
1202 Clear 20 1014 60 10000 2.06 250 02:51 31.05.2022
1203 Clear 25 1013 44 10000 4.63 300 23:29 30.05.2022
1204 Clear 25 1012 44 10000 5.14 260 23:00 30.05.2022
1205 Clear 26 1012 38 10000 4.63 270 22:32 30.05.2022
1206 Clear 28 1012 30 10000 4.12 260 21:37 30.05.2022
1207 Clear 29 1011 28 10000 3.09 280 20:41 30.05.2022
1208 Clear 30 1011 26 10000 3.09 300 19:38 30.05.2022
1209 Clear 30 1011 28 10000 2.06 0 17:44 30.05.2022
1210 Clear 29 1012 32 10000 2.06 0 17:18 30.05.2022
1211 Clear 28 1012 36 10000 3.09 330 15:44 30.05.2022
1212 Clear 23 1013 56 10000 2.57 0 12:58 30.05.2022
1213 Clear 20 1013 64 10000 2.57 330 11:30 30.05.2022
1214 Clear 18 1014 72 10000 1.03 0 09:41 30.05.2022
1215 Clear 15 1013 77 10000 2.06 230 07:29 30.05.2022
1216 Clear 14 1013 77 10000 1.54 250 05:52 30.05.2022
1217 Clouds 17 1014 67 10000 1.54 260 03:18 30.05.2022
1218 Clouds 21 1014 56 10000 5.14 290 23:32 29.05.2022
1219 Clouds 23 1014 56 10000 3.09 240 22:40 29.05.2022
1220 Clouds 23 1013 56 10000 4.63 200 21:44 29.05.2022
1221 Clouds 24 1013 53 10000 3.09 200 20:18 29.05.2022
1222 Clouds 24 1013 53 10000 3.6 200 19:28 29.05.2022
1223 Clouds 23 1013 56 10000 2.57 0 17:56 29.05.2022
1224 Clouds 22 1014 60 10000 1.54 0 15:59 29.05.2022
1225 Clouds 21 1015 64 10000 2.57 290 15:40 29.05.2022
1226 Clouds 20 1015 68 10000 3.09 300 14:49 29.05.2022
1227 Clouds 17 1015 82 10000 2.57 260 12:21 29.05.2022
1228 Clouds 17 1015 82 8000 1.54 280 10:56 29.05.2022
1229 Clouds 17 1014 82 8000 2.57 280 09:54 29.05.2022
1230 Clouds 16 1014 82 8000 4.12 260 07:42 29.05.2022
1231 Clouds 17 1014 77 10000 4.63 260 04:51 29.05.2022
1232 Clouds 18 1014 72 10000 5.14 260 04:32 29.05.2022
1233 Clouds 20 1015 68 10000 3.6 250 00:53 29.05.2022
1234 Clouds 22 1016 60 10000 5.14 250 23:47 28.05.2022
1235 Clouds 24 1015 53 10000 5.66 270 23:18 28.05.2022
1236 Clouds 28 1015 42 10000 5.14 280 21:46 28.05.2022
1237 Clouds 30 1014 39 10000 6.69 270 20:40 28.05.2022
1238 Clouds 32 1013 37 10000 6.69 270 19:19 28.05.2022
1239 Clouds 33 1013 31 10000 3.09 280 18:19 28.05.2022
1240 Clouds 32 1014 33 10000 3.6 260 17:30 28.05.2022
1241 Thunderstorm 29 1014 45 10000 2.57 260 15:45 28.05.2022
1242 Thunderstorm 30 1015 32 10000 3.6 280 15:19 28.05.2022
1243 Clouds 28 1016 39 10000 3.09 300 13:27 28.05.2022
1244 Clouds 28 1016 39 10000 3.09 300 13:27 28.05.2022
1245 Clear 28 1016 39 10000 3.6 300 12:42 28.05.2022
1246 Clear 25 1016 53 10000 3.09 300 11:28 28.05.2022
1247 Clouds 24 1015 57 8000 2.57 280 10:32 28.05.2022
1248 Clouds 23 1015 60 8000 1.54 280 09:46 28.05.2022
1249 Clouds 20 1014 68 8000 2.06 240 07:56 28.05.2022
1250 Clouds 19 1014 72 8000 2.57 250 06:32 28.05.2022
1251 Clouds 22 1014 60 8000 3.6 270 04:39 28.05.2022
1252 Clouds 28 1016 34 8000 4.12 150 01:30 28.05.2022
1253 Clouds 28 1016 36 6000 9.26 150 23:53 27.05.2022
1254 Sand 29 1017 32 2000 10.8 170 22:32 27.05.2022
1255 Clouds 32 1017 23 10000 7.72 190 20:59 27.05.2022
1256 Clouds 32 1017 23 10000 7.72 190 20:40 27.05.2022
1257 Clouds 34 1016 21 10000 5.14 210 19:56 27.05.2022
1258 Clouds 33 1016 25 10000 5.66 170 19:34 27.05.2022
1259 Clouds 32 1017 29 10000 7.2 140 18:41 27.05.2022
1260 Sand 34 1016 20 3000 10.29 190 16:42 27.05.2022
1261 Clouds 34 1016 26 10000 6.17 260 15:46 27.05.2022
1262 Clouds 37 1015 22 10000 2.06 0 14:45 27.05.2022
1263 Clouds 32 1015 31 8000 2.57 290 13:36 27.05.2022
1264 Clouds 28 1016 42 8000 2.06 300 11:48 27.05.2022
1265 Clouds 27 1016 44 8000 2.06 280 11:26 27.05.2022
1266 Clouds 24 1016 50 8000 2.57 260 10:35 27.05.2022
1267 Clouds 23 1015 53 8000 2.57 260 09:42 27.05.2022
1268 Clouds 23 1015 49 8000 0.51 0 08:48 27.05.2022
1269 Clouds 22 1015 53 8000 1.54 70 06:50 27.05.2022
1270 Clouds 23 1017 49 8000 1.54 270 02:57 27.05.2022
1271 Clouds 26 1018 44 8000 3.6 230 00:54 27.05.2022
1272 Clouds 28 1017 39 8000 4.63 270 22:53 26.05.2022
1273 Clouds 31 1016 33 8000 5.14 240 21:45 26.05.2022
1274 Clouds 34 1016 22 8000 3.6 250 20:59 26.05.2022
1275 Clouds 35 1015 18 8000 4.63 260 19:29 26.05.2022
1276 Clouds 34 1015 20 8000 4.12 260 18:24 26.05.2022
1277 Clouds 35 1015 20 8000 3.09 280 16:59 26.05.2022
1278 Clear 35 1015 21 8000 2.06 0 15:52 26.05.2022
1279 Clear 33 1015 25 8000 3.09 0 15:18 26.05.2022
1280 Clear 31 1016 27 8000 2.06 0 13:45 26.05.2022
1281 Clear 25 1016 44 8000 1.03 0 11:47 26.05.2022
1282 Clear 20 1016 60 8000 1.54 260 10:37 26.05.2022
1283 Clouds 19 1016 59 8000 1.54 260 09:37 26.05.2022
1284 Clouds 18 1015 63 10000 1.54 260 08:38 26.05.2022
1285 Clear 19 1015 59 10000 2.06 250 05:25 26.05.2022
1286 Clear 22 1016 53 10000 3.09 60 01:26 26.05.2022
1287 Clear 24 1016 41 10000 4.12 360 23:41 25.05.2022
1288 Clear 28 1015 23 10000 2.06 30 22:48 25.05.2022
1289 Clouds 30 1015 23 10000 2.57 20 21:37 25.05.2022
1290 Clouds 31 1015 23 10000 3.09 20 20:39 25.05.2022
1291 Clouds 31 1015 25 10000 2.06 30 19:31 25.05.2022
1292 Clouds 30 1015 28 10000 2.06 0 18:20 25.05.2022
1293 Clear 29 1016 34 10000 3.09 40 16:41 25.05.2022
1294 Clear 29 1016 37 10000 1.54 360 16:21 25.05.2022
1295 Clear 28 1016 36 10000 2.57 360 15:24 25.05.2022
1296 Clear 25 1017 44 10000 2.57 330 14:37 25.05.2022
1297 Clear 25 1017 44 10000 2.57 330 14:19 25.05.2022
1298 Clear 22 1017 53 10000 3.09 10 12:48 25.05.2022
1299 Clouds 22 1016 42 10000 2.7 20 11:31 25.05.2022
1300 Clear 18 1017 63 10000 1.54 50 10:22 25.05.2022
1301 Clouds 16 1017 65 10000 2.61 28 08:45 25.05.2022
1302 Clouds 15 1016 69 10000 2.78 28 07:23 25.05.2022
1303 Clear 16 1016 72 10000 2.57 50 05:23 25.05.2022
1304 Clear 20 1017 56 10000 4.12 50 00:31 25.05.2022
1305 Clear 20 1017 56 10000 5.14 40 23:47 24.05.2022
1306 Clear 22 1016 53 10000 4.63 40 22:52 24.05.2022
1307 Clear 24 1015 50 10000 5.66 350 21:46 24.05.2022
1308 Clouds 26 1015 44 10000 5.66 360 21:21 24.05.2022
1309 Clouds 28 1014 39 10000 4.63 360 20:38 24.05.2022
1310 Clouds 30 1014 35 10000 2.06 0 18:57 24.05.2022
1311 Clouds 29 1014 42 10000 2.06 0 17:19 24.05.2022
1312 Clouds 27 1015 47 10000 2.57 0 16:29 24.05.2022
1313 Clear 25 1016 53 10000 2.06 330 15:20 24.05.2022
1314 Clouds 24 1016 57 8000 2.06 360 14:34 24.05.2022
1315 Clouds 22 1016 64 8000 2.57 0 13:34 24.05.2022
1316 Clouds 19 1016 77 8000 2.06 250 11:53 24.05.2022
1317 Clouds 17 1016 82 8000 1.54 230 09:49 24.05.2022
1318 Clouds 16 1016 88 10000 3.6 240 08:51 24.05.2022
1319 Clear 16 1014 82 10000 2.57 250 07:32 24.05.2022
1320 Clear 17 1014 82 10000 2.57 250 06:27 24.05.2022
1321 Clear 21 1014 60 10000 3.09 240 02:58 24.05.2022
1322 Clear 23 1014 56 10000 2.57 40 01:44 24.05.2022
1323 Clear 26 1014 44 10000 2.06 360 23:59 23.05.2022
1324 Clouds 28 1013 39 10000 4.12 10 22:22 23.05.2022
1325 Clouds 29 1012 37 10000 4.12 10 21:42 23.05.2022
1326 Clouds 31 1011 35 10000 5.14 340 20:45 23.05.2022
1327 Clouds 34 1011 27 10000 4.63 340 19:47 23.05.2022
1328 Clouds 36 1011 24 10000 2.57 360 19:18 23.05.2022
1329 Clouds 35 1011 26 10000 3.6 270 18:40 23.05.2022
1330 Clouds 35 1010 26 10000 3.09 320 17:56 23.05.2022
1331 Clouds 33 1012 33 10000 2.57 0 15:55 23.05.2022
1332 Clouds 30 1012 39 10000 1.54 0 14:18 23.05.2022
1333 Clouds 25 1013 53 10000 2.06 320 11:52 23.05.2022
1334 Clouds 23 1013 60 10000 1.03 0 10:47 23.05.2022
1335 Clouds 21 1013 64 10000 1.54 250 09:47 23.05.2022
1336 Clouds 19 1013 68 10000 2.06 260 08:46 23.05.2022
1337 Clear 19 1013 63 10000 2.06 250 07:24 23.05.2022
1338 Clear 19 1013 63 10000 1.54 260 06:39 23.05.2022
1339 Clear 22 1015 56 10000 1.03 0 03:27 23.05.2022
1340 Clear 24 1016 50 10000 1.54 60 01:52 23.05.2022
1341 Clear 24 1016 50 10000 1.54 70 01:26 23.05.2022
1342 Clear 27 1015 39 10000 5.14 30 23:18 22.05.2022
1343 Clear 28 1015 36 10000 5.14 20 22:27 22.05.2022
1344 Clear 29 1015 37 10000 5.14 360 21:51 22.05.2022
1345 Clear 32 1014 31 10000 3.09 330 20:43 22.05.2022
1346 Clear 33 1014 29 10000 1.54 340 20:22 22.05.2022
1347 Clear 33 1014 31 10000 2.06 0 19:34 22.05.2022
1348 Clear 33 1015 31 10000 1.54 0 18:50 22.05.2022
1349 Clear 33 1015 33 10000 2.06 0 18:21 22.05.2022
1350 Clear 32 1016 37 10000 1.54 0 16:57 22.05.2022
1351 Clear 29 1016 45 10000 1.54 0 15:34 22.05.2022
1352 Clear 29 1017 48 10000 2.57 0 14:47 22.05.2022
1353 Clear 26 1017 57 10000 1.54 0 12:55 22.05.2022
1354 Clear 25 1017 57 10000 1.54 0 12:33 22.05.2022
1355 Clear 23 1017 64 10000 1.54 0 10:53 22.05.2022
1356 Clear 19 1017 77 10000 1.54 250 09:38 22.05.2022
1357 Clear 18 1017 77 10000 2.57 270 07:52 22.05.2022
1358 Clear 18 1016 77 10000 3.09 280 07:20 22.05.2022
1359 Clear 19 1016 72 10000 3.6 250 04:30 22.05.2022
1360 Clear 23 1018 60 10000 1.54 30 01:19 22.05.2022
1361 Clear 25 1018 53 10000 3.09 40 23:57 21.05.2022
1362 Clear 25 1018 53 10000 4.63 40 23:32 21.05.2022
1363 Clear 27 1018 44 10000 4.12 10 22:22 21.05.2022
1364 Clear 30 1017 39 10000 3.09 320 21:39 21.05.2022
1365 Clear 30 1016 42 10000 3.6 350 20:48 21.05.2022
1366 Clear 31 1016 40 10000 4.12 320 20:19 21.05.2022
1367 Clouds 32 1016 37 10000 4.63 270 19:24 21.05.2022
1368 Clouds 33 1016 38 8000 5.66 290 17:35 21.05.2022
1369 Clouds 31 1016 42 8000 2.57 0 15:38 21.05.2022
1370 Clouds 29 1017 48 8000 3.6 270 14:37 21.05.2022
1371 Clear 27 1017 54 8000 4.63 280 13:39 21.05.2022
1372 Clear 25 1017 61 8000 2.57 0 12:40 21.05.2022
1373 Clouds 24 1017 64 8000 2.57 0 11:54 21.05.2022
1374 Clouds 21 1017 78 8000 2.57 300 10:22 21.05.2022
1375 Clouds 19 1017 82 8000 3.09 250 09:20 21.05.2022
1376 Clouds 19 1017 82 8000 3.09 250 09:20 21.05.2022
1377 Clouds 18 1017 82 8000 3.6 240 08:47 21.05.2022
1378 Clouds 21 1015 58 10000 2.8 253 06:22 21.05.2022
1379 Clouds 21 1017 73 8000 3.6 270 02:24 21.05.2022
1380 Clouds 24 1017 60 8000 3.09 240 23:45 20.05.2022
1381 Clouds 25 1016 57 6000 3.6 290 22:42 20.05.2022
1382 Clouds 27 1015 50 6000 4.63 280 22:22 20.05.2022
1383 Clouds 27 1014 50 6000 2.06 0 21:27 20.05.2022
1384 Clouds 28 1015 51 6000 5.14 280 20:51 20.05.2022
1385 Clouds 30 1014 45 6000 8.75 260 19:55 20.05.2022
1386 Clouds 34 1012 36 6000 8.23 270 18:59 20.05.2022
1387 Clouds 35 1012 34 6000 6.69 280 18:27 20.05.2022
1388 Clouds 34 1012 33 8000 5.66 280 16:49 20.05.2022
1389 Clouds 33 1013 38 8000 4.12 280 15:55 20.05.2022
1390 Clouds 32 1013 40 8000 4.12 280 15:32 20.05.2022
1391 Clouds 30 1013 48 8000 2.57 310 14:28 20.05.2022
1392 Clouds 27 1014 54 8000 3.09 290 13:31 20.05.2022
1393 Clouds 23 1013 64 10000 5.14 280 10:56 20.05.2022
1394 Clouds 21 1012 68 10000 4.12 260 09:50 20.05.2022
1395 Clouds 23 1011 53 10000 2.57 260 08:38 20.05.2022
1396 Clear 24 1010 53 10000 2.57 100 06:45 20.05.2022
1397 Clear 24 1011 50 10000 1.54 90 05:53 20.05.2022
1398 Clear 25 1012 50 10000 2.06 260 02:53 20.05.2022
1399 Clouds 29 1013 42 8000 4.12 270 23:54 19.05.2022
1400 Clouds 31 1012 35 8000 6.17 250 22:44 19.05.2022
1401 Clouds 35 1010 24 8000 5.14 350 21:53 19.05.2022
1402 Clouds 37 1010 19 8000 5.14 340 21:24 19.05.2022
1403 Dust 39 1009 15 3000 5.66 310 20:54 19.05.2022
1404 Clouds 41 1009 7 9000 4.12 60 20:20 19.05.2022
1405 Clouds 41 1009 7 9000 5.14 50 19:25 19.05.2022
1406 Clear 42 1010 8 10000 3.6 60 17:52 19.05.2022
1407 Clear 42 1011 8 10000 3.09 0 16:22 19.05.2022
1408 Clear 40 1012 9 10000 2.06 360 14:50 19.05.2022
1409 Clear 40 1012 11 10000 2.06 0 14:21 19.05.2022
1410 Clear 31 1013 37 10000 2.57 70 12:20 19.05.2022
1411 Clear 25 1014 53 10000 3.09 80 10:40 19.05.2022
1412 Clear 21 1014 68 10000 2.06 100 08:57 19.05.2022
1413 Clear 19 1014 72 10000 1.54 60 07:41 19.05.2022
1414 Clear 20 1014 64 10000 1.54 260 04:44 19.05.2022
1415 Clear 24 1015 50 10000 1.54 60 01:57 19.05.2022
1416 Clear 26 1016 47 10000 2.06 30 23:49 18.05.2022
1417 Clear 27 1015 47 10000 3.6 10 22:46 18.05.2022
1418 Clear 30 1014 39 10000 4.12 360 21:47 18.05.2022
1419 Clear 31 1014 37 10000 4.63 350 21:24 18.05.2022
1420 Clouds 33 1013 35 10000 5.14 350 20:24 18.05.2022
1421 Clouds 36 1012 26 10000 4.12 330 19:37 18.05.2022
1422 Clouds 36 1012 24 10000 3.6 320 18:21 18.05.2022
1423 Clear 36 1013 24 10000 4.12 290 17:41 18.05.2022
1424 Clear 36 1013 24 10000 4.12 290 17:23 18.05.2022
1425 Clear 34 1014 31 10000 3.6 330 15:59 18.05.2022
1426 Clear 34 1014 31 10000 3.6 330 15:59 18.05.2022
1427 Clear 33 1014 33 10000 3.09 320 15:38 18.05.2022
1428 Clear 31 1015 40 10000 3.6 320 14:30 18.05.2022
1429 Clear 31 1015 40 10000 3.6 320 14:30 18.05.2022
1430 Clear 29 1016 45 10000 2.06 0 13:20 18.05.2022
1431 Clear 27 1016 54 10000 1.54 340 12:39 18.05.2022
1432 Clear 25 1017 61 10000 2.06 300 11:34 18.05.2022
1433 Clear 23 1017 64 10000 1.54 0 10:52 18.05.2022
1434 Clear 18 1016 77 10000 3.09 240 08:29 18.05.2022
1435 Clear 18 1016 77 10000 2.06 260 07:28 18.05.2022
1436 Clear 20 1015 64 10000 3.09 250 05:21 18.05.2022
1437 Clear 26 1017 44 10000 1.54 360 00:52 18.05.2022
1438 Clear 26 1017 44 10000 1.54 360 00:52 18.05.2022
1439 Clear 26 1017 44 10000 2.57 30 00:20 18.05.2022
1440 Clear 30 1015 37 10000 6.17 360 21:36 17.05.2022
1441 Clear 30 1015 37 10000 6.17 360 21:18 17.05.2022
1442 Clear 35 1015 24 10000 4.12 350 19:49 17.05.2022
1443 Clear 35 1015 24 10000 3.09 300 19:26 17.05.2022
1444 Clear 36 1015 24 10000 3.09 0 17:49 17.05.2022
1445 Clear 34 1016 27 10000 2.57 0 16:58 17.05.2022
1446 Clear 33 1016 29 10000 2.06 0 16:29 17.05.2022
1447 Clear 31 1018 33 10000 1.54 360 15:24 17.05.2022
1448 Clear 30 1018 35 10000 2.57 0 14:30 17.05.2022
1449 Clear 30 1018 35 10000 2.57 0 14:30 17.05.2022
1450 Clear 28 1019 39 10000 2.06 0 13:32 17.05.2022
1451 Clear 23 1020 53 10000 2.06 290 11:21 17.05.2022
1452 Clear 19 1019 68 10000 2.06 240 09:23 17.05.2022
1453 Clear 17 1019 67 10000 3.6 280 07:59 17.05.2022
1454 Clear 20 1018 60 10000 3.09 220 06:36 17.05.2022
1455 Clear 23 1019 46 10000 1.54 30 02:27 17.05.2022
1456 Clear 24 1020 43 10000 3.6 80 00:32 17.05.2022
1457 Clear 26 1018 41 10000 5.14 30 22:42 16.05.2022
1458 Clear 29 1017 37 10000 6.17 20 21:36 16.05.2022
1459 Clear 33 1016 25 10000 2.06 20 20:46 16.05.2022
1460 Clear 33 1017 25 10000 2.57 10 19:22 16.05.2022
1461 Clear 33 1017 24 10000 2.06 0 17:58 16.05.2022
1462 Clear 31 1018 27 10000 2.57 0 15:49 16.05.2022
1463 Clear 29 1019 34 10000 2.06 0 13:49 16.05.2022
1464 Clear 27 1020 36 10000 3.6 60 12:50 16.05.2022
1465 Clear 22 1020 60 10000 3.09 70 10:52 16.05.2022
1466 Clear 20 1020 68 10000 1.03 0 09:23 16.05.2022
1467 Clear 17 1019 72 10000 1.03 0 06:34 16.05.2022
1468 Clouds 21 1020 64 10000 2.57 40 02:38 16.05.2022
1469 Clear 23 1020 56 10000 4.12 310 23:19 15.05.2022
1470 Clear 24 1019 53 10000 5.14 320 22:29 15.05.2022
1471 Clear 28 1018 36 10000 5.14 270 21:39 15.05.2022
1472 Clouds 29 1018 34 10000 5.14 270 20:53 15.05.2022
1473 Clouds 30 1018 30 10000 3.09 280 19:24 15.05.2022
1474 Clear 30 1018 28 10000 3.09 0 17:48 15.05.2022
1475 Clear 28 1019 39 10000 2.57 0 15:56 15.05.2022
1476 Clear 25 1020 50 10000 2.57 320 13:50 15.05.2022
1477 Clear 23 1020 56 10000 3.09 300 12:23 15.05.2022
1478 Clear 20 1020 68 10000 2.57 270 11:38 15.05.2022
1479 Clear 20 1020 68 10000 2.57 270 11:38 15.05.2022
1480 Clear 18 1019 72 10000 2.57 280 10:23 15.05.2022
1481 Clear 17 1018 77 10000 2.06 340 07:46 15.05.2022
1482 Clear 17 1018 72 10000 1.54 290 06:57 15.05.2022
1483 Clear 16 1017 77 10000 1.54 260 04:44 15.05.2022
1484 Clear 20 1019 64 10000 3.6 230 00:48 15.05.2022
1485 Clouds 23 1018 53 10000 5.14 280 23:38 14.05.2022
1486 Clouds 25 1017 41 10000 5.14 260 22:45 14.05.2022
1487 Clouds 30 1016 28 10000 3.6 280 21:28 14.05.2022
1488 Clouds 31 1016 27 10000 4.63 260 20:44 14.05.2022
1489 Clouds 32 1016 22 10000 4.12 270 19:37 14.05.2022
1490 Clouds 32 1016 22 10000 4.12 270 19:19 14.05.2022
1491 Clouds 32 1016 20 10000 3.09 0 17:56 14.05.2022
1492 Clouds 31 1017 22 10000 3.6 300 16:37 14.05.2022
1493 Clear 29 1018 26 10000 3.6 0 14:59 14.05.2022
1494 Clear 29 1018 32 10000 3.6 320 14:30 14.05.2022
1495 Clear 27 1018 50 10000 3.09 320 12:23 14.05.2022
1496 Clear 25 1018 53 10000 1.03 0 10:54 14.05.2022
1497 Clear 22 1018 64 10000 2.06 280 10:20 14.05.2022
1498 Clear 22 1018 64 10000 2.06 280 09:53 14.05.2022
1499 Clear 20 1018 68 10000 1.03 0 08:46 14.05.2022
1500 Clear 20 1017 64 10000 1.54 260 05:43 14.05.2022
1501 Clear 23 1018 56 10000 4.63 260 01:58 14.05.2022
1502 Clear 27 1018 44 10000 2.57 50 23:32 13.05.2022
1503 Clear 27 1018 44 10000 3.09 360 22:57 13.05.2022
1504 Clear 28 1018 42 10000 2.57 10 22:23 13.05.2022
1505 Clouds 29 1017 42 10000 2.57 340 21:38 13.05.2022
1506 Clouds 29 1017 42 10000 4.12 340 20:44 13.05.2022
1507 Clouds 30 1017 39 10000 4.63 340 20:24 13.05.2022
1508 Clouds 32 1016 31 10000 7.72 270 19:21 13.05.2022
1509 Clear 34 1016 22 10000 4.63 280 17:50 13.05.2022
1510 Clear 34 1016 22 10000 4.63 280 17:50 13.05.2022
1511 Clear 34 1016 24 10000 3.09 280 17:27 13.05.2022
1512 Clear 34 1017 26 10000 3.09 280 16:18 13.05.2022
1513 Clear 32 1018 33 10000 4.12 280 14:54 13.05.2022
1514 Clear 29 1018 39 10000 2.57 330 13:27 13.05.2022
1515 Clear 27 1018 44 10000 2.06 330 12:25 13.05.2022
1516 Clear 24 1018 50 10000 0.51 0 10:46 13.05.2022
1517 Clear 19 1018 59 10000 3.09 260 09:33 13.05.2022
1518 Clear 19 1017 55 10000 0.51 0 08:23 13.05.2022
1519 Clear 19 1017 55 8000 1.03 0 07:42 13.05.2022
1520 Clear 21 1016 49 8000 2.06 0 05:59 13.05.2022
1521 Clouds 21 1018 49 10000 1.54 270 02:44 13.05.2022
1522 Clouds 23 1017 49 10000 5.14 230 23:46 12.05.2022
1523 Clouds 24 1017 43 10000 3.09 240 22:44 12.05.2022
1524 Clouds 27 1016 36 10000 1.54 0 21:54 12.05.2022
1525 Clouds 30 1015 30 10000 5.14 340 20:25 12.05.2022
1526 Clouds 31 1014 30 10000 6.17 310 18:41 12.05.2022
1527 Thunderstorm 33 1014 22 10000 9.26 200 16:58 12.05.2022
1528 Clouds 33 1014 21 10000 8.75 200 15:50 12.05.2022
1529 Thunderstorm 31 1016 23 6000 2.06 120 14:39 12.05.2022
1530 Thunderstorm 27 1016 39 6000 4.12 70 13:34 12.05.2022
1531 Clouds 25 1015 31 8000 3.09 50 10:43 12.05.2022
1532 Clouds 24 1016 31 8000 3.6 260 09:19 12.05.2022
1533 Clouds 24 1015 31 8000 4.12 110 08:41 12.05.2022
1534 Clouds 24 1014 31 8000 3.09 120 07:37 12.05.2022
1535 Clouds 24 1014 31 8000 5.66 70 05:32 12.05.2022
1536 Clouds 25 1016 27 8000 6.17 80 02:49 12.05.2022
1537 Clouds 27 1020 28 8000 2.57 350 00:32 12.05.2022
1538 Clouds 28 1017 20 8000 5.14 360 22:33 11.05.2022
1539 Clouds 30 1016 19 8000 4.12 10 21:33 11.05.2022
1540 Clouds 31 1015 18 8000 4.12 330 20:53 11.05.2022
1541 Clouds 34 1015 20 8000 5.14 320 18:24 11.05.2022
1542 Clouds 35 1015 16 8000 4.12 270 16:51 11.05.2022
1543 Clouds 35 1015 16 8000 4.12 270 16:51 11.05.2022
1544 Clear 33 1016 21 10000 2.06 0 14:51 11.05.2022
1545 Clear 32 1016 20 10000 3.09 310 14:26 11.05.2022
1546 Clouds 31 1017 23 8000 3.6 290 13:51 11.05.2022
1547 Clouds 29 1017 26 8000 4.12 280 11:51 11.05.2022
1548 Clouds 25 1016 36 8000 1.03 0 10:27 11.05.2022
1549 Clear 22 1014 40 10000 1.54 110 08:37 11.05.2022
1550 Clear 22 1014 35 10000 0.51 0 05:19 11.05.2022
1551 Clear 26 1016 29 10000 4.63 230 00:42 11.05.2022
1552 Clear 29 1014 28 10000 4.63 270 22:30 10.05.2022
1553 Clear 31 1014 25 10000 6.17 270 21:55 10.05.2022
1554 Clear 35 1013 10 10000 3.6 250 20:54 10.05.2022
1555 Clear 37 1013 9 10000 2.57 260 19:26 10.05.2022
1556 Clear 37 1014 9 10000 4.63 300 17:49 10.05.2022
1557 Clear 37 1014 12 10000 3.6 300 16:56 10.05.2022
1558 Clouds 36 1013 7 10000 4.15 307 14:48 10.05.2022
1559 Clear 31 1016 22 10000 1.03 0 12:39 10.05.2022
1560 Clear 29 1016 24 10000 1.54 340 11:49 10.05.2022
1561 Clear 28 1016 24 10000 1.54 0 11:18 10.05.2022
1562 Clear 24 1016 33 10000 1.54 70 10:22 10.05.2022
1563 Clear 23 1016 35 10000 1.03 0 09:25 10.05.2022
1564 Clear 22 1015 33 10000 1.03 0 06:46 10.05.2022
1565 Clear 24 1016 29 10000 1.03 0 03:29 10.05.2022
1566 Clear 28 1017 20 10000 1.03 0 00:38 10.05.2022
1567 Clear 31 1016 19 10000 3.09 350 22:52 09.05.2022
1568 Clouds 33 1015 17 8000 4.12 360 21:50 09.05.2022
1569 Clear 36 1014 12 8000 5.66 330 20:30 09.05.2022
1570 Clear 39 1013 8 8000 3.6 300 18:43 09.05.2022
1571 Clear 40 1013 9 8000 4.63 290 17:40 09.05.2022
1572 Clear 39 1013 8 8000 3.09 290 16:30 09.05.2022
1573 Clear 39 1013 8 8000 3.09 290 16:30 09.05.2022
1574 Clear 39 1014 8 8000 3.6 310 15:51 09.05.2022
1575 Clear 37 1014 11 10000 2.06 260 14:54 09.05.2022
1576 Clear 36 1015 13 10000 2.06 0 14:22 09.05.2022
1577 Clear 34 1015 15 10000 2.57 0 13:36 09.05.2022
1578 Clear 34 1015 15 10000 2.57 0 13:36 09.05.2022
1579 Clear 33 1015 17 10000 1.54 0 12:18 09.05.2022
1580 Clouds 28 1016 23 10000 2.06 80 10:55 09.05.2022
1581 Clouds 26 1015 25 10000 3.09 70 10:36 09.05.2022
1582 Clouds 19 1015 37 10000 2.57 90 08:31 09.05.2022
1583 Clear 20 1015 34 10000 3.09 90 07:49 09.05.2022
1584 Clear 24 1016 31 10000 0.51 0 02:55 09.05.2022
1585 Clear 30 1016 19 10000 3.09 30 23:29 08.05.2022
1586 Clear 30 1015 19 10000 4.12 20 22:51 08.05.2022
1587 Clear 32 1014 17 10000 5.66 360 21:48 08.05.2022
1588 Clear 35 1013 13 10000 4.63 340 20:33 08.05.2022
1589 Clear 37 1012 10 10000 5.14 270 19:37 08.05.2022
1590 Clear 37 1012 11 10000 2.06 0 18:51 08.05.2022
1591 Clear 37 1012 10 10000 3.6 300 17:52 08.05.2022
1592 Clear 36 1013 11 10000 3.6 0 16:33 08.05.2022
1593 Clear 36 1014 11 10000 3.09 300 15:25 08.05.2022
1594 Clear 35 1014 13 10000 2.57 320 14:27 08.05.2022
1595 Clear 30 1015 23 10000 2.06 100 11:53 08.05.2022
1596 Clear 24 1016 33 10000 2.57 90 10:27 08.05.2022
1597 Clear 21 1016 40 10000 2.57 70 09:55 08.05.2022
1598 Clear 18 1016 48 10000 3.09 90 08:37 08.05.2022
1599 Clear 19 1016 45 10000 1.54 100 06:32 08.05.2022
1600 Clear 21 1017 40 10000 1.03 0 03:25 08.05.2022
1601 Clear 25 1017 31 10000 2.06 50 01:25 08.05.2022
1602 Clear 26 1017 29 10000 3.6 70 00:20 08.05.2022
1603 Clear 27 1017 28 10000 3.09 50 23:41 07.05.2022
1604 Clear 28 1016 24 10000 5.14 30 22:46 07.05.2022
1605 Clear 30 1015 17 10000 4.63 360 21:57 07.05.2022
1606 Clear 31 1015 16 10000 4.63 350 21:32 07.05.2022
1607 Clouds 33 1014 15 10000 3.6 350 20:27 07.05.2022
1608 Clouds 34 1015 14 10000 2.57 0 18:59 07.05.2022
1609 Clear 34 1015 15 10000 4.12 0 16:51 07.05.2022
1610 Clear 33 1017 15 10000 2.06 0 15:18 07.05.2022
1611 Clear 29 1018 24 10000 1.54 20 12:23 07.05.2022
1612 Clear 24 1018 35 10000 1.54 40 10:18 07.05.2022
1613 Clear 18 1018 42 10000 1.54 130 08:34 07.05.2022
1614 Clear 17 1018 51 10000 0.51 0 07:30 07.05.2022
1615 Clear 18 1017 48 10000 0.51 0 06:42 07.05.2022
1616 Clear 21 1018 43 10000 1.54 90 04:19 07.05.2022
1617 Clear 24 1019 38 10000 3.09 70 00:49 07.05.2022
1618 Clear 28 1018 28 10000 4.63 10 22:41 06.05.2022
1619 Clear 28 1018 28 10000 4.63 10 22:21 06.05.2022
1620 Clear 30 1017 20 10000 4.63 360 21:31 06.05.2022
1621 Clear 33 1016 16 10000 3.09 360 19:49 06.05.2022
1622 Clear 33 1017 16 10000 3.09 0 19:25 06.05.2022
1623 Clear 33 1017 16 10000 4.12 340 18:34 06.05.2022
1624 Clear 34 1017 15 10000 2.06 0 17:36 06.05.2022
1625 Clear 33 1018 18 10000 3.09 350 15:53 06.05.2022
1626 Clear 33 1018 19 10000 2.06 0 15:28 06.05.2022
1627 Clear 29 1019 26 10000 2.57 0 13:49 06.05.2022
1628 Clear 27 1019 32 10000 2.57 60 12:50 06.05.2022
1629 Clear 24 1019 41 10000 2.06 0 11:58 06.05.2022
1630 Clear 22 1019 46 10000 3.09 80 11:24 06.05.2022
1631 Clear 19 1019 55 10000 3.6 90 09:47 06.05.2022
1632 Clear 18 1019 55 10000 3.09 100 09:18 06.05.2022
1633 Clear 16 1018 55 10000 2.57 90 07:49 06.05.2022
1634 Clear 18 1018 52 10000 2.06 30 06:26 06.05.2022
1635 Clear 20 1019 52 10000 2.57 70 02:58 06.05.2022
1636 Clear 21 1019 49 10000 3.6 60 02:38 06.05.2022
1637 Clouds 26 1017 24 10000 3.09 40 22:58 05.05.2022
1638 Clouds 27 1016 21 10000 3.09 40 21:49 05.05.2022
1639 Clouds 29 1016 20 10000 4.12 30 20:36 05.05.2022
1640 Clouds 29 1016 21 10000 4.12 30 18:54 05.05.2022
1641 Clouds 27 1016 28 10000 4.12 40 16:42 05.05.2022
1642 Clear 27 1017 29 10000 4.12 40 15:30 05.05.2022
1643 Clear 24 1018 38 10000 3.09 60 13:30 05.05.2022
1644 Clear 23 1018 43 10000 3.6 30 12:56 05.05.2022
1645 Clear 20 1018 56 10000 2.57 80 11:22 05.05.2022
1646 Clear 16 1018 72 8000 3.6 80 09:40 05.05.2022
1647 Clear 14 1017 82 10000 2.57 70 08:34 05.05.2022
1648 Clear 15 1016 72 10000 1.03 0 06:23 05.05.2022
1649 Clear 17 1017 67 10000 4.12 60 02:23 05.05.2022
1650 Clear 17 1017 67 10000 5.14 50 01:37 05.05.2022
1651 Clear 18 1017 63 10000 5.66 20 00:43 05.05.2022
1652 Clouds 21 1016 46 10000 5.14 30 22:57 04.05.2022
1653 Clouds 22 1015 37 10000 5.14 40 21:59 04.05.2022
1654 Clouds 23 1014 35 10000 4.12 30 21:30 04.05.2022
1655 Clouds 23 1014 35 10000 5.14 30 20:42 04.05.2022
1656 Clouds 24 1014 31 10000 3.6 0 19:59 04.05.2022
1657 Clouds 24 1014 31 10000 3.6 50 19:35 04.05.2022
1658 Clouds 24 1014 31 10000 3.6 0 18:23 04.05.2022
1659 Clouds 24 1014 31 10000 3.6 0 17:59 04.05.2022
1660 Clouds 24 1014 35 10000 2.06 0 16:29 04.05.2022
1661 Clouds 23 1014 38 10000 2.57 0 15:32 04.05.2022
1662 Clouds 21 1015 43 10000 3.09 0 14:38 04.05.2022
1663 Clouds 21 1015 43 10000 3.09 0 14:18 04.05.2022
1664 Clouds 19 1016 52 10000 2.06 10 12:34 04.05.2022
1665 Clouds 18 1015 59 10000 1.54 0 11:25 04.05.2022
1666 Clouds 15 1015 67 10000 2.06 50 09:46 04.05.2022
1667 Clouds 14 1014 72 10000 2.06 60 08:56 04.05.2022
1668 Clouds 14 1014 72 10000 2.57 30 07:33 04.05.2022
1669 Clouds 15 1014 67 10000 2.06 30 03:50 04.05.2022
1670 Clouds 16 1015 63 10000 2.06 30 01:41 04.05.2022
1671 Clouds 17 1013 55 10000 5.14 350 22:59 03.05.2022
1672 Clouds 18 1012 52 10000 4.12 350 21:47 03.05.2022
1673 Clouds 19 1012 52 10000 4.63 330 21:21 03.05.2022
1674 Clouds 19 1012 52 10000 4.12 340 21:21 03.05.2022
1675 Clouds 20 1012 49 10000 5.14 330 20:38 03.05.2022
1676 Clouds 21 1012 49 10000 5.66 330 18:55 03.05.2022
1677 Clouds 23 1011 40 10000 3.6 0 18:37 03.05.2022
1678 Clouds 22 1012 43 10000 4.63 310 17:20 03.05.2022
1679 Clouds 22 1012 43 10000 4.63 310 17:20 03.05.2022
1680 Clouds 22 1013 40 10000 3.09 310 15:48 03.05.2022
1681 Clouds 21 1014 46 10000 3.09 0 14:22 03.05.2022
1682 Clouds 18 1014 59 10000 2.06 310 12:31 03.05.2022
1683 Clouds 17 1014 63 10000 0.51 0 11:24 03.05.2022
1684 Clouds 16 1014 67 10000 1.03 0 10:25 03.05.2022
1685 Clouds 15 1014 67 10000 2.06 40 08:18 03.05.2022
1686 Clouds 15 1013 67 10000 3.09 30 06:45 03.05.2022
1687 Clouds 17 1016 59 10000 3.6 20 01:56 03.05.2022
1688 Clouds 19 1017 52 10000 4.12 360 22:47 02.05.2022
1689 Clear 20 1017 49 10000 3.6 360 22:28 02.05.2022
1690 Clear 21 1016 46 10000 5.14 340 21:26 02.05.2022
1691 Clear 27 1015 29 10000 3.6 300 18:57 02.05.2022
1692 Clear 27 1015 29 10000 3.6 330 18:25 02.05.2022
1693 Clear 27 1015 29 10000 3.6 0 17:38 02.05.2022
1694 Clear 28 1016 30 10000 2.06 0 16:37 02.05.2022
1695 Clear 26 1017 31 10000 2.06 10 15:41 02.05.2022
1696 Clear 24 1017 33 10000 2.06 280 14:20 02.05.2022
1697 Clear 23 1019 40 10000 2.06 0 12:52 02.05.2022
1698 Clear 20 1019 37 10000 2.06 60 11:41 02.05.2022
1699 Clear 15 1019 72 10000 2.06 260 09:32 02.05.2022
1700 Clear 14 1019 67 10000 1.54 240 07:57 02.05.2022
1701 Clear 16 1019 55 10000 1.54 0 05:59 02.05.2022
1702 Clear 22 1021 37 10000 2.57 10 00:44 02.05.2022
1703 Clear 22 1021 37 10000 3.6 20 00:21 02.05.2022
1704 Clouds 25 1019 36 10000 4.63 340 22:53 01.05.2022
1705 Clouds 27 1018 28 10000 4.63 340 21:41 01.05.2022
1706 Clouds 29 1018 23 10000 3.6 330 20:29 01.05.2022
1707 Clear 30 1018 21 10000 4.63 310 19:20 01.05.2022
1708 Clear 31 1017 19 10000 3.6 310 18:52 01.05.2022
1709 Clear 31 1018 16 10000 4.12 290 17:49 01.05.2022
1710 Clear 31 1018 22 10000 3.09 320 16:29 01.05.2022
1711 Clear 30 1019 23 10000 2.57 0 15:45 01.05.2022
1712 Clear 29 1019 26 10000 2.06 20 14:45 01.05.2022
1713 Clear 25 1020 36 10000 1.54 0 12:23 01.05.2022
1714 Clear 19 1020 52 10000 1.03 0 09:34 01.05.2022
1715 Clear 16 1020 59 10000 0.51 0 08:49 01.05.2022
1716 Clear 17 1019 51 10000 1.03 0 05:42 01.05.2022
1717 Clear 20 1020 45 10000 4.12 230 01:32 01.05.2022
1718 Clear 25 1018 33 10000 5.14 280 22:18 30.04.2022
1719 Clear 26 1017 31 10000 6.17 270 21:32 30.04.2022
1720 Clear 29 1016 20 10000 7.2 260 19:53 30.04.2022
1721 Clear 30 1016 17 10000 4.12 270 18:52 30.04.2022
1722 Clear 30 1016 19 10000 3.6 300 17:26 30.04.2022
1723 Clear 30 1017 17 10000 3.6 330 15:51 30.04.2022
1724 Clear 30 1018 17 10000 1.03 0 14:58 30.04.2022
1725 Clear 28 1018 24 10000 2.06 0 13:41 30.04.2022
1726 Clear 23 1018 43 10000 0.51 0 11:41 30.04.2022
1727 Clear 20 1018 45 10000 0.51 0 10:56 30.04.2022
1728 Clear 18 1018 59 10000 0.51 0 09:54 30.04.2022
1729 Clear 13 1016 71 10000 0 0 07:36 30.04.2022
1730 Clear 16 1017 59 10000 3.09 250 03:53 30.04.2022
1731 Clear 21 1017 46 10000 4.63 30 23:55 29.04.2022
1732 Clear 25 1015 19 10000 2.57 30 22:37 29.04.2022
1733 Clear 26 1015 18 10000 3.09 40 21:55 29.04.2022
1734 Clear 26 1014 18 10000 3.6 40 21:24 29.04.2022
1735 Clear 28 1014 15 10000 4.12 20 19:55 29.04.2022
1736 Clear 28 1013 15 10000 4.63 30 19:26 29.04.2022
1737 Clear 28 1013 17 10000 5.14 40 17:34 29.04.2022
1738 Clear 26 1014 21 10000 4.63 30 16:36 29.04.2022
1739 Clear 25 1015 22 10000 5.14 40 14:34 29.04.2022
1740 Clouds 23 1016 38 10000 3.6 20 13:27 29.04.2022
1741 Clouds 21 1016 49 10000 3.6 50 12:36 29.04.2022
1742 Clouds 16 1017 59 10000 4.63 80 10:29 29.04.2022
1743 Clouds 13 1016 71 10000 3.09 80 07:52 29.04.2022
1744 Clouds 13 1015 71 10000 3.09 60 07:25 29.04.2022
1745 Clouds 14 1015 72 10000 4.12 40 06:29 29.04.2022
1746 Clear 16 1018 67 10000 5.66 50 00:52 29.04.2022
1747 Clear 16 1018 67 10000 6.17 40 23:52 28.04.2022
1748 Clear 17 1017 63 10000 6.17 30 23:25 28.04.2022
1749 Clear 20 1015 52 10000 6.17 20 22:19 28.04.2022
1750 Clear 24 1015 27 10000 5.14 20 21:41 28.04.2022
1751 Clouds 24 1015 25 10000 3.6 10 20:43 28.04.2022
1752 Clouds 25 1015 23 10000 4.12 40 19:49 28.04.2022
1753 Clouds 26 1014 22 10000 3.09 10 19:24 28.04.2022
1754 Clouds 26 1014 22 10000 3.09 10 19:24 28.04.2022
1755 Clouds 26 1014 27 10000 3.09 60 18:45 28.04.2022
1756 Clear 26 1015 27 10000 3.09 50 17:42 28.04.2022
1757 Clear 25 1016 31 10000 3.09 20 16:51 28.04.2022
1758 Clear 24 1016 35 10000 2.57 0 16:20 28.04.2022
1759 Clear 24 1016 35 10000 2.57 0 16:20 28.04.2022
1760 Clear 23 1016 40 10000 3.6 30 15:43 28.04.2022
1761 Clear 23 1017 40 10000 3.6 10 14:58 28.04.2022
1762 Clear 20 1018 52 10000 3.6 50 13:33 28.04.2022
1763 Clear 18 1018 55 10000 3.6 30 12:28 28.04.2022
1764 Clouds 16 1019 59 10000 3.09 50 10:59 28.04.2022
1765 Clouds 15 1019 67 10000 3.6 50 10:26 28.04.2022
1766 Clouds 14 1019 72 10000 3.09 40 09:47 28.04.2022
1767 Clouds 13 1019 71 10000 3.6 30 07:40 28.04.2022
1768 Clouds 13 1018 71 10000 3.09 30 06:42 28.04.2022
1769 Clouds 13 1018 67 10000 2.57 30 05:52 28.04.2022
1770 Clouds 15 1018 55 10000 3.09 40 04:42 28.04.2022
1771 Clouds 17 1018 63 10000 6.17 50 00:52 28.04.2022
1772 Clouds 19 1017 59 10000 6.17 30 23:25 27.04.2022
1773 Clouds 21 1016 49 10000 6.69 20 22:18 27.04.2022
1774 Clouds 23 1015 43 10000 5.66 360 21:34 27.04.2022
1775 Clouds 24 1015 38 10000 5.14 360 20:45 27.04.2022
1776 Clouds 26 1015 25 10000 2.06 70 19:54 27.04.2022
1777 Clouds 26 1015 25 10000 2.57 330 19:31 27.04.2022
1778 Clouds 26 1015 29 10000 3.09 0 18:38 27.04.2022
1779 Clouds 27 1015 29 10000 2.57 30 17:41 27.04.2022
1780 Clouds 23 1016 43 10000 1.54 0 15:56 27.04.2022
1781 Clouds 19 1017 55 10000 2.06 0 12:50 27.04.2022
1782 Clouds 16 1017 72 10000 1.54 0 11:23 27.04.2022
1783 Clouds 15 1017 72 10000 2.06 60 10:27 27.04.2022
1784 Clouds 13 1016 76 8000 2.57 80 07:53 27.04.2022
1785 Clouds 13 1016 67 8000 2.06 250 06:36 27.04.2022
1786 Clouds 17 1015 55 8000 2.57 20 02:25 27.04.2022
1787 Clouds 18 1016 52 8000 3.6 30 01:21 27.04.2022
1788 Clouds 18 1015 48 8000 3.6 30 00:27 27.04.2022
1789 Clouds 19 1015 45 8000 4.12 30 23:24 26.04.2022
1790 Clouds 20 1014 42 8000 5.66 350 22:44 26.04.2022
1791 Clouds 21 1013 40 8000 6.69 360 21:57 26.04.2022
1792 Clouds 22 1012 40 8000 5.66 360 21:18 26.04.2022
1793 Clouds 24 1012 33 10000 3.6 340 20:36 26.04.2022
1794 Clouds 24 1012 33 10000 3.6 340 19:44 26.04.2022
1795 Clouds 24 1012 35 10000 4.12 340 19:24 26.04.2022
1796 Clouds 26 1011 29 10000 4.12 10 18:20 26.04.2022
1797 Clouds 26 1011 27 10000 3.09 350 17:34 26.04.2022
1798 Clouds 24 1012 35 10000 3.6 310 14:58 26.04.2022
1799 Clouds 21 1012 49 8000 2.57 330 13:38 26.04.2022
1800 Clouds 19 1012 55 8000 2.57 310 12:35 26.04.2022
1801 Clouds 17 1012 63 8000 1.54 300 10:57 26.04.2022
1802 Clouds 16 1012 67 8000 2.06 300 10:29 26.04.2022
1803 Clouds 14 1011 72 8000 2.06 240 08:29 26.04.2022
1804 Clouds 15 1011 63 8000 2.57 270 04:38 26.04.2022
1805 Clouds 16 1011 59 8000 2.57 250 03:25 26.04.2022
1806 Clouds 18 1011 55 8000 4.12 30 00:39 26.04.2022
1807 Clouds 19 1011 52 8000 4.12 20 23:44 25.04.2022
1808 Clouds 23 1009 33 8000 3.09 330 21:44 25.04.2022
1809 Clouds 23 1009 33 8000 3.09 340 20:49 25.04.2022
1810 Clouds 25 1009 29 8000 2.57 0 19:39 25.04.2022
1811 Clouds 24 1009 33 8000 2.06 0 18:25 25.04.2022
1812 Clouds 24 1009 33 8000 2.06 0 17:39 25.04.2022
1813 Clouds 24 1009 35 8000 1.03 0 15:51 25.04.2022
1814 Clouds 23 1010 38 8000 2.06 0 15:18 25.04.2022
1815 Clouds 20 1011 45 8000 3.09 330 13:59 25.04.2022
1816 Clouds 19 1011 52 8000 2.57 340 12:22 25.04.2022
1817 Clouds 15 1011 72 8000 1.54 280 10:29 25.04.2022
1818 Clouds 13 1011 76 8000 2.06 240 09:23 25.04.2022
1819 Clear 12 1011 76 8000 2.57 230 07:34 25.04.2022
1820 Clear 12 1012 79 10000 1.08 39 05:53 25.04.2022
1821 Clouds 14 1013 60 10000 4.71 15 01:24 25.04.2022
1822 Clouds 19 1012 45 10000 4.63 20 23:54 24.04.2022
1823 Clouds 20 1012 45 10000 3.09 180 22:53 24.04.2022
1824 Clouds 20 1011 49 10000 4.12 170 22:32 24.04.2022
1825 Clouds 20 1011 49 10000 4.63 160 21:54 24.04.2022
1826 Clouds 21 1011 43 10000 3.09 0 21:20 24.04.2022
1827 Clouds 21 1011 40 10000 2.06 130 20:39 24.04.2022
1828 Clouds 22 1011 40 10000 1.54 0 19:51 24.04.2022
1829 Clouds 21 1011 43 10000 2.57 0 18:28 24.04.2022
1830 Clouds 21 1011 43 10000 2.57 70 17:40 24.04.2022
1831 Clouds 21 1011 43 10000 2.57 70 17:20 24.04.2022
1832 Clouds 21 1011 43 10000 3.6 90 16:49 24.04.2022
1833 Clouds 21 1011 43 10000 2.57 70 16:20 24.04.2022
1834 Clouds 20 1012 45 10000 3.09 90 15:32 24.04.2022
1835 Clouds 19 1012 48 10000 3.09 30 14:30 24.04.2022
1836 Clouds 19 1013 48 10000 1.03 0 13:26 24.04.2022
1837 Clouds 18 1013 52 10000 2.06 0 12:37 24.04.2022
1838 Clouds 16 1013 55 10000 1.54 360 11:39 24.04.2022
1839 Clouds 16 1013 51 10000 1.54 0 10:32 24.04.2022
1840 Clouds 14 1012 54 10000 1.54 40 09:39 24.04.2022
1841 Clouds 14 1012 58 10000 2.57 40 07:31 24.04.2022
1842 Clouds 14 1013 62 10000 2.57 30 04:44 24.04.2022
1843 Clouds 15 1014 63 10000 4.63 30 01:39 24.04.2022
1844 Clouds 16 1014 59 10000 5.66 20 00:30 24.04.2022
1845 Clouds 17 1014 51 10000 5.14 360 23:45 23.04.2022
1846 Clouds 18 1014 52 10000 4.63 360 23:22 23.04.2022
1847 Clouds 19 1013 52 10000 3.09 350 21:54 23.04.2022
1848 Clouds 19 1013 52 10000 3.6 360 21:34 23.04.2022
1849 Clouds 19 1013 52 10000 3.6 10 20:57 23.04.2022
1850 Clouds 20 1013 49 10000 4.12 360 19:48 23.04.2022
1851 Clouds 21 1012 43 10000 3.6 340 19:19 23.04.2022
1852 Clouds 22 1012 40 10000 2.57 340 18:52 23.04.2022
1853 Clouds 21 1012 43 10000 2.06 10 17:51 23.04.2022
1854 Clouds 21 1013 43 10000 4.12 340 17:30 23.04.2022
1855 Clouds 22 1013 43 10000 2.57 0 16:42 23.04.2022
1856 Clouds 20 1013 52 10000 2.57 0 15:28 23.04.2022
1857 Clouds 18 1014 63 10000 1.54 0 12:44 23.04.2022
1858 Clouds 15 1015 77 10000 1.54 0 10:49 23.04.2022
1859 Clouds 13 1014 82 10000 1.54 270 09:38 23.04.2022
1860 Clouds 14 1013 67 10000 2.57 270 06:41 23.04.2022
1861 Clouds 13 1013 71 10000 2.06 290 03:54 23.04.2022
1862 Clouds 14 1013 72 10000 5.66 290 01:20 23.04.2022
1863 Clouds 15 1013 67 10000 4.63 290 23:30 22.04.2022
1864 Clouds 17 1012 55 10000 7.2 270 22:20 22.04.2022
1865 Clouds 17 1011 51 10000 6.69 270 21:43 22.04.2022
1866 Clouds 20 1010 42 10000 7.72 280 20:48 22.04.2022
1867 Clouds 21 1010 40 10000 7.2 290 20:27 22.04.2022
1868 Clouds 22 1010 37 10000 6.69 270 19:20 22.04.2022
1869 Clouds 22 1010 37 10000 6.69 280 18:42 22.04.2022
1870 Clouds 22 1010 37 10000 7.72 280 17:41 22.04.2022
1871 Clouds 22 1010 37 10000 6.69 280 16:46 22.04.2022
1872 Clouds 21 1010 40 10000 5.14 280 15:44 22.04.2022
1873 Clouds 21 1010 43 10000 4.63 300 15:18 22.04.2022
1874 Clear 19 1011 42 10000 5.14 270 13:50 22.04.2022
1875 Clear 17 1012 51 10000 3.6 260 12:58 22.04.2022
1876 Clear 15 1012 58 10000 3.6 270 11:50 22.04.2022
1877 Clear 14 1011 62 10000 4.12 280 11:22 22.04.2022
1878 Clear 14 1011 62 10000 4.12 280 10:50 22.04.2022
1879 Clear 13 1011 67 10000 3.6 270 10:30 22.04.2022
1880 Clear 12 1011 66 10000 3.09 250 09:50 22.04.2022
1881 Clear 10 1011 76 10000 2.57 240 08:50 22.04.2022
1882 Clear 9 1010 71 10000 2.06 260 07:20 22.04.2022
1883 Clear 13 1012 54 10000 1.54 250 03:30 22.04.2022
1884 Clear 15 1012 47 10000 4.63 30 00:51 22.04.2022
1885 Clear 17 1012 45 10000 5.66 10 23:24 21.04.2022
1886 Clear 20 1012 26 10000 3.6 40 22:27 21.04.2022
1887 Clear 22 1012 21 10000 3.6 50 20:37 21.04.2022
1888 Clear 22 1012 21 10000 3.6 50 20:18 21.04.2022
1889 Clear 22 1012 24 10000 3.09 360 18:42 21.04.2022
1890 Clear 23 1012 25 10000 3.09 50 17:57 21.04.2022
1891 Clear 21 1013 28 10000 3.6 40 16:35 21.04.2022
1892 Clear 20 1014 32 10000 3.09 40 15:21 21.04.2022
1893 Clear 19 1014 34 10000 3.6 0 14:47 21.04.2022
1894 Clear 17 1015 39 10000 3.6 60 13:23 21.04.2022
1895 Clear 17 1016 42 10000 3.6 50 12:53 21.04.2022
1896 Clear 14 1016 54 10000 4.63 50 10:47 21.04.2022
1897 Clear 11 1016 66 10000 2.57 90 08:56 21.04.2022
1898 Clouds 11 1016 66 10000 3.09 70 07:24 21.04.2022
1899 Clouds 12 1016 62 10000 3.6 60 05:42 21.04.2022
1900 Clouds 12 1017 66 10000 5.14 50 03:30 21.04.2022
1901 Clouds 12 1018 66 10000 4.63 40 02:47 21.04.2022
1902 Clouds 13 1018 62 10000 5.14 30 00:45 21.04.2022
1903 Clouds 15 1017 51 10000 4.63 20 23:50 20.04.2022
1904 Clouds 16 1016 48 10000 4.63 10 23:22 20.04.2022
1905 Clouds 16 1016 48 10000 4.63 10 22:49 20.04.2022
1906 Clouds 17 1016 42 10000 5.66 10 22:30 20.04.2022
1907 Clouds 18 1016 39 10000 4.63 360 21:27 20.04.2022
1908 Clouds 20 1015 34 10000 4.12 330 20:24 20.04.2022
1909 Clouds 20 1015 34 10000 4.12 10 19:52 20.04.2022
1910 Clouds 20 1015 34 10000 3.6 360 19:20 20.04.2022
1911 Clouds 20 1015 37 10000 4.12 0 17:56 20.04.2022
1912 Clouds 20 1016 37 10000 3.6 20 16:54 20.04.2022
1913 Clouds 20 1016 37 10000 3.6 30 16:36 20.04.2022
1914 Clouds 16 1018 55 10000 2.06 0 13:59 20.04.2022
1915 Clouds 14 1017 58 10000 3.09 130 11:50 20.04.2022
1916 Clouds 13 1017 67 10000 4.12 110 11:21 20.04.2022
1917 Clouds 12 1017 66 10000 3.6 90 10:19 20.04.2022
1918 Clouds 12 1017 71 10000 3.6 80 09:25 20.04.2022
1919 Clouds 12 1017 66 10000 3.6 70 08:22 20.04.2022
1920 Clear 11 1017 71 10000 3.09 80 07:36 20.04.2022
1921 Clear 13 1017 62 10000 5.14 50 03:38 20.04.2022
1922 Clouds 15 1018 58 10000 5.14 30 00:23 20.04.2022
1923 Clouds 15 1018 58 10000 5.14 40 23:56 19.04.2022
1924 Clouds 18 1016 48 10000 4.63 360 22:27 19.04.2022
1925 Clouds 19 1016 45 10000 5.14 360 21:57 19.04.2022
1926 Clouds 20 1015 42 10000 5.14 10 21:24 19.04.2022
1927 Clouds 21 1015 40 10000 5.66 350 20:45 19.04.2022
1928 Clouds 24 1014 38 10000 4.12 340 19:57 19.04.2022
1929 Clouds 24 1014 41 10000 2.06 0 18:49 19.04.2022
1930 Clouds 25 1015 41 10000 2.06 0 17:50 19.04.2022
1931 Clouds 23 1016 49 10000 2.06 0 16:43 19.04.2022
1932 Clouds 22 1016 53 10000 2.06 0 16:23 19.04.2022
1933 Clouds 20 1017 60 10000 1.54 0 14:50 19.04.2022
1934 Clouds 18 1017 72 10000 1.54 20 13:54 19.04.2022
1935 Clouds 16 1017 77 10000 2.06 0 12:50 19.04.2022
1936 Clouds 16 1017 77 10000 2.06 20 12:20 19.04.2022
1937 Clouds 15 1017 82 7000 1.03 0 10:46 19.04.2022
1938 Clouds 14 1017 88 8000 1.03 0 09:22 19.04.2022
1939 Clear 14 1016 82 10000 3.6 230 05:59 19.04.2022
1940 Clear 16 1017 72 10000 2.57 260 03:37 19.04.2022
1941 Clear 19 1018 63 10000 3.09 290 00:55 19.04.2022
1942 Clear 20 1018 60 10000 4.12 300 23:31 18.04.2022
1943 Clear 26 1014 41 10000 5.66 350 21:30 18.04.2022
1944 Clear 28 1014 34 10000 5.66 350 20:56 18.04.2022
1945 Clear 30 1014 21 10000 4.12 300 20:32 18.04.2022
1946 Clear 31 1013 20 10000 4.63 300 19:51 18.04.2022
1947 Clear 32 1013 15 10000 5.66 280 18:57 18.04.2022
1948 Clear 32 1013 15 10000 4.63 0 17:58 18.04.2022
1949 Clear 32 1013 15 10000 3.09 0 17:34 18.04.2022
1950 Clear 32 1014 15 10000 3.6 270 16:59 18.04.2022
1951 Clear 32 1014 18 10000 3.09 0 16:32 18.04.2022
1952 Clear 29 1015 24 10000 2.06 50 14:59 18.04.2022
1953 Clear 28 1016 30 10000 1.03 0 13:39 18.04.2022
1954 Clear 26 1016 36 10000 1.03 0 12:32 18.04.2022
1955 Clear 23 1016 46 10000 1.54 310 11:35 18.04.2022
1956 Clear 21 1016 49 10000 1.54 300 10:32 18.04.2022
1957 Clear 18 1015 55 10000 1.54 270 09:31 18.04.2022
1958 Clear 17 1015 55 10000 1.54 250 07:54 18.04.2022
1959 Clear 19 1014 48 10000 2.06 230 05:45 18.04.2022
1960 Clear 24 1016 33 10000 2.06 100 00:49 18.04.2022
1961 Clear 27 1015 28 10000 5.14 10 22:42 17.04.2022
1962 Clear 29 1015 20 10000 3.09 330 21:49 17.04.2022
1963 Clear 30 1014 19 10000 3.09 340 21:27 17.04.2022
1964 Clear 31 1014 18 10000 3.09 290 20:41 17.04.2022
1965 Clear 32 1014 18 10000 4.12 290 19:40 17.04.2022
1966 Clouds 31 1013 11 10000 5.35 295 18:21 17.04.2022
1967 Clear 33 1015 16 10000 2.06 360 16:27 17.04.2022
1968 Clear 32 1016 17 10000 2.06 0 15:26 17.04.2022
1969 Clear 32 1016 20 10000 2.06 10 14:19 17.04.2022
1970 Clear 30 1017 25 10000 1.54 0 13:18 17.04.2022
1971 Clear 28 1017 24 10000 1.54 0 12:27 17.04.2022
1972 Clear 28 1017 24 10000 1.54 0 12:27 17.04.2022
1973 Clear 24 1017 33 10000 1.03 0 10:46 17.04.2022
1974 Clear 23 1017 33 10000 1.03 0 10:28 17.04.2022
1975 Clear 20 1017 37 10000 2.57 180 09:37 17.04.2022
1976 Clear 19 1017 39 10000 2.57 180 08:53 17.04.2022
1977 Clear 19 1016 42 10000 1.54 170 07:37 17.04.2022
1978 Clear 20 1016 40 10000 1.54 230 04:30 17.04.2022
1979 Clear 24 1017 33 10000 1.54 170 01:27 17.04.2022
1980 Clear 26 1017 29 10000 3.6 30 23:52 16.04.2022
1981 Clear 28 1016 18 10000 1.54 20 22:39 16.04.2022
1982 Clear 30 1015 16 10000 2.06 340 21:39 16.04.2022
1983 Clear 32 1015 17 10000 2.57 340 20:32 16.04.2022
1984 Clear 33 1015 16 10000 2.06 340 18:59 16.04.2022
1985 Clear 33 1015 14 10000 1.54 150 17:52 16.04.2022
1986 Clear 33 1015 16 10000 1.54 0 16:40 16.04.2022
1987 Clear 31 1016 18 10000 1.54 0 15:45 16.04.2022
1988 Clear 30 1016 21 10000 2.06 0 14:56 16.04.2022
1989 Clear 29 1017 24 10000 1.54 360 13:58 16.04.2022
1990 Clear 28 1017 28 10000 1.03 0 13:37 16.04.2022
1991 Clear 26 1017 29 10000 1.03 0 12:26 16.04.2022
1992 Clear 21 1017 40 10000 1.54 30 10:50 16.04.2022
1993 Clear 20 1017 45 10000 0.51 0 09:56 16.04.2022
1994 Clear 14 1016 62 10000 1.54 100 08:57 16.04.2022
1995 Clear 14 1016 62 10000 1.54 80 07:52 16.04.2022
1996 Clear 16 1016 59 10000 1.03 0 06:58 16.04.2022
1997 Clear 20 1017 42 10000 4.12 110 02:52 16.04.2022
1998 Clear 23 1017 35 10000 4.63 60 00:30 16.04.2022
1999 Clear 23 1016 31 10000 2.57 70 23:21 15.04.2022
2000 Clear 25 1016 25 10000 2.57 70 22:32 15.04.2022
2001 Clear 26 1015 24 10000 3.6 60 21:50 15.04.2022
2002 Clear 28 1015 21 10000 4.12 90 21:18 15.04.2022
2003 Clear 29 1014 21 10000 4.12 90 20:22 15.04.2022
2004 Clear 29 1014 20 10000 5.14 70 19:40 15.04.2022
2005 Clear 30 1014 19 10000 3.6 50 18:54 15.04.2022
2006 Clear 29 1014 20 10000 4.12 50 18:25 15.04.2022
2007 Clear 29 1015 21 10000 4.12 20 17:34 15.04.2022
2008 Clear 29 1015 23 10000 4.63 50 16:48 15.04.2022
2009 Clear 28 1015 23 10000 4.63 40 16:18 15.04.2022
2010 Clear 27 1016 26 10000 3.09 0 14:51 15.04.2022
2011 Clear 24 1017 35 10000 3.09 0 13:40 15.04.2022
2012 Clear 22 1017 46 10000 2.06 50 12:40 15.04.2022
2013 Clear 20 1017 45 10000 3.6 60 11:56 15.04.2022
2014 Clear 19 1017 52 10000 3.09 70 11:30 15.04.2022
2015 Clear 17 1017 59 10000 3.6 70 10:40 15.04.2022
2016 Clear 14 1016 72 10000 4.12 90 09:44 15.04.2022
2017 Clear 14 1016 72 10000 4.12 90 09:19 15.04.2022
2018 Clear 13 1016 76 10000 3.09 80 07:32 15.04.2022
2019 Clear 14 1015 72 10000 4.12 100 06:28 15.04.2022
2020 Clear 17 1017 59 10000 3.09 70 02:39 15.04.2022
2021 Clear 20 1016 52 10000 7.72 40 23:31 14.04.2022
2022 Clear 21 1016 46 10000 7.72 30 22:49 14.04.2022
2023 Clear 23 1015 21 10000 3.6 40 22:29 14.04.2022
2024 Clear 23 1014 20 10000 3.6 40 21:59 14.04.2022
2025 Clear 25 1014 19 10000 3.6 40 20:43 14.04.2022
2026 Clear 26 1014 19 10000 3.6 30 19:23 14.04.2022
2027 Clear 26 1014 21 10000 3.6 70 18:22 14.04.2022
2028 Clear 26 1014 22 10000 3.09 0 17:40 14.04.2022
2029 Clear 25 1014 23 10000 3.6 0 16:46 14.04.2022
2030 Clear 25 1014 27 10000 4.63 30 15:24 14.04.2022
2031 Clear 22 1015 43 10000 3.6 70 13:46 14.04.2022
2032 Clear 21 1016 46 10000 4.63 60 12:56 14.04.2022
2033 Clear 19 1016 52 10000 4.63 50 12:31 14.04.2022
2034 Clear 17 1016 59 10000 4.12 50 11:29 14.04.2022
2035 Clear 15 1015 72 10000 4.12 90 10:53 14.04.2022
2036 Clear 14 1015 72 10000 4.12 90 10:26 14.04.2022
2037 Clear 13 1015 76 10000 3.6 80 09:24 14.04.2022
2038 Clear 12 1014 76 10000 2.57 90 07:27 14.04.2022
2039 Clear 14 1016 72 10000 3.09 80 03:32 14.04.2022
2040 Clear 18 1014 52 10000 5.66 20 23:26 13.04.2022
2041 Clear 20 1013 42 10000 5.14 30 22:20 13.04.2022
2042 Clear 21 1013 37 10000 4.12 30 21:36 13.04.2022
2043 Clouds 23 1012 35 10000 4.12 40 20:23 13.04.2022
2044 Clouds 23 1012 35 10000 4.12 50 19:37 13.04.2022
2045 Clouds 23 1012 38 10000 3.6 20 18:36 13.04.2022
2046 Clouds 23 1012 35 10000 4.12 30 17:24 13.04.2022
2047 Clouds 23 1013 40 10000 4.12 50 16:37 13.04.2022
2048 Clouds 22 1013 43 10000 3.6 0 15:41 13.04.2022
2049 Clouds 22 1014 43 10000 3.6 20 14:51 13.04.2022
2050 Clouds 20 1014 45 10000 3.6 30 14:28 13.04.2022
2051 Clouds 20 1015 49 10000 3.6 80 13:29 13.04.2022
2052 Clouds 17 1015 63 10000 3.6 70 12:30 13.04.2022
2053 Clouds 15 1015 72 10000 3.6 70 10:55 13.04.2022
2054 Clouds 14 1015 77 10000 3.09 50 09:44 13.04.2022
2055 Clouds 14 1014 77 8000 3.09 90 08:43 13.04.2022
2056 Clouds 14 1014 77 8000 2.57 50 06:52 13.04.2022
2057 Clouds 14 1014 77 8000 1.54 60 06:26 13.04.2022
2058 Clouds 14 1014 77 8000 2.57 60 05:52 13.04.2022
2059 Clouds 16 1016 63 10000 3.6 360 00:23 13.04.2022
2060 Clouds 16 1015 63 10000 3.6 10 23:46 12.04.2022
2061 Clouds 18 1014 55 10000 5.14 360 22:19 12.04.2022
2062 Clouds 20 1013 42 10000 3.09 310 21:29 12.04.2022
2063 Clouds 20 1013 42 10000 3.09 300 20:41 12.04.2022
2064 Clouds 21 1013 40 10000 3.6 340 19:53 12.04.2022
2065 Clouds 22 1013 40 10000 4.12 290 19:32 12.04.2022
2066 Clouds 22 1012 37 10000 3.6 260 18:42 12.04.2022
2067 Clouds 22 1013 43 8000 2.57 300 17:30 12.04.2022
2068 Clouds 21 1014 46 8000 3.6 290 16:23 12.04.2022
2069 Clouds 19 1014 52 8000 3.09 300 15:33 12.04.2022
2070 Clouds 18 1015 59 8000 3.09 0 14:29 12.04.2022
2071 Clouds 17 1015 63 8000 3.6 310 13:37 12.04.2022
2072 Clouds 17 1016 67 8000 4.63 320 12:52 12.04.2022
2073 Clouds 17 1015 67 8000 3.09 290 11:47 12.04.2022
2074 Clouds 16 1015 72 8000 2.06 290 10:47 12.04.2022
2075 Clouds 14 1014 82 8000 2.57 280 09:24 12.04.2022
2076 Clouds 13 1013 82 8000 1.03 0 07:56 12.04.2022
2077 Clouds 14 1013 77 8000 1.54 240 06:32 12.04.2022
2078 Clouds 14 1013 77 8000 1.54 240 06:32 12.04.2022
2079 Clouds 14 1013 77 8000 2.06 230 05:34 12.04.2022
2080 Clouds 16 1014 63 8000 3.6 290 00:46 12.04.2022
2081 Clouds 17 1014 63 8000 4.63 280 22:47 11.04.2022
2082 Clouds 17 1013 59 8000 5.14 280 21:49 11.04.2022
2083 Clouds 18 1013 59 8000 5.66 300 20:59 11.04.2022
2084 Clouds 18 1012 59 8000 6.17 310 20:29 11.04.2022
2085 Clouds 20 1012 56 8000 5.14 290 19:55 11.04.2022
2086 Clouds 20 1012 56 8000 3.6 300 19:18 11.04.2022
2087 Clouds 20 1011 56 8000 4.12 260 18:47 11.04.2022
2088 Clouds 21 1012 56 8000 6.69 290 17:57 11.04.2022
2089 Clouds 21 1011 52 8000 6.17 270 16:54 11.04.2022
2090 Clouds 21 1011 52 8000 6.17 270 16:54 11.04.2022
2091 Clouds 21 1012 52 8000 5.66 270 15:56 11.04.2022
2092 Clouds 19 1012 63 8000 1.03 0 14:24 11.04.2022
2093 Clouds 16 1013 72 8000 2.57 310 12:53 11.04.2022
2094 Clouds 15 1013 77 8000 2.57 330 12:33 11.04.2022
2095 Clouds 14 1013 77 8000 3.6 290 11:33 11.04.2022
2096 Clouds 13 1012 88 8000 3.09 280 10:28 11.04.2022
2097 Clouds 13 1012 82 8000 4.12 280 09:20 11.04.2022
2098 Clear 14 1010 82 10000 2.57 280 06:24 11.04.2022
2099 Clear 18 1012 59 10000 3.09 250 01:53 11.04.2022
2100 Clear 23 1011 49 10000 2.57 290 22:37 10.04.2022
2101 Clouds 24 1011 43 8000 3.09 310 21:55 10.04.2022
2102 Clouds 25 1010 44 8000 3.6 290 21:29 10.04.2022
2103 Clouds 27 1010 39 8000 3.6 310 20:30 10.04.2022
2104 Clouds 28 1009 36 8000 4.63 300 19:43 10.04.2022
2105 Clouds 28 1009 36 8000 4.63 300 19:18 10.04.2022
2106 Clouds 30 1009 26 8000 5.66 290 18:41 10.04.2022
2107 Clouds 30 1009 25 8000 5.66 300 17:52 10.04.2022
2108 Clouds 31 1009 19 8000 4.63 290 17:32 10.04.2022
2109 Clouds 31 1010 18 8000 4.63 290 16:21 10.04.2022
2110 Clear 30 1011 21 8000 3.6 340 14:59 10.04.2022
2111 Clear 30 1011 25 10000 2.57 360 13:54 10.04.2022
2112 Clear 27 1011 28 10000 1.03 0 12:33 10.04.2022
2113 Clear 24 1011 35 10000 1.54 220 11:46 10.04.2022
2114 Clear 24 1011 35 10000 1.54 220 11:28 10.04.2022
2115 Clear 23 1012 38 10000 1.54 200 10:41 10.04.2022
2116 Clear 19 1011 55 10000 0.51 0 09:50 10.04.2022
2117 Clear 14 1011 62 10000 0.51 0 08:56 10.04.2022
2118 Clear 14 1011 58 10000 2.06 250 08:21 10.04.2022
2119 Clear 16 1011 55 10000 1.54 70 06:59 10.04.2022
2120 Clear 18 1013 52 10000 1.54 120 04:42 10.04.2022
2121 Clear 20 1015 45 10000 2.57 190 02:20 10.04.2022
2122 Clear 24 1015 33 10000 2.57 230 23:54 09.04.2022
2123 Clear 24 1015 33 10000 2.57 230 23:29 09.04.2022
2124 Clear 25 1015 27 10000 1.54 290 22:39 09.04.2022
2125 Clear 27 1014 24 10000 3.09 310 21:31 09.04.2022
2126 Clear 29 1014 20 10000 2.06 340 20:35 09.04.2022
2127 Clear 29 1014 20 10000 2.57 310 19:59 09.04.2022
2128 Clear 29 1014 20 10000 2.57 310 19:41 09.04.2022
2129 Clear 31 1014 16 10000 2.06 320 18:26 09.04.2022
2130 Clear 30 1014 16 10000 2.57 300 17:52 09.04.2022
2131 Clear 30 1014 16 10000 3.6 340 17:18 09.04.2022
2132 Clear 30 1015 17 10000 1.54 0 16:42 09.04.2022
2133 Clear 29 1015 18 10000 1.54 0 15:51 09.04.2022
2134 Clear 28 1016 21 10000 1.54 0 15:26 09.04.2022
2135 Clear 27 1017 29 10000 2.57 50 14:26 09.04.2022
2136 Clear 25 1018 38 10000 2.57 60 13:34 09.04.2022
2137 Clear 23 1018 46 10000 2.06 40 12:57 09.04.2022
2138 Clear 20 1018 60 10000 2.57 70 11:51 09.04.2022
2139 Clear 18 1018 72 10000 2.06 90 10:52 09.04.2022
2140 Clear 16 1018 82 10000 3.6 110 10:18 09.04.2022
2141 Clear 14 1018 88 10000 3.09 100 09:23 09.04.2022
2142 Clear 13 1018 82 10000 2.06 70 08:35 09.04.2022
2143 Clear 15 1018 77 10000 2.06 110 05:21 09.04.2022
2144 Clear 19 1021 59 10000 2.57 20 00:35 09.04.2022
2145 Clear 20 1021 56 10000 4.12 20 23:24 08.04.2022
2146 Clear 23 1020 38 10000 3.6 10 21:54 08.04.2022
2147 Clear 24 1019 33 10000 4.12 10 20:45 08.04.2022
2148 Clear 26 1019 31 10000 3.6 360 19:57 08.04.2022
2149 Clear 26 1019 34 10000 3.6 320 18:59 08.04.2022
2150 Clear 26 1019 36 10000 2.57 340 18:24 08.04.2022
2151 Clear 27 1020 34 10000 2.06 0 17:38 08.04.2022
2152 Clear 27 1020 34 10000 2.06 0 17:19 08.04.2022
2153 Clear 25 1020 41 10000 2.06 0 16:32 08.04.2022
2154 Clear 24 1021 46 10000 1.54 0 15:38 08.04.2022
2155 Clear 23 1021 49 10000 2.57 280 14:52 08.04.2022
2156 Clear 22 1022 53 10000 1.54 0 14:21 08.04.2022
2157 Clear 22 1022 53 10000 1.54 0 13:41 08.04.2022
2158 Clear 20 1022 60 10000 2.06 350 13:22 08.04.2022
2159 Clear 18 1022 72 10000 1.03 0 11:43 08.04.2022
2160 Clear 15 1021 82 10000 1.54 90 10:26 08.04.2022
2161 Clear 12 1021 94 8000 2.06 90 09:20 08.04.2022
2162 Clouds 12 1020 87 10000 2.06 90 07:58 08.04.2022
2163 Clear 12 1020 87 10000 3.09 90 06:46 08.04.2022
2164 Clear 14 1022 77 10000 1.54 80 03:48 08.04.2022
2165 Clouds 17 1022 67 10000 3.6 40 00:31 08.04.2022
2166 Clouds 17 1022 63 10000 4.12 30 23:53 07.04.2022
2167 Clouds 19 1021 52 10000 3.6 10 22:57 07.04.2022
2168 Clouds 20 1021 42 10000 2.06 360 22:37 07.04.2022
2169 Clouds 20 1021 42 10000 2.06 360 22:19 07.04.2022
2170 Clouds 21 1021 37 10000 3.09 10 21:33 07.04.2022
2171 Clouds 22 1020 35 10000 3.09 10 20:56 07.04.2022
2172 Clouds 22 1020 35 10000 2.57 30 20:26 07.04.2022
2173 Clouds 22 1020 37 10000 3.6 30 17:45 07.04.2022
2174 Clouds 22 1020 37 10000 3.6 30 17:23 07.04.2022
2175 Clouds 22 1020 37 10000 3.6 20 16:42 07.04.2022
2176 Clouds 21 1020 40 10000 2.57 0 15:56 07.04.2022
2177 Clouds 20 1021 49 10000 4.63 50 14:28 07.04.2022
2178 Clouds 18 1022 55 10000 3.6 60 13:41 07.04.2022
2179 Clear 16 1022 63 10000 2.57 50 12:28 07.04.2022
2180 Clear 14 1022 72 10000 3.09 70 10:56 07.04.2022
2181 Clear 11 1021 82 10000 2.06 70 09:34 07.04.2022
2182 Clear 10 1021 87 10000 0.51 0 08:27 07.04.2022
2183 Clouds 11 1020 82 10000 2.06 40 06:18 07.04.2022
2184 Clouds 14 1021 67 10000 5.14 70 02:38 07.04.2022
2185 Clouds 14 1021 67 10000 5.14 60 01:27 07.04.2022
2186 Clouds 15 1021 63 10000 5.14 40 23:53 06.04.2022
2187 Clouds 15 1021 63 10000 5.66 30 22:45 06.04.2022
2188 Clouds 15 1020 67 10000 4.63 10 22:24 06.04.2022
2189 Clouds 17 1019 51 10000 5.14 360 21:18 06.04.2022
2190 Clouds 18 1019 45 10000 3.6 360 20:27 06.04.2022
2191 Clouds 18 1019 45 10000 2.57 360 19:52 06.04.2022
2192 Clouds 18 1018 45 10000 3.6 20 18:50 06.04.2022
2193 Clouds 18 1018 48 10000 3.6 350 17:52 06.04.2022
2194 Clouds 18 1019 48 10000 3.09 360 17:28 06.04.2022
2195 Clouds 18 1019 45 10000 2.57 10 16:35 06.04.2022
2196 Clouds 20 1019 40 10000 1.54 0 15:47 06.04.2022
2197 Clouds 18 1020 52 10000 2.06 0 14:23 06.04.2022
2198 Clouds 15 1021 67 10000 1.03 0 12:58 06.04.2022
2199 Clouds 15 1020 67 10000 1.03 0 11:54 06.04.2022
2200 Clouds 14 1020 77 10000 0.51 0 10:45 06.04.2022
2201 Clouds 13 1020 88 10000 0.51 0 10:20 06.04.2022
2202 Clouds 10 1019 87 10000 0.51 0 09:27 06.04.2022
2203 Clouds 10 1019 87 10000 0.51 0 08:30 06.04.2022
2204 Clouds 11 1018 87 10000 3.09 210 07:38 06.04.2022
2205 Clouds 11 1018 87 8000 2.57 220 02:57 06.04.2022
2206 Clouds 11 1018 82 6000 4.63 270 23:51 05.04.2022
2207 Clouds 12 1016 76 10000 3.6 260 22:30 05.04.2022
2208 Clouds 12 1016 71 8000 7.72 270 21:18 05.04.2022
2209 Clouds 14 1015 62 8000 6.69 280 20:25 05.04.2022
2210 Clouds 15 1014 55 8000 9.77 270 19:26 05.04.2022
2211 Clouds 16 1014 51 8000 8.75 270 17:52 05.04.2022
2212 Clouds 16 1014 48 8000 10.29 260 16:51 05.04.2022
2213 Clouds 17 1014 48 8000 10.8 260 15:53 05.04.2022
2214 Clouds 15 1014 55 8000 11.32 260 15:33 05.04.2022
2215 Clouds 15 1014 55 8000 9.26 270 14:22 05.04.2022
2216 Clouds 13 1013 67 8000 6.17 290 12:56 05.04.2022
2217 Clouds 13 1013 67 8000 7.72 270 11:50 05.04.2022
2218 Clouds 12 1013 71 8000 6.17 260 11:32 05.04.2022
2219 Clouds 9 1012 81 8000 2.57 250 09:52 05.04.2022
2220 Clouds 9 1011 81 8000 3.6 260 08:52 05.04.2022
2221 Clouds 9 1010 87 8000 2.57 230 06:52 05.04.2022
2222 Clouds 11 1009 87 8000 3.09 260 00:41 05.04.2022
2223 Clouds 12 1008 82 8000 4.63 280 22:41 04.04.2022
2224 Clouds 12 1007 87 7000 6.17 280 22:19 04.04.2022
2225 Clouds 13 1006 82 7000 5.14 260 21:21 04.04.2022
2226 Clouds 13 1006 82 7000 5.14 260 20:49 04.04.2022
2227 Clouds 13 1005 82 5000 7.2 280 19:44 04.04.2022
2228 Clouds 12 1005 87 8000 4.12 240 19:25 04.04.2022
2229 Clouds 14 1004 88 4000 6.69 280 17:55 04.04.2022
2230 Clouds 14 1003 82 5000 6.69 280 16:36 04.04.2022
2231 Clouds 15 1002 77 8000 6.69 290 15:43 04.04.2022
2232 Clouds 15 1002 77 8000 6.69 290 15:25 04.04.2022
2233 Clouds 16 1002 77 8000 6.69 280 14:46 04.04.2022
2234 Clouds 16 1002 82 8000 3.6 290 13:22 04.04.2022
2235 Clouds 14 1003 74 10000 4.99 279 11:55 04.04.2022
2236 Clouds 11 1002 93 3000 2.57 240 11:28 04.04.2022
2237 Clouds 11 1000 93 5000 2.57 290 08:36 04.04.2022
2238 Clouds 13 1002 76 8000 1.03 0 04:18 04.04.2022
2239 Clouds 15 1004 72 8000 3.09 280 00:44 04.04.2022
2240 Clouds 16 1005 67 8000 6.17 270 22:40 03.04.2022
2241 Clouds 17 1004 63 8000 5.14 290 21:45 03.04.2022
2242 Clouds 17 1004 63 8000 5.66 300 20:54 03.04.2022
2243 Clouds 19 1004 59 8000 3.6 290 19:50 03.04.2022
2244 Clouds 19 1004 63 8000 3.09 300 18:32 03.04.2022
2245 Clouds 19 1004 63 8000 3.09 290 17:47 03.04.2022
2246 Clouds 19 1005 63 8000 3.6 300 16:57 03.04.2022
2247 Clouds 19 1005 59 8000 4.12 290 16:39 03.04.2022
2248 Clouds 19 1005 63 8000 3.09 300 14:48 03.04.2022
2249 Clouds 17 1006 67 8000 4.63 270 13:53 03.04.2022
2250 Clouds 15 1006 77 8000 3.6 290 12:42 03.04.2022
2251 Clouds 13 1007 82 8000 4.12 240 10:58 03.04.2022
2252 Clouds 12 1006 82 8000 3.09 280 09:38 03.04.2022
2253 Clouds 12 1006 82 8000 4.12 250 08:36 03.04.2022
2254 Clear 13 1005 71 10000 2.06 270 05:38 03.04.2022
2255 Clear 17 1007 59 10000 1.54 230 01:54 03.04.2022
2256 Clouds 22 1007 35 8000 3.09 10 23:21 02.04.2022
2257 Clouds 23 1007 28 8000 2.57 10 22:18 02.04.2022
2258 Clouds 24 1006 25 8000 2.57 40 21:47 02.04.2022
2259 Clear 24 1006 25 8000 2.57 50 21:18 02.04.2022
2260 Clear 26 1007 24 8000 3.6 360 20:29 02.04.2022
2261 Clear 27 1007 24 10000 2.57 10 18:23 02.04.2022
2262 Clear 27 1007 26 10000 1.54 70 17:53 02.04.2022
2263 Clear 25 1008 29 10000 2.06 0 16:29 02.04.2022
2264 Clear 25 1009 29 10000 2.06 0 15:22 02.04.2022
2265 Clear 24 1010 35 10000 2.06 10 14:51 02.04.2022
2266 Clear 21 1010 43 10000 3.09 60 13:51 02.04.2022
2267 Clear 21 1010 46 10000 3.6 40 13:19 02.04.2022
2268 Clear 16 1011 67 10000 2.06 50 11:39 02.04.2022
2269 Clear 11 1010 82 10000 2.06 70 09:31 02.04.2022
2270 Clear 11 1011 82 10000 3.09 90 06:56 02.04.2022
2271 Clear 14 1012 67 10000 3.6 60 03:55 02.04.2022
2272 Clear 17 1014 59 10000 4.12 40 00:19 02.04.2022
2273 Clear 19 1014 42 10000 5.14 40 23:40 01.04.2022
2274 Clear 20 1013 40 10000 4.63 40 21:55 01.04.2022
2275 Clear 22 1013 35 10000 4.63 40 20:53 01.04.2022
2276 Clear 23 1013 33 10000 4.12 50 20:31 01.04.2022
2277 Clear 23 1013 35 10000 4.63 20 19:38 01.04.2022
2278 Clear 23 1012 38 10000 5.14 50 18:52 01.04.2022
2279 Clear 24 1012 35 10000 3.6 30 17:59 01.04.2022
2280 Clear 24 1012 38 10000 4.12 50 17:35 01.04.2022
2281 Clear 22 1014 43 10000 4.12 80 15:43 01.04.2022
2282 Clear 20 1015 49 10000 5.14 50 14:39 01.04.2022
2283 Clouds 20 1014 40 10000 4.73 48 13:35 01.04.2022
2284 Clouds 16 1016 67 10000 5.14 80 12:33 01.04.2022
2285 Clouds 16 1016 67 10000 5.14 80 12:33 01.04.2022
2286 Clouds 16 1016 67 10000 4.63 70 11:44 01.04.2022
2287 Clouds 14 1017 77 10000 3.6 70 10:19 01.04.2022
2288 Clouds 13 1017 82 10000 3.09 70 09:29 01.04.2022
2289 Clouds 14 1016 77 8000 3.6 50 06:55 01.04.2022
2290 Clouds 14 1016 82 8000 3.6 60 04:53 01.04.2022
2291 Clouds 14 1016 82 8000 3.6 60 04:34 01.04.2022
2292 Clouds 14 1017 82 8000 1.54 80 01:59 01.04.2022
2293 Clouds 15 1018 77 10000 3.6 40 00:44 01.04.2022
2294 Clouds 19 1016 48 10000 3.6 10 21:55 31.03.2022
2295 Clouds 19 1015 45 10000 3.09 330 21:33 31.03.2022
2296 Clouds 21 1015 37 10000 2.06 0 20:30 31.03.2022
2297 Clouds 22 1015 35 10000 1.03 0 19:50 31.03.2022
2298 Clouds 22 1015 35 10000 2.57 0 18:52 31.03.2022
2299 Clouds 21 1015 40 10000 2.57 310 17:50 31.03.2022
2300 Clouds 20 1015 42 10000 2.57 50 16:40 31.03.2022
2301 Clouds 20 1016 49 10000 1.03 0 15:48 31.03.2022
2302 Clear 19 1016 38 10000 2.84 352 15:20 31.03.2022
2303 Clouds 18 1017 59 10000 1.03 0 14:40 31.03.2022
2304 Clouds 16 1018 72 10000 1.54 0 12:30 31.03.2022
2305 Clouds 16 1018 72 10000 1.54 0 12:30 31.03.2022
2306 Clouds 14 1017 77 10000 2.06 90 11:26 31.03.2022
2307 Clouds 12 1016 87 10000 2.57 50 09:50 31.03.2022
2308 Clouds 10 1015 93 10000 1.54 100 08:23 31.03.2022
2309 Clouds 12 1015 82 10000 1.54 70 05:42 31.03.2022
2310 Clouds 13 1017 82 10000 2.57 350 00:32 31.03.2022
2311 Clouds 14 1016 77 10000 3.09 340 23:23 30.03.2022
2312 Clouds 15 1015 67 8000 4.63 340 21:41 30.03.2022
2313 Clouds 16 1014 63 8000 4.63 340 20:55 30.03.2022
2314 Clouds 17 1014 63 8000 4.12 340 20:20 30.03.2022
2315 Clouds 18 1013 59 8000 4.12 330 19:35 30.03.2022
2316 Clouds 18 1013 63 8000 4.63 320 18:29 30.03.2022
2317 Clouds 18 1013 59 8000 4.12 310 17:48 30.03.2022
2318 Clouds 19 1013 63 8000 3.6 290 16:57 30.03.2022
2319 Clouds 17 1014 67 8000 2.57 0 16:38 30.03.2022
2320 Clouds 18 1014 72 8000 2.57 340 15:24 30.03.2022
2321 Clouds 14 1015 94 8000 2.06 310 13:44 30.03.2022
2322 Clouds 13 1015 94 8000 1.03 0 12:58 30.03.2022
2323 Clouds 14 1014 94 7000 4.12 270 11:34 30.03.2022
2324 Clouds 14 1014 94 7000 4.12 270 11:34 30.03.2022
2325 Clouds 13 1013 94 7000 3.6 270 10:28 30.03.2022
2326 Clouds 12 1013 94 7000 3.09 280 09:24 30.03.2022
2327 Clouds 12 1011 94 5000 4.12 260 07:33 30.03.2022
2328 Clouds 12 1011 87 8000 3.6 250 05:41 30.03.2022
2329 Clouds 13 1011 76 8000 2.57 250 03:59 30.03.2022
2330 Clouds 13 1013 76 8000 2.06 260 00:42 30.03.2022
2331 Clouds 15 1012 67 10000 4.63 280 22:28 29.03.2022
2332 Clouds 16 1012 63 10000 5.14 260 21:45 29.03.2022
2333 Clouds 16 1012 67 10000 5.14 270 20:53 29.03.2022
2334 Clouds 17 1011 59 10000 7.2 270 20:18 29.03.2022
2335 Clouds 19 1010 59 10000 7.72 270 18:56 29.03.2022
2336 Clouds 18 1010 63 10000 6.69 290 18:21 29.03.2022
2337 Clouds 18 1010 68 10000 7.72 280 17:35 29.03.2022
2338 Clouds 17 1010 77 6000 6.69 290 16:57 29.03.2022
2339 Clouds 18 1010 68 6000 10.8 280 15:57 29.03.2022
2340 Clouds 21 1009 60 6000 10.29 280 14:52 29.03.2022
2341 Clouds 22 1009 49 8000 4.12 290 13:58 29.03.2022
2342 Clouds 21 1009 56 8000 2.06 340 12:51 29.03.2022
2343 Clouds 18 1010 68 8000 1.54 320 11:43 29.03.2022
2344 Clouds 16 1010 77 8000 1.54 270 10:30 29.03.2022
2345 Clouds 15 1009 82 8000 2.06 290 09:41 29.03.2022
2346 Clouds 16 1009 77 10000 1.54 180 06:58 29.03.2022
2347 Clouds 16 1011 72 8000 1.54 270 03:54 29.03.2022
2348 Clouds 18 1013 63 8000 3.6 320 00:33 29.03.2022
2349 Clouds 18 1013 63 8000 3.09 340 23:22 28.03.2022
2350 Clouds 19 1013 63 8000 3.6 330 22:51 28.03.2022
2351 Clouds 19 1013 63 8000 3.6 310 22:23 28.03.2022
2352 Clouds 20 1012 60 8000 3.6 300 20:56 28.03.2022
2353 Clouds 20 1012 60 8000 4.63 300 20:21 28.03.2022
2354 Clouds 21 1011 56 8000 4.63 310 19:41 28.03.2022
2355 Clouds 22 1011 53 8000 4.63 320 18:56 28.03.2022
2356 Clouds 23 1011 49 8000 4.63 320 18:36 28.03.2022
2357 Clouds 23 1011 49 8000 5.66 310 17:39 28.03.2022
2358 Clouds 23 1012 49 8000 6.17 290 16:19 28.03.2022
2359 Clouds 22 1012 49 8000 6.69 300 14:27 28.03.2022
2360 Clouds 22 1012 43 8000 5.14 310 13:47 28.03.2022
2361 Clouds 22 1013 37 8000 1.54 0 11:58 28.03.2022
2362 Clouds 21 1013 40 8000 1.54 220 11:23 28.03.2022
2363 Clouds 16 1012 51 8000 1.54 190 09:41 28.03.2022
2364 Clouds 15 1012 55 8000 0.51 0 09:19 28.03.2022
2365 Clouds 16 1012 51 8000 2.06 110 08:22 28.03.2022
2366 Clouds 17 1012 45 8000 3.09 210 07:27 28.03.2022
2367 Clear 18 1011 59 8000 3.6 100 03:27 28.03.2022
2368 Clouds 22 1013 37 8000 5.14 110 23:24 27.03.2022
2369 Clouds 22 1013 37 8000 3.6 100 22:23 27.03.2022
2370 Clouds 23 1013 33 8000 3.09 70 21:41 27.03.2022
2371 Clouds 24 1013 27 8000 2.57 50 20:54 27.03.2022
2372 Clouds 26 1013 25 8000 2.06 350 19:46 27.03.2022
2373 Clouds 26 1013 34 8000 1.03 0 18:55 27.03.2022
2374 Clouds 25 1012 38 8000 2.06 320 18:27 27.03.2022
2375 Clouds 24 1012 41 8000 3.09 310 17:38 27.03.2022
2376 Clouds 23 1012 46 8000 1.54 0 15:59 27.03.2022
2377 Clouds 22 1012 49 8000 2.06 40 14:55 27.03.2022
2378 Clouds 21 1013 52 8000 1.54 0 13:54 27.03.2022
2379 Clouds 18 1014 68 8000 2.06 210 12:20 27.03.2022
2380 Clouds 15 1013 77 8000 2.06 190 10:47 27.03.2022
2381 Clouds 10 1011 93 8000 2.06 70 08:37 27.03.2022
2382 Mist 11 1012 93 3000 1.54 280 05:45 27.03.2022
2383 Clear 15 1012 63 8000 1.54 80 00:47 27.03.2022
2384 Clear 17 1013 59 8000 3.09 100 23:34 26.03.2022
2385 Clear 18 1013 52 8000 2.06 20 22:35 26.03.2022
2386 Clear 18 1012 55 8000 2.57 300 21:33 26.03.2022
2387 Clear 19 1011 48 8000 3.6 300 20:20 26.03.2022
2388 Clouds 21 1011 40 8000 3.09 320 19:19 26.03.2022
2389 Clouds 22 1011 37 8000 1.03 0 17:47 26.03.2022
2390 Clouds 21 1011 40 8000 2.06 40 17:28 26.03.2022
2391 Clouds 22 1011 37 8000 1.03 0 16:25 26.03.2022
2392 Clouds 20 1011 49 8000 3.09 50 14:51 26.03.2022
2393 Clouds 19 1012 55 8000 1.54 0 13:52 26.03.2022
2394 Clouds 18 1014 59 8000 1.03 0 12:44 26.03.2022
2395 Clouds 16 1014 72 8000 1.54 0 11:29 26.03.2022
2396 Clouds 12 1013 94 7000 0 0 09:23 26.03.2022
2397 Clouds 10 1012 93 8000 0.51 0 08:28 26.03.2022
2398 Clouds 11 1011 87 8000 1.03 0 05:54 26.03.2022
2399 Clouds 12 1012 87 8000 1.54 270 03:58 26.03.2022
2400 Clouds 14 1013 77 8000 2.57 310 23:39 25.03.2022
2401 Clouds 15 1012 63 8000 2.57 300 21:28 25.03.2022
2402 Clouds 15 1012 63 8000 3.09 310 20:45 25.03.2022
2403 Clouds 17 1011 48 8000 3.6 290 19:28 25.03.2022
2404 Clouds 17 1011 48 8000 4.63 280 18:46 25.03.2022
2405 Clouds 18 1011 42 8000 4.63 270 18:46 25.03.2022
2406 Clouds 18 1011 45 8000 3.09 310 17:35 25.03.2022
2407 Clouds 18 1011 48 8000 3.6 290 16:41 25.03.2022
2408 Clouds 18 1011 52 8000 3.6 300 15:52 25.03.2022
2409 Clouds 16 1012 63 8000 4.12 280 13:51 25.03.2022
2410 Clouds 14 1012 72 8000 5.14 290 12:32 25.03.2022
2411 Clouds 12 1012 82 8000 3.6 260 09:52 25.03.2022
2412 Clouds 11 1012 87 8000 3.09 260 09:23 25.03.2022
2413 Clouds 11 1011 82 8000 2.57 260 07:48 25.03.2022
2414 Clouds 11 1010 82 8000 2.06 250 07:21 25.03.2022
2415 Clouds 11 1009 82 8000 1.54 140 04:47 25.03.2022
2416 Clouds 11 1010 82 8000 2.06 80 00:29 25.03.2022
2417 Clouds 11 1010 82 8000 2.06 80 22:29 24.03.2022
2418 Clouds 12 1009 76 8000 3.09 110 21:34 24.03.2022
2419 Clouds 12 1009 71 8000 2.06 20 19:50 24.03.2022
2420 Clouds 12 1008 71 8000 3.6 310 18:54 24.03.2022
2421 Clouds 14 1008 62 8000 7.2 280 17:39 24.03.2022
2422 Clouds 16 1007 51 10000 6.17 290 16:44 24.03.2022
2423 Clouds 16 1008 51 10000 5.14 300 14:59 24.03.2022
2424 Clouds 16 1008 51 10000 4.12 300 14:41 24.03.2022
2425 Clouds 16 1008 51 10000 4.12 300 14:41 24.03.2022
2426 Clouds 14 1009 58 10000 4.63 290 13:54 24.03.2022
2427 Clouds 14 1010 62 10000 4.63 260 12:39 24.03.2022
2428 Clouds 14 1010 62 10000 3.6 260 11:31 24.03.2022
2429 Clouds 11 1010 82 8000 1.54 190 09:36 24.03.2022
2430 Clouds 9 1010 87 8000 1.03 0 08:40 24.03.2022
2431 Clouds 10 1010 81 8000 3.6 220 06:19 24.03.2022
2432 Clouds 9 1013 93 8000 4.12 140 01:28 24.03.2022
2433 Drizzle 9 1015 87 5000 0.51 0 22:29 23.03.2022
2434 Drizzle 9 1014 93 5000 2.06 350 21:25 23.03.2022
2435 Clouds 9 1014 93 7000 1.54 40 20:47 23.03.2022
2436 Clouds 10 1014 87 5000 1.03 0 19:40 23.03.2022
2437 Clouds 11 1014 82 5000 5.66 290 18:22 23.03.2022
2438 Clouds 11 1013 87 5000 6.69 300 17:36 23.03.2022
2439 Clouds 14 1012 67 6000 7.2 290 16:18 23.03.2022
2440 Clouds 19 1012 55 7000 7.72 290 14:50 23.03.2022
2441 Clouds 19 1012 52 8000 5.66 290 13:51 23.03.2022
2442 Clouds 17 1014 72 8000 3.6 260 11:51 23.03.2022
2443 Clouds 13 1014 88 6000 1.54 280 09:21 23.03.2022
2444 Clouds 13 1014 88 8000 2.06 260 06:29 23.03.2022
2445 Clouds 12 1015 87 10000 4.12 260 03:57 23.03.2022
2446 Clouds 15 1016 72 10000 1.03 0 00:29 23.03.2022
2447 Clouds 17 1016 63 10000 4.12 360 22:26 22.03.2022
2448 Clouds 19 1016 52 10000 2.57 10 21:29 22.03.2022
2449 Clouds 20 1015 49 10000 3.09 360 20:39 22.03.2022
2450 Clouds 20 1015 49 10000 1.03 0 19:31 22.03.2022
2451 Clouds 21 1015 46 10000 1.03 0 18:57 22.03.2022
2452 Clouds 22 1015 46 10000 3.09 310 17:47 22.03.2022
2453 Clouds 22 1015 46 10000 3.09 310 17:23 22.03.2022
2454 Clouds 21 1016 52 10000 2.06 0 15:54 22.03.2022
2455 Clouds 20 1016 56 10000 2.06 360 15:22 22.03.2022
2456 Clouds 20 1016 52 10000 1.54 0 14:46 22.03.2022
2457 Clouds 19 1017 55 10000 2.06 0 14:25 22.03.2022
2458 Clouds 17 1018 72 8000 1.54 0 12:46 22.03.2022
2459 Clouds 16 1018 77 8000 0.51 0 11:36 22.03.2022
2460 Clouds 14 1018 82 8000 1.54 250 10:23 22.03.2022
2461 Clouds 11 1018 87 8000 2.57 250 07:57 22.03.2022
2462 Clouds 12 1017 82 8000 2.06 240 05:20 22.03.2022
2463 Clouds 13 1018 76 8000 2.57 220 03:41 22.03.2022
2464 Clouds 15 1019 67 8000 4.12 30 23:49 21.03.2022
2465 Clouds 18 1019 48 8000 2.06 350 21:58 21.03.2022
2466 Clouds 19 1018 45 8000 2.57 290 20:45 21.03.2022
2467 Clouds 19 1018 45 8000 2.57 300 20:27 21.03.2022
2468 Clouds 19 1017 45 8000 3.09 310 19:57 21.03.2022
2469 Clouds 20 1017 42 8000 3.09 290 19:23 21.03.2022
2470 Clouds 22 1017 40 8000 2.06 0 17:45 21.03.2022
2471 Clouds 21 1017 43 8000 3.09 270 17:18 21.03.2022
2472 Clouds 21 1017 43 8000 2.57 0 16:39 21.03.2022
2473 Clouds 21 1018 46 8000 2.57 280 15:47 21.03.2022
2474 Clouds 19 1018 52 8000 2.06 0 14:51 21.03.2022
2475 Clouds 19 1019 52 8000 2.57 10 13:43 21.03.2022
2476 Clouds 17 1019 59 8000 2.06 310 12:33 21.03.2022
2477 Clouds 16 1019 63 8000 1.54 0 11:44 21.03.2022
2478 Clouds 14 1019 72 8000 1.54 320 10:34 21.03.2022
2479 Clouds 12 1018 82 8000 1.54 270 08:29 21.03.2022
2480 Clouds 12 1018 76 10000 2.06 280 06:36 21.03.2022
2481 Clouds 14 1018 67 8000 1.54 260 02:40 21.03.2022
2482 Clouds 15 1019 67 8000 2.57 290 23:41 20.03.2022
2483 Clouds 15 1019 67 8000 2.57 290 22:43 20.03.2022
2484 Clouds 15 1018 67 8000 3.6 290 21:50 20.03.2022
2485 Clouds 15 1018 67 8000 4.12 300 21:20 20.03.2022
2486 Clouds 15 1018 67 8000 4.12 310 20:43 20.03.2022
2487 Clouds 16 1017 63 8000 5.14 310 19:57 20.03.2022
2488 Clouds 16 1017 67 8000 4.12 300 19:28 20.03.2022
2489 Clouds 17 1016 63 8000 5.14 290 18:19 20.03.2022
2490 Clouds 18 1016 59 8000 5.14 300 17:33 20.03.2022
2491 Clouds 19 1015 52 8000 5.14 280 16:57 20.03.2022
2492 Clouds 19 1015 52 8000 4.63 270 15:28 20.03.2022
2493 Clouds 17 1016 63 8000 3.09 270 14:23 20.03.2022
2494 Clouds 15 1016 77 8000 3.09 300 12:30 20.03.2022
2495 Clouds 14 1016 82 6000 3.6 260 11:22 20.03.2022
2496 Clouds 13 1015 94 5000 2.57 240 08:59 20.03.2022
2497 Clouds 13 1014 94 5000 4.12 280 07:26 20.03.2022
2498 Clouds 15 1013 77 8000 1.54 300 04:23 20.03.2022
2499 Clouds 17 1014 72 8000 3.09 230 01:29 20.03.2022
2500 Clouds 17 1015 72 8000 3.6 230 00:39 20.03.2022
2501 Clouds 18 1015 63 8000 2.06 260 23:19 19.03.2022
2502 Clouds 20 1015 52 7000 3.09 270 21:27 19.03.2022
2503 Clouds 21 1014 49 7000 2.57 290 20:49 19.03.2022
2504 Clouds 23 1014 40 7000 4.12 290 18:58 19.03.2022
2505 Clouds 24 1014 35 8000 4.63 290 18:23 19.03.2022
2506 Clouds 24 1014 35 8000 3.6 310 17:35 19.03.2022
2507 Clouds 24 1014 35 8000 3.6 300 15:44 19.03.2022
2508 Clouds 24 1015 38 8000 2.06 340 14:44 19.03.2022
2509 Clear 22 1016 43 8000 2.06 10 13:19 19.03.2022
2510 Clear 20 1016 60 8000 1.54 10 12:40 19.03.2022
2511 Clear 19 1016 68 8000 1.54 60 11:54 19.03.2022
2512 Clear 17 1016 77 8000 1.03 0 10:47 19.03.2022
2513 Mist 12 1015 94 3000 1.03 0 06:51 19.03.2022
2514 Clear 12 1016 87 10000 1.54 240 03:24 19.03.2022
2515 Clear 13 1016 76 10000 1.03 0 02:29 19.03.2022
2516 Clouds 17 1017 59 8000 2.06 20 23:44 18.03.2022
2517 Clouds 18 1017 52 8000 2.06 20 22:28 18.03.2022
2518 Clouds 18 1017 52 8000 2.57 10 21:45 18.03.2022
2519 Clouds 20 1015 49 8000 3.09 290 19:51 18.03.2022
2520 Clouds 20 1015 49 8000 3.09 300 19:21 18.03.2022
2521 Clouds 22 1015 43 8000 2.06 0 17:50 18.03.2022
2522 Clouds 21 1015 46 8000 2.06 0 16:48 18.03.2022
2523 Clouds 21 1016 46 8000 2.57 350 15:26 18.03.2022
2524 Clouds 20 1017 52 8000 1.54 0 14:22 18.03.2022
2525 Clear 17 1017 67 7000 2.06 50 12:27 18.03.2022
2526 Clear 15 1017 77 7000 2.57 70 10:52 18.03.2022
2527 Clear 11 1017 100 6000 0.51 0 09:30 18.03.2022
2528 Clear 9 1017 93 6000 1.03 0 08:32 18.03.2022
2529 Clear 10 1016 93 6000 2.06 80 06:35 18.03.2022
2530 Clear 11 1017 87 7000 1.03 0 02:57 18.03.2022
2531 Clouds 14 1018 77 6000 2.06 100 00:23 18.03.2022
2532 Mist 14 1018 77 4500 2.06 60 23:24 17.03.2022
2533 Mist 15 1017 72 4000 2.57 50 22:24 17.03.2022
2534 Mist 15 1017 72 4000 3.09 30 21:48 17.03.2022
2535 Mist 16 1017 67 4000 1.54 20 21:23 17.03.2022
2536 Mist 16 1017 67 4000 1.54 40 20:44 17.03.2022
2537 Mist 17 1016 63 4000 1.03 0 19:48 17.03.2022
2538 Mist 17 1016 63 4000 1.54 30 18:59 17.03.2022
2539 Mist 17 1016 63 4000 2.57 50 18:39 17.03.2022
2540 Mist 17 1016 63 4000 2.06 50 16:49 17.03.2022
2541 Clouds 17 1016 67 5000 1.54 0 15:44 17.03.2022
2542 Clouds 17 1017 67 5000 1.03 0 15:24 17.03.2022
2543 Clouds 16 1017 77 6000 1.03 0 14:28 17.03.2022
2544 Clouds 14 1018 82 7000 2.57 240 12:51 17.03.2022
2545 Clouds 13 1018 88 7000 2.57 230 12:23 17.03.2022
2546 Clouds 12 1018 94 7000 2.57 230 11:27 17.03.2022
2547 Drizzle 11 1018 100 7000 2.06 240 10:29 17.03.2022
2548 Clouds 11 1017 93 3500 1.54 290 08:34 17.03.2022
2549 Clouds 11 1016 93 7000 2.06 290 07:33 17.03.2022
2550 Clouds 11 1017 93 10000 0.51 0 05:47 17.03.2022
2551 Clouds 12 1017 87 8000 2.57 240 01:23 17.03.2022
2552 Clouds 12 1017 82 8000 2.57 240 23:46 16.03.2022
2553 Clouds 13 1017 76 8000 1.54 340 22:45 16.03.2022
2554 Clouds 13 1016 76 8000 1.54 10 22:21 16.03.2022
2555 Clouds 13 1015 76 8000 1.03 0 21:37 16.03.2022
2556 Clouds 15 1014 63 8000 3.09 300 19:41 16.03.2022
2557 Clouds 15 1014 63 8000 3.09 300 19:20 16.03.2022
2558 Clouds 15 1013 63 8000 3.09 260 18:36 16.03.2022
2559 Clouds 15 1013 63 8000 4.63 260 17:41 16.03.2022
2560 Clouds 15 1013 63 8000 6.17 250 16:56 16.03.2022
2561 Clouds 16 1014 59 8000 4.12 270 15:55 16.03.2022
2562 Clouds 13 1014 71 8000 4.12 250 14:25 16.03.2022
2563 Clouds 12 1015 82 8000 2.57 250 13:27 16.03.2022
2564 Clouds 12 1015 82 8000 3.09 270 11:54 16.03.2022
2565 Clouds 12 1015 82 8000 4.12 270 11:20 16.03.2022
2566 Clouds 10 1014 93 8000 2.57 270 10:22 16.03.2022
2567 Clouds 9 1013 93 8000 2.57 230 08:52 16.03.2022
2568 Clouds 9 1011 87 7000 2.06 240 04:45 16.03.2022
2569 Clouds 10 1011 81 7000 4.63 280 01:35 16.03.2022
2570 Clouds 11 1009 76 8000 5.14 280 22:38 15.03.2022
2571 Clouds 11 1009 71 8000 7.72 280 21:52 15.03.2022
2572 Clouds 13 1007 62 8000 7.72 280 20:18 15.03.2022
2573 Clouds 15 1005 51 8000 6.69 290 18:54 15.03.2022
2574 Clouds 16 1004 48 8000 4.12 320 16:55 15.03.2022
2575 Clouds 16 1005 51 8000 4.12 300 16:28 15.03.2022
2576 Clouds 17 1005 45 8000 2.06 0 14:57 15.03.2022
2577 Clouds 16 1005 44 8000 1.03 0 14:39 15.03.2022
2578 Clouds 15 1005 51 8000 3.09 80 13:28 15.03.2022
2579 Clouds 14 1006 62 8000 3.09 80 12:21 15.03.2022
2580 Clouds 12 1006 66 8000 5.14 90 11:29 15.03.2022
2581 Clouds 7 1005 93 8000 4.12 100 09:39 15.03.2022
2582 Clouds 6 1005 93 8000 3.09 80 08:42 15.03.2022
2583 Clouds 5 1005 93 8000 3.09 80 07:50 15.03.2022
2584 Clouds 6 1004 93 8000 3.09 100 06:54 15.03.2022
2585 Clouds 8 1006 87 8000 2.57 90 02:59 15.03.2022
2586 Clouds 9 1007 81 8000 2.57 60 23:40 14.03.2022
2587 Clouds 9 1007 81 8000 2.57 60 23:21 14.03.2022
2588 Clouds 10 1006 76 8000 1.54 20 22:26 14.03.2022
2589 Clouds 10 1006 81 8000 1.54 300 21:26 14.03.2022
2590 Clouds 10 1005 81 8000 2.57 210 20:35 14.03.2022
2591 Clouds 10 1005 81 8000 2.57 200 19:59 14.03.2022
2592 Clouds 9 1005 87 6000 3.09 270 18:42 14.03.2022
2593 Clouds 9 1004 87 5000 3.6 280 17:54 14.03.2022
2594 Clouds 9 1005 81 5000 5.66 260 16:58 14.03.2022
2595 Clouds 9 1005 87 5000 7.2 290 15:37 14.03.2022
2596 Clouds 9 1005 93 5000 7.72 300 14:38 14.03.2022
2597 Clouds 15 1004 72 8000 2.06 0 12:21 14.03.2022
2598 Clouds 13 1006 82 8000 2.06 200 10:51 14.03.2022
2599 Clouds 12 1007 87 6000 3.09 220 09:41 14.03.2022
2600 Clouds 12 1007 87 6000 4.12 200 09:21 14.03.2022
2601 Clouds 12 1007 87 6000 4.12 200 08:55 14.03.2022
2602 Clouds 11 1008 93 6000 3.6 190 07:28 14.03.2022
2603 Clouds 10 1009 93 3000 4.63 280 05:44 14.03.2022
2604 Clouds 14 1010 77 8000 3.09 260 01:52 14.03.2022
2605 Clouds 14 1010 77 8000 4.12 280 01:20 14.03.2022
2606 Clouds 17 1012 67 8000 3.6 310 22:43 13.03.2022
2607 Clouds 18 1012 63 8000 6.17 300 21:29 13.03.2022
2608 Clouds 19 1012 55 8000 5.66 290 20:55 13.03.2022
2609 Clouds 21 1011 46 8000 4.63 270 20:30 13.03.2022
2610 Clouds 21 1011 46 10000 4.63 270 19:49 13.03.2022
2611 Clouds 21 1011 43 10000 5.14 270 19:27 13.03.2022
2612 Clouds 22 1012 43 10000 5.14 280 18:59 13.03.2022
2613 Clouds 22 1012 43 10000 2.57 270 18:31 13.03.2022
2614 Clouds 23 1012 43 10000 2.57 0 17:40 13.03.2022
2615 Clouds 23 1012 43 10000 2.57 0 16:57 13.03.2022
2616 Clouds 22 1013 46 10000 3.09 270 16:29 13.03.2022
2617 Clouds 23 1013 46 8000 1.03 0 15:44 13.03.2022
2618 Clouds 21 1014 52 8000 2.06 0 14:51 13.03.2022
2619 Clear 20 1016 56 8000 1.54 0 13:33 13.03.2022
2620 Clouds 18 1017 63 8000 1.54 50 12:37 13.03.2022
2621 Clouds 17 1017 67 8000 2.06 30 11:51 13.03.2022
2622 Clouds 17 1017 67 8000 1.54 0 11:30 13.03.2022
2623 Clouds 16 1017 72 8000 1.03 0 10:46 13.03.2022
2624 Clouds 16 1017 72 8000 0.51 0 09:53 13.03.2022
2625 Clouds 13 1017 82 8000 0.51 0 09:29 13.03.2022
2626 Clouds 10 1017 87 8000 1.54 230 08:40 13.03.2022
2627 Clouds 10 1017 87 8000 1.54 250 07:37 13.03.2022
2628 Clouds 12 1017 82 8000 1.54 230 05:39 13.03.2022
2629 Clouds 13 1019 76 8000 2.06 240 02:27 13.03.2022
2630 Clouds 15 1020 67 8000 3.09 350 23:31 12.03.2022
2631 Clouds 18 1019 59 8000 2.06 250 21:49 12.03.2022
2632 Clouds 19 1018 48 8000 2.57 240 20:29 12.03.2022
2633 Clouds 21 1017 40 8000 4.12 250 19:47 12.03.2022
2634 Clouds 21 1017 40 8000 4.12 280 18:47 12.03.2022
2635 Clouds 22 1017 33 8000 3.09 270 18:20 12.03.2022
2636 Clouds 23 1018 35 8000 1.54 0 16:32 12.03.2022
2637 Clouds 21 1018 37 8000 1.54 0 15:55 12.03.2022
2638 Clouds 21 1018 40 8000 2.06 20 15:22 12.03.2022
2639 Clouds 19 1020 48 8000 2.06 0 13:54 12.03.2022
2640 Clouds 19 1021 55 8000 1.03 0 12:33 12.03.2022
2641 Clouds 18 1021 59 8000 1.54 0 11:55 12.03.2022
2642 Clouds 16 1021 67 8000 1.03 0 11:34 12.03.2022
2643 Clouds 15 1021 72 8000 1.03 0 10:32 12.03.2022
2644 Clouds 14 1020 82 8000 0.51 0 09:44 12.03.2022
2645 Clouds 9 1020 87 8000 1.03 0 08:24 12.03.2022
2646 Clouds 10 1020 87 8000 1.54 270 06:44 12.03.2022
2647 Clouds 12 1021 76 8000 1.54 270 01:44 12.03.2022
2648 Clouds 14 1021 67 8000 3.09 230 23:46 11.03.2022
2649 Clouds 16 1022 59 8000 2.57 290 22:36 11.03.2022
2650 Clouds 17 1020 55 8000 3.6 260 21:24 11.03.2022
2651 Clouds 17 1020 51 8000 3.6 270 20:48 11.03.2022
2652 Clouds 18 1020 52 8000 3.6 290 20:26 11.03.2022
2653 Clouds 20 1020 49 8000 5.66 280 19:35 11.03.2022
2654 Clouds 22 1019 37 8000 5.66 280 18:33 11.03.2022
2655 Clouds 22 1018 37 8000 3.6 290 17:26 11.03.2022
2656 Clouds 22 1018 40 8000 3.6 290 16:25 11.03.2022
2657 Clouds 22 1018 43 8000 2.57 340 15:36 11.03.2022
2658 Clouds 21 1020 52 8000 1.54 0 13:42 11.03.2022
2659 Clouds 19 1020 59 8000 2.06 0 12:41 11.03.2022
2660 Clouds 18 1021 63 8000 2.57 0 12:19 11.03.2022
2661 Clouds 16 1021 72 8000 1.03 0 10:53 11.03.2022
2662 Clear 12 1020 87 8000 1.54 200 09:35 11.03.2022
2663 Clear 9 1019 87 8000 1.54 270 08:28 11.03.2022
2664 Clear 10 1019 87 10000 0.51 0 07:48 11.03.2022
2665 Clear 11 1018 87 10000 1.03 0 06:42 11.03.2022
2666 Clear 11 1019 82 10000 1.54 250 04:40 11.03.2022
2667 Clear 14 1020 67 10000 1.54 240 01:29 11.03.2022
2668 Clear 17 1020 51 8000 2.06 310 22:32 10.03.2022
2669 Clear 17 1019 51 8000 1.54 270 21:54 10.03.2022
2670 Clear 17 1019 48 8000 2.06 270 21:25 10.03.2022
2671 Clear 19 1019 42 8000 2.57 250 20:36 10.03.2022
2672 Clouds 21 1019 40 8000 3.6 260 19:20 10.03.2022
2673 Clouds 22 1018 35 8000 3.09 300 17:51 10.03.2022
2674 Clouds 22 1019 43 8000 1.54 0 16:52 10.03.2022
2675 Clear 20 1019 52 8000 3.09 300 15:28 10.03.2022
2676 Clear 18 1020 72 6000 1.54 0 13:45 10.03.2022
2677 Clear 16 1021 77 5000 1.54 310 12:41 10.03.2022
2678 Clouds 13 1021 94 5000 0.51 0 11:28 10.03.2022
2679 Mist 10 1021 100 1200 0.51 0 09:42 10.03.2022
2680 Fog 10 1020 93 200 2.06 300 07:48 10.03.2022
2681 Clear 11 1020 87 8000 4.12 230 05:30 10.03.2022
2682 Clear 12 1020 82 10000 2.06 250 02:33 10.03.2022
2683 Clear 15 1020 67 10000 3.09 230 23:32 09.03.2022
2684 Clear 18 1018 55 10000 5.14 10 22:22 09.03.2022
2685 Clear 18 1018 55 10000 5.14 10 21:44 09.03.2022
2686 Clear 20 1017 42 10000 3.09 250 20:36 09.03.2022
2687 Clear 23 1016 33 10000 3.6 280 18:41 09.03.2022
2688 Clear 24 1016 31 10000 3.09 310 17:28 09.03.2022
2689 Clouds 24 1016 25 10000 3.09 0 16:39 09.03.2022
2690 Clear 22 1017 30 10000 2.06 0 15:32 09.03.2022
2691 Clear 22 1018 37 10000 1.54 0 14:19 09.03.2022
2692 Clear 20 1018 45 10000 1.54 40 12:59 09.03.2022
2693 Clear 19 1019 52 10000 1.03 0 12:20 09.03.2022
2694 Clear 18 1019 55 10000 1.03 0 11:45 09.03.2022
2695 Clear 16 1019 59 10000 0.51 0 10:49 09.03.2022
2696 Clear 10 1018 81 10000 0.51 0 09:22 09.03.2022
2697 Clear 10 1018 81 10000 0.51 0 08:42 09.03.2022
2698 Clear 10 1017 81 10000 1.54 140 04:49 09.03.2022
2699 Clear 14 1018 62 10000 3.09 20 00:55 09.03.2022
2700 Clear 15 1019 55 10000 2.57 80 23:21 08.03.2022
2701 Clear 15 1019 55 10000 2.57 80 22:45 08.03.2022
2702 Clear 17 1019 45 10000 3.6 60 21:28 08.03.2022
2703 Clear 18 1019 42 10000 4.12 50 20:54 08.03.2022
2704 Clear 19 1019 39 10000 4.63 40 19:55 08.03.2022
2705 Clear 21 1018 35 10000 4.12 30 18:45 08.03.2022
2706 Clear 22 1018 33 10000 3.09 10 17:50 08.03.2022
2707 Clear 22 1018 37 10000 2.06 0 16:35 08.03.2022
2708 Clear 18 1019 52 10000 2.57 60 14:23 08.03.2022
2709 Clear 16 1021 59 10000 2.57 40 12:44 08.03.2022
2710 Clear 14 1021 67 10000 3.09 70 11:53 08.03.2022
2711 Clear 14 1021 67 10000 2.57 0 11:34 08.03.2022
2712 Clouds 12 1020 76 10000 3.09 110 10:27 08.03.2022
2713 Clouds 9 1020 87 10000 2.06 120 08:28 08.03.2022
2714 Clouds 11 1019 76 8000 1.54 150 05:47 08.03.2022
2715 Clouds 9 1020 87 10000 2.06 250 01:48 08.03.2022
2716 Clouds 12 1019 71 10000 2.06 260 22:24 07.03.2022
2717 Clouds 14 1018 62 10000 1.54 240 21:35 07.03.2022
2718 Clouds 15 1018 58 10000 1.54 240 20:54 07.03.2022
2719 Clouds 15 1017 58 10000 2.06 270 20:22 07.03.2022
2720 Clear 16 1017 51 10000 2.57 280 19:38 07.03.2022
2721 Clouds 17 1017 48 10000 2.57 270 18:47 07.03.2022
2722 Clouds 17 1016 45 10000 3.6 300 17:58 07.03.2022
2723 Clouds 18 1016 45 10000 2.06 0 16:56 07.03.2022
2724 Clouds 18 1016 45 10000 2.06 0 16:30 07.03.2022
2725 Clouds 16 1016 55 10000 2.06 0 14:31 07.03.2022
2726 Clouds 14 1017 62 10000 1.54 0 12:33 07.03.2022
2727 Clear 14 1017 77 10000 0.51 0 10:45 07.03.2022
2728 Clear 13 1017 76 10000 0.51 0 10:24 07.03.2022
2729 Clouds 7 1015 93 6000 1.03 0 06:35 07.03.2022
2730 Clouds 10 1016 87 10000 1.54 250 00:24 07.03.2022
2731 Clouds 10 1016 87 10000 1.54 240 23:58 06.03.2022
2732 Clouds 10 1016 87 10000 1.54 240 23:18 06.03.2022
2733 Clouds 12 1016 76 10000 2.06 320 22:24 06.03.2022
2734 Clouds 12 1014 87 10000 3.09 290 20:56 06.03.2022
2735 Clouds 11 1014 87 10000 3.09 240 20:28 06.03.2022
2736 Clouds 12 1013 87 10000 4.63 230 19:31 06.03.2022
2737 Clouds 11 1012 93 8000 4.63 220 18:25 06.03.2022
2738 Clouds 11 1012 87 6000 2.06 260 17:22 06.03.2022
2739 Clouds 11 1012 87 6000 2.06 260 16:52 06.03.2022
2740 Clouds 12 1012 87 8000 3.6 220 16:20 06.03.2022
2741 Clouds 11 1012 87 8000 4.12 250 15:19 06.03.2022
2742 Clouds 12 1012 87 8000 4.63 190 14:41 06.03.2022
2743 Clouds 12 1013 87 8000 5.14 220 13:47 06.03.2022
2744 Clouds 12 1014 87 8000 5.66 220 12:36 06.03.2022
2745 Clouds 9 1013 93 6000 4.12 240 11:27 06.03.2022
2746 Clouds 10 1013 87 6000 3.6 250 10:29 06.03.2022
2747 Clouds 10 1013 87 8000 3.6 220 08:40 06.03.2022
2748 Clouds 10 1013 87 8000 3.6 220 08:20 06.03.2022
2749 Clouds 10 1013 76 10000 5.66 240 06:33 06.03.2022
2750 Clear 10 1016 66 10000 3.6 240 01:32 06.03.2022
2751 Clear 10 1017 62 10000 4.12 240 00:33 06.03.2022
2752 Clear 11 1017 58 10000 4.12 240 23:41 05.03.2022
2753 Clear 12 1017 54 10000 2.57 250 23:18 05.03.2022
2754 Clear 14 1017 51 10000 3.09 330 22:25 05.03.2022
2755 Clear 16 1017 39 10000 2.57 350 21:24 05.03.2022
2756 Clear 17 1016 31 10000 2.57 350 19:56 05.03.2022
2757 Clear 19 1016 27 10000 2.57 300 18:56 05.03.2022
2758 Clear 20 1016 26 10000 1.03 0 18:34 05.03.2022
2759 Clear 20 1017 28 10000 2.57 0 16:57 05.03.2022
2760 Clear 18 1017 34 10000 3.09 340 15:43 05.03.2022
2761 Clear 17 1018 42 10000 2.57 260 14:52 05.03.2022
2762 Clouds 16 1018 44 10000 2.06 330 14:34 05.03.2022
2763 Clouds 15 1020 47 10000 2.57 30 13:34 05.03.2022
2764 Clouds 13 1021 54 10000 2.57 80 11:55 05.03.2022
2765 Clouds 11 1021 62 10000 2.57 70 11:20 05.03.2022
2766 Clouds 11 1021 62 10000 2.06 60 10:23 05.03.2022
2767 Clouds 9 1021 66 10000 2.06 90 09:28 05.03.2022
2768 Clear 8 1021 71 10000 1.54 110 07:58 05.03.2022
2769 Clouds 9 1020 66 10000 1.54 70 05:43 05.03.2022
2770 Clouds 9 1020 66 10000 3.09 50 04:33 05.03.2022
2771 Clouds 11 1021 58 10000 6.17 40 23:38 04.03.2022
2772 Clouds 13 1021 54 10000 5.66 30 22:44 04.03.2022
2773 Clouds 13 1021 54 10000 5.66 30 22:23 04.03.2022
2774 Clouds 14 1020 47 10000 5.14 30 21:24 04.03.2022
2775 Clouds 16 1020 41 10000 4.12 40 20:28 04.03.2022
2776 Clouds 17 1019 36 8000 4.12 60 19:36 04.03.2022
2777 Clouds 17 1019 42 8000 4.63 40 18:46 04.03.2022
2778 Clouds 17 1019 42 8000 4.63 40 18:20 04.03.2022
2779 Clouds 18 1020 39 8000 2.57 0 17:28 04.03.2022
2780 Clouds 17 1021 45 8000 4.63 40 15:31 04.03.2022
2781 Clouds 16 1022 51 8000 4.63 70 14:36 04.03.2022
2782 Clouds 15 1023 51 8000 5.66 60 13:27 04.03.2022
2783 Clouds 13 1024 62 8000 5.14 80 11:56 04.03.2022
2784 Clouds 12 1024 66 8000 5.66 80 10:57 04.03.2022
2785 Clouds 12 1023 71 8000 4.63 70 10:18 04.03.2022
2786 Clouds 11 1023 71 8000 4.63 50 08:48 04.03.2022
2787 Clouds 11 1022 82 8000 5.66 40 07:41 04.03.2022
2788 Clouds 10 1022 71 10000 1.54 260 04:59 04.03.2022
2789 Clear 13 1024 67 10000 2.06 50 00:41 04.03.2022
2790 Clouds 15 1024 58 10000 1.54 40 22:53 03.03.2022
2791 Clouds 16 1023 55 10000 3.09 10 21:57 03.03.2022
2792 Clouds 16 1023 55 10000 3.6 360 21:34 03.03.2022
2793 Clouds 19 1022 39 10000 4.12 350 20:21 03.03.2022
2794 Clear 21 1021 35 10000 4.12 360 18:57 03.03.2022
2795 Clear 22 1021 30 10000 3.6 360 18:25 03.03.2022
2796 Clear 23 1021 28 10000 3.6 340 17:31 03.03.2022
2797 Clear 22 1021 35 10000 2.06 0 16:28 03.03.2022
2798 Clear 22 1021 43 10000 2.57 360 15:41 03.03.2022
2799 Clear 21 1022 43 10000 2.57 340 14:44 03.03.2022
2800 Clear 20 1022 45 10000 2.06 330 14:25 03.03.2022
2801 Clear 17 1024 55 10000 2.06 120 12:28 03.03.2022
2802 Clear 14 1025 67 10000 1.03 0 10:56 03.03.2022
2803 Clear 12 1025 71 10000 1.54 0 09:56 03.03.2022
2804 Clear 8 1024 76 10000 1.54 240 08:34 03.03.2022
2805 Clear 9 1023 66 10000 1.03 0 06:38 03.03.2022
2806 Clear 11 1023 66 10000 2.57 170 05:20 03.03.2022
2807 Clouds 15 1024 51 10000 3.6 40 23:45 02.03.2022
2808 Clouds 16 1024 44 10000 3.6 40 22:53 02.03.2022
2809 Clouds 16 1024 44 10000 3.6 40 22:53 02.03.2022
2810 Clouds 16 1024 48 10000 4.12 40 22:31 02.03.2022
2811 Clouds 19 1023 42 10000 6.17 360 20:59 02.03.2022
2812 Clouds 20 1022 42 10000 2.06 50 20:25 02.03.2022
2813 Clouds 22 1022 37 10000 1.03 0 19:37 02.03.2022
2814 Clouds 23 1022 35 10000 1.54 0 18:58 02.03.2022
2815 Clouds 23 1022 38 10000 2.06 140 18:26 02.03.2022
2816 Clouds 23 1022 38 10000 1.54 0 17:41 02.03.2022
2817 Clouds 22 1022 40 10000 1.54 0 16:52 02.03.2022
2818 Clouds 22 1022 43 10000 1.54 0 15:46 02.03.2022
2819 Clouds 19 1024 52 10000 3.09 340 13:52 02.03.2022
2820 Clear 18 1024 59 10000 2.57 300 12:56 02.03.2022
2821 Clear 17 1025 63 10000 2.06 330 12:34 02.03.2022
2822 Clear 15 1025 72 10000 1.54 330 11:27 02.03.2022
2823 Clouds 16 1024 49 10000 1.69 334 10:39 02.03.2022
2824 Clear 10 1024 87 10000 2.06 260 09:36 02.03.2022
2825 Clear 9 1023 81 10000 2.06 250 08:36 02.03.2022
2826 Clear 9 1023 87 10000 2.06 250 07:23 02.03.2022
2827 Clear 10 1023 81 10000 2.57 240 04:51 02.03.2022
2828 Clear 15 1023 51 10000 3.09 230 00:40 02.03.2022
2829 Clear 17 1022 48 10000 2.06 330 23:35 01.03.2022
2830 Clear 19 1021 34 10000 2.57 330 22:40 01.03.2022
2831 Clear 20 1021 32 10000 2.57 330 21:53 01.03.2022
2832 Clouds 21 1020 35 10000 3.09 260 20:41 01.03.2022
2833 Clouds 21 1020 35 10000 3.09 260 20:20 01.03.2022
2834 Clouds 24 1019 33 10000 3.6 330 18:58 01.03.2022
2835 Clouds 25 1019 31 10000 4.63 290 18:25 01.03.2022
2836 Clouds 25 1019 29 10000 4.12 300 17:54 01.03.2022
2837 Clouds 25 1019 36 10000 3.6 300 16:37 01.03.2022
2838 Clouds 25 1019 36 10000 2.57 280 15:48 01.03.2022
2839 Clouds 24 1020 38 10000 3.09 0 14:54 01.03.2022
2840 Clouds 24 1020 41 10000 2.06 310 14:31 01.03.2022
2841 Clouds 23 1021 43 10000 2.06 340 13:26 01.03.2022
2842 Clear 21 1022 49 10000 2.06 310 12:38 01.03.2022
2843 Clear 19 1022 55 10000 2.06 350 11:44 01.03.2022
2844 Clear 16 1021 63 9000 1.54 220 09:53 01.03.2022
2845 Clear 13 1021 67 9000 4.12 170 08:31 01.03.2022
2846 Clear 13 1021 67 9000 3.6 160 07:32 01.03.2022
2847 Clear 15 1019 58 10000 1.54 120 03:27 01.03.2022
2848 Clouds 17 1020 51 9000 2.06 80 00:58 01.03.2022
2849 Clouds 18 1020 52 9000 4.63 60 23:47 28.02.2022
2850 Clouds 19 1020 55 9000 5.14 40 22:50 28.02.2022
2851 Clouds 20 1019 56 10000 4.63 30 21:48 28.02.2022
2852 Clouds 20 1018 49 10000 1.54 60 20:56 28.02.2022
2853 Clouds 22 1018 46 10000 3.6 40 19:51 28.02.2022
2854 Clouds 22 1018 43 8000 3.6 60 19:22 28.02.2022
2855 Clouds 23 1018 43 8000 4.63 50 18:35 28.02.2022
2856 Clear 23 1016 37 10000 5.31 33 17:23 28.02.2022
2857 Clouds 24 1018 41 8000 4.12 50 16:32 28.02.2022
2858 Clouds 23 1018 40 8000 4.63 70 15:21 28.02.2022
2859 Clouds 22 1019 43 8000 4.12 40 14:29 28.02.2022
2860 Clouds 21 1020 56 8000 3.6 70 13:34 28.02.2022
2861 Clouds 19 1021 68 8000 2.57 70 12:31 28.02.2022
2862 Clouds 17 1021 72 7000 3.6 40 11:37 28.02.2022
2863 Clouds 16 1021 77 7000 2.57 50 10:24 28.02.2022
2864 Clouds 15 1020 82 7000 3.09 70 09:59 28.02.2022
2865 Clouds 15 1020 82 7000 3.09 110 09:27 28.02.2022
2866 Clouds 15 1019 82 6000 2.57 110 08:26 28.02.2022
2867 Clouds 15 1019 82 6000 2.57 110 08:26 28.02.2022
2868 Clouds 14 1019 88 6000 3.09 50 06:53 28.02.2022
2869 Clouds 14 1019 88 6000 2.06 60 04:31 28.02.2022
2870 Clouds 14 1019 88 6000 2.06 20 02:41 28.02.2022
2871 Clouds 14 1019 82 8000 0.51 0 23:26 27.02.2022
2872 Clouds 15 1018 82 8000 2.57 170 22:33 27.02.2022
2873 Clouds 16 1018 77 8000 2.57 160 21:47 27.02.2022
2874 Clouds 15 1018 77 8000 0.51 0 20:54 27.02.2022
2875 Clouds 16 1017 72 8000 0 0 20:27 27.02.2022
2876 Clouds 16 1017 77 8000 0.51 0 19:56 27.02.2022
2877 Clouds 17 1017 72 8000 1.03 0 19:26 27.02.2022
2878 Clouds 17 1017 72 6000 1.54 160 18:39 27.02.2022
2879 Clouds 17 1017 72 6000 1.54 180 17:54 27.02.2022
2880 Clouds 16 1016 77 6000 2.06 140 16:37 27.02.2022
2881 Clouds 16 1017 77 6000 2.57 70 15:55 27.02.2022
2882 Clouds 16 1017 82 5000 3.09 30 12:53 27.02.2022
2883 Clouds 15 1018 82 5000 3.6 30 12:29 27.02.2022
2884 Clouds 15 1017 88 5000 2.06 40 10:50 27.02.2022
2885 Clouds 15 1016 82 5000 3.09 30 09:58 27.02.2022
2886 Clouds 15 1016 88 5000 3.09 50 09:37 27.02.2022
2887 Clouds 15 1016 88 5000 3.09 50 09:18 27.02.2022
2888 Mist 14 1015 88 4000 1.03 0 06:43 27.02.2022
2889 Mist 13 1015 88 4000 1.03 0 05:36 27.02.2022
2890 Clouds 15 1016 82 5000 2.06 330 00:52 27.02.2022
2891 Clouds 16 1016 77 5000 1.54 240 22:56 26.02.2022
2892 Clouds 16 1015 77 5000 2.06 280 21:39 26.02.2022
2893 Clouds 16 1015 77 5000 1.54 280 20:52 26.02.2022
2894 Clouds 16 1015 77 5000 2.06 270 20:19 26.02.2022
2895 Mist 16 1014 77 3000 3.09 230 19:41 26.02.2022
2896 Clouds 16 1014 77 5000 3.09 230 18:49 26.02.2022
2897 Clouds 16 1014 77 5000 3.09 220 17:45 26.02.2022
2898 Clouds 17 1014 72 5000 4.63 260 16:49 26.02.2022
2899 Clouds 16 1013 77 5000 2.57 270 15:49 26.02.2022
2900 Clouds 16 1013 77 5000 2.06 290 15:22 26.02.2022
2901 Clouds 16 1013 77 5000 2.57 290 14:53 26.02.2022
2902 Clouds 15 1013 82 5000 2.57 270 14:33 26.02.2022
2903 Clouds 15 1014 82 5000 2.06 310 13:19 26.02.2022
2904 Clouds 15 1014 82 5000 2.06 310 13:19 26.02.2022
2905 Clouds 15 1015 82 5000 2.57 320 12:23 26.02.2022
2906 Clouds 15 1014 88 5000 2.57 320 11:28 26.02.2022
2907 Clouds 13 1015 94 5000 2.57 280 10:40 26.02.2022
2908 Mist 13 1013 94 2000 3.6 280 08:53 26.02.2022
2909 Mist 14 1012 94 2000 3.6 270 06:51 26.02.2022
2910 Clouds 17 1013 82 6000 1.54 0 00:56 26.02.2022
2911 Clouds 18 1014 77 6000 2.06 310 22:49 25.02.2022
2912 Clouds 20 1014 60 6000 2.57 310 21:43 25.02.2022
2913 Clouds 20 1014 60 6000 3.09 340 21:25 25.02.2022
2914 Clouds 22 1013 53 6000 3.09 330 20:33 25.02.2022
2915 Clouds 23 1012 46 6000 4.12 270 19:18 25.02.2022
2916 Clouds 25 1012 38 8000 3.09 290 17:29 25.02.2022
2917 Clouds 25 1012 38 8000 4.12 280 16:32 25.02.2022
2918 Clouds 25 1012 41 8000 3.6 300 15:48 25.02.2022
2919 Clouds 24 1013 43 8000 3.6 290 15:22 25.02.2022
2920 Clouds 24 1014 46 8000 3.09 300 14:42 25.02.2022
2921 Clouds 22 1014 49 8000 3.6 310 13:51 25.02.2022
2922 Clouds 22 1014 56 8000 3.09 310 13:18 25.02.2022
2923 Clouds 19 1014 63 8000 1.54 300 11:28 25.02.2022
2924 Clouds 16 1014 77 8000 1.54 280 10:43 25.02.2022
2925 Clouds 16 1014 77 8000 0.51 0 10:22 25.02.2022
2926 Clouds 14 1014 82 8000 1.03 0 09:30 25.02.2022
2927 Clouds 13 1013 82 8000 1.54 0 07:42 25.02.2022
2928 Clouds 14 1013 77 8000 3.6 230 05:51 25.02.2022
2929 Clouds 15 1013 67 8000 3.09 230 04:41 25.02.2022
2930 Clouds 18 1016 59 8000 6.69 90 00:27 25.02.2022
2931 Clouds 19 1016 63 6000 5.14 70 21:59 24.02.2022
2932 Thunderstorm 19 1017 59 6000 4.63 60 21:40 24.02.2022
2933 Clouds 20 1017 56 6000 2.57 40 21:20 24.02.2022
2934 Thunderstorm 21 1016 52 6000 3.6 30 19:53 24.02.2022
2935 Thunderstorm 22 1014 49 6000 5.14 40 18:45 24.02.2022
2936 Thunderstorm 23 1014 46 6000 5.66 30 18:19 24.02.2022
2937 Thunderstorm 24 1014 43 6000 5.14 360 17:40 24.02.2022
2938 Thunderstorm 25 1015 41 6000 4.12 350 16:50 24.02.2022
2939 Clouds 24 1015 46 4000 5.66 340 16:24 24.02.2022
2940 Dust 25 1015 38 2000 9.77 220 14:56 24.02.2022
2941 Dust 26 1015 34 2000 9.26 200 14:36 24.02.2022
2942 Clouds 23 1016 49 7000 3.09 80 13:41 24.02.2022
2943 Clouds 21 1016 52 7000 3.6 60 13:21 24.02.2022
2944 Clouds 15 1018 82 7000 2.06 40 10:41 24.02.2022
2945 Clouds 13 1017 88 7000 1.54 0 09:40 24.02.2022
2946 Clouds 12 1017 94 7000 0.51 0 08:42 24.02.2022
2947 Clouds 14 1016 88 10000 3.09 90 05:59 24.02.2022
2948 Clouds 14 1018 82 8000 3.09 260 02:59 24.02.2022
2949 Clouds 18 1020 63 8000 2.57 280 23:45 23.02.2022
2950 Clouds 20 1019 60 8000 3.09 120 21:55 23.02.2022
2951 Clouds 19 1019 63 8000 3.09 80 20:32 23.02.2022
2952 Clouds 20 1019 60 8000 5.14 110 19:55 23.02.2022
2953 Clouds 20 1019 60 8000 4.12 340 18:57 23.02.2022
2954 Clouds 21 1018 56 6000 5.14 310 17:46 23.02.2022
2955 Clouds 28 1017 28 8000 2.57 130 15:28 23.02.2022
2956 Clouds 28 1019 28 10000 1.03 0 13:34 23.02.2022
2957 Clouds 25 1021 33 10000 2.06 100 12:26 23.02.2022
2958 Clouds 22 1021 40 10000 3.09 90 10:45 23.02.2022
2959 Clouds 19 1020 45 10000 2.06 90 09:24 23.02.2022
2960 Clear 18 1019 48 10000 1.03 0 08:27 23.02.2022
2961 Clear 20 1019 42 10000 4.12 260 07:19 23.02.2022
2962 Clear 20 1019 42 10000 4.12 260 07:19 23.02.2022
2963 Clouds 22 1019 33 8000 4.12 160 01:22 23.02.2022
2964 Clouds 24 1020 22 8000 3.6 210 23:40 22.02.2022
2965 Clouds 22 1019 23 8000 3.09 170 22:59 22.02.2022
2966 Clouds 22 1019 23 8000 1.03 0 21:58 22.02.2022
2967 Clouds 23 1019 20 8000 2.57 90 21:40 22.02.2022
2968 Clouds 23 1019 20 8000 2.57 90 21:18 22.02.2022
2969 Clouds 24 1018 19 8000 1.03 0 20:31 22.02.2022
2970 Clouds 25 1018 16 8000 1.03 0 19:53 22.02.2022
2971 Clouds 26 1018 15 8000 1.03 0 19:33 22.02.2022
2972 Clouds 28 1018 14 8000 2.06 40 18:27 22.02.2022
2973 Clouds 28 1018 14 8000 1.54 360 17:26 22.02.2022
2974 Clouds 28 1019 14 8000 1.03 0 16:42 22.02.2022
2975 Clouds 28 1019 15 8000 2.06 0 15:59 22.02.2022
2976 Clouds 27 1020 18 8000 2.06 70 14:52 22.02.2022
2977 Clouds 24 1022 25 8000 3.09 70 12:52 22.02.2022
2978 Clouds 17 1023 36 8000 2.57 80 10:54 22.02.2022
2979 Clear 11 1022 46 10000 3.09 90 08:56 22.02.2022
2980 Clear 12 1021 43 10000 3.09 110 07:28 22.02.2022
2981 Clear 13 1021 41 10000 2.06 140 06:53 22.02.2022
2982 Clear 14 1022 41 10000 1.03 0 02:48 22.02.2022
2983 Clear 17 1022 34 10000 2.06 70 23:18 21.02.2022
2984 Clear 20 1022 28 10000 2.57 60 21:56 21.02.2022
2985 Clear 23 1021 23 10000 4.12 40 20:38 21.02.2022
2986 Clear 25 1020 22 10000 5.66 30 18:47 21.02.2022
2987 Clear 27 1020 21 10000 1.54 50 18:18 21.02.2022
2988 Clear 25 1021 31 10000 2.57 360 15:36 21.02.2022
2989 Clear 23 1022 40 10000 2.57 350 14:22 21.02.2022
2990 Clear 21 1023 46 10000 2.06 350 13:30 21.02.2022
2991 Clear 21 1023 49 10000 1.03 0 12:41 21.02.2022
2992 Clear 20 1023 52 10000 1.03 0 12:20 21.02.2022
2993 Clear 14 1024 67 10000 2.06 200 10:26 21.02.2022
2994 Clear 12 1020 62 10000 2.57 180 05:40 21.02.2022
2995 Clouds 15 1021 55 10000 2.57 200 00:30 21.02.2022
2996 Clouds 17 1020 48 10000 2.06 20 22:32 20.02.2022
2997 Clouds 17 1020 48 10000 1.54 360 21:43 20.02.2022
2998 Clouds 18 1020 45 10000 2.06 320 21:21 20.02.2022
2999 Clouds 19 1019 42 10000 1.54 340 20:43 20.02.2022
3000 Clouds 19 1019 45 10000 1.03 0 19:48 20.02.2022
3001 Clouds 20 1018 42 10000 2.57 70 18:55 20.02.2022
3002 Clouds 20 1018 42 10000 2.57 60 18:34 20.02.2022
3003 Clouds 20 1018 42 10000 2.57 60 17:55 20.02.2022
3004 Clouds 20 1018 45 10000 3.09 30 16:18 20.02.2022
3005 Clouds 18 1019 52 10000 2.57 50 14:53 20.02.2022
3006 Clouds 18 1019 52 10000 2.57 50 14:53 20.02.2022
3007 Clouds 16 1020 55 10000 2.57 350 13:58 20.02.2022
3008 Clouds 14 1021 58 10000 2.57 40 12:35 20.02.2022
3009 Clouds 13 1021 62 10000 3.09 70 10:52 20.02.2022
3010 Clouds 12 1021 66 10000 3.09 80 10:20 20.02.2022
3011 Clouds 12 1020 62 10000 2.57 80 08:58 20.02.2022
3012 Clouds 12 1022 71 10000 3.6 50 01:19 20.02.2022
3013 Clouds 12 1022 71 10000 4.63 50 00:30 20.02.2022
3014 Clouds 12 1022 71 10000 4.63 40 23:19 19.02.2022
3015 Clouds 12 1022 76 10000 4.63 40 22:23 19.02.2022
3016 Clouds 13 1021 71 10000 6.17 30 21:39 19.02.2022
3017 Clouds 14 1020 72 10000 5.14 30 19:58 19.02.2022
3018 Clouds 15 1020 67 10000 5.66 10 19:33 19.02.2022
3019 Clouds 17 1020 59 10000 6.17 20 18:38 19.02.2022
3020 Clouds 18 1019 52 10000 5.14 350 17:37 19.02.2022
3021 Clouds 18 1019 48 10000 1.54 0 16:34 19.02.2022
3022 Clouds 19 1020 45 10000 1.54 0 15:19 19.02.2022
3023 Clouds 18 1020 48 10000 1.54 0 14:52 19.02.2022
3024 Clouds 18 1021 55 10000 1.54 0 13:47 19.02.2022
3025 Clouds 14 1022 72 8000 2.57 100 11:39 19.02.2022
3026 Clouds 12 1022 82 8000 2.06 140 10:30 19.02.2022
3027 Clouds 10 1021 87 8000 2.06 260 07:56 19.02.2022
3028 Clouds 10 1020 81 8000 1.54 240 04:32 19.02.2022
3029 Clouds 14 1021 67 8000 3.09 250 23:45 18.02.2022
3030 Clouds 17 1020 55 8000 3.6 360 21:54 18.02.2022
3031 Clouds 18 1019 45 10000 3.09 240 20:57 18.02.2022
3032 Clouds 19 1019 42 10000 2.57 250 19:54 18.02.2022
3033 Clouds 21 1019 35 10000 4.63 280 18:50 18.02.2022
3034 Clouds 22 1019 33 10000 4.12 290 18:22 18.02.2022
3035 Clouds 22 1019 33 10000 4.12 290 17:55 18.02.2022
3036 Clouds 20 1019 49 10000 3.6 300 15:22 18.02.2022
3037 Clear 19 1021 55 10000 3.09 290 13:55 18.02.2022
3038 Clear 17 1021 51 10000 2.57 290 12:55 18.02.2022
3039 Clear 16 1022 51 10000 2.06 280 12:36 18.02.2022
3040 Clear 13 1022 47 10000 3.09 270 11:40 18.02.2022
3041 Clear 12 1021 40 10000 0.51 0 10:23 18.02.2022
3042 Clear 9 1020 66 10000 2.06 40 06:57 18.02.2022
3043 Clear 9 1020 66 10000 1.54 80 05:41 18.02.2022
3044 Clear 16 1021 55 10000 2.57 90 23:34 17.02.2022
3045 Clear 18 1020 13 10000 1.03 0 21:46 17.02.2022
3046 Clear 18 1020 13 10000 1.03 0 21:20 17.02.2022
3047 Clear 21 1020 10 10000 1.54 360 20:39 17.02.2022
3048 Clear 22 1020 10 10000 2.06 360 19:50 17.02.2022
3049 Clear 25 1019 9 10000 3.09 360 18:52 17.02.2022
3050 Clear 26 1020 10 10000 2.57 40 17:55 17.02.2022
3051 Clear 26 1020 10 10000 2.06 30 16:42 17.02.2022
3052 Clear 25 1021 10 10000 3.6 90 15:38 17.02.2022
3053 Clear 24 1023 14 10000 3.09 80 14:28 17.02.2022
3054 Clear 20 1025 22 10000 2.06 30 12:43 17.02.2022
3055 Clear 18 1026 25 10000 3.09 70 11:27 17.02.2022
3056 Clear 8 1025 49 10000 2.57 90 08:53 17.02.2022
3057 Clear 12 1026 37 10000 1.54 80 04:20 17.02.2022
3058 Clear 15 1028 36 10000 2.06 90 23:21 16.02.2022
3059 Clear 20 1027 26 10000 3.09 50 21:44 16.02.2022
3060 Clouds 22 1027 23 10000 3.6 30 19:57 16.02.2022
3061 Clouds 24 1026 20 10000 2.57 350 18:43 16.02.2022
3062 Clouds 25 1026 20 10000 3.09 350 17:53 16.02.2022
3063 Clear 24 1027 27 10000 2.06 340 15:40 16.02.2022
3064 Clear 24 1027 27 10000 2.06 340 15:19 16.02.2022
3065 Clear 20 1029 34 10000 2.06 360 13:28 16.02.2022
3066 Clear 17 1030 42 10000 2.06 30 12:20 16.02.2022
3067 Clear 15 1030 51 10000 1.03 0 11:28 16.02.2022
3068 Clear 12 1030 58 10000 1.03 0 10:34 16.02.2022
3069 Clear 7 1028 70 10000 1.54 260 08:20 16.02.2022
3070 Clear 7 1027 70 10000 1.03 0 06:29 16.02.2022
3071 Clouds 13 1026 54 10000 2.06 90 23:45 15.02.2022
3072 Clouds 16 1025 44 10000 3.6 30 22:30 15.02.2022
3073 Clouds 17 1025 45 10000 2.06 20 21:47 15.02.2022
3074 Clouds 17 1024 45 10000 2.06 30 21:27 15.02.2022
3075 Clouds 18 1024 42 10000 2.06 30 20:56 15.02.2022
3076 Clouds 18 1023 42 10000 2.06 50 19:57 15.02.2022
3077 Clouds 20 1023 40 10000 4.63 50 18:56 15.02.2022
3078 Clouds 20 1023 40 10000 4.63 40 18:22 15.02.2022
3079 Clouds 20 1023 40 10000 4.12 40 17:50 15.02.2022
3080 Clouds 21 1023 43 10000 5.14 50 17:19 15.02.2022
3081 Clouds 20 1024 42 10000 3.6 50 15:30 15.02.2022
3082 Clouds 18 1026 59 10000 2.06 350 13:28 15.02.2022
3083 Clear 15 1026 67 10000 2.06 20 12:37 15.02.2022
3084 Clear 13 1026 71 10000 3.09 50 11:40 15.02.2022
3085 Clear 10 1025 87 10000 0.51 0 09:31 15.02.2022
3086 Clear 9 1024 87 10000 1.03 0 06:59 15.02.2022
3087 Clear 10 1024 81 10000 1.54 120 05:32 15.02.2022
3088 Clear 14 1024 67 10000 3.6 40 23:33 14.02.2022
3089 Clear 17 1023 51 10000 3.6 10 21:47 14.02.2022
3090 Clouds 18 1022 36 10000 2.06 20 20:40 14.02.2022
3091 Clouds 20 1022 32 10000 1.54 310 19:36 14.02.2022
3092 Clouds 20 1022 32 10000 2.06 330 18:44 14.02.2022
3093 Clouds 20 1021 32 10000 1.54 320 18:23 14.02.2022
3094 Clouds 20 1021 32 10000 1.54 0 17:26 14.02.2022
3095 Clouds 23 1022 31 10000 1.54 0 16:25 14.02.2022
3096 Clouds 20 1023 40 10000 1.54 0 14:31 14.02.2022
3097 Clouds 18 1024 48 10000 2.06 0 13:33 14.02.2022
3098 Clouds 17 1024 48 10000 1.54 20 12:52 14.02.2022
3099 Clouds 14 1024 62 10000 2.06 330 11:54 14.02.2022
3100 Clear 13 1024 67 10000 1.03 0 10:56 14.02.2022
3101 Clear 9 1023 71 10000 1.03 0 08:45 14.02.2022
3102 Clear 10 1022 71 10000 2.06 220 07:32 14.02.2022
3103 Clear 10 1022 57 10000 2.06 260 02:27 14.02.2022
3104 Clear 16 1021 29 10000 2.57 90 22:42 13.02.2022
3105 Clear 16 1021 29 10000 2.57 90 22:24 13.02.2022
3106 Clear 17 1020 27 10000 2.06 50 21:32 13.02.2022
3107 Clear 19 1020 24 10000 1.54 10 20:36 13.02.2022
3108 Clear 20 1020 22 10000 2.06 350 19:45 13.02.2022
3109 Clear 21 1019 21 10000 2.57 350 18:54 13.02.2022
3110 Clear 22 1019 21 10000 3.09 340 18:35 13.02.2022
3111 Clear 22 1020 20 10000 3.09 340 16:34 13.02.2022
3112 Clear 22 1020 21 10000 1.54 0 15:24 13.02.2022
3113 Clear 21 1021 26 10000 2.57 0 14:36 13.02.2022
3114 Clear 20 1023 28 10000 0.51 0 12:51 13.02.2022
3115 Clouds 18 1023 36 10000 1.03 0 11:58 13.02.2022
3116 Clouds 15 1022 41 10000 0.51 0 10:35 13.02.2022
3117 Clouds 12 1022 54 10000 0.51 0 09:47 13.02.2022
3118 Clear 8 1021 61 8000 0.51 0 07:51 13.02.2022
3119 Clear 14 1022 54 10000 2.57 70 00:36 13.02.2022
3120 Clear 15 1022 55 10000 2.57 60 23:53 12.02.2022
3121 Clear 16 1022 48 8000 1.54 30 22:33 12.02.2022
3122 Clear 16 1021 31 8000 1.54 80 21:31 12.02.2022
3123 Clear 18 1021 27 8000 2.06 40 20:47 12.02.2022
3124 Clouds 20 1020 22 10000 4.12 60 19:35 12.02.2022
3125 Clouds 21 1020 19 10000 4.63 60 18:53 12.02.2022
3126 Clouds 21 1020 21 10000 4.12 60 18:35 12.02.2022
3127 Clouds 22 1019 21 10000 4.63 40 17:37 12.02.2022
3128 Clouds 22 1019 21 10000 5.14 50 16:43 12.02.2022
3129 Clouds 22 1020 28 10000 3.09 70 15:51 12.02.2022
3130 Clouds 21 1021 35 10000 3.6 40 14:44 12.02.2022
3131 Clouds 20 1022 37 10000 4.12 50 14:24 12.02.2022
3132 Clouds 16 1023 51 8000 1.03 0 11:18 12.02.2022
3133 Clouds 14 1023 54 8000 0.51 0 10:23 12.02.2022
3134 Clouds 9 1022 66 8000 3.6 100 09:32 12.02.2022
3135 Clouds 7 1022 76 8000 1.54 80 08:45 12.02.2022
3136 Clear 9 1021 71 10000 2.06 90 05:40 12.02.2022
3137 Clear 9 1021 66 10000 2.57 100 04:33 12.02.2022
3138 Clear 11 1022 66 10000 2.06 90 02:18 12.02.2022
3139 Clouds 14 1023 58 8000 1.54 100 22:55 11.02.2022
3140 Clouds 15 1023 55 8000 1.54 40 22:20 11.02.2022
3141 Clouds 16 1022 51 8000 3.09 40 20:52 11.02.2022
3142 Clouds 17 1022 45 8000 2.57 20 19:50 11.02.2022
3143 Clouds 18 1022 42 8000 3.6 30 19:27 11.02.2022
3144 Clouds 19 1021 42 8000 4.12 360 18:28 11.02.2022
3145 Clouds 20 1022 40 8000 2.06 340 17:26 11.02.2022
3146 Clouds 20 1022 32 8000 1.54 0 16:26 11.02.2022
3147 Clouds 20 1022 24 10000 4.78 26 14:57 11.02.2022
3148 Clouds 20 1022 24 10000 4.78 26 14:36 11.02.2022
3149 Clouds 20 1023 22 10000 3.98 43 14:18 11.02.2022
3150 Clouds 20 1023 22 10000 3.97 43 13:39 11.02.2022
3151 Clouds 15 1025 38 8000 1.03 0 12:19 11.02.2022
3152 Clouds 13 1024 38 10000 2.06 90 10:28 11.02.2022
3153 Clouds 12 1023 40 10000 1.03 0 09:19 11.02.2022
3154 Clouds 12 1023 35 10000 2.06 20 08:28 11.02.2022
3155 Clouds 12 1023 35 8000 1.03 0 07:34 11.02.2022
3156 Clouds 13 1024 35 8000 1.03 0 02:40 11.02.2022
3157 Clear 13 1024 35 8000 1.03 0 02:20 11.02.2022
3158 Clear 16 1025 33 8000 1.03 0 23:36 10.02.2022
3159 Clear 20 1024 24 8000 2.06 340 21:53 10.02.2022
3160 Clear 21 1024 21 8000 3.6 330 21:24 10.02.2022
3161 Clear 22 1024 17 8000 2.57 340 20:48 10.02.2022
3162 Clouds 24 1023 13 8000 3.09 330 19:26 10.02.2022
3163 Clouds 25 1023 12 8000 2.57 310 18:47 10.02.2022
3164 Clouds 26 1022 12 8000 3.6 300 17:39 10.02.2022
3165 Clouds 26 1022 12 8000 3.6 300 17:19 10.02.2022
3166 Clouds 26 1023 11 8000 3.6 300 16:20 10.02.2022
3167 Clouds 25 1023 18 8000 3.09 290 15:33 10.02.2022
3168 Clouds 26 1023 18 8000 3.09 290 14:49 10.02.2022
3169 Clouds 25 1024 19 8000 3.09 280 14:29 10.02.2022
3170 Clouds 23 1025 25 8000 2.06 320 13:33 10.02.2022
3171 Clouds 22 1025 30 8000 1.54 340 12:51 10.02.2022
3172 Clouds 20 1026 34 8000 1.03 0 11:38 10.02.2022
3173 Clouds 20 1026 34 8000 1.03 0 11:20 10.02.2022
3174 Clouds 17 1026 36 8000 4.12 180 10:18 10.02.2022
3175 Clouds 12 1025 47 8000 1.03 0 09:25 10.02.2022
3176 Clouds 13 1025 44 8000 1.54 150 07:40 10.02.2022
3177 Clear 14 1024 41 8000 0.51 0 05:52 10.02.2022
3178 Clear 17 1025 34 8000 4.12 230 01:57 10.02.2022
3179 Clouds 18 1025 36 8000 4.63 220 00:50 10.02.2022
3180 Clear 18 1025 36 8000 4.63 220 00:50 10.02.2022
3181 Clouds 19 1025 34 8000 3.6 210 00:29 10.02.2022
3182 Clouds 18 1025 34 8000 0.51 0 23:26 09.02.2022
3183 Clouds 20 1024 32 8000 3.6 230 22:37 09.02.2022
3184 Clouds 19 1024 34 8000 1.03 0 21:56 09.02.2022
3185 Clouds 20 1024 32 8000 1.03 0 21:32 09.02.2022
3186 Clouds 23 1023 27 8000 1.03 0 20:51 09.02.2022
3187 Clouds 23 1023 27 8000 1.03 0 20:31 09.02.2022
3188 Clouds 24 1023 25 8000 2.06 300 19:59 09.02.2022
3189 Clouds 25 1023 23 8000 3.09 300 19:38 09.02.2022
3190 Clouds 26 1023 22 8000 1.54 0 17:39 09.02.2022
3191 Clouds 26 1023 24 8000 2.06 310 16:53 09.02.2022
3192 Clouds 26 1023 24 8000 2.57 20 15:52 09.02.2022
3193 Clouds 26 1024 24 8000 2.06 0 14:42 09.02.2022
3194 Clear 23 1025 28 8000 1.54 360 12:30 09.02.2022
3195 Clear 22 1025 30 8000 0.51 0 11:19 09.02.2022
3196 Clear 17 1025 42 8000 1.03 0 10:30 09.02.2022
3197 Clear 12 1025 54 8000 1.03 0 09:40 09.02.2022
3198 Clear 12 1025 54 8000 1.03 0 09:19 09.02.2022
3199 Clear 12 1024 50 8000 1.54 100 07:55 09.02.2022
3200 Clear 15 1023 38 10000 1.1 155 05:30 09.02.2022
3201 Clear 16 1023 39 8000 2.57 170 03:50 09.02.2022
3202 Clouds 17 1024 39 8000 2.57 120 01:27 09.02.2022
3203 Clouds 19 1024 34 8000 2.06 0 23:34 08.02.2022
3204 Clouds 20 1023 32 8000 3.6 170 22:50 08.02.2022
3205 Clouds 21 1023 30 8000 4.12 150 22:22 08.02.2022
3206 Clouds 21 1023 30 8000 5.66 150 21:49 08.02.2022
3207 Clouds 22 1022 28 8000 6.17 140 21:21 08.02.2022
3208 Clouds 23 1022 23 8000 3.6 110 20:45 08.02.2022
3209 Clouds 24 1021 19 8000 3.09 50 19:46 08.02.2022
3210 Clouds 23 1020 17 10000 3.3 40 18:48 08.02.2022
3211 Clouds 27 1020 18 8000 1.54 0 17:43 08.02.2022
3212 Clouds 26 1020 13 10000 4.29 15 16:34 08.02.2022
3213 Clear 26 1020 13 10000 3.97 9 15:30 08.02.2022
3214 Clear 26 1022 22 8000 2.57 350 14:38 08.02.2022
3215 Clouds 25 1023 23 8000 1.54 0 13:24 08.02.2022
3216 Clouds 21 1023 35 8000 1.03 0 11:55 08.02.2022
3217 Clouds 14 1023 44 8000 1.54 70 10:23 08.02.2022
3218 Clouds 15 1023 41 8000 1.54 80 10:23 08.02.2022
3219 Clouds 14 1023 44 8000 1.54 70 09:45 08.02.2022
3220 Clear 12 1022 50 8000 2.57 110 07:55 08.02.2022
3221 Clouds 14 1021 47 10000 1.54 100 05:41 08.02.2022
3222 Clouds 17 1022 39 10000 2.06 0 04:39 08.02.2022
3223 Clouds 17 1022 39 10000 2.06 0 04:21 08.02.2022
3224 Clouds 16 1022 41 10000 0.51 0 03:36 08.02.2022
3225 Clouds 16 1022 41 10000 0.51 0 03:18 08.02.2022
3226 Clouds 16 1022 41 10000 1.54 130 02:59 08.02.2022
3227 Clouds 17 1022 39 10000 1.03 0 02:36 08.02.2022
3228 Clouds 17 1022 39 10000 1.03 0 02:18 08.02.2022
3229 Clouds 18 1022 36 10000 1.54 0 02:18 08.02.2022
3230 Clouds 19 1022 37 10000 3.6 210 01:44 08.02.2022
3231 Clouds 19 1022 37 10000 3.6 210 01:24 08.02.2022
3232 Clouds 17 1022 39 10000 2.06 250 00:54 08.02.2022
3233 Clear 18 1022 34 10000 2.57 240 23:57 07.02.2022
3234 Clear 19 1022 34 10000 2.57 210 23:39 07.02.2022
3235 Clear 19 1022 34 10000 2.57 210 23:18 07.02.2022
3236 Clouds 20 1022 30 8000 3.09 220 22:20 07.02.2022
3237 Clouds 21 1021 28 8000 3.6 180 21:55 07.02.2022
3238 Clouds 22 1021 26 8000 3.09 180 21:29 07.02.2022
3239 Clouds 20 1021 30 8000 1.54 230 20:59 07.02.2022
3240 Clouds 22 1020 24 8000 2.57 230 20:40 07.02.2022
3241 Clouds 22 1020 23 8000 1.03 0 19:54 07.02.2022
3242 Clouds 23 1020 21 8000 1.54 230 19:36 07.02.2022
3243 Clouds 25 1019 20 8000 2.06 330 18:18 07.02.2022
3244 Clouds 26 1019 19 8000 3.09 280 16:53 07.02.2022
3245 Clear 26 1019 22 8000 3.6 0 15:49 07.02.2022
3246 Clear 26 1020 22 8000 2.06 310 14:56 07.02.2022
3247 Clear 25 1021 33 8000 1.54 0 13:28 07.02.2022
3248 Clear 23 1021 35 8000 2.57 40 12:52 07.02.2022
3249 Clear 20 1021 42 8000 2.06 80 11:58 07.02.2022
3250 Clear 18 1021 48 8000 2.57 80 11:35 07.02.2022
3251 Clouds 17 1021 51 10000 2.06 50 10:50 07.02.2022
3252 Clouds 18 1021 52 10000 0.51 0 10:30 07.02.2022
3253 Clouds 15 1021 58 10000 2.06 130 09:53 07.02.2022
3254 Clouds 13 1020 62 10000 3.09 90 09:18 07.02.2022
3255 Clouds 12 1020 66 10000 1.03 0 08:36 07.02.2022
3256 Clear 13 1020 62 10000 0.51 0 06:54 07.02.2022
3257 Clear 13 1020 62 10000 1.54 120 06:34 07.02.2022
3258 Clear 15 1020 58 10000 1.54 80 02:59 07.02.2022
3259 Clouds 16 1021 55 10000 2.06 100 00:45 07.02.2022
3260 Clouds 16 1021 55 10000 2.06 100 00:45 07.02.2022
3261 Clouds 16 1021 55 10000 2.06 90 23:47 06.02.2022
3262 Clouds 18 1021 52 8000 2.57 60 22:48 06.02.2022
3263 Clouds 20 1021 42 8000 4.12 50 21:54 06.02.2022
3264 Clouds 19 1021 42 8000 2.06 70 21:35 06.02.2022
3265 Clouds 20 1020 40 8000 2.57 80 20:54 06.02.2022
3266 Clouds 21 1020 37 8000 3.09 80 20:31 06.02.2022
3267 Clouds 23 1019 33 8000 2.57 20 19:38 06.02.2022
3268 Clouds 24 1019 33 8000 2.57 10 18:40 06.02.2022
3269 Clouds 24 1019 33 8000 2.06 310 17:55 06.02.2022
3270 Clouds 25 1018 33 8000 2.06 320 17:19 06.02.2022
3271 Clouds 25 1019 31 8000 2.06 0 16:38 06.02.2022
3272 Clouds 24 1019 35 8000 1.54 0 15:48 06.02.2022
3273 Clouds 24 1019 33 10000 2.06 30 15:26 06.02.2022
3274 Clouds 23 1020 40 10000 1.54 0 14:36 06.02.2022
3275 Clouds 23 1020 40 10000 1.54 0 14:36 06.02.2022
3276 Clouds 20 1021 49 10000 2.06 50 13:25 06.02.2022
3277 Clouds 19 1021 52 10000 2.57 40 12:52 06.02.2022
3278 Clouds 16 1022 63 10000 2.57 70 11:32 06.02.2022
3279 Clouds 15 1022 67 10000 2.06 70 10:30 06.02.2022
3280 Clouds 14 1021 72 10000 3.09 80 08:53 06.02.2022
3281 Clouds 14 1021 72 10000 2.06 110 08:30 06.02.2022
3282 Clouds 15 1020 63 10000 0.51 0 05:31 06.02.2022
3283 Clouds 15 1021 63 10000 1.03 0 02:49 06.02.2022
3284 Clouds 15 1021 63 10000 1.03 0 02:24 06.02.2022
3285 Clouds 16 1021 59 10000 3.09 50 00:27 06.02.2022
3286 Clouds 19 1021 48 10000 5.14 40 22:22 05.02.2022
3287 Clouds 20 1020 37 10000 2.06 60 21:18 05.02.2022
3288 Clouds 21 1020 35 10000 2.57 50 20:24 05.02.2022
3289 Clouds 21 1020 35 10000 3.09 40 19:46 05.02.2022
3290 Clouds 22 1019 33 10000 4.12 40 18:52 05.02.2022
3291 Clear 23 1019 31 10000 3.09 360 17:39 05.02.2022
3292 Clear 23 1019 31 10000 3.09 360 17:39 05.02.2022
3293 Clear 24 1019 29 10000 4.12 30 16:48 05.02.2022
3294 Clear 25 1019 23 10000 3.09 50 15:34 05.02.2022
3295 Clear 24 1019 25 10000 3.09 50 14:53 05.02.2022
3296 Clouds 20 1022 34 8000 2.57 40 12:47 05.02.2022
3297 Clouds 19 1022 37 8000 2.57 50 11:49 05.02.2022
3298 Clouds 17 1022 39 8000 1.54 60 10:47 05.02.2022
3299 Clear 14 1022 51 10000 1.03 0 09:53 05.02.2022
3300 Clear 12 1021 54 10000 1.03 0 09:29 05.02.2022
3301 Clear 12 1021 50 10000 1.54 110 07:38 05.02.2022
3302 Clear 12 1021 50 10000 2.06 100 06:56 05.02.2022
3303 Clouds 14 1022 47 10000 1.54 110 04:28 05.02.2022
3304 Clouds 17 1022 36 10000 3.09 80 01:19 05.02.2022
3305 Clouds 17 1023 36 10000 3.09 90 00:51 05.02.2022
3306 Clouds 18 1022 34 10000 2.06 90 23:38 04.02.2022
3307 Clouds 18 1022 34 10000 2.06 90 23:20 04.02.2022
3308 Clouds 22 1022 26 10000 2.57 40 21:37 04.02.2022
3309 Clouds 22 1022 26 10000 2.57 40 21:18 04.02.2022
3310 Clouds 22 1022 26 10000 3.09 20 20:50 04.02.2022
3311 Clouds 24 1021 23 10000 2.57 20 19:33 04.02.2022
3312 Clouds 25 1020 23 10000 1.54 320 17:27 04.02.2022
3313 Clear 25 1021 22 10000 1.54 0 15:38 04.02.2022
3314 Clouds 24 1021 23 7000 2.06 0 14:52 04.02.2022
3315 Clouds 22 1023 30 6000 1.54 10 12:43 04.02.2022
3316 Clear 21 1023 32 10000 1.54 360 11:47 04.02.2022
3317 Clear 18 1023 36 10000 1.03 0 11:22 04.02.2022
3318 Clear 16 1023 41 10000 1.54 170 10:32 04.02.2022
3319 Clouds 14 1022 47 8000 2.06 130 08:34 04.02.2022
3320 Clear 14 1022 47 10000 2.06 90 05:19 04.02.2022
3321 Clear 15 1024 44 10000 1.03 0 02:39 04.02.2022
3322 Clear 17 1024 39 10000 4.12 220 00:26 04.02.2022
3323 Clouds 18 1024 42 8000 4.12 220 23:21 03.02.2022
3324 Clouds 18 1024 42 8000 4.12 230 22:26 03.02.2022
3325 Clouds 19 1024 39 8000 3.09 240 21:47 03.02.2022
3326 Clouds 22 1023 28 8000 4.63 230 20:26 03.02.2022
3327 Clouds 22 1023 26 8000 3.09 200 19:57 03.02.2022
3328 Clouds 22 1023 26 8000 2.57 200 19:23 03.02.2022
3329 Clouds 23 1022 25 8000 3.6 240 18:26 03.02.2022
3330 Clouds 24 1022 23 8000 3.6 260 17:27 03.02.2022
3331 Clouds 26 1022 21 8000 1.03 0 15:44 03.02.2022
3332 Clouds 25 1023 22 8000 1.54 360 14:22 03.02.2022
3333 Clouds 24 1024 25 8000 1.54 60 12:37 03.02.2022
3334 Clouds 11 1024 46 8000 1.03 0 09:29 03.02.2022
3335 Clear 11 1023 46 10000 2.06 130 08:19 03.02.2022
3336 Clear 14 1023 38 8000 1.03 0 02:56 03.02.2022
3337 Clouds 17 1024 31 8000 1.54 170 00:29 03.02.2022
3338 Clouds 20 1023 26 8000 2.57 210 22:42 02.02.2022
3339 Clouds 18 1023 29 8000 0.51 0 21:53 02.02.2022
3340 Clouds 19 1023 30 8000 1.54 250 21:29 02.02.2022
3341 Clouds 21 1022 26 8000 2.06 240 20:28 02.02.2022
3342 Clouds 21 1022 24 8000 1.54 260 19:49 02.02.2022
3343 Clouds 23 1022 23 8000 2.06 240 19:20 02.02.2022
3344 Clouds 25 1021 19 8000 3.09 270 18:25 02.02.2022
3345 Clear 26 1021 18 10000 2.06 290 17:23 02.02.2022
3346 Clear 26 1021 18 10000 3.09 310 16:59 02.02.2022
3347 Clear 27 1021 17 10000 2.57 320 15:49 02.02.2022
3348 Clear 22 1023 23 10000 2.57 80 12:50 02.02.2022
3349 Clear 18 1024 29 10000 2.57 80 11:51 02.02.2022
3350 Clear 18 1024 29 10000 2.57 80 11:51 02.02.2022
3351 Clear 16 1024 31 10000 2.57 110 11:30 02.02.2022
3352 Clear 9 1023 53 8000 2.06 70 09:22 02.02.2022
3353 Clouds 9 1023 53 8000 2.06 80 05:29 02.02.2022
3354 Clouds 17 1024 29 8000 2.57 100 22:36 01.02.2022
3355 Clear 20 1023 22 8000 3.09 50 20:58 01.02.2022
3356 Clear 23 1022 20 10000 4.12 30 19:39 01.02.2022
3357 Clear 26 1022 19 10000 2.57 0 17:37 01.02.2022
3358 Clear 26 1022 21 10000 2.06 0 16:31 01.02.2022
3359 Clouds 23 1025 31 8000 2.06 50 13:27 01.02.2022
3360 Clouds 20 1026 34 8000 1.54 90 12:28 01.02.2022
3361 Clouds 13 1025 54 8000 3.09 90 10:42 01.02.2022
3362 Clouds 13 1025 54 8000 2.06 60 02:24 01.02.2022
3363 Clouds 16 1025 48 8000 3.09 90 23:39 31.01.2022
3364 Clouds 17 1025 45 8000 3.6 100 22:42 31.01.2022
3365 Clouds 20 1024 37 8000 2.57 60 21:36 31.01.2022
3366 Clouds 21 1024 35 8000 1.54 90 20:35 31.01.2022
3367 Clouds 22 1024 33 8000 1.54 70 19:59 31.01.2022
3368 Clouds 24 1023 29 8000 2.06 50 18:47 31.01.2022
3369 Clouds 25 1023 27 8000 2.06 30 18:18 31.01.2022
3370 Clouds 25 1023 29 8000 1.54 30 17:24 31.01.2022
3371 Clouds 25 1024 29 8000 2.57 60 16:25 31.01.2022
3372 Clouds 25 1024 31 8000 2.57 80 14:53 31.01.2022
3373 Clouds 23 1026 40 8000 2.57 40 13:35 31.01.2022
3374 Clouds 21 1027 43 8000 2.57 40 12:38 31.01.2022
3375 Clouds 21 1026 43 8000 1.03 0 11:26 31.01.2022
3376 Clouds 17 1026 55 8000 2.06 50 10:48 31.01.2022
3377 Clouds 16 1025 55 8000 1.54 40 09:37 31.01.2022
3378 Clouds 15 1025 58 8000 2.57 90 08:56 31.01.2022
3379 Clouds 15 1025 55 8000 2.57 90 08:20 31.01.2022
3380 Clouds 15 1024 58 8000 1.03 0 07:40 31.01.2022
3381 Clouds 17 1023 48 8000 2.06 50 05:33 31.01.2022
3382 Clouds 21 1024 35 10000 5.14 200 00:36 31.01.2022
3383 Clouds 22 1023 28 10000 7.72 190 22:33 30.01.2022
3384 Clouds 22 1023 26 10000 4.12 200 21:46 30.01.2022
3385 Clouds 22 1022 26 7000 4.63 210 21:26 30.01.2022
3386 Clouds 22 1022 26 7000 5.66 210 20:54 30.01.2022
3387 Clouds 23 1021 23 7000 6.69 200 20:31 30.01.2022
3388 Clouds 23 1021 23 7000 7.2 200 19:56 30.01.2022
3389 Clouds 24 1020 22 7000 3.6 90 18:52 30.01.2022
3390 Clouds 24 1020 22 7000 3.09 100 18:22 30.01.2022
3391 Clouds 25 1020 19 7000 3.09 80 17:31 30.01.2022
3392 Clouds 25 1020 19 7000 3.09 80 17:31 30.01.2022
3393 Clouds 25 1020 19 7000 3.09 80 17:31 30.01.2022
3394 Clouds 25 1020 19 7000 3.09 90 16:44 30.01.2022
3395 Clouds 25 1021 19 8000 3.6 100 16:23 30.01.2022
3396 Clouds 25 1020 19 7000 3.09 80 16:23 30.01.2022
3397 Clouds 25 1021 19 8000 3.6 100 15:55 30.01.2022
3398 Clouds 25 1021 20 8000 2.06 70 15:33 30.01.2022
3399 Clouds 25 1022 20 8000 3.09 100 14:48 30.01.2022
3400 Clouds 23 1023 25 8000 1.54 0 13:49 30.01.2022
3401 Clouds 21 1024 30 10000 1.54 60 12:46 30.01.2022
3402 Clouds 14 1024 47 10000 1.54 90 11:23 30.01.2022
3403 Clouds 13 1024 50 10000 3.09 90 10:26 30.01.2022
3404 Clouds 10 1023 57 10000 0.51 0 09:23 30.01.2022
3405 Clouds 10 1023 53 10000 1.54 100 08:32 30.01.2022
3406 Clouds 12 1023 50 10000 1.54 90 02:55 30.01.2022
3407 Clouds 13 1023 47 10000 3.09 110 01:54 30.01.2022
3408 Clouds 14 1022 44 8000 1.54 260 23:49 29.01.2022
3409 Clouds 15 1022 41 10000 0.51 0 22:57 29.01.2022
3410 Clouds 18 1021 34 10000 1.54 110 21:35 29.01.2022
3411 Clouds 19 1021 32 10000 1.54 60 20:59 29.01.2022
3412 Clouds 21 1020 28 10000 2.06 40 20:20 29.01.2022
3413 Clouds 21 1020 28 10000 2.06 60 19:33 29.01.2022
3414 Clouds 23 1020 25 10000 1.54 40 18:44 29.01.2022
3415 Clouds 24 1019 22 10000 3.09 30 17:56 29.01.2022
3416 Clouds 24 1019 22 10000 4.12 360 17:19 29.01.2022
3417 Clouds 24 1020 22 10000 2.57 350 15:35 29.01.2022
3418 Clouds 24 1021 22 10000 1.54 0 13:58 29.01.2022
3419 Clouds 23 1021 23 10000 1.03 0 13:28 29.01.2022
3420 Clouds 23 1022 23 10000 2.06 140 12:59 29.01.2022
3421 Clouds 20 1022 30 8000 4.12 90 11:39 29.01.2022
3422 Clouds 20 1022 30 8000 4.12 90 11:39 29.01.2022
3423 Clouds 18 1021 36 8000 2.57 90 10:34 29.01.2022
3424 Clouds 16 1021 39 8000 2.06 10 08:20 29.01.2022
3425 Clouds 11 1020 58 8000 1.54 100 02:48 29.01.2022
3426 Clouds 14 1020 47 8000 0.51 0 00:32 29.01.2022
3427 Clouds 15 1020 44 8000 1.03 0 23:31 28.01.2022
3428 Clouds 15 1019 44 8000 0.51 0 22:47 28.01.2022
3429 Clouds 17 1019 36 8000 1.03 0 22:19 28.01.2022
3430 Clouds 17 1018 39 10000 1.54 270 20:41 28.01.2022
3431 Clouds 20 1018 30 10000 0.51 0 19:58 28.01.2022
3432 Clouds 21 1017 28 10000 1.54 360 18:52 28.01.2022
3433 Clouds 22 1017 24 8000 2.06 340 18:34 28.01.2022
3434 Clear 23 1017 25 10000 1.54 0 16:23 28.01.2022
3435 Clear 23 1018 27 10000 2.57 20 14:54 28.01.2022
3436 Clear 20 1019 32 10000 3.6 60 12:42 28.01.2022
3437 Clear 18 1020 39 10000 4.12 70 11:49 28.01.2022
3438 Clouds 14 1020 58 10000 2.06 50 10:27 28.01.2022
3439 Clouds 13 1020 62 10000 1.54 70 09:46 28.01.2022
3440 Clouds 12 1019 66 10000 2.57 80 07:41 28.01.2022
3441 Clouds 13 1019 67 10000 1.54 240 05:31 28.01.2022
3442 Clouds 14 1019 62 10000 2.06 30 03:51 28.01.2022
3443 Clouds 14 1019 58 10000 2.06 240 02:27 28.01.2022
3444 Clouds 15 1019 51 10000 2.06 220 01:37 28.01.2022
3445 Clouds 15 1019 51 10000 2.06 220 01:37 28.01.2022
3446 Clouds 14 1019 58 10000 3.09 130 00:42 28.01.2022
3447 Clouds 16 1018 48 10000 4.12 170 22:20 27.01.2022
3448 Clouds 17 1018 45 10000 3.09 190 21:34 27.01.2022
3449 Clouds 17 1017 42 10000 3.6 210 20:59 27.01.2022
3450 Clouds 18 1016 36 10000 2.06 200 19:37 27.01.2022
3451 Clouds 19 1016 37 10000 2.57 220 18:19 27.01.2022
3452 Clouds 20 1016 32 10000 2.06 270 16:45 27.01.2022
3453 Clouds 20 1018 34 10000 1.03 0 13:57 27.01.2022
3454 Clouds 18 1019 45 10000 1.54 0 12:49 27.01.2022
3455 Clouds 16 1020 59 10000 1.03 0 11:53 27.01.2022
3456 Clouds 10 1019 76 10000 1.54 100 09:48 27.01.2022
3457 Clouds 8 1018 81 10000 3.09 100 08:40 27.01.2022
3458 Clouds 9 1018 81 10000 2.06 80 07:31 27.01.2022
3459 Clouds 10 1019 87 10000 2.57 170 03:19 27.01.2022
3460 Clouds 10 1019 81 10000 1.54 260 00:23 27.01.2022
3461 Thunderstorm 12 1019 71 10000 0.51 0 22:27 26.01.2022
3462 Thunderstorm 14 1019 62 10000 1.54 150 21:44 26.01.2022
3463 Clouds 14 1018 67 10000 0.51 0 20:43 26.01.2022
3464 Clouds 14 1018 67 10000 0.51 0 20:24 26.01.2022
3465 Clouds 15 1018 63 10000 1.54 270 19:38 26.01.2022
3466 Clouds 16 1018 59 10000 2.06 280 18:47 26.01.2022
3467 Clouds 17 1018 55 10000 2.06 240 18:18 26.01.2022
3468 Clouds 16 1017 59 10000 2.06 290 17:33 26.01.2022
3469 Clouds 16 1017 63 10000 3.6 270 16:47 26.01.2022
3470 Clouds 17 1017 63 10000 3.09 280 15:56 26.01.2022
3471 Clouds 16 1018 63 10000 3.09 270 14:32 26.01.2022
3472 Clouds 14 1019 77 7000 1.03 0 12:18 26.01.2022
3473 Clouds 11 1019 87 7000 1.54 220 10:50 26.01.2022
3474 Clouds 8 1018 93 7000 1.03 0 09:52 26.01.2022
3475 Clouds 8 1018 87 7000 1.54 70 08:46 26.01.2022
3476 Clouds 9 1017 87 7000 2.06 40 06:28 26.01.2022
3477 Clouds 10 1022 93 6000 5.14 280 00:21 26.01.2022
3478 Clouds 10 1021 93 6000 5.66 270 23:37 25.01.2022
3479 Clouds 11 1021 87 6000 5.14 270 22:48 25.01.2022
3480 Clouds 11 1020 87 6000 5.14 270 22:18 25.01.2022
3481 Clouds 12 1020 76 6000 3.09 240 21:23 25.01.2022
3482 Clouds 13 1019 71 6000 3.09 0 20:45 25.01.2022
3483 Clouds 16 1018 59 6000 3.09 340 19:54 25.01.2022
3484 Thunderstorm 16 1017 59 6000 4.12 320 18:50 25.01.2022
3485 Clouds 18 1017 52 6000 1.54 310 17:47 25.01.2022
3486 Clouds 18 1017 52 6000 1.54 310 17:18 25.01.2022
3487 Clouds 18 1017 52 10000 2.06 20 16:34 25.01.2022
3488 Clouds 18 1018 59 6000 1.54 0 15:39 25.01.2022
3489 Clouds 18 1018 59 6000 1.54 0 15:18 25.01.2022
3490 Clouds 18 1018 59 6000 1.54 320 14:43 25.01.2022
3491 Clouds 15 1021 82 6000 1.03 0 11:52 25.01.2022
3492 Clouds 12 1020 94 6000 2.06 270 09:21 25.01.2022
3493 Clouds 13 1019 88 6000 1.03 0 07:46 25.01.2022
3494 Clouds 13 1019 88 6000 1.54 270 06:54 25.01.2022
3495 Clouds 12 1020 94 6000 0.51 0 05:23 25.01.2022
3496 Clouds 12 1020 94 6000 0.51 0 05:23 25.01.2022
3497 Clouds 12 1021 76 8000 3.09 240 00:28 25.01.2022
3498 Clouds 13 1021 71 8000 3.09 250 23:36 24.01.2022
3499 Clouds 13 1021 67 8000 3.09 250 23:18 24.01.2022
3500 Clouds 13 1021 67 8000 3.09 250 22:42 24.01.2022
3501 Clouds 15 1021 58 8000 2.57 260 21:57 24.01.2022
3502 Clouds 15 1020 58 8000 2.06 270 21:32 24.01.2022
3503 Clouds 17 1020 55 7000 3.6 230 20:34 24.01.2022
3504 Clouds 18 1020 52 7000 2.57 230 19:58 24.01.2022
3505 Clouds 19 1020 48 7000 3.09 240 19:37 24.01.2022
3506 Clouds 20 1019 45 7000 2.57 240 18:37 24.01.2022
3507 Clouds 20 1020 45 7000 2.06 330 17:24 24.01.2022
3508 Clouds 20 1020 45 7000 2.06 310 16:55 24.01.2022
3509 Clouds 20 1020 49 7000 3.09 310 16:29 24.01.2022
3510 Clouds 19 1020 55 7000 2.06 290 14:54 24.01.2022
3511 Clouds 18 1022 63 7000 1.03 0 13:38 24.01.2022
3512 Clouds 16 1022 77 7000 1.54 0 12:32 24.01.2022
3513 Clouds 15 1022 77 7000 2.06 130 11:21 24.01.2022
3514 Clouds 12 1022 82 7000 1.54 110 09:49 24.01.2022
3515 Clouds 12 1022 82 7000 1.03 0 09:20 24.01.2022
3516 Clouds 11 1021 87 8000 0.51 0 07:28 24.01.2022
3517 Clouds 11 1021 76 8000 2.06 250 01:34 24.01.2022
3518 Clouds 12 1021 71 8000 2.06 270 00:46 24.01.2022
3519 Clouds 12 1021 71 8000 2.06 250 00:27 24.01.2022
3520 Clouds 15 1021 63 8000 1.54 250 22:46 23.01.2022
3521 Clouds 17 1021 59 8000 2.06 330 21:50 23.01.2022
3522 Clouds 17 1020 55 8000 2.57 300 21:27 23.01.2022
3523 Clouds 18 1020 52 8000 2.57 300 20:54 23.01.2022
3524 Clouds 19 1020 45 8000 2.06 270 19:55 23.01.2022
3525 Clouds 21 1019 43 8000 3.09 290 18:52 23.01.2022
3526 Clouds 22 1019 37 8000 5.14 290 17:54 23.01.2022
3527 Clouds 23 1018 33 8000 4.63 300 16:52 23.01.2022
3528 Clouds 23 1019 33 8000 3.6 330 15:18 23.01.2022
3529 Clouds 22 1019 33 8000 3.6 330 14:33 23.01.2022
3530 Clouds 21 1020 37 6000 2.57 320 13:27 23.01.2022
3531 Clouds 21 1021 35 6000 0.51 0 12:36 23.01.2022
3532 Clouds 19 1021 39 6000 1.03 0 12:18 23.01.2022
3533 Clouds 19 1021 42 6000 0.51 0 11:24 23.01.2022
3534 Clouds 17 1021 45 6000 0.51 0 10:57 23.01.2022
3535 Clouds 15 1020 47 6000 1.03 0 10:21 23.01.2022
3536 Clouds 11 1020 58 8000 0.51 0 09:22 23.01.2022
3537 Clouds 14 1019 54 8000 1.54 260 05:59 23.01.2022
3538 Clouds 17 1018 39 8000 2.06 240 02:25 23.01.2022
3539 Clouds 18 1019 32 8000 2.06 210 01:35 23.01.2022
3540 Clouds 19 1019 27 8000 2.57 50 00:41 23.01.2022
3541 Clouds 21 1018 26 8000 3.6 40 23:57 22.01.2022
3542 Clouds 21 1019 26 8000 2.57 160 22:47 22.01.2022
3543 Clouds 22 1019 23 8000 0.51 0 21:58 22.01.2022
3544 Clouds 23 1018 23 8000 2.57 260 20:26 22.01.2022
3545 Clouds 25 1018 20 5000 4.12 200 19:34 22.01.2022
3546 Clouds 25 1017 20 5000 0.51 0 18:36 22.01.2022
3547 Clouds 26 1016 19 5000 1.54 340 17:42 22.01.2022
3548 Clouds 26 1016 19 5000 1.54 0 16:57 22.01.2022
3549 Clouds 26 1016 19 5000 3.09 60 16:20 22.01.2022
3550 Clouds 28 1016 17 5000 4.63 200 15:42 22.01.2022
3551 Clouds 25 1018 25 8000 3.6 60 13:59 22.01.2022
3552 Clouds 25 1018 25 8000 3.09 50 13:27 22.01.2022
3553 Clouds 21 1019 35 8000 2.57 50 12:32 22.01.2022
3554 Clouds 21 1019 32 8000 2.06 60 11:58 22.01.2022
3555 Clouds 14 1019 44 8000 2.06 60 10:39 22.01.2022
3556 Clouds 14 1019 44 8000 2.06 60 10:19 22.01.2022
3557 Clouds 13 1019 44 8000 1.03 0 08:54 22.01.2022
3558 Clouds 13 1018 44 8000 2.06 240 08:31 22.01.2022
3559 Clouds 14 1017 44 8000 5.14 100 05:20 22.01.2022
3560 Clouds 14 1018 41 8000 1.54 100 01:58 22.01.2022
3561 Clouds 14 1019 38 8000 1.54 130 23:49 21.01.2022
3562 Clouds 14 1019 38 8000 1.54 130 23:49 21.01.2022
3563 Clouds 15 1018 36 8000 1.54 120 22:58 21.01.2022
3564 Clear 18 1018 34 10000 2.06 360 20:48 21.01.2022
3565 Clear 20 1017 28 10000 1.03 0 19:20 21.01.2022
3566 Clouds 23 1017 25 10000 1.54 350 17:48 21.01.2022
3567 Clouds 23 1018 21 10000 2.06 20 15:48 21.01.2022
3568 Clear 22 1019 23 10000 2.06 360 14:37 21.01.2022
3569 Clear 19 1021 27 10000 1.03 0 12:43 21.01.2022
3570 Clear 17 1021 34 10000 0.51 0 11:29 21.01.2022
3571 Clear 12 1021 43 10000 0.51 0 10:27 21.01.2022
3572 Clear 7 1020 53 10000 1.54 80 08:50 21.01.2022
3573 Clear 7 1020 53 10000 3.09 50 07:48 21.01.2022
3574 Clear 10 1021 40 10000 0.51 0 01:48 21.01.2022
3575 Clear 14 1021 33 10000 1.03 0 22:47 20.01.2022
3576 Clear 14 1021 33 10000 2.06 100 21:48 20.01.2022
3577 Clouds 15 1021 31 10000 1.03 0 21:24 20.01.2022
3578 Clouds 17 1020 27 10000 1.54 260 19:46 20.01.2022
3579 Clouds 18 1020 25 10000 1.03 0 19:18 20.01.2022
3580 Clouds 21 1020 21 10000 2.57 300 17:37 20.01.2022
3581 Clouds 20 1020 22 10000 2.06 310 15:59 20.01.2022
3582 Clouds 20 1021 24 10000 2.57 340 15:29 20.01.2022
3583 Clouds 20 1022 26 10000 2.57 300 14:18 20.01.2022
3584 Clear 18 1023 29 10000 1.03 0 12:48 20.01.2022
3585 Clear 17 1024 31 10000 1.03 0 12:27 20.01.2022
3586 Clear 12 1023 43 10000 0.51 0 10:59 20.01.2022
3587 Clear 9 1023 49 10000 0.51 0 09:44 20.01.2022
3588 Clear 5 1022 60 10000 1.54 140 08:37 20.01.2022
3589 Clear 6 1022 52 10000 1.54 110 06:49 20.01.2022
3590 Clear 11 1025 37 10000 1.03 0 00:30 20.01.2022
3591 Clear 13 1024 28 10000 2.57 120 22:38 19.01.2022
3592 Clouds 15 1024 25 10000 1.54 70 21:33 19.01.2022
3593 Clouds 16 1024 23 10000 2.06 50 20:55 19.01.2022
3594 Clouds 17 1023 23 10000 2.06 50 20:30 19.01.2022
3595 Clouds 21 1023 19 10000 3.09 30 18:52 19.01.2022
3596 Clouds 22 1023 20 10000 2.06 20 17:51 19.01.2022
3597 Clouds 22 1023 21 10000 2.06 340 17:18 19.01.2022
3598 Clouds 22 1023 21 10000 2.06 340 17:18 19.01.2022
3599 Clouds 22 1023 21 10000 2.06 340 17:18 19.01.2022
3600 Clouds 21 1024 24 10000 1.54 330 15:31 19.01.2022
3601 Clear 19 1026 32 10000 1.03 0 13:20 19.01.2022
3602 Clear 16 1027 36 10000 2.06 40 11:58 19.01.2022
3603 Clear 15 1027 38 10000 1.54 70 11:38 19.01.2022
3604 Clear 7 1026 57 10000 2.06 100 09:35 19.01.2022
3605 Clear 7 1026 57 10000 2.06 80 08:33 19.01.2022
3606 Clear 11 1025 43 10000 2.06 30 05:19 19.01.2022
3607 Clear 11 1026 43 10000 1.03 0 00:18 19.01.2022
3608 Clear 10 1027 46 10000 1.54 260 23:18 18.01.2022
3609 Clear 14 1026 38 10000 1.54 80 21:44 18.01.2022
3610 Clear 17 1025 31 10000 2.06 30 20:22 18.01.2022
3611 Clear 18 1025 29 10000 2.57 20 19:45 18.01.2022
3612 Clear 18 1025 29 10000 3.09 10 19:25 18.01.2022
3613 Clear 19 1024 27 10000 3.6 320 18:18 18.01.2022
3614 Clear 20 1024 26 10000 3.09 310 17:31 18.01.2022
3615 Clear 22 1024 21 10000 2.06 0 16:20 18.01.2022
3616 Clear 21 1024 23 10000 2.06 0 15:25 18.01.2022
3617 Clear 19 1026 30 10000 2.06 40 14:22 18.01.2022
3618 Clear 14 1027 41 10000 2.06 100 11:31 18.01.2022
3619 Clear 9 1026 49 10000 1.54 60 09:59 18.01.2022
3620 Clouds 8 1025 53 10000 2.06 100 08:29 18.01.2022
3621 Clouds 9 1025 49 10000 2.06 80 07:42 18.01.2022
3622 Clouds 9 1025 49 10000 1.54 80 00:38 18.01.2022
3623 Clouds 11 1026 40 10000 2.57 110 22:39 17.01.2022
3624 Clouds 13 1026 41 10000 1.03 0 21:41 17.01.2022
3625 Clouds 13 1026 38 10000 2.06 250 20:44 17.01.2022
3626 Clouds 19 1024 26 10000 1.54 80 18:46 17.01.2022
3627 Clouds 19 1024 26 10000 1.54 80 18:24 17.01.2022
3628 Clear 20 1025 24 10000 2.06 360 17:19 17.01.2022
3629 Clear 20 1026 26 10000 1.03 0 15:54 17.01.2022
3630 Clear 18 1026 29 10000 1.54 350 14:58 17.01.2022
3631 Clear 18 1026 29 10000 1.54 310 14:31 17.01.2022
3632 Clouds 17 1028 36 8000 0.51 0 13:18 17.01.2022
3633 Clear 13 1028 44 10000 1.54 50 11:53 17.01.2022
3634 Clear 11 1029 46 10000 1.03 0 10:52 17.01.2022
3635 Clear 7 1028 49 10000 1.54 140 09:46 17.01.2022
3636 Clear 7 1027 53 10000 1.54 100 08:43 17.01.2022
3637 Clear 8 1027 49 10000 1.54 170 07:20 17.01.2022
3638 Clear 10 1025 43 10000 1.54 110 00:59 17.01.2022
3639 Clear 13 1025 38 10000 2.57 10 23:27 16.01.2022
3640 Clear 17 1025 25 10000 2.06 50 20:50 16.01.2022
3641 Clear 18 1024 25 10000 3.6 40 19:56 16.01.2022
3642 Clear 20 1024 24 10000 4.12 40 18:45 16.01.2022
3643 Clear 22 1023 21 10000 3.6 40 17:47 16.01.2022
3644 Clear 23 1023 21 10000 2.57 0 16:52 16.01.2022
3645 Clear 22 1024 26 10000 3.09 50 15:39 16.01.2022
3646 Clear 21 1025 30 10000 1.54 0 14:29 16.01.2022
3647 Clear 21 1025 30 10000 1.54 0 14:29 16.01.2022
3648 Clear 20 1026 30 10000 2.06 40 13:21 16.01.2022
3649 Clear 16 1027 41 10000 2.06 90 11:56 16.01.2022
3650 Clear 14 1027 47 10000 2.57 90 11:27 16.01.2022
3651 Clear 10 1027 57 10000 1.54 80 10:27 16.01.2022
3652 Clear 8 1026 61 10000 2.06 70 09:57 16.01.2022
3653 Clear 6 1026 65 10000 1.03 0 09:23 16.01.2022
3654 Clear 5 1026 70 10000 2.06 90 08:53 16.01.2022
3655 Clear 7 1025 65 10000 1.54 150 05:51 16.01.2022
3656 Clear 11 1025 43 10000 3.6 270 00:18 16.01.2022
3657 Clouds 14 1025 41 10000 2.57 130 22:38 15.01.2022
3658 Clouds 15 1024 36 10000 2.57 100 21:21 15.01.2022
3659 Clouds 17 1024 31 10000 3.09 50 20:43 15.01.2022
3660 Clouds 18 1023 29 10000 3.6 40 19:58 15.01.2022
3661 Clouds 20 1023 26 10000 3.6 30 19:23 15.01.2022
3662 Clouds 22 1023 24 10000 3.09 60 17:49 15.01.2022
3663 Clouds 22 1023 24 10000 3.6 40 16:42 15.01.2022
3664 Clouds 20 1025 30 10000 2.57 70 14:32 15.01.2022
3665 Clear 17 1026 39 10000 2.06 110 12:33 15.01.2022
3666 Clear 12 1026 50 10000 1.54 110 11:19 15.01.2022
3667 Clear 7 1026 61 10000 2.06 80 09:21 15.01.2022
3668 Clouds 13 1026 44 10000 0.51 0 00:52 15.01.2022
3669 Clear 15 1025 36 10000 2.06 90 21:57 14.01.2022
3670 Clear 17 1025 34 10000 3.09 40 20:51 14.01.2022
3671 Clear 18 1025 32 10000 2.57 40 20:23 14.01.2022
3672 Clear 19 1024 30 10000 3.09 30 19:48 14.01.2022
3673 Clouds 22 1023 24 10000 0.51 0 18:28 14.01.2022
3674 Clouds 22 1023 26 10000 1.54 360 16:51 14.01.2022
3675 Clouds 22 1023 28 10000 1.54 10 16:33 14.01.2022
3676 Clouds 21 1024 32 10000 2.57 350 14:47 14.01.2022
3677 Clouds 20 1025 32 10000 1.54 340 13:48 14.01.2022
3678 Clouds 18 1026 36 10000 1.03 0 12:34 14.01.2022
3679 Clouds 15 1026 44 10000 1.54 100 11:29 14.01.2022
3680 Clear 9 1025 57 10000 2.06 70 09:51 14.01.2022
3681 Clear 9 1025 53 8000 1.03 0 08:52 14.01.2022
3682 Clear 8 1024 57 8000 2.06 180 07:21 14.01.2022
3683 Clear 11 1024 54 8000 1.54 230 01:43 14.01.2022
3684 Clear 15 1024 38 10000 1.54 10 23:36 13.01.2022
3685 Clear 15 1023 36 10000 2.06 80 21:42 13.01.2022
3686 Clear 16 1023 33 10000 2.57 110 21:23 13.01.2022
3687 Clouds 19 1022 30 10000 2.57 30 19:41 13.01.2022
3688 Clouds 20 1021 28 10000 2.06 20 19:22 13.01.2022
3689 Clouds 23 1021 21 10000 2.57 50 17:56 13.01.2022
3690 Clouds 23 1021 23 10000 2.57 0 16:22 13.01.2022
3691 Clouds 22 1021 24 10000 3.09 60 15:38 13.01.2022
3692 Clouds 22 1021 26 10000 2.57 50 14:49 13.01.2022
3693 Clear 18 1023 34 10000 1.54 30 12:46 13.01.2022
3694 Clear 11 1023 54 10000 1.03 0 10:25 13.01.2022
3695 Clear 6 1022 61 10000 2.06 80 09:20 13.01.2022
3696 Clear 6 1022 61 10000 2.06 80 08:27 13.01.2022
3697 Clear 6 1021 61 10000 2.06 100 07:24 13.01.2022
3698 Clear 7 1021 61 10000 2.06 280 06:38 13.01.2022
3699 Clear 7 1021 61 10000 1.03 0 05:20 13.01.2022
3700 Clear 8 1021 57 10000 1.54 80 02:33 13.01.2022
3701 Clear 12 1021 47 8000 1.03 0 00:56 13.01.2022
3702 Clear 13 1021 44 8000 2.06 200 23:50 12.01.2022
3703 Clear 13 1021 44 8000 2.57 180 23:24 12.01.2022
3704 Clear 13 1021 47 10000 0.51 0 21:58 12.01.2022
3705 Clear 14 1020 44 10000 0.51 0 21:23 12.01.2022
3706 Clear 16 1020 39 10000 0.51 0 20:57 12.01.2022
3707 Clear 17 1020 36 10000 2.06 230 19:55 12.01.2022
3708 Clear 20 1019 30 10000 2.57 290 18:43 12.01.2022
3709 Clear 22 1019 23 10000 2.57 320 17:50 12.01.2022
3710 Clear 22 1018 28 10000 2.57 340 16:38 12.01.2022
3711 Clear 21 1019 30 10000 1.54 350 14:49 12.01.2022
3712 Clouds 20 1020 34 8000 1.03 0 13:34 12.01.2022
3713 Clear 16 1021 41 8000 2.06 90 12:34 12.01.2022
3714 Clear 4 1019 87 8000 2.06 90 08:45 12.01.2022
3715 Clear 5 1019 81 8000 1.03 0 07:52 12.01.2022
3716 Clear 5 1019 81 8000 1.54 150 07:32 12.01.2022
3717 Clouds 10 1019 62 8000 1.54 180 01:26 12.01.2022
3718 Clouds 11 1019 66 8000 1.03 0 23:25 11.01.2022
3719 Clouds 12 1019 62 8000 1.03 0 22:24 11.01.2022
3720 Clouds 14 1019 58 8000 1.54 190 21:25 11.01.2022
3721 Clouds 15 1019 58 8000 2.06 230 20:33 11.01.2022
3722 Clouds 17 1018 51 8000 3.6 280 18:52 11.01.2022
3723 Clouds 18 1017 42 8000 3.6 280 17:46 11.01.2022
3724 Clouds 18 1017 45 8000 3.6 300 16:39 11.01.2022
3725 Clouds 18 1017 45 8000 3.6 300 16:18 11.01.2022
3726 Clouds 17 1018 42 8000 3.09 300 14:44 11.01.2022
3727 Clouds 17 1018 42 8000 2.57 320 14:18 11.01.2022
3728 Clouds 16 1018 44 8000 2.06 320 13:42 11.01.2022
3729 Clouds 15 1019 47 8000 1.54 0 13:24 11.01.2022
3730 Clouds 14 1019 51 8000 2.06 260 12:23 11.01.2022
3731 Clouds 9 1018 49 8000 2.06 250 10:25 11.01.2022
3732 Clouds 9 1017 46 8000 1.54 180 07:35 11.01.2022
3733 Clouds 9 1018 49 8000 1.54 70 02:57 11.01.2022
3734 Clouds 11 1019 40 8000 0.51 0 00:24 11.01.2022
3735 Clouds 12 1019 37 8000 1.03 0 23:38 10.01.2022
3736 Clouds 12 1019 37 8000 1.54 240 22:20 10.01.2022
3737 Clouds 12 1019 37 8000 2.06 240 21:55 10.01.2022
3738 Clouds 13 1019 35 8000 1.54 290 21:32 10.01.2022
3739 Clouds 13 1019 35 8000 2.06 250 20:58 10.01.2022
3740 Clouds 14 1019 35 8000 1.54 280 20:29 10.01.2022
3741 Clouds 15 1019 31 8000 1.03 0 19:47 10.01.2022
3742 Clouds 16 1019 31 8000 1.03 0 19:23 10.01.2022
3743 Clouds 17 1019 27 8000 1.03 0 18:54 10.01.2022
3744 Clouds 18 1019 27 8000 1.03 0 18:34 10.01.2022
3745 Clouds 19 1019 27 8000 2.06 320 16:43 10.01.2022
3746 Clouds 19 1019 27 8000 2.06 290 16:18 10.01.2022
3747 Clouds 19 1020 27 8000 2.57 280 14:41 10.01.2022
3748 Clouds 15 1022 33 8000 1.54 350 12:43 10.01.2022
3749 Clouds 12 1022 40 8000 1.54 60 11:40 10.01.2022
3750 Clouds 11 1022 43 8000 2.06 110 10:45 10.01.2022
3751 Clear 4 1022 60 10000 1.54 110 08:59 10.01.2022
3752 Clouds 8 1022 46 10000 1.54 180 05:51 10.01.2022
3753 Clear 9 1023 46 10000 2.06 70 01:35 10.01.2022
3754 Clear 10 1023 43 10000 1.54 110 00:44 10.01.2022
3755 Clear 11 1024 40 10000 2.06 110 00:19 10.01.2022
3756 Clear 13 1024 35 10000 1.54 70 22:43 09.01.2022
3757 Clear 13 1024 33 10000 3.6 110 21:47 09.01.2022
3758 Clear 14 1024 33 8000 2.06 90 21:25 09.01.2022
3759 Clear 15 1024 31 8000 2.57 70 20:58 09.01.2022
3760 Clear 16 1024 29 8000 2.57 80 20:39 09.01.2022
3761 Clear 16 1024 29 8000 2.57 80 20:21 09.01.2022
3762 Clear 19 1024 24 8000 3.09 50 19:38 09.01.2022
3763 Clear 19 1024 24 8000 3.09 50 19:18 09.01.2022
3764 Clear 22 1023 21 10000 3.09 50 18:37 09.01.2022
3765 Clear 23 1024 17 10000 1.54 360 17:48 09.01.2022
3766 Clear 23 1024 18 10000 1.54 40 17:29 09.01.2022
3767 Clear 23 1024 20 10000 2.57 50 16:40 09.01.2022
3768 Clear 23 1025 21 10000 2.06 0 15:40 09.01.2022
3769 Clear 22 1025 23 10000 1.54 350 14:50 09.01.2022
3770 Clear 21 1026 26 10000 2.06 340 14:24 09.01.2022
3771 Clear 21 1026 28 10000 2.06 360 13:48 09.01.2022
3772 Clear 17 1028 34 10000 3.09 90 11:56 09.01.2022
3773 Clear 16 1028 36 10000 2.06 70 11:26 09.01.2022
3774 Clear 7 1027 61 10000 2.57 90 09:55 09.01.2022
3775 Clear 5 1027 65 10000 3.6 90 08:59 09.01.2022
3776 Clear 7 1026 57 10000 1.54 100 06:56 09.01.2022
3777 Clear 12 1026 40 10000 1.54 130 01:29 09.01.2022
3778 Clear 11 1026 43 10000 2.57 180 00:37 09.01.2022
3779 Clear 12 1026 37 10000 0.74 119 23:31 08.01.2022
3780 Clear 13 1026 41 10000 1.54 70 22:48 08.01.2022
3781 Clear 16 1025 36 10000 1.54 110 21:28 08.01.2022
3782 Clear 17 1025 34 10000 1.54 30 20:43 08.01.2022
3783 Clear 17 1025 34 10000 1.54 30 20:22 08.01.2022
3784 Clear 20 1025 30 10000 1.54 350 19:22 08.01.2022
3785 Clear 23 1024 25 10000 2.06 330 17:38 08.01.2022
3786 Clear 23 1024 27 10000 2.57 340 16:45 08.01.2022
3787 Clear 23 1024 28 10000 2.06 320 15:33 08.01.2022
3788 Clear 21 1025 35 10000 1.03 0 13:58 08.01.2022
3789 Clear 15 1026 51 10000 1.54 120 11:43 08.01.2022
3790 Clear 9 1025 66 10000 1.54 100 10:40 08.01.2022
3791 Clear 9 1025 66 10000 1.54 100 10:21 08.01.2022
3792 Clear 6 1025 75 10000 1.54 130 09:34 08.01.2022
3793 Clear 6 1023 75 10000 2.57 100 06:18 08.01.2022
3794 Clear 9 1024 66 10000 1.54 90 01:46 08.01.2022
3795 Clear 12 1023 54 10000 1.03 0 23:36 07.01.2022
3796 Clear 13 1023 50 10000 1.54 100 21:49 07.01.2022
3797 Clear 16 1022 44 10000 3.09 50 20:34 07.01.2022
3798 Clear 17 1021 45 10000 3.09 40 19:27 07.01.2022
3799 Clear 18 1021 45 10000 3.6 20 18:49 07.01.2022
3800 Clear 19 1021 42 10000 3.09 10 18:24 07.01.2022
3801 Clear 19 1021 45 10000 3.09 20 17:24 07.01.2022
3802 Clear 18 1021 48 10000 2.57 90 14:56 07.01.2022
3803 Clear 17 1022 51 10000 2.57 50 13:52 07.01.2022
3804 Clear 17 1022 51 10000 2.57 50 13:52 07.01.2022
3805 Clear 15 1023 55 10000 2.57 60 12:51 07.01.2022
3806 Clear 12 1023 66 10000 3.09 80 11:28 07.01.2022
3807 Clouds 8 1022 87 10000 2.06 110 04:56 07.01.2022
3808 Clouds 9 1021 81 10000 1.03 0 02:53 07.01.2022
3809 Clouds 11 1021 82 10000 3.09 150 01:50 07.01.2022
3810 Clouds 10 1021 81 10000 3.09 100 01:26 07.01.2022
3811 Clouds 11 1021 76 10000 2.06 80 00:31 07.01.2022
3812 Clouds 13 1021 71 10000 3.6 60 22:42 06.01.2022
3813 Clouds 15 1020 58 10000 4.63 50 20:54 06.01.2022
3814 Clouds 16 1020 55 10000 3.6 50 20:18 06.01.2022
3815 Clouds 17 1020 51 10000 4.12 50 19:39 06.01.2022
3816 Clouds 19 1019 42 10000 3.6 30 17:52 06.01.2022
3817 Clouds 19 1019 39 10000 3.6 30 17:28 06.01.2022
3818 Clouds 20 1020 28 10000 3.09 20 16:38 06.01.2022
3819 Clouds 19 1020 27 10000 2.57 360 15:44 06.01.2022
3820 Clouds 18 1020 32 10000 3.09 10 15:23 06.01.2022
3821 Clouds 17 1021 42 10000 2.06 20 14:20 06.01.2022
3822 Clouds 17 1022 42 10000 1.54 0 13:41 06.01.2022
3823 Clear 15 1023 51 10000 3.09 110 12:28 06.01.2022
3824 Clear 12 1023 66 10000 3.6 110 11:41 06.01.2022
3825 Clear 12 1023 66 10000 3.6 110 11:19 06.01.2022
3826 Clear 6 1022 81 10000 2.06 80 06:59 06.01.2022
3827 Clear 11 1022 71 10000 5.14 50 00:35 06.01.2022
3828 Clear 12 1022 62 10000 4.63 60 23:34 05.01.2022
3829 Clear 12 1022 58 10000 3.6 70 22:48 05.01.2022
3830 Clear 13 1022 58 10000 4.12 50 22:29 05.01.2022
3831 Clear 14 1022 51 10000 4.12 40 21:44 05.01.2022
3832 Clouds 15 1021 47 10000 4.63 40 20:44 05.01.2022
3833 Clouds 16 1021 48 10000 4.63 40 19:46 05.01.2022
3834 Clouds 18 1021 42 10000 4.63 30 18:27 05.01.2022
3835 Clouds 19 1020 45 10000 4.12 20 16:58 05.01.2022
3836 Clouds 19 1021 45 10000 4.12 40 16:21 05.01.2022
3837 Clouds 18 1021 52 10000 4.12 30 15:20 05.01.2022
3838 Clouds 17 1023 55 10000 4.63 60 13:35 05.01.2022
3839 Clouds 16 1023 67 10000 5.14 60 12:46 05.01.2022
3840 Clouds 11 1024 82 8000 2.57 90 08:47 05.01.2022
3841 Clouds 11 1024 82 8000 3.6 120 07:19 05.01.2022
3842 Clear 11 1023 71 10000 1.03 0 01:58 05.01.2022
3843 Clear 12 1024 71 10000 1.03 0 23:44 04.01.2022
3844 Clear 13 1025 67 10000 1.54 280 23:26 04.01.2022
3845 Clear 14 1025 67 10000 1.03 0 22:19 04.01.2022
3846 Clear 16 1024 59 10000 2.06 20 20:46 04.01.2022
3847 Clear 20 1022 28 10000 2.57 240 18:44 04.01.2022
3848 Clear 22 1022 23 10000 3.6 300 17:34 04.01.2022
3849 Clear 23 1022 21 10000 3.09 300 16:39 04.01.2022
3850 Clear 22 1022 24 10000 3.09 310 16:20 04.01.2022
3851 Clear 21 1023 28 10000 3.09 290 14:42 04.01.2022
3852 Clear 21 1023 30 10000 3.09 280 14:23 04.01.2022
3853 Clear 19 1025 32 10000 2.57 280 12:37 04.01.2022
3854 Clear 14 1024 44 10000 0.51 0 10:28 04.01.2022
3855 Clear 8 1023 53 10000 1.03 0 08:59 04.01.2022
3856 Clear 8 1022 57 10000 1.54 80 06:46 04.01.2022
3857 Clear 13 1024 41 10000 1.03 0 00:44 04.01.2022
3858 Clear 13 1025 41 10000 1.03 0 23:56 03.01.2022
3859 Clear 15 1024 36 10000 1.03 0 22:28 03.01.2022
3860 Clear 16 1024 36 10000 0.51 0 21:41 03.01.2022
3861 Clear 16 1024 33 10000 0.51 0 20:42 03.01.2022
3862 Clear 19 1024 30 10000 1.54 270 19:43 03.01.2022
3863 Clear 24 1024 20 10000 2.57 280 18:32 03.01.2022
3864 Clear 25 1024 20 10000 2.06 320 17:34 03.01.2022
3865 Clear 25 1024 22 10000 3.09 320 16:56 03.01.2022
3866 Clear 24 1025 25 10000 1.54 330 14:33 03.01.2022
3867 Clear 23 1026 27 10000 1.54 0 13:25 03.01.2022
3868 Clear 20 1027 32 10000 1.03 0 12:28 03.01.2022
3869 Clear 16 1026 41 10000 1.54 110 11:30 03.01.2022
3870 Clear 10 1026 53 10000 2.06 90 09:41 03.01.2022
3871 Clear 11 1025 46 10000 2.57 180 08:18 03.01.2022
3872 Clear 9 1025 57 10000 0.51 0 05:21 03.01.2022
3873 Clear 14 1027 44 10000 1.03 0 23:44 02.01.2022
3874 Clear 14 1026 44 10000 1.54 120 22:57 02.01.2022
3875 Clear 15 1026 41 10000 2.06 120 22:37 02.01.2022
3876 Clear 18 1026 36 10000 2.57 120 21:26 02.01.2022
3877 Clear 18 1026 34 10000 1.54 70 20:30 02.01.2022
3878 Clear 22 1025 28 10000 1.03 0 19:32 02.01.2022
3879 Clear 23 1025 27 10000 2.57 340 18:56 02.01.2022
3880 Clear 25 1025 23 10000 1.03 0 18:30 02.01.2022
3881 Clear 25 1025 23 10000 1.54 0 17:42 02.01.2022
3882 Clear 25 1025 20 10000 1.54 0 17:21 02.01.2022
3883 Clear 25 1025 20 10000 1.54 0 16:30 02.01.2022
3884 Clear 25 1025 22 10000 1.54 0 15:39 02.01.2022
3885 Clear 23 1027 23 10000 2.06 10 13:57 02.01.2022
3886 Clear 21 1028 24 8000 1.54 10 12:32 02.01.2022
3887 Clear 21 1028 26 8000 0.51 0 11:55 02.01.2022
3888 Clear 16 1028 33 8000 1.54 110 10:55 02.01.2022
3889 Clear 11 1028 50 8000 1.03 0 10:18 02.01.2022
3890 Clear 7 1026 61 8000 1.03 0 07:44 02.01.2022
3891 Clear 10 1026 53 8000 2.06 80 02:57 02.01.2022
3892 Clear 14 1027 44 8000 1.03 0 23:50 01.01.2022
3893 Clear 15 1027 38 8000 1.54 90 23:27 01.01.2022
3894 Clear 16 1027 36 8000 3.6 110 22:26 01.01.2022
3895 Clear 17 1027 36 8000 3.09 90 21:54 01.01.2022
3896 Clear 17 1026 36 8000 3.09 120 21:36 01.01.2022
3897 Clear 20 1026 30 8000 1.03 0 20:27 01.01.2022
3898 Clear 23 1025 23 8000 2.57 20 19:45 01.01.2022
3899 Clear 25 1025 20 8000 1.03 0 18:52 01.01.2022
3900 Clear 27 1025 17 8000 1.54 40 17:41 01.01.2022
3901 Clear 27 1025 17 8000 2.06 350 16:35 01.01.2022
3902 Clear 27 1025 18 8000 1.54 350 15:42 01.01.2022
3903 Clear 25 1026 22 8000 2.06 340 14:39 01.01.2022
3904 Clear 24 1026 27 8000 1.54 40 13:42 01.01.2022
3905 Clear 21 1027 30 8000 1.54 70 12:25 01.01.2022
3906 Clear 18 1027 34 8000 1.54 90 11:26 01.01.2022
3907 Clear 17 1027 39 8000 0.51 0 10:58 01.01.2022
3908 Clear 10 1026 57 8000 1.54 90 09:48 01.01.2022
3909 Clear 8 1025 57 10000 2.06 90 08:39 01.01.2022
3910 Clear 8 1025 57 10000 2.06 90 08:18 01.01.2022
3911 Clear 10 1025 53 10000 1.54 160 07:38 01.01.2022
3912 Clear 8 1025 61 10000 2.57 80 06:44 01.01.2022
3913 Clear 10 1025 57 10000 2.57 80 05:24 01.01.2022
3914 Clear 10 1025 57 10000 2.06 120 04:35 01.01.2022
3915 Clear 15 1025 41 8000 0.51 0 00:23 01.01.2022
3916 Clear 16 1025 44 8000 1.54 0 22:30 31.12.2021
3917 Clear 17 1025 42 8000 3.09 170 21:47 31.12.2021
3918 Clear 20 1024 37 8000 2.06 250 19:48 31.12.2021
3919 Clear 21 1024 35 8000 1.03 0 19:28 31.12.2021
3920 Clear 24 1023 29 8000 2.57 300 18:18 31.12.2021
3921 Clear 26 1023 25 8000 3.6 290 17:28 31.12.2021
3922 Clear 26 1022 24 8000 3.09 290 16:52 31.12.2021
3923 Clear 26 1022 25 8000 2.06 330 16:18 31.12.2021
3924 Clear 26 1022 25 8000 2.06 330 15:50 31.12.2021
3925 Clear 25 1022 27 8000 2.06 350 15:27 31.12.2021
3926 Clear 25 1023 29 8000 1.54 0 14:41 31.12.2021
3927 Clear 24 1023 29 8000 1.54 20 13:55 31.12.2021
3928 Clear 22 1024 35 8000 1.03 0 12:51 31.12.2021
3929 Clear 20 1024 40 8000 1.54 60 12:21 31.12.2021
3930 Clear 19 1025 42 8000 1.03 0 11:42 31.12.2021
3931 Clear 16 1025 48 10000 1.03 0 10:56 31.12.2021
3932 Clear 14 1024 54 10000 1.03 0 10:28 31.12.2021
3933 Clear 10 1024 66 10000 1.03 0 09:35 31.12.2021
3934 Clear 9 1024 71 10000 2.06 140 08:54 31.12.2021
3935 Clear 10 1023 62 10000 1.54 160 07:59 31.12.2021
3936 Clear 10 1024 66 10000 0.51 0 04:55 31.12.2021
3937 Clear 15 1024 51 10000 2.57 90 23:18 30.12.2021
3938 Clear 17 1024 45 10000 3.09 110 22:32 30.12.2021
3939 Clear 17 1024 45 10000 3.6 110 21:39 30.12.2021
3940 Clear 18 1024 42 10000 2.57 100 21:19 30.12.2021
3941 Clear 20 1024 37 10000 1.54 60 20:40 30.12.2021
3942 Clear 21 1024 35 10000 1.03 0 19:56 30.12.2021
3943 Clear 22 1023 33 10000 2.06 30 19:31 30.12.2021
3944 Clear 25 1023 25 10000 2.57 10 18:28 30.12.2021
3945 Clear 27 1022 24 10000 1.03 0 16:53 30.12.2021
3946 Clear 26 1022 25 10000 2.06 30 15:54 30.12.2021
3947 Clear 26 1022 25 10000 2.06 360 15:21 30.12.2021
3948 Clear 26 1022 27 10000 1.03 0 14:36 30.12.2021
3949 Clear 23 1023 38 10000 1.54 90 13:26 30.12.2021
3950 Clear 19 1024 48 10000 1.03 0 11:58 30.12.2021
3951 Clear 13 1023 67 10000 1.03 0 10:40 30.12.2021
3952 Clear 11 1023 71 10000 2.06 80 09:50 30.12.2021
3953 Clear 9 1023 71 10000 1.54 80 07:25 30.12.2021
3954 Clear 9 1022 76 10000 1.54 130 06:32 30.12.2021
3955 Clear 11 1022 66 10000 2.06 100 03:41 30.12.2021
3956 Clear 12 1022 66 10000 1.54 60 02:35 30.12.2021
3957 Clear 16 1023 51 10000 1.54 140 23:40 29.12.2021
3958 Clear 17 1023 48 10000 1.03 0 22:59 29.12.2021
3959 Clear 18 1023 45 10000 4.12 170 22:18 29.12.2021
3960 Clear 18 1022 48 10000 2.06 190 21:19 29.12.2021
3961 Clear 18 1022 48 10000 1.03 0 20:30 29.12.2021
3962 Clear 18 1022 48 10000 1.03 0 20:30 29.12.2021
3963 Clear 21 1022 40 10000 1.54 250 19:43 29.12.2021
3964 Clear 24 1022 33 10000 2.57 270 18:44 29.12.2021
3965 Clear 25 1022 29 10000 3.6 270 17:52 29.12.2021
3966 Clear 25 1022 29 10000 3.6 280 17:27 29.12.2021
3967 Clear 25 1021 33 10000 4.12 290 16:22 29.12.2021
3968 Clear 25 1021 33 10000 4.12 290 15:42 29.12.2021
3969 Clouds 24 1023 38 8000 1.03 0 13:53 29.12.2021
3970 Clouds 19 1024 55 8000 2.06 30 12:36 29.12.2021
3971 Clouds 17 1024 67 6000 2.06 80 11:26 29.12.2021
3972 Clouds 11 1024 87 6000 1.54 90 09:46 29.12.2021
3973 Clear 8 1023 87 10000 2.06 80 07:47 29.12.2021
3974 Clear 9 1023 87 10000 1.03 0 06:37 29.12.2021
3975 Clear 9 1023 81 10000 2.06 70 05:58 29.12.2021
3976 Clear 9 1023 87 10000 1.54 80 05:36 29.12.2021
3977 Clear 12 1024 82 10000 1.54 160 02:22 29.12.2021
3978 Clear 13 1024 76 10000 0.51 0 00:19 29.12.2021
3979 Clear 14 1024 72 10000 1.54 80 23:31 28.12.2021
3980 Clear 15 1024 72 10000 3.09 120 22:29 28.12.2021
3981 Clear 16 1024 67 10000 2.57 110 21:57 28.12.2021
3982 Clear 16 1024 67 10000 2.06 90 21:36 28.12.2021
3983 Clear 18 1023 59 10000 2.57 60 20:35 28.12.2021
3984 Clear 22 1023 49 10000 3.6 40 18:59 28.12.2021
3985 Clear 23 1023 43 7000 3.6 40 18:35 28.12.2021
3986 Clear 24 1022 41 10000 4.12 30 17:57 28.12.2021
3987 Clear 24 1022 41 7000 4.12 50 16:34 28.12.2021
3988 Clear 24 1022 41 7000 3.6 40 15:49 28.12.2021
3989 Clear 23 1022 43 7000 3.09 30 15:20 28.12.2021
3990 Clear 22 1023 46 7000 3.09 40 14:46 28.12.2021
3991 Clear 22 1023 49 7000 2.57 30 14:20 28.12.2021
3992 Clear 21 1024 52 7000 2.06 30 13:42 28.12.2021
3993 Clear 21 1024 52 7000 1.54 0 13:24 28.12.2021
3994 Clear 18 1025 68 7000 2.06 90 12:39 28.12.2021
3995 Clear 16 1026 77 7000 1.03 0 11:33 28.12.2021
3996 Clouds 10 1024 93 8000 3.09 120 07:41 28.12.2021
3997 Clouds 10 1023 87 8000 2.06 40 06:41 28.12.2021
3998 Clouds 13 1024 88 8000 1.54 110 23:43 27.12.2021
3999 Clouds 15 1024 82 8000 1.54 80 22:58 27.12.2021
4000 Clouds 16 1023 77 7000 2.06 90 21:33 27.12.2021
4001 Clouds 17 1023 77 7000 2.06 50 20:57 27.12.2021
4002 Clouds 19 1022 63 7000 2.57 50 19:58 27.12.2021
4003 Clouds 20 1022 60 7000 3.09 40 19:39 27.12.2021
4004 Clouds 22 1021 49 7000 2.06 30 18:23 27.12.2021
4005 Clouds 22 1021 49 8000 2.57 50 17:46 27.12.2021
4006 Clouds 22 1021 53 8000 2.57 30 16:38 27.12.2021
4007 Clouds 22 1021 53 8000 2.57 20 15:51 27.12.2021
4008 Clouds 21 1022 60 8000 2.57 130 14:32 27.12.2021
4009 Clouds 19 1023 77 6000 2.06 80 13:39 27.12.2021
4010 Mist 15 1023 88 4000 3.09 360 11:53 27.12.2021
4011 Mist 14 1022 94 4000 1.54 210 10:29 27.12.2021
4012 Mist 12 1022 100 4000 2.57 170 09:47 27.12.2021
4013 Clouds 10 1021 100 8000 0.51 0 07:35 27.12.2021
4014 Clouds 11 1021 93 8000 1.03 0 06:56 27.12.2021
4015 Clouds 13 1021 94 8000 2.57 120 02:18 27.12.2021
4016 Clouds 15 1022 88 8000 1.03 0 23:58 26.12.2021
4017 Clouds 15 1022 88 8000 0.51 0 23:35 26.12.2021
4018 Clouds 16 1021 82 10000 0.51 0 21:59 26.12.2021
4019 Clouds 17 1021 77 10000 1.03 0 20:54 26.12.2021
4020 Clouds 18 1020 77 10000 1.03 0 19:47 26.12.2021
4021 Clouds 18 1020 77 10000 1.03 0 19:47 26.12.2021
4022 Clouds 20 1019 68 10000 1.03 0 18:24 26.12.2021
4023 Clouds 21 1019 68 10000 2.06 20 16:55 26.12.2021
4024 Clouds 20 1020 77 10000 1.54 0 14:28 26.12.2021
4025 Clouds 19 1021 82 8000 1.03 0 13:40 26.12.2021
4026 Clouds 19 1021 82 8000 1.03 0 13:19 26.12.2021
4027 Clouds 17 1022 88 8000 1.03 0 12:33 26.12.2021
4028 Clouds 16 1021 94 8000 0.51 0 10:34 26.12.2021
4029 Clouds 14 1020 100 8000 1.03 0 09:21 26.12.2021
4030 Clouds 14 1020 94 8000 1.03 0 08:44 26.12.2021
4031 Clouds 15 1019 94 8000 1.54 220 07:49 26.12.2021
4032 Clouds 15 1018 94 8000 1.03 0 01:27 26.12.2021
4033 Clouds 15 1019 88 8000 1.03 0 23:56 25.12.2021
4034 Clouds 15 1019 88 8000 0.51 0 23:27 25.12.2021
4035 Clouds 15 1019 88 8000 2.06 260 22:26 25.12.2021
4036 Clouds 15 1018 88 6000 1.54 90 20:59 25.12.2021
4037 Clouds 15 1017 82 5000 1.54 150 19:26 25.12.2021
4038 Clouds 15 1017 82 5000 2.06 130 18:55 25.12.2021
4039 Clouds 16 1017 77 5000 1.03 0 17:37 25.12.2021
4040 Clouds 15 1017 77 5000 1.54 200 16:36 25.12.2021
4041 Clouds 14 1017 82 5000 4.12 180 15:18 25.12.2021
4042 Clouds 16 1018 63 5000 2.57 210 13:31 25.12.2021
4043 Clouds 17 1018 59 8000 2.57 280 11:51 25.12.2021
4044 Clouds 14 1017 77 7000 2.06 180 09:57 25.12.2021
4045 Clouds 14 1017 72 8000 2.06 240 09:37 25.12.2021
4046 Clear 14 1016 77 10000 2.06 150 04:34 25.12.2021
4047 Clouds 14 1016 77 10000 1.54 180 01:25 25.12.2021
4048 Clouds 13 1017 82 10000 0 0 23:42 24.12.2021
4049 Clouds 18 1016 52 10000 1.03 0 19:46 24.12.2021
4050 Clouds 18 1016 52 10000 1.03 0 19:23 24.12.2021
4051 Clouds 21 1016 43 10000 2.57 290 16:59 24.12.2021
4052 Clouds 22 1016 43 10000 2.06 280 16:22 24.12.2021
4053 Clouds 22 1016 43 10000 1.54 280 15:48 24.12.2021
4054 Clouds 21 1016 46 10000 1.03 0 15:18 24.12.2021
4055 Clouds 22 1017 49 10000 1.54 0 14:31 24.12.2021
4056 Clouds 22 1016 31 10000 4.34 287 13:42 24.12.2021
4057 Clouds 20 1019 42 10000 4.12 310 12:49 24.12.2021
4058 Clouds 18 1019 52 10000 1.54 100 12:21 24.12.2021
4059 Clouds 16 1019 59 10000 2.06 110 11:30 24.12.2021
4060 Clouds 14 1019 67 10000 1.54 100 10:59 24.12.2021
4061 Clouds 13 1018 67 10000 1.54 80 10:31 24.12.2021
4062 Clear 10 1018 81 10000 2.06 60 08:36 24.12.2021
4063 Clear 10 1018 76 10000 2.06 80 07:58 24.12.2021
4064 Clear 10 1018 76 10000 1.03 0 06:18 24.12.2021
4065 Clear 14 1019 67 10000 0.51 0 00:20 24.12.2021
4066 Clear 15 1019 63 10000 0.51 0 23:33 23.12.2021
4067 Clear 16 1019 63 10000 2.57 170 22:44 23.12.2021
4068 Clear 16 1019 63 10000 2.57 170 22:22 23.12.2021
4069 Clear 17 1019 59 10000 1.03 0 21:39 23.12.2021
4070 Clouds 17 1019 59 10000 1.03 0 20:22 23.12.2021
4071 Clouds 19 1019 52 10000 2.06 300 19:27 23.12.2021
4072 Clouds 21 1019 46 10000 3.09 300 17:58 23.12.2021
4073 Clouds 22 1019 43 10000 2.06 320 17:18 23.12.2021
4074 Clouds 23 1019 46 10000 1.54 0 16:26 23.12.2021
4075 Clouds 22 1019 49 10000 2.06 0 15:32 23.12.2021
4076 Clouds 22 1019 49 10000 1.54 0 14:58 23.12.2021
4077 Clouds 21 1020 52 10000 1.54 360 14:38 23.12.2021
4078 Clear 20 1021 56 10000 2.57 340 13:25 23.12.2021
4079 Clouds 15 1022 77 10000 1.03 0 11:20 23.12.2021
4080 Clouds 12 1021 87 10000 1.03 0 09:53 23.12.2021
4081 Clouds 10 1021 87 10000 1.54 100 09:33 23.12.2021
4082 Clouds 10 1021 87 10000 1.54 90 08:25 23.12.2021
4083 Clouds 11 1021 87 10000 1.54 100 05:23 23.12.2021
4084 Clouds 16 1022 72 10000 1.03 0 00:34 23.12.2021
4085 Clouds 17 1022 67 10000 1.03 0 22:50 22.12.2021
4086 Clouds 18 1022 63 10000 2.57 350 21:59 22.12.2021
4087 Clouds 18 1022 63 10000 2.06 350 21:30 22.12.2021
4088 Clouds 19 1021 59 10000 1.03 0 20:58 22.12.2021
4089 Clouds 19 1021 59 10000 1.03 0 20:40 22.12.2021
4090 Clouds 19 1021 59 10000 1.03 0 19:42 22.12.2021
4091 Clouds 21 1020 52 10000 2.06 250 18:25 22.12.2021
4092 Clouds 21 1020 52 10000 2.06 300 17:38 22.12.2021
4093 Clouds 22 1020 46 10000 2.57 310 15:50 22.12.2021
4094 Clouds 21 1021 49 10000 2.06 360 13:57 22.12.2021
4095 Clouds 20 1021 52 10000 1.54 10 12:53 22.12.2021
4096 Clouds 17 1021 72 8000 1.03 0 11:39 22.12.2021
4097 Clouds 14 1021 82 8000 1.54 100 09:52 22.12.2021
4098 Clouds 14 1020 82 8000 1.54 110 07:56 22.12.2021
4099 Clouds 16 1019 67 8000 1.54 60 05:51 22.12.2021
4100 Clouds 17 1020 63 8000 3.6 170 05:33 22.12.2021
4101 Clouds 17 1020 63 8000 3.6 180 04:55 22.12.2021
4102 Clouds 15 1020 77 8000 1.54 90 04:35 22.12.2021
4103 Clouds 15 1020 72 8000 3.09 100 03:37 22.12.2021
4104 Clouds 15 1021 72 8000 3.09 100 03:18 22.12.2021
4105 Clouds 16 1022 77 8000 1.54 80 23:47 21.12.2021
4106 Clouds 16 1022 72 8000 2.57 230 22:36 21.12.2021
4107 Clouds 16 1022 72 8000 2.06 270 21:55 21.12.2021
4108 Clouds 18 1021 59 8000 2.57 310 21:31 21.12.2021
4109 Clouds 21 1019 40 6000 5.14 200 20:24 21.12.2021
4110 Clouds 21 1019 40 6000 5.14 190 19:52 21.12.2021
4111 Clouds 20 1019 45 6000 4.63 210 19:31 21.12.2021
4112 Clouds 21 1019 43 6000 3.6 190 18:23 21.12.2021
4113 Dust 21 1019 43 4000 7.2 260 17:52 21.12.2021
4114 Clouds 24 1018 33 10000 4.12 300 16:47 21.12.2021
4115 Clouds 25 1017 31 10000 4.63 330 15:34 21.12.2021
4116 Clouds 25 1018 33 10000 4.12 110 13:55 21.12.2021
4117 Clouds 24 1019 33 10000 3.09 110 13:36 21.12.2021
4118 Clouds 22 1020 37 10000 1.54 150 12:25 21.12.2021
4119 Clouds 15 1020 55 10000 1.03 0 10:38 21.12.2021
4120 Clouds 14 1019 58 10000 1.54 0 09:42 21.12.2021
4121 Clouds 11 1019 66 8000 2.57 90 08:55 21.12.2021
4122 Clouds 11 1019 66 8000 3.6 110 07:42 21.12.2021
4123 Clouds 11 1018 66 8000 2.06 70 07:19 21.12.2021
4124 Clouds 15 1019 55 8000 2.06 100 03:24 21.12.2021
4125 Clouds 16 1020 48 8000 4.63 90 01:19 21.12.2021
4126 Clouds 18 1021 45 8000 2.57 150 23:54 20.12.2021
4127 Clouds 18 1020 45 8000 1.54 90 22:35 20.12.2021
4128 Clouds 19 1020 42 8000 2.06 80 21:51 20.12.2021
4129 Clouds 20 1020 40 10000 2.57 150 21:24 20.12.2021
4130 Clouds 19 1020 39 10000 1.54 70 20:50 20.12.2021
4131 Clouds 20 1019 40 10000 2.06 70 19:55 20.12.2021
4132 Clouds 20 1019 40 10000 2.06 70 19:55 20.12.2021
4133 Clouds 22 1019 35 10000 2.06 50 19:36 20.12.2021
4134 Clouds 22 1019 35 10000 2.06 50 19:18 20.12.2021
4135 Clouds 24 1019 31 10000 2.57 30 18:28 20.12.2021
4136 Clouds 25 1019 29 10000 2.06 20 17:49 20.12.2021
4137 Clouds 26 1019 25 10000 2.57 30 16:44 20.12.2021
4138 Clouds 26 1019 25 10000 3.6 40 15:52 20.12.2021
4139 Clouds 25 1019 29 10000 3.6 50 15:31 20.12.2021
4140 Clouds 23 1020 35 8000 3.09 70 13:31 20.12.2021
4141 Clouds 17 1021 48 8000 3.09 80 11:36 20.12.2021
4142 Clouds 10 1021 71 8000 2.57 70 09:56 20.12.2021
4143 Clouds 9 1021 76 8000 2.57 90 09:32 20.12.2021
4144 Clear 8 1021 76 8000 1.54 90 08:43 20.12.2021
4145 Clouds 8 1020 76 8000 2.06 80 07:57 20.12.2021
4146 Clouds 9 1020 71 8000 2.06 70 07:31 20.12.2021
4147 Clear 9 1020 71 8000 1.54 80 05:25 20.12.2021
4148 Clear 13 1020 62 8000 1.54 140 00:19 20.12.2021
4149 Clear 14 1020 54 8000 1.03 0 22:55 19.12.2021
4150 Clear 17 1020 51 8000 2.06 330 21:55 19.12.2021
4151 Clear 18 1020 45 8000 2.57 310 21:31 19.12.2021
4152 Clear 18 1019 39 8000 1.54 250 20:34 19.12.2021
4153 Clear 19 1018 37 8000 2.06 280 19:52 19.12.2021
4154 Clouds 20 1018 32 8000 2.57 250 19:32 19.12.2021
4155 Clouds 23 1017 28 8000 5.14 260 18:30 19.12.2021
4156 Clouds 25 1017 33 8000 3.09 300 17:53 19.12.2021
4157 Clouds 26 1016 31 8000 2.57 320 17:21 19.12.2021
4158 Clouds 26 1016 29 8000 2.06 170 16:27 19.12.2021
4159 Clouds 26 1017 29 7000 4.63 210 15:43 19.12.2021
4160 Clouds 26 1017 29 7000 7.2 220 15:21 19.12.2021
4161 Clouds 25 1017 31 5000 7.72 180 14:42 19.12.2021
4162 Clouds 19 1019 45 5000 1.54 70 13:24 19.12.2021
4163 Clouds 18 1019 45 5000 2.06 50 12:46 19.12.2021
4164 Clouds 18 1019 45 5000 2.06 50 12:23 19.12.2021
4165 Clouds 20 1019 45 6000 2.57 190 11:26 19.12.2021
4166 Clouds 13 1019 44 6000 1.03 0 10:28 19.12.2021
4167 Clouds 13 1018 44 6000 1.03 0 09:48 19.12.2021
4168 Clear 10 1018 50 10000 2.57 90 08:43 19.12.2021
4169 Clear 10 1016 50 10000 1.54 0 04:45 19.12.2021
4170 Clear 12 1018 40 10000 1.03 0 01:33 19.12.2021
4171 Clear 12 1018 40 10000 2.06 90 00:52 19.12.2021
4172 Clouds 16 1018 31 10000 3.09 100 22:42 18.12.2021
4173 Clouds 16 1018 31 10000 4.63 100 21:58 18.12.2021
4174 Clouds 16 1018 31 10000 4.12 100 21:36 18.12.2021
4175 Clouds 17 1018 29 10000 5.14 100 20:44 18.12.2021
4176 Clouds 16 1017 29 10000 2.57 90 20:19 18.12.2021
4177 Clouds 19 1017 24 10000 2.06 70 19:25 18.12.2021
4178 Clouds 23 1016 18 10000 3.09 60 18:22 18.12.2021
4179 Clouds 23 1016 18 10000 3.09 60 17:48 18.12.2021
4180 Clouds 24 1016 17 10000 3.6 40 16:26 18.12.2021
4181 Clouds 23 1017 20 10000 4.12 50 15:27 18.12.2021
4182 Clouds 23 1017 20 10000 4.12 40 14:48 18.12.2021
4183 Clouds 20 1019 26 10000 3.09 80 13:28 18.12.2021
4184 Clouds 15 1021 38 10000 2.57 80 11:22 18.12.2021
4185 Clear 6 1020 65 10000 2.57 100 09:40 18.12.2021
4186 Clear 5 1020 70 10000 3.09 90 08:47 18.12.2021
4187 Clouds 6 1020 65 8000 3.09 100 08:24 18.12.2021
4188 Clouds 11 1020 50 8000 4.12 170 03:58 18.12.2021
4189 Clear 12 1020 47 8000 1.03 0 00:29 18.12.2021
4190 Clear 12 1020 50 8000 1.54 160 23:46 17.12.2021
4191 Clear 15 1020 47 8000 2.06 100 21:58 17.12.2021
4192 Clear 15 1020 44 8000 2.06 80 21:19 17.12.2021
4193 Clear 16 1020 39 8000 0.51 0 20:40 17.12.2021
4194 Clouds 17 1019 36 8000 1.54 270 19:28 17.12.2021
4195 Clouds 20 1019 32 8000 1.03 0 18:39 17.12.2021
4196 Clouds 21 1019 30 8000 2.06 330 17:33 17.12.2021
4197 Clouds 21 1019 28 8000 1.54 350 16:49 17.12.2021
4198 Clouds 21 1019 28 8000 2.06 0 16:22 17.12.2021
4199 Clouds 21 1019 30 8000 2.57 340 15:25 17.12.2021
4200 Clouds 20 1019 30 8000 2.57 340 14:40 17.12.2021
4201 Clear 20 1021 34 8000 1.03 0 13:21 17.12.2021
4202 Clear 15 1021 51 8000 1.03 0 11:50 17.12.2021
4203 Clear 11 1021 62 8000 1.54 110 10:37 17.12.2021
4204 Clear 7 1021 76 8000 2.06 100 09:34 17.12.2021
4205 Clear 7 1020 70 10000 1.54 80 08:30 17.12.2021
4206 Clear 8 1020 66 10000 1.54 150 06:47 17.12.2021
4207 Clear 10 1019 62 10000 1.54 230 02:54 17.12.2021
4208 Clear 12 1018 62 10000 1.54 270 23:40 16.12.2021
4209 Clouds 13 1018 62 10000 1.03 0 22:24 16.12.2021
4210 Clouds 13 1018 62 10000 1.03 0 22:24 16.12.2021
4211 Clouds 14 1018 54 10000 2.06 110 21:50 16.12.2021
4212 Clouds 15 1017 55 10000 1.54 60 21:25 16.12.2021
4213 Clouds 16 1017 48 8000 2.06 40 20:31 16.12.2021
4214 Clouds 17 1016 45 8000 2.06 50 19:44 16.12.2021
4215 Clouds 20 1016 40 8000 1.03 0 18:39 16.12.2021
4216 Clouds 20 1016 40 8000 1.03 0 17:56 16.12.2021
4217 Clouds 21 1016 37 8000 0.51 0 17:31 16.12.2021
4218 Clouds 21 1016 40 8000 2.06 0 16:22 16.12.2021
4219 Clouds 20 1016 40 8000 2.06 0 14:50 16.12.2021
4220 Clouds 18 1018 45 10000 1.54 0 13:29 16.12.2021
4221 Clouds 16 1019 51 10000 1.03 0 11:20 16.12.2021
4222 Clouds 14 1018 54 8000 2.06 120 10:59 16.12.2021
4223 Clouds 11 1018 66 8000 2.57 120 10:20 16.12.2021
4224 Clouds 10 1018 66 10000 2.06 270 07:48 16.12.2021
4225 Clouds 12 1017 58 8000 1.54 210 06:21 16.12.2021
4226 Clouds 13 1017 54 8000 1.54 160 01:25 16.12.2021
4227 Clouds 13 1017 54 8000 1.03 0 23:33 15.12.2021
4228 Clouds 12 1017 58 6000 0.51 0 22:43 15.12.2021
4229 Clouds 12 1017 58 6000 0.51 0 21:56 15.12.2021
4230 Clouds 13 1017 58 6000 0.51 0 21:27 15.12.2021
4231 Clouds 14 1016 54 8000 1.54 60 20:18 15.12.2021
4232 Clouds 15 1016 51 8000 0.51 0 19:50 15.12.2021
4233 Clouds 16 1016 48 10000 1.03 0 18:37 15.12.2021
4234 Clouds 17 1016 45 10000 0.51 0 17:53 15.12.2021
4235 Clouds 17 1016 45 10000 0.51 0 17:34 15.12.2021
4236 Clouds 17 1016 45 10000 1.03 0 16:28 15.12.2021
4237 Clouds 16 1016 48 10000 2.57 260 15:46 15.12.2021
4238 Clouds 16 1016 48 10000 2.57 260 15:27 15.12.2021
4239 Clouds 15 1017 51 10000 1.54 300 14:29 15.12.2021
4240 Clouds 13 1018 54 10000 1.03 0 12:37 15.12.2021
4241 Clouds 12 1018 58 10000 2.57 80 10:42 15.12.2021
4242 Clouds 7 1017 70 10000 2.06 100 08:55 15.12.2021
4243 Clear 8 1017 66 10000 1.54 160 07:25 15.12.2021
4244 Clear 12 1018 54 10000 0.51 0 01:20 15.12.2021
4245 Clear 15 1018 47 10000 3.09 230 23:42 14.12.2021
4246 Clear 15 1018 47 10000 1.54 280 22:49 14.12.2021
4247 Clouds 16 1018 44 10000 2.06 250 22:24 14.12.2021
4248 Clouds 18 1018 39 10000 1.54 240 20:29 14.12.2021
4249 Clouds 18 1017 42 10000 1.54 250 19:43 14.12.2021
4250 Clouds 19 1017 39 10000 2.06 280 19:19 14.12.2021
4251 Clouds 20 1017 37 10000 3.6 250 18:25 14.12.2021
4252 Clouds 21 1017 32 10000 3.6 270 17:33 14.12.2021
4253 Clouds 22 1017 33 10000 1.54 10 16:40 14.12.2021
4254 Clouds 22 1017 33 10000 1.54 320 15:36 14.12.2021
4255 Clouds 21 1019 35 8000 1.54 350 13:31 14.12.2021
4256 Clouds 17 1020 45 8000 1.54 20 11:59 14.12.2021
4257 Clouds 16 1020 48 8000 1.54 140 11:24 14.12.2021
4258 Clouds 12 1020 58 8000 2.06 70 10:23 14.12.2021
4259 Clouds 10 1020 62 10000 1.03 0 09:43 14.12.2021
4260 Clouds 8 1020 66 10000 0.51 0 08:27 14.12.2021
4261 Clouds 9 1020 61 10000 0.51 0 07:43 14.12.2021
4262 Clouds 13 1021 50 10000 1.03 0 02:37 14.12.2021
4263 Clouds 16 1021 41 10000 2.06 70 22:56 13.12.2021
4264 Clouds 18 1022 36 10000 3.6 150 21:53 13.12.2021
4265 Clouds 16 1021 41 10000 1.54 160 21:32 13.12.2021
4266 Clouds 15 1022 44 10000 2.57 110 20:43 13.12.2021
4267 Clouds 18 1021 36 10000 1.54 240 19:53 13.12.2021
4268 Clouds 19 1021 34 10000 1.54 240 18:33 13.12.2021
4269 Clouds 20 1021 30 10000 2.57 270 17:26 13.12.2021
4270 Clouds 20 1021 32 10000 3.09 240 15:54 13.12.2021
4271 Clouds 21 1021 30 10000 3.09 270 15:32 13.12.2021
4272 Clouds 20 1022 30 10000 1.54 220 13:45 13.12.2021
4273 Clouds 19 1023 32 10000 0.51 0 12:49 13.12.2021
4274 Clouds 17 1023 36 10000 1.03 0 11:59 13.12.2021
4275 Clouds 14 1023 44 10000 2.06 100 11:35 13.12.2021
4276 Clouds 13 1023 47 10000 1.03 0 10:47 13.12.2021
4277 Clouds 8 1022 61 10000 2.06 80 09:32 13.12.2021
4278 Clear 7 1022 61 10000 1.54 70 07:53 13.12.2021
4279 Clear 8 1021 53 10000 1.54 140 05:36 13.12.2021
4280 Clear 10 1021 46 10000 1.54 120 03:28 13.12.2021
4281 Clear 13 1022 41 10000 2.06 160 23:22 12.12.2021
4282 Clear 14 1022 41 10000 1.54 120 21:40 12.12.2021
4283 Clear 18 1021 34 10000 2.06 240 19:57 12.12.2021
4284 Clear 21 1021 28 10000 2.57 250 18:43 12.12.2021
4285 Clear 24 1020 22 10000 2.57 300 17:38 12.12.2021
4286 Clear 25 1020 23 10000 2.57 320 16:28 12.12.2021
4287 Clear 25 1020 25 10000 3.09 320 15:46 12.12.2021
4288 Clear 25 1020 25 10000 3.09 320 15:25 12.12.2021
4289 Clear 24 1020 29 10000 2.57 330 14:34 12.12.2021
4290 Clear 22 1021 33 10000 1.54 350 13:26 12.12.2021
4291 Clear 20 1022 34 10000 1.54 90 12:30 12.12.2021
4292 Clear 17 1022 48 10000 1.03 0 11:44 12.12.2021
4293 Clear 15 1022 55 10000 1.03 0 11:20 12.12.2021
4294 Clear 12 1021 62 10000 1.54 80 10:22 12.12.2021
4295 Clear 8 1021 71 10000 2.06 100 09:38 12.12.2021
4296 Clear 7 1020 70 10000 2.06 70 07:57 12.12.2021
4297 Clear 7 1020 70 10000 2.06 100 05:57 12.12.2021
4298 Clear 8 1020 66 10000 1.54 110 04:56 12.12.2021
4299 Clear 8 1020 66 10000 2.57 110 03:27 12.12.2021
4300 Clear 12 1020 62 10000 1.03 0 23:39 11.12.2021
4301 Clear 14 1020 58 10000 1.54 150 22:22 11.12.2021
4302 Clear 14 1020 58 10000 1.54 150 21:51 11.12.2021
4303 Clear 15 1020 55 10000 1.03 0 20:51 11.12.2021
4304 Clear 18 1019 48 10000 1.54 20 19:23 11.12.2021
4305 Clear 19 1019 42 10000 3.09 20 18:52 11.12.2021
4306 Clear 21 1019 37 10000 3.6 50 18:21 11.12.2021
4307 Clear 22 1019 35 10000 2.06 340 17:20 11.12.2021
4308 Clear 22 1019 40 10000 1.03 0 15:53 11.12.2021
4309 Clear 21 1020 43 10000 2.06 350 15:27 11.12.2021
4310 Clear 16 1022 55 10000 2.57 30 12:50 11.12.2021
4311 Clear 16 1022 55 10000 2.57 30 12:50 11.12.2021
4312 Clear 13 1023 62 10000 2.57 40 11:25 11.12.2021
4313 Clear 9 1022 76 10000 2.57 80 09:45 11.12.2021
4314 Clear 7 1022 81 10000 3.6 90 07:49 11.12.2021
4315 Clear 10 1024 71 10000 3.6 60 02:23 11.12.2021
4316 Clear 11 1025 71 10000 1.54 80 23:58 10.12.2021
4317 Clear 12 1025 66 10000 2.06 70 23:20 10.12.2021
4318 Clear 12 1024 58 10000 2.57 110 21:56 10.12.2021
4319 Clear 14 1025 54 10000 2.57 80 20:57 10.12.2021
4320 Clear 16 1024 44 10000 1.54 40 19:21 10.12.2021
4321 Clear 20 1024 40 10000 3.6 30 17:59 10.12.2021
4322 Clear 20 1024 40 10000 2.57 30 16:56 10.12.2021
4323 Clear 20 1024 40 10000 3.09 40 16:28 10.12.2021
4324 Clear 19 1025 45 10000 2.57 0 15:40 10.12.2021
4325 Clear 19 1025 45 10000 2.57 0 15:21 10.12.2021
4326 Clear 17 1026 51 10000 3.09 40 13:51 10.12.2021
4327 Clear 16 1026 55 10000 2.57 30 13:26 10.12.2021
4328 Clear 14 1026 58 10000 2.06 20 12:36 10.12.2021
4329 Clear 13 1026 67 10000 2.06 90 11:28 10.12.2021
4330 Clear 11 1027 71 10000 1.54 60 10:26 10.12.2021
4331 Clear 6 1026 81 10000 2.06 90 08:52 10.12.2021
4332 Clear 7 1025 81 10000 1.54 70 06:22 10.12.2021
4333 Clear 10 1024 71 10000 2.57 70 02:48 10.12.2021
4334 Clear 11 1025 66 10000 2.06 80 23:54 09.12.2021
4335 Clear 12 1025 66 10000 2.06 70 23:20 09.12.2021
4336 Clear 14 1025 58 10000 3.09 50 22:24 09.12.2021
4337 Clear 14 1025 58 10000 2.57 50 21:59 09.12.2021
4338 Clear 15 1025 55 10000 3.6 40 20:44 09.12.2021
4339 Clear 16 1025 51 10000 3.09 40 20:21 09.12.2021
4340 Clear 16 1024 48 10000 2.06 90 19:21 09.12.2021
4341 Clear 18 1024 45 10000 4.12 60 18:46 09.12.2021
4342 Clear 19 1024 42 10000 5.14 60 17:52 09.12.2021
4343 Clear 19 1024 42 10000 6.17 40 17:26 09.12.2021
4344 Clear 19 1023 45 10000 5.66 40 16:54 09.12.2021
4345 Clouds 19 1023 48 10000 5.14 60 15:34 09.12.2021
4346 Clouds 18 1024 55 10000 6.17 60 14:46 09.12.2021
4347 Clouds 16 1026 63 10000 3.6 70 13:20 09.12.2021
4348 Clouds 15 1026 63 10000 3.6 100 12:37 09.12.2021
4349 Clouds 13 1027 71 10000 2.57 90 11:24 09.12.2021
4350 Clouds 9 1026 81 7000 2.06 80 09:21 09.12.2021
4351 Clouds 11 1025 82 7000 2.57 80 06:44 09.12.2021
4352 Clouds 12 1026 71 7000 2.06 40 03:40 09.12.2021
4353 Clear 10 1026 66 10000 1.54 110 23:44 08.12.2021
4354 Clear 11 1026 62 10000 1.03 0 23:21 08.12.2021
4355 Clear 11 1026 62 10000 1.03 0 22:48 08.12.2021
4356 Clear 13 1026 58 10000 1.03 0 21:42 08.12.2021
4357 Clear 14 1025 54 10000 1.54 30 21:24 08.12.2021
4358 Clear 16 1024 44 10000 1.54 10 19:58 08.12.2021
4359 Clear 16 1024 44 10000 1.03 0 19:33 08.12.2021
4360 Clear 17 1024 42 10000 1.03 0 18:45 08.12.2021
4361 Clear 19 1024 39 10000 2.06 20 17:36 08.12.2021
4362 Clear 19 1024 39 10000 2.06 20 17:36 08.12.2021
4363 Clear 19 1024 39 10000 2.06 0 15:51 08.12.2021
4364 Clear 18 1024 42 10000 1.54 340 15:28 08.12.2021
4365 Clear 17 1024 45 10000 2.06 360 14:31 08.12.2021
4366 Clear 13 1026 58 10000 1.54 140 11:19 08.12.2021
4367 Clear 12 1026 62 10000 0.51 0 10:31 08.12.2021
4368 Clear 12 1026 62 10000 0.51 0 10:31 08.12.2021
4369 Clear 5 1025 75 10000 1.54 130 08:56 08.12.2021
4370 Clear 7 1025 70 10000 3.09 350 07:25 08.12.2021
4371 Clear 6 1025 70 10000 1.03 0 04:24 08.12.2021
4372 Clear 12 1025 54 10000 3.09 210 23:33 07.12.2021
4373 Clear 12 1025 47 10000 1.54 270 21:43 07.12.2021
4374 Clear 13 1025 44 10000 2.06 270 21:23 07.12.2021
4375 Clear 14 1024 41 10000 1.03 0 20:20 07.12.2021
4376 Clear 19 1024 27 10000 1.54 300 18:43 07.12.2021
4377 Clear 19 1024 27 10000 2.06 290 17:52 07.12.2021
4378 Clear 20 1024 26 10000 2.06 300 17:19 07.12.2021
4379 Clear 20 1024 24 10000 3.09 300 16:31 07.12.2021
4380 Clear 21 1024 24 10000 3.09 310 15:33 07.12.2021
4381 Clear 22 1025 26 10000 1.54 20 14:18 07.12.2021
4382 Clear 20 1025 32 10000 1.54 10 12:49 07.12.2021
4383 Clear 16 1026 41 10000 1.03 0 11:29 07.12.2021
4384 Clear 12 1026 58 10000 1.54 90 10:33 07.12.2021
4385 Clear 4 1025 75 10000 2.57 90 08:26 07.12.2021
4386 Clear 5 1024 75 10000 3.09 100 06:19 07.12.2021
4387 Clear 5 1024 75 10000 1.54 110 05:33 07.12.2021
4388 Clear 10 1024 62 10000 0.51 0 23:47 06.12.2021
4389 Clear 11 1024 58 10000 0.51 0 22:57 06.12.2021
4390 Clear 12 1024 54 10000 1.03 0 22:35 06.12.2021
4391 Clear 11 1024 54 10000 1.54 160 21:51 06.12.2021
4392 Clear 15 1024 38 10000 1.03 0 20:33 06.12.2021
4393 Clear 16 1024 39 10000 1.54 40 19:56 06.12.2021
4394 Clear 17 1024 36 10000 2.57 50 19:21 06.12.2021
4395 Clear 20 1023 34 10000 3.6 30 18:28 06.12.2021
4396 Clear 21 1023 32 10000 4.63 30 17:40 06.12.2021
4397 Clear 21 1023 32 10000 4.63 30 17:40 06.12.2021
4398 Clear 22 1023 24 10000 3.6 70 16:48 06.12.2021
4399 Clear 21 1023 43 10000 2.06 290 15:39 06.12.2021
4400 Clear 17 1026 48 10000 3.09 70 13:46 06.12.2021
4401 Clear 14 1027 58 10000 2.06 90 12:39 06.12.2021
4402 Clear 12 1027 71 10000 2.06 100 11:36 06.12.2021
4403 Clear 5 1026 93 10000 3.09 90 08:46 06.12.2021
4404 Clear 5 1026 87 10000 2.57 110 06:42 06.12.2021
4405 Clear 11 1026 58 10000 2.06 20 23:38 05.12.2021
4406 Clear 12 1026 54 10000 2.57 110 21:51 05.12.2021
4407 Clear 12 1026 54 10000 3.09 110 21:19 05.12.2021
4408 Clear 13 1026 47 10000 2.06 90 20:19 05.12.2021
4409 Clear 16 1025 39 10000 2.57 50 19:33 05.12.2021
4410 Clear 17 1025 39 10000 2.57 50 18:47 05.12.2021
4411 Clear 19 1025 34 10000 3.6 40 18:19 05.12.2021
4412 Clear 19 1025 34 10000 4.12 60 17:48 05.12.2021
4413 Clear 20 1025 34 10000 5.14 40 16:47 05.12.2021
4414 Clear 20 1025 34 10000 4.12 50 16:26 05.12.2021
4415 Clear 20 1025 37 10000 3.09 50 15:48 05.12.2021
4416 Clear 18 1026 48 10000 2.06 10 14:41 05.12.2021
4417 Clear 17 1027 48 10000 4.12 40 14:23 05.12.2021
4418 Clear 17 1027 48 10000 3.09 40 13:22 05.12.2021
4419 Clear 15 1027 55 10000 2.06 90 12:40 05.12.2021
4420 Clear 15 1027 55 10000 2.06 90 12:18 05.12.2021
4421 Clear 11 1028 66 10000 3.6 80 11:29 05.12.2021
4422 Clear 7 1027 81 10000 3.09 90 09:59 05.12.2021
4423 Clear 4 1027 87 10000 2.57 90 08:24 05.12.2021
4424 Clear 6 1026 81 10000 2.06 80 03:27 05.12.2021
4425 Clear 9 1026 71 10000 1.54 120 23:45 04.12.2021
4426 Clear 12 1026 58 10000 3.6 100 21:55 04.12.2021
4427 Clear 13 1026 54 10000 2.06 70 20:57 04.12.2021
4428 Clear 14 1025 51 10000 2.57 30 20:20 04.12.2021
4429 Clear 16 1025 48 10000 1.54 20 19:32 04.12.2021
4430 Clear 19 1025 37 10000 0.51 0 18:21 04.12.2021
4431 Clear 20 1025 37 10000 0.51 0 17:39 04.12.2021
4432 Clear 19 1025 37 10000 1.54 60 16:51 04.12.2021
4433 Clear 19 1025 39 10000 1.54 0 16:31 04.12.2021
4434 Clear 19 1025 37 10000 1.54 350 15:40 04.12.2021
4435 Clear 14 1027 58 10000 1.03 0 11:54 04.12.2021
4436 Clear 13 1027 62 10000 0.51 0 11:32 04.12.2021
4437 Clear 11 1027 71 10000 1.03 0 10:53 04.12.2021
4438 Clear 3 1026 87 10000 2.06 80 08:49 04.12.2021
4439 Clear 3 1025 93 10000 1.54 70 06:42 04.12.2021
4440 Clear 4 1024 87 10000 2.57 100 04:42 04.12.2021
4441 Clear 8 1025 71 10000 1.54 70 00:35 04.12.2021
4442 Clear 10 1024 71 10000 2.06 20 23:27 03.12.2021
4443 Clear 9 1024 71 10000 2.06 110 22:48 03.12.2021
4444 Clear 10 1024 66 10000 2.06 110 21:42 03.12.2021
4445 Clear 11 1024 62 10000 1.54 60 20:55 03.12.2021
4446 Clear 12 1024 58 10000 2.57 50 20:26 03.12.2021
4447 Clear 14 1023 47 10000 2.57 80 18:44 03.12.2021
4448 Clear 16 1023 36 10000 3.6 50 18:20 03.12.2021
4449 Clear 16 1022 39 10000 3.6 60 16:43 03.12.2021
4450 Clear 14 1023 62 8000 5.66 70 13:27 03.12.2021
4451 Clear 13 1024 76 8000 4.12 90 12:20 03.12.2021
4452 Clouds 10 1023 87 6000 4.12 80 10:56 03.12.2021
4453 Clear 7 1022 100 8000 4.12 90 08:31 03.12.2021
4454 Clear 7 1022 93 8000 3.6 80 07:43 03.12.2021
4455 Clear 7 1022 93 8000 3.6 80 07:43 03.12.2021
4456 Clear 7 1022 93 8000 3.6 80 07:43 03.12.2021
4457 Clouds 7 1021 100 8000 2.06 80 05:42 03.12.2021
4458 Clouds 11 1022 93 8000 2.57 80 00:48 03.12.2021
4459 Clouds 12 1022 87 8000 2.06 90 23:47 02.12.2021
4460 Clouds 12 1021 87 8000 2.57 90 22:48 02.12.2021
4461 Clouds 12 1021 87 8000 3.09 30 21:41 02.12.2021
4462 Clouds 12 1021 94 6000 1.54 360 20:44 02.12.2021
4463 Clouds 12 1021 94 6000 2.57 340 20:22 02.12.2021
4464 Clouds 13 1019 82 6000 3.09 240 18:47 02.12.2021
4465 Clouds 16 1019 55 10000 6.17 270 16:35 02.12.2021
4466 Clouds 17 1019 51 10000 4.63 280 15:41 02.12.2021
4467 Clouds 17 1019 51 10000 4.63 280 15:41 02.12.2021
4468 Clouds 17 1020 51 10000 4.12 250 14:52 02.12.2021
4469 Clouds 16 1021 51 10000 3.6 200 13:36 02.12.2021
4470 Clouds 15 1023 58 8000 2.57 180 12:24 02.12.2021
4471 Clouds 12 1023 66 6000 2.06 190 10:42 02.12.2021
4472 Clear 8 1023 76 8000 1.54 170 09:26 02.12.2021
4473 Clear 8 1022 76 8000 2.57 180 07:19 02.12.2021
4474 Clear 10 1025 71 8000 1.54 80 01:26 02.12.2021
4475 Clear 12 1025 66 8000 2.57 60 00:26 02.12.2021
4476 Clear 14 1025 62 8000 3.6 50 22:31 01.12.2021
4477 Clear 14 1025 58 8000 3.09 70 21:44 01.12.2021
4478 Clear 16 1024 51 8000 1.54 330 20:23 01.12.2021
4479 Clear 17 1023 42 10000 2.06 290 19:42 01.12.2021
4480 Clear 18 1023 39 10000 2.57 270 18:47 01.12.2021
4481 Clear 21 1023 32 10000 2.57 300 17:24 01.12.2021
4482 Clear 21 1024 30 10000 3.09 340 16:21 01.12.2021
4483 Clouds 20 1025 37 10000 1.54 0 14:30 01.12.2021
4484 Clouds 19 1026 37 10000 2.06 10 13:37 01.12.2021
4485 Clouds 14 1026 51 10000 0.51 0 10:44 01.12.2021
4486 Clouds 11 1026 62 10000 1.03 0 10:22 01.12.2021
4487 Clouds 5 1025 75 10000 2.06 90 08:52 01.12.2021
4488 Clear 5 1025 75 10000 2.06 100 07:58 01.12.2021
4489 Clear 5 1024 75 10000 2.06 70 07:31 01.12.2021
4490 Clear 9 1024 61 10000 0.51 0 03:57 01.12.2021
4491 Clear 9 1024 61 10000 1.54 0 03:27 01.12.2021
4492 Clear 10 1025 66 10000 1.03 0 00:34 01.12.2021
4493 Clear 12 1025 62 10000 1.03 0 23:29 30.11.2021
4494 Clear 12 1025 62 10000 1.03 0 23:29 30.11.2021
4495 Clear 12 1025 62 10000 1.54 130 22:32 30.11.2021
4496 Clear 15 1024 51 10000 2.06 40 20:47 30.11.2021
4497 Clear 16 1024 48 10000 2.57 40 20:25 30.11.2021
4498 Clear 17 1023 45 10000 1.03 0 19:39 30.11.2021
4499 Clear 18 1023 39 10000 1.03 0 18:54 30.11.2021
4500 Clear 20 1023 34 10000 1.54 70 17:46 30.11.2021
4501 Clear 20 1023 34 10000 1.03 0 16:19 30.11.2021
4502 Clear 18 1024 36 10000 1.54 0 14:34 30.11.2021
4503 Clear 18 1025 39 10000 1.03 0 13:41 30.11.2021
4504 Clear 16 1025 48 10000 1.54 0 12:54 30.11.2021
4505 Clear 15 1026 47 10000 1.54 0 11:59 30.11.2021
4506 Clear 13 1026 54 10000 2.57 90 11:25 30.11.2021
4507 Clear 11 1026 62 10000 2.06 90 10:36 30.11.2021
4508 Clear 5 1025 75 10000 0.51 0 08:57 30.11.2021
4509 Clear 5 1025 70 10000 0.51 0 08:32 30.11.2021
4510 Clear 6 1025 70 10000 0.51 0 07:59 30.11.2021
4511 Clear 6 1024 70 10000 1.54 170 06:38 30.11.2021
4512 Clear 7 1025 61 10000 1.54 100 01:50 30.11.2021
4513 Clear 8 1025 57 10000 1.54 80 01:28 30.11.2021
4514 Clear 10 1025 50 10000 1.54 100 23:40 29.11.2021
4515 Clear 10 1025 50 10000 1.54 30 23:19 29.11.2021
4516 Clear 11 1026 46 10000 1.54 90 22:38 29.11.2021
4517 Clear 12 1026 43 10000 2.57 110 21:56 29.11.2021
4518 Clear 13 1026 41 10000 1.54 110 21:20 29.11.2021
4519 Clear 12 1026 43 10000 1.54 80 20:48 29.11.2021
4520 Clear 15 1025 38 10000 2.06 60 19:59 29.11.2021
4521 Clear 15 1025 38 10000 2.06 60 19:41 29.11.2021
4522 Clear 17 1025 31 10000 3.6 40 18:59 29.11.2021
4523 Clear 15 1025 38 10000 3.36 57 18:41 29.11.2021
4524 Clear 17 1024 27 10000 5.1 49 17:22 29.11.2021
4525 Clear 17 1024 27 10000 5.11 49 16:45 29.11.2021
4526 Clear 17 1024 25 10000 5.07 48 16:24 29.11.2021
4527 Clear 17 1025 24 10000 4.68 49 14:46 29.11.2021
4528 Clear 17 1026 26 10000 4.42 52 14:23 29.11.2021
4529 Clear 15 1027 30 10000 4.89 58 12:59 29.11.2021
4530 Clear 14 1027 36 10000 4.95 62 12:19 29.11.2021
4531 Clear 12 1028 43 10000 4.13 60 11:28 29.11.2021
4532 Clear 6 1028 81 8000 2.06 90 09:59 29.11.2021
4533 Clear 4 1027 81 8000 3.6 100 07:47 29.11.2021
4534 Clear 6 1027 75 8000 2.57 90 05:51 29.11.2021
4535 Clear 9 1027 71 8000 2.57 130 01:24 29.11.2021
4536 Clear 9 1027 66 8000 2.06 100 23:54 28.11.2021
4537 Clear 9 1026 71 8000 2.06 120 23:36 28.11.2021
4538 Clear 10 1026 66 8000 2.57 90 22:20 28.11.2021
4539 Clouds 12 1025 58 8000 3.09 70 21:39 28.11.2021
4540 Clouds 13 1025 54 8000 3.6 60 20:44 28.11.2021
4541 Clouds 14 1024 47 8000 3.09 40 19:51 28.11.2021
4542 Clouds 15 1023 47 8000 4.12 60 18:40 28.11.2021
4543 Clouds 15 1023 47 8000 4.12 60 18:18 28.11.2021
4544 Clouds 16 1023 44 8000 4.12 50 17:34 28.11.2021
4545 Clouds 17 1023 45 8000 4.12 80 16:47 28.11.2021
4546 Clouds 16 1023 44 8000 4.12 50 16:28 28.11.2021
4547 Clouds 16 1023 44 8000 4.63 80 15:50 28.11.2021
4548 Clouds 16 1023 55 8000 3.09 40 14:55 28.11.2021
4549 Clouds 15 1024 63 8000 3.6 110 14:28 28.11.2021
4550 Clouds 14 1025 67 8000 4.12 100 12:54 28.11.2021
4551 Clouds 12 1024 82 5000 2.57 120 11:39 28.11.2021
4552 Clouds 11 1023 82 5000 2.57 120 10:34 28.11.2021
4553 Clouds 10 1023 81 6000 1.54 110 09:51 28.11.2021
4554 Clouds 10 1023 81 6000 1.54 110 09:30 28.11.2021
4555 Clear 9 1019 71 10000 1.54 110 00:53 28.11.2021
4556 Clear 11 1019 66 10000 1.54 50 22:58 27.11.2021
4557 Clouds 14 1018 54 10000 2.06 350 19:51 27.11.2021
4558 Clouds 16 1016 48 10000 4.63 360 18:26 27.11.2021
4559 Clouds 18 1015 45 10000 0.51 0 16:19 27.11.2021
4560 Clouds 15 1016 58 10000 2.06 0 14:51 27.11.2021
4561 Clouds 15 1016 63 10000 2.06 90 13:40 27.11.2021
4562 Clouds 14 1017 62 10000 3.6 60 12:19 27.11.2021
4563 Clouds 11 1016 82 10000 3.09 10 10:27 27.11.2021
4564 Clouds 11 1015 82 10000 2.57 20 09:18 27.11.2021
4565 Clouds 11 1014 82 8000 1.03 0 06:59 27.11.2021
4566 Clouds 11 1014 87 8000 2.06 100 04:53 27.11.2021
4567 Clouds 13 1015 71 10000 3.09 20 00:26 27.11.2021
4568 Clouds 13 1014 71 10000 4.63 360 22:51 26.11.2021
4569 Clouds 14 1014 72 10000 3.09 320 22:24 26.11.2021
4570 Clouds 14 1014 72 10000 2.06 320 21:33 26.11.2021
4571 Clouds 14 1014 72 10000 2.57 320 20:42 26.11.2021
4572 Clouds 14 1013 67 10000 2.06 330 19:56 26.11.2021
4573 Clouds 14 1013 67 10000 2.57 330 19:18 26.11.2021
4574 Clouds 15 1012 63 10000 2.06 290 17:54 26.11.2021
4575 Clouds 15 1012 63 10000 2.06 300 17:21 26.11.2021
4576 Clouds 15 1012 63 10000 3.6 300 15:29 26.11.2021
4577 Clouds 17 1014 51 10000 2.57 280 13:35 26.11.2021
4578 Clouds 15 1014 51 10000 2.06 280 11:30 26.11.2021
4579 Clouds 15 1014 51 10000 1.03 260 10:35 26.11.2021
4580 Clouds 11 1013 62 10000 0 0 08:56 26.11.2021
4581 Clouds 12 1013 58 10000 2.57 180 08:21 26.11.2021
4582 Clouds 13 1013 58 10000 2.06 190 07:24 26.11.2021
4583 Clouds 12 1013 74 10000 2.33 273 06:25 26.11.2021
4584 Clouds 11 1012 66 10000 1.54 260 03:54 26.11.2021
4585 Clouds 12 1013 62 10000 0.51 0 01:27 26.11.2021
4586 Clouds 12 1015 66 10000 2.06 250 22:46 25.11.2021
4587 Clouds 12 1015 66 10000 2.06 270 21:24 25.11.2021
4588 Clouds 14 1014 58 10000 2.06 280 19:55 25.11.2021
4589 Clouds 15 1014 55 10000 2.06 310 18:45 25.11.2021
4590 Clouds 16 1014 48 10000 2.57 310 17:47 25.11.2021
4591 Clouds 16 1014 48 10000 2.57 330 17:25 25.11.2021
4592 Clouds 17 1014 45 10000 1.54 360 16:30 25.11.2021
4593 Clouds 18 1015 42 10000 2.57 350 14:59 25.11.2021
4594 Clouds 17 1016 45 10000 2.06 0 13:26 25.11.2021
4595 Clouds 18 1018 39 10000 1.03 60 12:23 25.11.2021
4596 Clouds 16 1018 48 10000 1.03 120 11:48 25.11.2021
4597 Clouds 10 1018 71 10000 1.54 170 09:25 25.11.2021
4598 Clouds 10 1018 87 10000 1.03 0 05:27 25.11.2021
4599 Clouds 11 1018 76 10000 1.54 300 02:48 25.11.2021
4600 Clouds 13 1020 82 10000 2.06 230 22:55 24.11.2021
4601 Clouds 14 1020 77 10000 1.54 330 22:23 24.11.2021
4602 Clouds 14 1019 72 10000 2.57 340 21:28 24.11.2021
4603 Clouds 14 1019 62 10000 2.57 310 20:46 24.11.2021
4604 Clouds 14 1018 58 10000 1.54 300 20:46 24.11.2021
4605 Clouds 14 1018 58 10000 1.54 300 20:18 24.11.2021
4606 Clouds 17 1018 48 10000 2.57 300 18:30 24.11.2021
4607 Clouds 17 1018 48 10000 2.57 320 17:53 24.11.2021
4608 Clouds 18 1018 48 10000 2.57 330 15:23 24.11.2021
4609 Clouds 19 1019 45 10000 2.57 300 14:47 24.11.2021
4610 Clouds 18 1019 48 10000 2.06 310 14:19 24.11.2021
4611 Clouds 18 1021 59 8000 1.54 0 12:28 24.11.2021
4612 Clouds 15 1021 67 8000 2.57 10 11:20 24.11.2021
4613 Clouds 15 1021 67 8000 2.57 10 10:47 24.11.2021
4614 Clouds 14 1020 77 8000 2.06 10 10:21 24.11.2021
4615 Clouds 13 1019 76 6000 1.54 40 07:52 24.11.2021
4616 Clouds 14 1019 77 6000 1.54 110 06:54 24.11.2021
4617 Clouds 14 1019 82 6000 2.06 20 03:50 24.11.2021
4618 Clouds 14 1019 94 6000 2.57 240 00:43 24.11.2021
4619 Clouds 15 1019 94 6000 3.6 290 22:40 23.11.2021
4620 Clouds 15 1019 94 6000 3.6 290 22:18 23.11.2021
4621 Clouds 15 1018 94 6000 3.6 300 21:44 23.11.2021
4622 Clouds 17 1017 77 8000 5.14 300 19:37 23.11.2021
4623 Clouds 17 1017 77 8000 5.14 300 19:37 23.11.2021
4624 Clouds 18 1016 72 8000 4.63 320 18:41 23.11.2021
4625 Clouds 19 1016 63 8000 5.14 310 18:20 23.11.2021
4626 Clouds 22 1015 49 8000 6.69 280 16:58 23.11.2021
4627 Clouds 21 1015 52 8000 6.17 300 15:59 23.11.2021
4628 Clouds 22 1015 49 8000 5.14 300 15:22 23.11.2021
4629 Clouds 22 1016 43 8000 5.66 250 13:50 23.11.2021
4630 Clouds 19 1017 48 8000 2.57 280 11:42 23.11.2021
4631 Clouds 15 1016 67 8000 0.51 0 09:59 23.11.2021
4632 Clouds 10 1015 76 8000 0.51 0 08:46 23.11.2021
4633 Clear 13 1015 67 10000 0.51 0 06:41 23.11.2021
4634 Clouds 15 1016 63 8000 3.09 220 03:51 23.11.2021
4635 Clouds 16 1016 63 8000 3.6 230 00:58 23.11.2021
4636 Clouds 18 1016 52 8000 2.57 190 23:21 22.11.2021
4637 Clouds 18 1016 52 8000 2.57 190 22:34 22.11.2021
4638 Clouds 18 1015 52 8000 2.57 190 21:49 22.11.2021
4639 Clouds 18 1015 52 8000 3.09 180 21:31 22.11.2021
4640 Clouds 18 1015 52 8000 1.03 0 20:50 22.11.2021
4641 Clouds 18 1015 55 8000 1.54 290 19:47 22.11.2021
4642 Clouds 19 1014 48 8000 2.06 270 19:18 22.11.2021
4643 Clouds 21 1014 43 8000 2.06 270 18:38 22.11.2021
4644 Clouds 22 1014 40 8000 2.06 0 17:20 22.11.2021
4645 Clouds 22 1014 40 8000 2.57 290 15:47 22.11.2021
4646 Clouds 21 1015 52 8000 1.54 0 13:58 22.11.2021
4647 Clouds 18 1016 63 6000 1.03 0 11:50 22.11.2021
4648 Clouds 15 1016 72 6000 1.03 0 10:39 22.11.2021
4649 Clouds 13 1015 76 6000 0.51 0 09:26 22.11.2021
4650 Clouds 13 1015 76 6000 0.51 0 08:39 22.11.2021
4651 Clouds 14 1014 72 8000 0.51 0 04:33 22.11.2021
4652 Clouds 17 1016 67 8000 1.54 220 23:24 21.11.2021
4653 Clouds 16 1015 72 8000 1.03 0 22:48 21.11.2021
4654 Clouds 16 1016 67 8000 1.54 250 21:51 21.11.2021
4655 Clouds 17 1015 63 8000 2.06 240 20:42 21.11.2021
4656 Clouds 17 1015 63 8000 1.54 250 19:46 21.11.2021
4657 Clouds 19 1015 55 10000 2.57 300 18:18 21.11.2021
4658 Clouds 19 1015 52 10000 2.57 320 17:38 21.11.2021
4659 Clouds 20 1015 49 10000 2.06 350 15:28 21.11.2021
4660 Clouds 20 1015 49 10000 2.06 360 14:45 21.11.2021
4661 Clouds 20 1016 52 10000 2.57 20 13:46 21.11.2021
4662 Clouds 19 1017 55 10000 2.57 90 12:35 21.11.2021
4663 Clouds 18 1018 63 10000 3.09 90 11:42 21.11.2021
4664 Clouds 17 1018 72 10000 1.54 60 11:23 21.11.2021
4665 Clouds 15 1018 82 10000 1.54 70 10:18 21.11.2021
4666 Clouds 10 1017 93 10000 1.54 70 08:42 21.11.2021
4667 Clouds 10 1017 93 10000 1.54 90 08:22 21.11.2021
4668 Clouds 10 1017 93 10000 2.06 70 07:43 21.11.2021
4669 Clouds 12 1018 82 10000 1.03 0 05:49 21.11.2021
4670 Clouds 12 1018 87 10000 0.51 0 05:19 21.11.2021
4671 Clouds 13 1019 88 10000 1.54 220 03:18 21.11.2021
4672 Clouds 13 1019 88 10000 1.54 210 02:50 21.11.2021
4673 Clouds 13 1019 82 10000 0.51 0 00:56 21.11.2021
4674 Clouds 14 1019 77 10000 1.54 250 23:43 20.11.2021
4675 Clouds 18 1019 63 10000 1.54 290 21:40 20.11.2021
4676 Clouds 18 1019 59 10000 1.03 0 20:54 20.11.2021
4677 Clouds 18 1018 59 10000 2.06 300 18:46 20.11.2021
4678 Clouds 19 1018 55 10000 2.57 310 18:26 20.11.2021
4679 Clouds 20 1018 52 10000 3.09 300 17:26 20.11.2021
4680 Clouds 21 1018 52 10000 4.12 290 16:46 20.11.2021
4681 Clouds 21 1019 52 10000 3.09 310 14:46 20.11.2021
4682 Clouds 20 1019 60 10000 2.06 330 14:23 20.11.2021
4683 Clouds 19 1021 77 8000 1.03 0 11:57 20.11.2021
4684 Clouds 16 1021 88 8000 1.54 100 10:35 20.11.2021
4685 Clouds 14 1020 94 8000 1.54 100 09:39 20.11.2021
4686 Clouds 14 1019 94 8000 2.06 80 07:28 20.11.2021
4687 Clouds 14 1019 94 8000 2.57 100 05:27 20.11.2021
4688 Clouds 14 1019 94 7000 2.06 80 04:50 20.11.2021
4689 Clouds 14 1019 94 5000 1.54 270 01:55 20.11.2021
4690 Clouds 14 1019 94 7000 2.06 270 00:40 20.11.2021
4691 Clouds 14 1018 94 8000 2.57 230 22:58 19.11.2021
4692 Clouds 14 1017 88 8000 1.54 200 21:58 19.11.2021
4693 Clouds 14 1017 88 8000 2.06 260 20:58 19.11.2021
4694 Clouds 14 1016 88 8000 3.09 280 20:36 19.11.2021
4695 Clouds 15 1016 82 8000 2.57 280 19:50 19.11.2021
4696 Clouds 17 1015 63 8000 3.09 260 18:54 19.11.2021
4697 Clouds 17 1015 63 8000 3.09 270 18:22 19.11.2021
4698 Clouds 18 1015 59 8000 3.6 300 17:31 19.11.2021
4699 Clouds 19 1014 59 8000 1.03 0 15:51 19.11.2021
4700 Clouds 19 1015 59 8000 1.03 0 13:28 19.11.2021
4701 Clouds 15 1015 63 8000 1.54 90 10:27 19.11.2021
4702 Clouds 15 1015 63 8000 1.54 90 10:27 19.11.2021
4703 Clouds 15 1014 58 9000 1.54 110 09:37 19.11.2021
4704 Clouds 15 1014 58 10000 0.51 0 08:20 19.11.2021
4705 Clouds 15 1014 55 10000 2.06 150 04:51 19.11.2021
4706 Clouds 18 1014 42 10000 2.57 210 02:27 19.11.2021
4707 Clouds 17 1014 55 10000 3.6 250 23:51 18.11.2021
4708 Clouds 19 1013 39 10000 5.14 230 21:55 18.11.2021
4709 Clouds 19 1013 42 10000 2.57 270 20:49 18.11.2021
4710 Clouds 19 1012 42 10000 3.09 260 20:30 18.11.2021
4711 Clouds 19 1012 45 10000 2.06 250 19:52 18.11.2021
4712 Clouds 20 1012 42 10000 2.57 260 19:33 18.11.2021
4713 Clouds 22 1011 37 10000 2.57 270 18:33 18.11.2021
4714 Clouds 22 1011 35 10000 2.57 290 17:51 18.11.2021
4715 Clouds 24 1011 27 10000 2.06 260 16:44 18.11.2021
4716 Clouds 24 1011 27 10000 2.57 310 15:46 18.11.2021
4717 Clouds 21 1013 40 10000 1.54 360 13:40 18.11.2021
4718 Clouds 19 1014 42 10000 1.54 360 12:34 18.11.2021
4719 Clouds 18 1014 48 10000 1.03 0 11:43 18.11.2021
4720 Clouds 18 1014 48 10000 0.51 0 11:24 18.11.2021
4721 Clear 13 1014 62 10000 0.51 0 09:44 18.11.2021
4722 Clear 8 1013 71 8000 1.54 50 07:35 18.11.2021
4723 Clear 9 1013 71 8000 1.54 160 05:55 18.11.2021
4724 Clear 9 1013 71 8000 0.51 0 05:36 18.11.2021
4725 Clouds 12 1013 66 8000 1.03 0 01:24 18.11.2021
4726 Clouds 12 1013 66 8000 1.03 0 01:24 18.11.2021
4727 Clear 15 1014 55 10000 1.54 20 23:18 17.11.2021
4728 Clouds 14 1013 54 10000 2.57 100 22:21 17.11.2021
4729 Clouds 15 1013 55 10000 2.06 90 21:53 17.11.2021
4730 Clouds 16 1013 51 10000 2.06 60 21:34 17.11.2021
4731 Clouds 19 1012 45 10000 1.03 0 18:47 17.11.2021
4732 Clouds 21 1011 43 10000 1.54 0 17:28 17.11.2021
4733 Clouds 19 1012 48 10000 2.57 50 14:52 17.11.2021
4734 Clear 17 1014 59 8000 2.57 50 12:42 17.11.2021
4735 Clear 16 1015 63 8000 2.06 130 11:52 17.11.2021
4736 Clear 15 1015 67 8000 1.03 0 10:50 17.11.2021
4737 Clear 11 1014 82 8000 1.54 150 09:27 17.11.2021
4738 Clear 10 1014 87 8000 2.06 190 07:45 17.11.2021
4739 Clouds 9 1013 81 8000 2.06 240 06:20 17.11.2021
4740 Clouds 12 1015 71 8000 2.06 220 02:42 17.11.2021
4741 Clouds 12 1014 58 8000 2.57 270 23:27 16.11.2021
4742 Clouds 13 1014 54 10000 1.54 240 21:51 16.11.2021
4743 Clouds 16 1013 44 10000 2.57 270 20:19 16.11.2021
4744 Clouds 18 1013 39 10000 2.06 300 19:23 16.11.2021
4745 Clear 21 1013 35 10000 2.57 270 18:38 16.11.2021
4746 Clear 22 1013 33 10000 2.06 330 17:44 16.11.2021
4747 Clear 22 1013 35 10000 1.54 0 16:58 16.11.2021
4748 Clear 22 1013 35 10000 2.57 0 16:19 16.11.2021
4749 Clear 22 1013 35 10000 2.57 0 15:41 16.11.2021
4750 Clear 18 1016 52 10000 1.54 320 12:43 16.11.2021
4751 Clear 12 1016 50 10000 2.06 260 10:21 16.11.2021
4752 Clear 12 1016 50 10000 1.03 0 09:38 16.11.2021
4753 Clear 9 1015 57 8000 0.51 0 07:34 16.11.2021
4754 Clear 10 1015 53 8000 0.51 0 05:27 16.11.2021
4755 Clear 15 1018 41 10000 1.54 40 23:26 15.11.2021
4756 Clear 15 1018 38 10000 2.06 120 22:40 15.11.2021
4757 Clear 17 1018 36 10000 3.09 110 21:56 15.11.2021
4758 Clear 16 1018 36 10000 1.54 80 21:30 15.11.2021
4759 Clear 19 1017 32 10000 1.54 40 20:32 15.11.2021
4760 Clear 22 1017 26 10000 2.06 30 18:54 15.11.2021
4761 Clear 24 1017 27 10000 3.09 20 17:31 15.11.2021
4762 Clear 25 1017 29 10000 2.06 0 15:50 15.11.2021
4763 Clear 24 1018 31 10000 2.57 340 15:30 15.11.2021
4764 Clear 23 1018 35 10000 2.57 20 14:18 15.11.2021
4765 Clear 21 1020 43 10000 1.54 340 12:21 15.11.2021
4766 Clear 12 1020 58 10000 0.51 0 09:31 15.11.2021
4767 Clear 11 1020 62 10000 2.57 170 08:57 15.11.2021
4768 Clear 10 1018 62 10000 1.03 0 06:32 15.11.2021
4769 Clear 14 1019 62 10000 0.51 0 00:34 15.11.2021
4770 Clouds 16 1018 48 10000 2.57 230 22:41 14.11.2021
4771 Clear 16 1018 48 10000 1.03 0 21:18 14.11.2021
4772 Clouds 20 1016 37 10000 2.06 240 19:18 14.11.2021
4773 Clouds 21 1016 37 10000 3.09 250 18:54 14.11.2021
4774 Clouds 23 1016 33 10000 3.09 270 18:36 14.11.2021
4775 Clouds 23 1016 33 10000 3.09 270 18:18 14.11.2021
4776 Clouds 23 1015 33 10000 3.6 270 17:57 14.11.2021
4777 Clouds 23 1015 35 10000 2.06 290 17:39 14.11.2021
4778 Clouds 23 1015 35 10000 2.06 290 17:21 14.11.2021
4779 Clouds 24 1015 31 10000 2.57 300 16:55 14.11.2021
4780 Clouds 24 1015 33 10000 2.57 280 16:37 14.11.2021
4781 Clouds 24 1015 33 10000 2.57 280 16:18 14.11.2021
4782 Clouds 24 1015 33 10000 2.06 320 15:19 14.11.2021
4783 Clouds 23 1015 35 10000 3.09 350 14:43 14.11.2021
4784 Clouds 23 1015 38 10000 2.57 320 14:20 14.11.2021
4785 Clouds 22 1016 40 10000 2.57 310 13:51 14.11.2021
4786 Clouds 21 1016 43 10000 2.06 320 13:26 14.11.2021
4787 Clear 19 1017 55 10000 1.03 0 12:21 14.11.2021
4788 Clear 17 1017 59 10000 0.51 0 10:54 14.11.2021
4789 Clear 16 1016 59 10000 0.51 0 10:31 14.11.2021
4790 Clouds 12 1016 62 10000 1.03 0 09:22 14.11.2021
4791 Clouds 9 1015 66 10000 0.51 0 08:46 14.11.2021
4792 Clouds 11 1014 62 8000 0.51 0 04:46 14.11.2021
4793 Clear 16 1014 44 10000 1.54 260 22:31 13.11.2021
4794 Clear 17 1014 42 10000 1.54 140 21:59 13.11.2021
4795 Clear 17 1014 39 10000 2.06 110 21:30 13.11.2021
4796 Clear 19 1013 37 10000 2.06 30 20:26 13.11.2021
4797 Clouds 21 1012 37 10000 1.54 340 18:54 13.11.2021
4798 Clouds 22 1012 35 10000 1.03 0 18:32 13.11.2021
4799 Clouds 23 1012 33 10000 2.06 40 17:34 13.11.2021
4800 Clouds 22 1012 40 10000 2.06 0 15:45 13.11.2021
4801 Clear 22 1012 37 10000 3.09 60 14:41 13.11.2021
4802 Clear 20 1014 49 7000 2.57 10 13:46 13.11.2021
4803 Clouds 20 1014 49 7000 1.54 0 12:43 13.11.2021
4804 Clear 18 1015 59 10000 1.03 0 11:46 13.11.2021
4805 Clear 18 1015 59 10000 0.51 0 11:18 13.11.2021
4806 Clear 16 1015 63 10000 0.51 0 10:32 13.11.2021
4807 Clear 14 1015 67 10000 1.54 160 09:43 13.11.2021
4808 Clouds 12 1014 76 8000 1.54 90 09:22 13.11.2021
4809 Clouds 10 1014 81 8000 1.03 0 08:42 13.11.2021
4810 Clear 11 1013 76 10000 3.09 180 07:26 13.11.2021
4811 Clear 11 1013 82 8000 2.06 240 04:40 13.11.2021
4812 Clear 11 1013 76 10000 1.03 0 02:41 13.11.2021
4813 Clear 15 1014 72 10000 3.6 70 23:33 12.11.2021
4814 Clear 17 1015 63 10000 5.14 30 21:54 12.11.2021
4815 Clear 19 1014 37 10000 2.06 360 20:35 12.11.2021
4816 Clear 20 1013 32 10000 1.54 340 19:31 12.11.2021
4817 Clear 21 1013 30 10000 2.06 330 18:54 12.11.2021
4818 Clear 22 1013 30 10000 1.54 320 18:18 12.11.2021
4819 Clear 23 1013 28 10000 2.06 320 18:18 12.11.2021
4820 Clear 22 1013 35 10000 2.06 0 15:54 12.11.2021
4821 Clear 21 1015 43 10000 1.03 0 13:27 12.11.2021
4822 Clear 16 1017 59 10000 1.03 0 11:24 12.11.2021
4823 Clear 16 1017 59 10000 1.03 0 11:24 12.11.2021
4824 Clear 13 1017 67 8000 1.54 270 09:55 12.11.2021
4825 Clear 9 1017 76 10000 0.51 0 08:51 12.11.2021
4826 Clear 10 1016 71 10000 0.51 0 06:35 12.11.2021
4827 Clear 13 1018 50 10000 1.54 240 00:21 12.11.2021
4828 Clear 16 1018 48 10000 1.54 60 22:49 11.11.2021
4829 Clear 18 1018 39 10000 2.57 360 21:57 11.11.2021
4830 Clear 18 1018 42 10000 2.06 260 20:52 11.11.2021
4831 Clear 19 1017 39 10000 1.54 270 19:56 11.11.2021
4832 Clear 24 1017 29 10000 1.54 290 18:27 11.11.2021
4833 Clear 24 1017 29 10000 1.54 290 18:27 11.11.2021
4834 Clear 24 1017 29 10000 2.06 310 17:41 11.11.2021
4835 Clear 23 1016 31 10000 2.57 340 15:29 11.11.2021
4836 Clear 23 1017 28 10000 2.06 0 14:39 11.11.2021
4837 Clear 23 1017 28 10000 2.06 0 14:20 11.11.2021
4838 Clear 22 1018 30 10000 1.54 0 13:35 11.11.2021
4839 Clear 20 1019 34 10000 0.51 0 12:26 11.11.2021
4840 Clear 15 1019 44 10000 0.51 0 09:55 11.11.2021
4841 Clear 9 1019 53 10000 1.54 100 08:47 11.11.2021
4842 Clear 10 1018 50 10000 1.03 0 06:45 11.11.2021
4843 Clear 14 1018 54 10000 1.54 300 00:38 11.11.2021
4844 Clear 17 1018 42 10000 3.09 180 22:42 10.11.2021
4845 Clear 16 1017 39 10000 1.54 240 21:53 10.11.2021
4846 Clear 17 1017 39 10000 1.54 260 20:55 10.11.2021
4847 Clear 18 1016 36 10000 2.06 290 19:55 10.11.2021
4848 Clear 19 1016 34 10000 2.06 260 19:35 10.11.2021
4849 Clear 24 1016 22 10000 1.03 0 17:22 10.11.2021
4850 Clear 23 1016 21 10000 2.57 0 15:46 10.11.2021
4851 Clear 22 1016 21 10000 2.06 0 14:24 10.11.2021
4852 Clear 21 1017 24 10000 2.06 0 13:36 10.11.2021
4853 Clear 18 1018 32 8000 1.54 50 12:23 10.11.2021
4854 Clear 10 1018 46 8000 1.54 80 09:18 10.11.2021
4855 Clear 9 1018 46 10000 1.54 110 08:41 10.11.2021
4856 Clear 9 1017 46 10000 1.03 0 06:45 10.11.2021
4857 Clear 10 1016 43 10000 2.57 170 05:58 10.11.2021
4858 Clear 11 1017 32 10000 0.51 0 01:56 10.11.2021
4859 Clear 13 1016 33 10000 0.51 0 22:29 09.11.2021
4860 Clear 16 1016 25 10000 1.03 0 20:43 09.11.2021
4861 Clear 20 1015 21 10000 1.54 340 19:33 09.11.2021
4862 Clear 21 1015 19 10000 2.06 350 18:49 09.11.2021
4863 Clear 23 1015 17 10000 2.06 320 16:54 09.11.2021
4864 Clear 22 1016 18 10000 1.54 0 15:20 09.11.2021
4865 Clear 21 1016 21 10000 2.57 360 13:50 09.11.2021
4866 Clear 19 1017 24 10000 2.06 10 12:47 09.11.2021
4867 Clear 17 1018 27 10000 0.51 0 10:58 09.11.2021
4868 Clear 13 1018 30 10000 0.51 0 09:59 09.11.2021
4869 Clear 11 1018 37 10000 0.51 0 09:21 09.11.2021
4870 Clear 9 1017 37 10000 1.54 170 07:52 09.11.2021
4871 Clear 9 1017 40 10000 2.57 70 02:37 09.11.2021
4872 Clear 10 1017 37 10000 2.06 110 01:51 09.11.2021
4873 Clear 12 1018 35 10000 1.54 80 00:39 09.11.2021
4874 Clear 12 1019 32 10000 2.57 100 23:31 08.11.2021
4875 Clear 13 1019 26 10000 2.06 90 22:45 08.11.2021
4876 Clear 16 1019 23 10000 2.57 30 21:45 08.11.2021
4877 Clear 17 1018 23 10000 2.06 30 20:34 08.11.2021
4878 Clear 19 1018 22 10000 2.06 20 19:27 08.11.2021
4879 Clear 22 1018 17 10000 2.06 340 17:41 08.11.2021
4880 Clear 23 1018 18 10000 1.03 0 15:56 08.11.2021
4881 Clear 21 1018 21 10000 1.54 0 14:56 08.11.2021
4882 Clear 21 1019 21 10000 2.06 330 14:25 08.11.2021
4883 Clear 19 1019 27 10000 1.54 0 12:59 08.11.2021
4884 Clear 17 1020 34 10000 1.03 0 11:54 08.11.2021
4885 Clear 15 1020 41 10000 1.03 0 10:49 08.11.2021
4886 Clear 7 1019 57 10000 2.06 90 08:58 08.11.2021
4887 Clear 6 1019 61 10000 0.51 0 08:19 08.11.2021
4888 Clear 7 1019 53 10000 1.03 0 06:56 08.11.2021
4889 Clear 9 1019 53 10000 2.57 60 03:35 08.11.2021
4890 Clear 10 1019 46 10000 2.57 110 01:24 08.11.2021
4891 Clear 14 1019 35 10000 2.06 50 22:58 07.11.2021
4892 Clear 16 1019 31 10000 4.12 40 21:25 07.11.2021
4893 Clear 16 1018 23 10000 1.54 70 20:25 07.11.2021
4894 Clouds 19 1018 20 10000 3.09 60 18:47 07.11.2021
4895 Clouds 21 1018 23 10000 2.57 60 17:43 07.11.2021
4896 Clouds 21 1018 23 10000 3.6 40 16:26 07.11.2021
4897 Clear 22 1018 24 10000 2.06 0 15:25 07.11.2021
4898 Clear 20 1019 28 10000 2.57 10 14:27 07.11.2021
4899 Clear 17 1020 36 10000 2.57 40 12:50 07.11.2021
4900 Clear 15 1020 41 10000 2.06 10 11:41 07.11.2021
4901 Clear 9 1020 57 10000 1.03 0 08:59 07.11.2021
4902 Clear 9 1019 61 10000 2.06 100 02:58 07.11.2021
4903 Clear 9 1019 66 10000 1.54 80 02:22 07.11.2021
4904 Clear 13 1020 54 10000 6.69 50 22:56 06.11.2021
4905 Clear 14 1019 41 10000 6.17 40 21:59 06.11.2021
4906 Clear 16 1019 36 10000 5.14 20 21:22 06.11.2021
4907 Clear 17 1018 34 10000 4.12 30 20:29 06.11.2021
4908 Clear 21 1018 18 10000 4.12 40 17:32 06.11.2021
4909 Clear 21 1018 19 10000 3.6 30 16:35 06.11.2021
4910 Clear 19 1019 32 10000 3.09 20 13:45 06.11.2021
4911 Clear 18 1020 36 10000 3.09 50 12:58 06.11.2021
4912 Clear 15 1021 47 10000 5.14 70 11:24 06.11.2021
4913 Clear 9 1020 66 10000 4.12 100 09:20 06.11.2021
4914 Clear 10 1019 57 10000 2.57 70 04:52 06.11.2021
4915 Clear 13 1020 54 10000 3.09 50 00:43 06.11.2021
4916 Clear 14 1020 51 10000 6.69 50 23:31 05.11.2021
4917 Clear 15 1019 41 10000 4.12 60 22:33 05.11.2021
4918 Clear 15 1019 41 10000 4.12 60 22:33 05.11.2021
4919 Clear 17 1018 36 10000 4.63 40 20:41 05.11.2021
4920 Clear 18 1018 32 10000 4.12 40 20:18 05.11.2021
4921 Clouds 19 1017 30 10000 4.63 30 18:56 05.11.2021
4922 Clouds 20 1017 30 10000 4.63 30 18:37 05.11.2021
4923 Clouds 21 1017 28 10000 3.09 60 16:49 05.11.2021
4924 Clouds 20 1018 40 10000 3.09 0 14:33 05.11.2021
4925 Clouds 18 1020 45 10000 4.12 360 12:50 05.11.2021
4926 Clouds 14 1020 62 8000 3.09 30 09:51 05.11.2021
4927 Clouds 13 1018 67 8000 2.57 60 08:38 05.11.2021
4928 Clouds 13 1018 67 8000 3.09 100 06:40 05.11.2021
4929 Clouds 13 1018 71 8000 4.63 40 03:38 05.11.2021
4930 Clear 14 1018 67 8000 2.57 40 02:21 05.11.2021
4931 Clouds 15 1018 63 8000 4.63 50 00:30 05.11.2021
4932 Clouds 16 1017 63 8000 4.63 50 22:37 04.11.2021
4933 Clouds 16 1017 63 8000 4.63 50 22:18 04.11.2021
4934 Clouds 17 1017 59 8000 6.69 30 21:28 04.11.2021
4935 Clouds 18 1016 55 8000 4.63 30 20:29 04.11.2021
4936 Clouds 19 1016 52 8000 3.6 30 19:49 04.11.2021
4937 Clouds 19 1016 52 8000 4.12 30 19:28 04.11.2021
4938 Clouds 20 1015 49 8000 3.6 20 18:29 04.11.2021
4939 Clouds 21 1015 46 8000 3.6 40 17:27 04.11.2021
4940 Clouds 21 1015 46 8000 2.57 40 16:23 04.11.2021
4941 Clouds 20 1016 56 8000 3.09 70 13:50 04.11.2021
4942 Clouds 18 1016 59 8000 4.12 30 10:48 04.11.2021
4943 Clouds 17 1015 63 7000 3.09 50 08:41 04.11.2021
4944 Clouds 16 1015 77 6000 2.57 40 07:49 04.11.2021
4945 Clouds 16 1015 77 6000 3.09 40 07:31 04.11.2021
4946 Clouds 19 1016 72 8000 2.57 50 23:23 03.11.2021
4947 Clouds 19 1016 77 8000 3.6 50 22:29 03.11.2021
4948 Clouds 19 1016 77 8000 4.12 30 21:37 03.11.2021
4949 Clouds 21 1015 64 8000 3.09 40 20:44 03.11.2021
4950 Clouds 21 1015 64 8000 3.09 40 20:26 03.11.2021
4951 Clouds 21 1015 60 8000 1.54 360 19:37 03.11.2021
4952 Clouds 22 1015 60 8000 3.6 330 18:27 03.11.2021
4953 Clouds 22 1015 60 8000 3.6 330 18:27 03.11.2021
4954 Clouds 23 1015 60 8000 4.12 340 17:48 03.11.2021
4955 Clouds 23 1015 60 8000 3.6 340 16:49 03.11.2021
4956 Clouds 24 1015 50 8000 2.57 340 15:49 03.11.2021
4957 Clouds 24 1015 46 8000 3.09 360 15:30 03.11.2021
4958 Clouds 26 1016 53 8000 1.54 0 13:42 03.11.2021
4959 Clouds 21 1018 73 6000 1.03 0 11:37 03.11.2021
4960 Clouds 19 1018 77 6000 2.06 0 10:50 03.11.2021
4961 Clouds 18 1018 77 6000 3.09 180 09:47 03.11.2021
4962 Clouds 18 1018 77 6000 3.09 180 08:53 03.11.2021
4963 Clouds 17 1017 82 6000 3.09 160 07:55 03.11.2021
4964 Clouds 17 1017 82 6000 1.54 160 07:32 03.11.2021
4965 Clouds 17 1016 82 8000 2.57 220 04:23 03.11.2021
4966 Clouds 19 1018 72 8000 1.03 0 00:58 03.11.2021
4967 Clouds 20 1019 73 8000 1.54 110 23:24 02.11.2021
4968 Clouds 21 1018 68 8000 4.63 360 21:59 02.11.2021
4969 Clouds 24 1017 53 8000 3.09 330 20:43 02.11.2021
4970 Clouds 25 1017 47 8000 1.54 310 19:58 02.11.2021
4971 Clouds 26 1017 44 8000 2.06 270 19:27 02.11.2021
4972 Clouds 28 1016 39 8000 1.54 360 18:35 02.11.2021
4973 Clouds 28 1016 42 8000 2.06 330 17:46 02.11.2021
4974 Clouds 28 1016 42 8000 2.06 20 17:21 02.11.2021
4975 Clouds 28 1016 44 8000 2.06 0 15:58 02.11.2021
4976 Clouds 27 1017 50 8000 1.54 0 14:57 02.11.2021
4977 Clouds 24 1019 60 8000 2.57 360 13:30 02.11.2021
4978 Clouds 23 1019 68 8000 2.57 350 12:52 02.11.2021
4979 Clouds 20 1020 83 5000 1.03 0 11:40 02.11.2021
4980 Clouds 18 1020 88 5000 1.54 100 10:59 02.11.2021
4981 Clouds 18 1020 88 5000 2.06 100 10:32 02.11.2021
4982 Clouds 18 1020 88 5000 1.54 80 09:45 02.11.2021
4983 Clouds 17 1019 88 6000 1.03 0 07:46 02.11.2021
4984 Clear 16 1019 82 8000 1.54 270 05:55 02.11.2021
4985 Clear 17 1019 72 8000 1.03 0 03:24 02.11.2021
4986 Clear 21 1020 73 8000 2.57 70 23:58 01.11.2021
4987 Clear 23 1020 38 10000 2.06 20 21:49 01.11.2021
4988 Clear 23 1020 31 10000 1.54 60 20:44 01.11.2021
4989 Clear 24 1020 29 10000 1.54 40 20:18 01.11.2021
4990 Clear 26 1019 25 10000 2.06 40 19:41 01.11.2021
4991 Clear 25 1019 27 10000 1.54 30 19:41 01.11.2021
4992 Clear 29 1019 21 10000 2.57 360 18:34 01.11.2021
4993 Clear 29 1019 21 10000 2.57 360 17:49 01.11.2021
4994 Clear 29 1019 21 10000 3.09 20 16:57 01.11.2021
4995 Clear 29 1017 20 10000 4.54 11 16:23 01.11.2021
4996 Clear 30 1019 23 10000 2.06 0 15:29 01.11.2021
4997 Clear 30 1020 25 10000 2.06 0 14:47 01.11.2021
4998 Clear 29 1020 26 10000 2.06 40 14:26 01.11.2021
4999 Clear 27 1020 29 10000 3.09 60 13:50 01.11.2021
5000 Clear 24 1022 43 10000 2.06 30 12:38 01.11.2021
5001 Clear 23 1022 49 10000 1.54 50 11:34 01.11.2021
5002 Clear 18 1022 59 8000 2.57 80 10:20 01.11.2021
5003 Clear 14 1022 67 8000 2.06 60 08:18 01.11.2021
5004 Clear 14 1022 67 8000 2.06 60 07:46 01.11.2021
5005 Clear 17 1023 72 8000 2.57 230 03:51 01.11.2021
5006 Clouds 17 1023 67 8000 2.57 250 01:44 01.11.2021
5007 Clear 21 1023 52 8000 4.12 230 22:48 31.10.2021
5008 Clear 24 1022 31 10000 1.03 0 20:50 31.10.2021
5009 Clear 26 1021 27 10000 2.57 270 19:22 31.10.2021
5010 Clear 28 1021 24 10000 3.09 270 18:41 31.10.2021
5011 Clear 30 1021 21 10000 2.57 300 17:54 31.10.2021
5012 Clear 31 1021 22 10000 2.57 300 16:25 31.10.2021
5013 Clear 31 1021 22 10000 2.06 330 14:39 31.10.2021
5014 Clear 29 1023 24 10000 1.54 20 12:54 31.10.2021
5015 Clear 25 1023 33 10000 1.03 0 11:42 31.10.2021
5016 Clear 23 1024 38 10000 1.03 0 10:47 31.10.2021
5017 Clear 17 1023 48 10000 2.06 100 09:22 31.10.2021
5018 Clear 15 1023 55 10000 2.57 120 08:41 31.10.2021
5019 Clear 19 1023 45 10000 0.51 0 02:19 31.10.2021
5020 Clear 22 1022 37 10000 2.06 220 23:41 30.10.2021
5021 Clear 23 1021 31 10000 2.06 290 21:36 30.10.2021
5022 Clear 25 1021 27 10000 2.06 290 20:52 30.10.2021
5023 Clear 28 1020 28 10000 4.12 270 19:19 30.10.2021
5024 Clear 29 1019 24 10000 3.09 330 17:27 30.10.2021
5025 Clear 28 1019 28 10000 3.6 310 15:26 30.10.2021
5026 Clear 25 1020 41 10000 1.54 330 13:40 30.10.2021
5027 Clear 25 1020 41 10000 1.54 330 13:21 30.10.2021
5028 Clear 24 1021 43 10000 1.54 290 12:57 30.10.2021
5029 Clear 21 1021 49 8000 0.51 0 11:46 30.10.2021
5030 Clear 19 1020 59 8000 0.51 0 10:32 30.10.2021
5031 Clouds 14 1019 72 10000 2.06 110 08:53 30.10.2021
5032 Clouds 14 1019 72 8000 2.06 90 07:42 30.10.2021
5033 Clouds 16 1018 72 8000 1.54 80 05:44 30.10.2021
5034 Clear 17 1020 72 10000 1.54 270 01:37 30.10.2021
5035 Clear 20 1019 56 10000 2.06 260 22:54 29.10.2021
5036 Clear 21 1019 52 10000 2.57 260 22:32 29.10.2021
5037 Clear 23 1018 43 10000 2.06 250 20:47 29.10.2021
5038 Clouds 24 1016 35 10000 4.16 295 20:26 29.10.2021
5039 Clear 27 1016 34 10000 3.09 300 18:38 29.10.2021
5040 Clear 28 1016 36 10000 2.57 260 17:24 29.10.2021
5041 Clouds 26 1017 44 8000 1.54 0 15:21 29.10.2021
5042 Clouds 21 1020 78 8000 1.54 20 12:26 29.10.2021
5043 Clouds 17 1019 94 6000 0.51 0 10:46 29.10.2021
5044 Fog 14 1018 94 200 1.54 250 08:47 29.10.2021
5045 Clouds 19 1018 59 10000 1.03 0 00:37 29.10.2021
5046 Clouds 20 1017 56 10000 1.03 0 23:41 28.10.2021
5047 Clouds 22 1017 53 10000 2.57 10 22:19 28.10.2021
5048 Clouds 24 1016 41 10000 1.54 280 20:54 28.10.2021
5049 Clouds 26 1015 36 10000 2.06 310 19:52 28.10.2021
5050 Clouds 27 1014 34 10000 2.06 330 18:30 28.10.2021
5051 Clouds 28 1014 34 10000 2.57 320 17:19 28.10.2021
5052 Clouds 28 1015 34 10000 1.54 0 16:20 28.10.2021
5053 Clouds 25 1016 47 8000 1.54 0 14:39 28.10.2021
5054 Clear 23 1017 56 8000 2.06 290 13:29 28.10.2021
5055 Clear 23 1017 56 8000 1.03 0 12:44 28.10.2021
5056 Clouds 19 1017 77 8000 1.03 0 11:19 28.10.2021
5057 Clouds 14 1016 82 8000 0 0 09:40 28.10.2021
5058 Clouds 14 1016 82 8000 0 0 09:22 28.10.2021
5059 Clouds 14 1015 82 8000 2.06 110 08:35 28.10.2021
5060 Clouds 14 1015 82 8000 0 0 07:40 28.10.2021
5061 Clouds 20 1016 60 8000 1.54 30 00:40 28.10.2021
5062 Clouds 20 1016 56 8000 1.54 270 22:45 27.10.2021
5063 Clouds 22 1015 49 8000 1.54 260 21:35 27.10.2021
5064 Clouds 23 1015 49 8000 2.06 260 20:58 27.10.2021
5065 Clouds 24 1015 46 8000 2.06 290 20:39 27.10.2021
5066 Clouds 24 1015 46 8000 2.57 280 19:44 27.10.2021
5067 Clouds 26 1014 41 8000 1.54 0 18:55 27.10.2021
5068 Clouds 25 1015 44 8000 2.06 320 16:49 27.10.2021
5069 Clouds 25 1015 47 6000 2.06 340 16:24 27.10.2021
5070 Clouds 24 1016 50 6000 2.06 0 15:24 27.10.2021
5071 Clouds 21 1017 64 6000 1.54 0 13:42 27.10.2021
5072 Clouds 18 1018 82 6000 0.51 0 11:18 27.10.2021
5073 Clouds 16 1017 82 6000 1.54 260 10:36 27.10.2021
5074 Clouds 14 1017 88 6000 2.06 250 08:58 27.10.2021
5075 Clear 15 1016 88 10000 2.57 220 07:39 27.10.2021
5076 Clear 14 1016 82 10000 1.54 240 05:37 27.10.2021
5077 Clear 17 1017 77 10000 2.57 50 01:21 27.10.2021
5078 Clear 18 1017 68 10000 3.09 40 00:39 27.10.2021
5079 Clear 19 1017 63 10000 2.06 30 23:52 26.10.2021
5080 Clear 20 1017 56 10000 3.6 360 22:43 26.10.2021
5081 Clouds 21 1017 49 10000 4.12 360 22:21 26.10.2021
5082 Clouds 23 1016 43 10000 2.57 350 21:32 26.10.2021
5083 Clouds 24 1016 41 10000 2.57 320 19:34 26.10.2021
5084 Clouds 25 1016 38 8000 2.57 320 18:54 26.10.2021
5085 Clouds 25 1016 44 8000 2.06 330 17:45 26.10.2021
5086 Clouds 24 1016 53 8000 2.06 0 15:46 26.10.2021
5087 Clouds 18 1019 77 6000 1.54 320 12:33 26.10.2021
5088 Clouds 17 1019 82 6000 2.57 280 10:48 26.10.2021
5089 Clouds 16 1018 94 6000 2.06 240 08:24 26.10.2021
5090 Clouds 15 1017 94 6000 1.03 0 07:21 26.10.2021
5091 Clouds 19 1018 68 10000 3.09 270 00:19 26.10.2021
5092 Clouds 21 1017 60 10000 3.09 40 23:28 25.10.2021
5093 Clouds 23 1017 49 10000 4.12 30 22:28 25.10.2021
5094 Clouds 24 1016 43 10000 4.12 30 21:42 25.10.2021
5095 Clouds 26 1016 29 8000 3.09 30 20:28 25.10.2021
5096 Clouds 27 1016 26 8000 2.57 340 19:43 25.10.2021
5097 Clouds 28 1015 24 8000 3.09 10 19:22 25.10.2021
5098 Clouds 28 1016 28 8000 2.06 330 18:35 25.10.2021
5099 Clouds 28 1016 30 8000 1.54 0 17:26 25.10.2021
5100 Clouds 25 1017 33 8000 2.57 300 14:48 25.10.2021
5101 Clouds 24 1018 38 8000 1.54 0 12:31 25.10.2021
5102 Clear 21 1018 43 10000 2.06 120 10:46 25.10.2021
5103 Clear 17 1018 55 10000 1.03 0 08:58 25.10.2021
5104 Clear 17 1017 51 10000 1.03 0 06:28 25.10.2021
5105 Clear 17 1017 51 10000 1.03 0 06:28 25.10.2021
5106 Clear 17 1017 51 10000 1.03 0 06:28 25.10.2021
5107 Clear 18 1018 48 10000 3.09 240 04:35 25.10.2021
5108 Clear 22 1018 33 10000 2.06 80 00:51 25.10.2021
5109 Clear 22 1018 35 10000 2.57 90 00:33 25.10.2021
5110 Clear 23 1018 33 10000 1.54 80 23:33 24.10.2021
5111 Clear 24 1018 31 10000 1.03 0 22:38 24.10.2021
5112 Clear 24 1018 31 10000 1.03 0 22:19 24.10.2021
5113 Clear 25 1018 31 10000 1.03 0 20:57 24.10.2021
5114 Clear 26 1018 29 10000 1.03 0 20:32 24.10.2021
5115 Clouds 27 1018 28 10000 1.03 0 19:36 24.10.2021
5116 Clouds 28 1018 26 10000 2.57 350 18:29 24.10.2021
5117 Clouds 28 1018 28 10000 3.09 330 17:44 24.10.2021
5118 Clouds 28 1018 30 10000 1.54 0 15:56 24.10.2021
5119 Clouds 27 1019 32 10000 2.06 60 14:41 24.10.2021
5120 Clouds 23 1020 40 10000 1.54 320 12:58 24.10.2021
5121 Clouds 21 1020 46 10000 1.03 0 11:45 24.10.2021
5122 Clear 19 1019 48 10000 1.03 0 11:25 24.10.2021
5123 Clear 16 1019 59 10000 2.06 250 10:27 24.10.2021
5124 Clear 13 1017 67 10000 0.51 0 07:47 24.10.2021
5125 Clear 18 1018 39 10000 2.57 80 01:21 24.10.2021
5126 Clear 20 1018 34 10000 2.06 110 23:48 23.10.2021
5127 Clear 22 1017 33 10000 2.06 50 22:18 23.10.2021
5128 Clear 25 1016 33 10000 2.06 50 20:37 23.10.2021
5129 Clear 27 1016 32 10000 2.06 0 18:59 23.10.2021
5130 Clear 27 1015 34 10000 2.57 360 18:29 23.10.2021
5131 Clear 27 1015 36 10000 2.06 0 17:43 23.10.2021
5132 Clear 27 1015 39 10000 1.54 0 16:24 23.10.2021
5133 Clear 23 1017 53 10000 2.57 20 14:32 23.10.2021
5134 Clouds 16 1018 72 10000 3.09 70 03:34 23.10.2021
5135 Clouds 18 1018 63 10000 4.12 20 00:19 23.10.2021
5136 Clouds 19 1018 59 10000 5.14 30 22:53 22.10.2021
5137 Clouds 23 1017 53 10000 2.06 130 20:37 22.10.2021
5138 Clear 25 1017 50 10000 1.03 0 18:45 22.10.2021
5139 Clouds 24 1017 53 10000 2.57 20 17:43 22.10.2021
5140 Clouds 22 1018 60 8000 1.03 0 15:26 22.10.2021
5141 Clouds 21 1019 68 8000 1.54 0 13:52 22.10.2021
5142 Clouds 19 1019 77 8000 2.57 30 11:26 22.10.2021
5143 Clouds 19 1019 77 8000 2.57 20 10:41 22.10.2021
5144 Clouds 19 1018 77 8000 2.57 40 09:56 22.10.2021
5145 Clouds 19 1018 77 8000 2.06 90 08:36 22.10.2021
5146 Clouds 19 1018 77 8000 3.09 70 07:23 22.10.2021
5147 Clear 19 1019 77 10000 2.06 40 02:57 22.10.2021
5148 Clear 21 1020 68 10000 2.57 40 23:57 21.10.2021
5149 Clear 22 1020 64 10000 3.6 360 23:38 21.10.2021
5150 Clear 24 1019 57 10000 4.12 350 22:21 21.10.2021
5151 Clear 27 1018 36 10000 3.6 340 20:42 21.10.2021
5152 Clear 27 1018 36 10000 3.6 340 20:19 21.10.2021
5153 Clear 29 1019 32 10000 2.06 0 19:29 21.10.2021
5154 Clear 30 1018 32 10000 2.57 340 18:46 21.10.2021
5155 Clear 30 1019 32 10000 1.54 0 18:18 21.10.2021
5156 Clear 30 1019 35 10000 3.09 350 17:37 21.10.2021
5157 Clear 29 1019 34 10000 3.09 310 15:54 21.10.2021
5158 Clear 27 1020 39 10000 4.12 320 15:20 21.10.2021
5159 Clouds 26 1021 47 8000 2.57 320 14:38 21.10.2021
5160 Clouds 24 1021 57 8000 2.06 0 13:20 21.10.2021
5161 Clouds 20 1022 73 8000 1.54 290 11:27 21.10.2021
5162 Clear 16 1021 72 10000 1.54 270 08:55 21.10.2021
5163 Clear 16 1020 67 10000 2.06 250 07:29 21.10.2021
5164 Clear 19 1021 59 10000 1.54 280 03:31 21.10.2021
5165 Clear 23 1022 56 10000 3.6 220 23:31 20.10.2021
5166 Clear 26 1021 38 10000 3.09 280 22:18 20.10.2021
5167 Clear 28 1021 34 10000 3.6 300 21:38 20.10.2021
5168 Clear 29 1021 30 10000 3.6 300 20:54 20.10.2021
5169 Clear 30 1020 26 10000 3.6 300 20:33 20.10.2021
5170 Clouds 28 1019 20 10000 6.71 302 19:57 20.10.2021
5171 Clear 33 1019 21 10000 4.63 300 18:54 20.10.2021
5172 Clear 34 1020 21 10000 4.12 280 17:50 20.10.2021
5173 Clear 33 1020 24 10000 2.57 300 15:39 20.10.2021
5174 Clear 26 1021 31 10000 0.51 0 11:42 20.10.2021
5175 Clear 17 1019 55 10000 1.03 0 08:54 20.10.2021
5176 Clear 20 1019 52 10000 1.03 0 04:50 20.10.2021
5177 Clear 24 1020 43 10000 1.54 230 00:47 20.10.2021
5178 Clear 26 1020 41 10000 2.06 220 00:18 20.10.2021
5179 Clear 29 1019 28 10000 1.54 330 21:44 19.10.2021
5180 Clear 31 1018 22 10000 2.57 330 20:54 19.10.2021
5181 Clear 32 1018 20 10000 2.57 310 20:25 19.10.2021
5182 Clear 33 1017 18 10000 3.09 280 19:41 19.10.2021
5183 Clear 34 1017 17 10000 3.6 240 19:19 19.10.2021
5184 Clear 35 1017 15 10000 3.09 360 17:59 19.10.2021
5185 Clear 34 1018 16 10000 2.57 360 15:48 19.10.2021
5186 Clear 34 1018 17 10000 1.54 0 15:20 19.10.2021
5187 Clear 33 1019 24 10000 2.06 330 14:27 19.10.2021
5188 Clear 30 1019 26 10000 2.06 310 13:35 19.10.2021
5189 Clear 26 1019 27 10000 1.03 0 11:37 19.10.2021
5190 Clear 21 1019 40 10000 1.03 0 10:36 19.10.2021
5191 Clear 17 1018 45 10000 1.54 70 08:58 19.10.2021
5192 Clear 20 1018 37 10000 2.06 180 07:20 19.10.2021
5193 Clear 25 1019 36 10000 2.06 200 00:26 19.10.2021
5194 Clear 24 1019 35 10000 2.06 230 23:50 18.10.2021
5195 Clear 24 1018 33 10000 2.06 270 23:20 18.10.2021
5196 Clear 27 1018 21 10000 1.54 240 22:53 18.10.2021
5197 Clear 28 1017 18 10000 1.03 0 21:44 18.10.2021
5198 Clear 31 1017 18 10000 1.54 360 20:42 18.10.2021
5199 Clear 30 1015 14 10000 3.22 21 20:19 18.10.2021
5200 Clear 34 1016 15 10000 2.57 330 19:30 18.10.2021
5201 Clear 34 1016 16 10000 2.57 330 18:58 18.10.2021
5202 Clear 34 1017 18 10000 2.57 360 15:56 18.10.2021
5203 Clear 32 1018 22 10000 2.06 0 14:28 18.10.2021
5204 Clear 26 1019 31 10000 0.51 0 11:20 18.10.2021
5205 Clear 17 1018 48 10000 1.03 0 09:37 18.10.2021
5206 Clear 18 1018 45 10000 0 0 05:32 18.10.2021
5207 Clear 25 1019 33 10000 1.03 0 23:45 17.10.2021
5208 Clear 28 1017 24 10000 1.54 70 21:58 17.10.2021
5209 Clear 28 1017 24 10000 1.54 70 21:40 17.10.2021
5210 Clear 31 1016 20 10000 1.03 0 20:42 17.10.2021
5211 Clear 31 1016 22 10000 2.06 330 19:44 17.10.2021
5212 Clear 32 1016 20 10000 2.06 330 19:25 17.10.2021
5213 Clouds 32 1014 13 10000 3.28 335 18:28 17.10.2021
5214 Clear 32 1016 22 10000 2.57 340 15:56 17.10.2021
5215 Clouds 30 1018 26 8000 1.54 0 14:35 17.10.2021
5216 Clear 29 1018 28 8000 1.54 0 13:56 17.10.2021
5217 Clear 28 1018 32 8000 0.51 0 12:38 17.10.2021
5218 Clouds 21 1018 49 8000 1.03 0 10:59 17.10.2021
5219 Clouds 18 1018 55 8000 1.03 0 09:56 17.10.2021
5220 Clear 17 1017 55 8000 0.51 0 07:42 17.10.2021
5221 Clouds 21 1018 43 8000 0.51 0 01:44 17.10.2021
5222 Clouds 25 1018 36 8000 2.06 110 00:29 17.10.2021
5223 Clear 28 1018 23 8000 1.54 30 22:40 16.10.2021
5224 Clear 30 1017 23 8000 2.57 240 20:36 16.10.2021
5225 Clouds 31 1017 20 8000 3.09 260 19:58 16.10.2021
5226 Clouds 32 1016 18 8000 2.57 280 19:39 16.10.2021
5227 Clouds 32 1016 18 8000 2.57 280 19:18 16.10.2021
5228 Clouds 33 1016 17 8000 2.57 300 18:43 16.10.2021
5229 Clouds 33 1016 19 8000 2.57 310 18:20 16.10.2021
5230 Clouds 33 1016 19 8000 2.57 0 17:29 16.10.2021
5231 Clouds 32 1017 22 8000 2.06 0 15:39 16.10.2021
5232 Clear 28 1018 34 8000 2.06 40 12:45 16.10.2021
5233 Clear 22 1018 46 8000 1.03 0 10:57 16.10.2021
5234 Clouds 17 1018 59 8000 2.06 80 08:56 16.10.2021
5235 Clear 23 1019 43 8000 1.03 0 01:37 16.10.2021
5236 Clear 25 1019 41 8000 1.03 0 00:29 16.10.2021
5237 Clear 25 1019 38 8000 2.06 60 23:25 15.10.2021
5238 Clear 27 1018 32 8000 1.54 350 22:20 15.10.2021
5239 Clear 28 1018 30 8000 1.54 330 21:40 15.10.2021
5240 Clear 29 1017 28 8000 2.06 330 20:52 15.10.2021
5241 Clear 30 1017 28 8000 3.09 330 20:22 15.10.2021
5242 Clear 32 1016 22 8000 3.6 310 19:19 15.10.2021
5243 Clear 33 1016 21 8000 4.12 320 18:21 15.10.2021
5244 Clear 32 1017 33 8000 2.57 0 15:46 15.10.2021
5245 Clear 30 1018 42 8000 2.06 340 13:49 15.10.2021
5246 Clear 25 1018 57 8000 1.54 60 11:52 15.10.2021
5247 Clear 22 1018 64 8000 2.06 100 10:58 15.10.2021
5248 Clear 21 1018 68 8000 1.54 100 10:22 15.10.2021
5249 Clouds 18 1017 82 8000 1.03 0 07:33 15.10.2021
5250 Clouds 19 1017 77 8000 2.06 250 04:26 15.10.2021
5251 Clouds 24 1018 57 8000 1.03 0 00:22 15.10.2021
5252 Clouds 26 1017 47 8000 1.54 360 22:54 14.10.2021
5253 Clouds 26 1017 47 8000 1.54 280 22:18 14.10.2021
5254 Clear 28 1016 44 8000 3.09 220 21:37 14.10.2021
5255 Clouds 29 1015 45 8000 2.57 250 20:20 14.10.2021
5256 Clouds 29 1015 45 8000 2.57 250 19:43 14.10.2021
5257 Clouds 31 1015 40 8000 1.54 310 18:26 14.10.2021
5258 Clouds 30 1015 42 8000 2.57 0 16:58 14.10.2021
5259 Clouds 30 1015 42 8000 1.54 0 16:31 14.10.2021
5260 Clouds 27 1016 50 8000 2.06 340 14:44 14.10.2021
5261 Clouds 27 1016 54 8000 1.54 0 14:26 14.10.2021
5262 Clouds 22 1017 68 8000 1.54 0 12:35 14.10.2021
5263 Clouds 20 1017 77 8000 1.54 280 11:26 14.10.2021
5264 Clouds 18 1015 78 10000 0.91 281 08:26 14.10.2021
5265 Clouds 19 1015 71 10000 1.33 321 05:52 14.10.2021
5266 Clouds 21 1016 63 10000 0.12 329 00:36 14.10.2021
5267 Clouds 24 1015 53 8000 4.63 20 22:39 13.10.2021
5268 Clouds 25 1015 50 8000 3.6 10 21:36 13.10.2021
5269 Clouds 26 1015 47 8000 3.6 20 20:43 13.10.2021
5270 Clouds 28 1014 42 8000 4.12 50 19:20 13.10.2021
5271 Clouds 28 1014 42 8000 2.57 340 18:37 13.10.2021
5272 Clouds 28 1014 44 8000 1.03 0 16:35 13.10.2021
5273 Clouds 25 1016 53 8000 2.57 0 14:46 13.10.2021
5274 Clouds 24 1016 57 8000 1.54 360 14:23 13.10.2021
5275 Clouds 21 1017 68 8000 1.03 0 12:24 13.10.2021
5276 Clouds 19 1018 77 8000 1.03 0 11:36 13.10.2021
5277 Clear 15 1017 88 8000 2.06 250 09:37 13.10.2021
5278 Clear 15 1016 88 8000 1.54 260 07:50 13.10.2021
5279 Clear 17 1016 82 8000 3.6 240 02:58 13.10.2021
5280 Clear 18 1016 77 8000 3.09 240 02:19 13.10.2021
5281 Clear 22 1016 64 8000 3.6 350 23:33 12.10.2021
5282 Clear 23 1016 60 8000 2.06 360 22:50 12.10.2021
5283 Clear 23 1016 60 8000 2.06 360 22:50 12.10.2021
5284 Clear 23 1016 60 8000 2.57 330 22:23 12.10.2021
5285 Clear 24 1015 57 8000 2.57 270 20:50 12.10.2021
5286 Clear 25 1015 53 8000 3.6 260 20:24 12.10.2021
5287 Clear 26 1015 50 8000 4.12 260 19:31 12.10.2021
5288 Clear 28 1014 44 8000 1.54 300 18:24 12.10.2021
5289 Clouds 27 1014 47 8000 2.06 290 17:19 12.10.2021
5290 Clouds 26 1014 53 8000 2.06 320 16:20 12.10.2021
5291 Clouds 24 1015 60 6000 2.06 290 15:29 12.10.2021
5292 Clouds 20 1016 77 6000 2.06 250 13:45 12.10.2021
5293 Clouds 18 1017 88 6000 2.06 260 12:44 12.10.2021
5294 Clouds 17 1017 94 5000 2.06 270 10:45 12.10.2021
5295 Mist 16 1016 94 2000 2.06 250 09:22 12.10.2021
5296 Mist 16 1016 94 4000 1.54 260 08:19 12.10.2021
5297 Clear 16 1016 94 7000 1.54 240 06:43 12.10.2021
5298 Clear 17 1016 82 10000 2.06 250 04:35 12.10.2021
5299 Clear 19 1016 77 10000 2.57 240 01:31 12.10.2021
5300 Clouds 21 1016 64 10000 3.6 240 23:42 11.10.2021
5301 Clouds 22 1016 60 10000 3.6 240 23:19 11.10.2021
5302 Clouds 23 1015 56 10000 4.12 260 22:31 11.10.2021
5303 Clouds 26 1014 53 10000 3.6 310 21:20 11.10.2021
5304 Clouds 30 1012 39 10000 7.72 270 19:46 11.10.2021
5305 Clouds 31 1012 37 10000 6.69 270 19:22 11.10.2021
5306 Clouds 33 1011 31 10000 6.17 290 18:20 11.10.2021
5307 Clouds 32 1011 37 10000 3.6 300 16:40 11.10.2021
5308 Clouds 31 1011 37 10000 3.6 300 16:19 11.10.2021
5309 Clouds 31 1012 37 8000 3.6 300 15:40 11.10.2021
5310 Clouds 30 1012 42 8000 2.57 310 14:53 11.10.2021
5311 Clouds 28 1013 47 8000 1.54 0 13:51 11.10.2021
5312 Clouds 27 1013 50 8000 1.03 0 13:32 11.10.2021
5313 Clouds 21 1013 68 8000 1.54 250 10:49 11.10.2021
5314 Clouds 20 1012 73 10000 0.51 0 09:45 11.10.2021
5315 Clear 20 1012 73 10000 1.54 0 07:56 11.10.2021
5316 Clear 22 1013 64 10000 2.06 260 01:43 11.10.2021
5317 Clear 23 1014 60 10000 2.06 260 00:55 11.10.2021
5318 Clear 23 1014 60 10000 2.57 250 00:33 11.10.2021
5319 Clear 28 1013 39 10000 2.57 10 22:25 10.10.2021
5320 Clear 30 1012 35 10000 2.57 360 21:36 10.10.2021
5321 Clear 30 1012 35 10000 2.57 350 20:56 10.10.2021
5322 Clear 32 1011 29 10000 3.09 340 20:36 10.10.2021
5323 Clear 33 1011 27 10000 3.09 320 20:18 10.10.2021
5324 Clear 34 1011 26 10000 2.57 290 19:40 10.10.2021
5325 Clear 34 1011 26 10000 2.06 310 18:41 10.10.2021
5326 Clear 34 1011 26 10000 3.09 320 17:50 10.10.2021
5327 Clear 33 1012 33 10000 1.54 0 15:47 10.10.2021
5328 Clear 30 1012 37 10000 2.06 360 14:45 10.10.2021
5329 Clear 27 1014 47 10000 2.06 340 13:39 10.10.2021
5330 Clear 27 1014 47 10000 1.03 0 12:43 10.10.2021
5331 Clear 23 1014 60 10000 0.51 0 11:29 10.10.2021
5332 Clear 23 1014 60 10000 0.51 0 11:29 10.10.2021
5333 Clear 19 1014 72 10000 1.54 260 10:25 10.10.2021
5334 Clear 17 1013 67 10000 2.57 240 08:54 10.10.2021
5335 Clear 17 1013 72 10000 1.54 250 07:57 10.10.2021
5336 Clear 21 1014 60 10000 1.54 80 03:47 10.10.2021
5337 Clear 23 1015 56 10000 2.57 80 01:43 10.10.2021
5338 Clear 23 1015 56 10000 1.54 50 00:41 10.10.2021
5339 Clear 23 1015 56 10000 1.54 50 00:41 10.10.2021
5340 Clear 25 1015 53 10000 3.6 30 23:23 09.10.2021
5341 Clear 28 1014 24 10000 2.06 40 21:53 09.10.2021
5342 Clear 29 1014 24 10000 2.06 30 21:29 09.10.2021
5343 Clear 31 1014 25 10000 2.57 10 19:52 09.10.2021
5344 Clear 32 1014 25 10000 1.03 0 19:34 09.10.2021
5345 Clear 33 1014 24 10000 2.57 0 18:40 09.10.2021
5346 Clear 32 1014 27 10000 3.09 10 17:51 09.10.2021
5347 Clear 32 1014 33 10000 1.54 90 16:19 09.10.2021
5348 Clouds 27 1016 50 8000 2.06 320 13:48 09.10.2021
5349 Clouds 26 1017 53 6000 2.06 0 13:25 09.10.2021
5350 Clouds 23 1017 68 6000 0.51 0 12:23 09.10.2021
5351 Clouds 19 1017 88 3000 1.03 0 10:43 09.10.2021
5352 Clouds 17 1016 88 3000 1.54 250 10:18 09.10.2021
5353 Clouds 16 1015 77 8000 2.06 270 08:33 09.10.2021
5354 Clouds 16 1015 82 8000 1.54 290 07:54 09.10.2021
5355 Clear 18 1015 82 8000 1.03 0 06:22 09.10.2021
5356 Clear 18 1016 77 8000 1.54 240 04:31 09.10.2021
5357 Clear 20 1016 68 10000 2.57 240 02:44 09.10.2021
5358 Clear 23 1017 64 10000 1.54 30 00:23 09.10.2021
5359 Clear 24 1017 57 10000 3.09 40 23:31 08.10.2021
5360 Clear 25 1016 53 10000 3.09 10 22:42 08.10.2021
5361 Clear 27 1016 36 10000 2.06 10 21:44 08.10.2021
5362 Clear 30 1015 35 10000 4.12 260 19:47 08.10.2021
5363 Clear 31 1015 35 10000 3.09 330 18:19 08.10.2021
5364 Clear 31 1015 35 10000 2.57 320 16:54 08.10.2021
5365 Clear 31 1015 37 10000 1.54 0 16:24 08.10.2021
5366 Clear 26 1017 53 10000 2.57 310 14:20 08.10.2021
5367 Clear 26 1018 53 10000 2.57 300 13:45 08.10.2021
5368 Clear 20 1018 77 8000 2.06 290 11:41 08.10.2021
5369 Clouds 18 1018 82 8000 2.57 260 10:42 08.10.2021
5370 Clouds 16 1017 88 6000 1.03 0 09:46 08.10.2021
5371 Clear 18 1017 68 10000 1.54 250 03:37 08.10.2021
5372 Clear 23 1017 43 10000 4.12 230 23:24 07.10.2021
5373 Clear 27 1017 34 8000 3.6 290 21:48 07.10.2021
5374 Clouds 29 1016 28 8000 3.09 310 21:28 07.10.2021
5375 Clear 29 1016 28 8000 3.09 310 21:28 07.10.2021
5376 Clear 31 1016 25 8000 3.09 330 20:29 07.10.2021
5377 Clear 33 1016 21 10000 5.14 270 19:32 07.10.2021
5378 Clear 34 1016 17 10000 3.6 290 18:40 07.10.2021
5379 Clear 35 1016 18 10000 4.12 290 17:27 07.10.2021
5380 Clear 34 1016 22 10000 2.57 0 15:58 07.10.2021
5381 Clear 33 1017 24 10000 2.57 0 14:48 07.10.2021
5382 Clear 31 1018 25 10000 2.57 330 13:43 07.10.2021
5383 Clear 28 1018 32 10000 1.54 360 12:49 07.10.2021
5384 Clouds 24 1018 43 10000 1.54 60 10:57 07.10.2021
5385 Clouds 22 1018 49 10000 1.03 0 10:22 07.10.2021
5386 Clouds 18 1018 63 10000 1.54 90 09:34 07.10.2021
5387 Clear 18 1018 59 10000 3.09 100 08:53 07.10.2021
5388 Clear 19 1018 55 10000 1.03 0 07:57 07.10.2021
5389 Clear 18 1017 55 10000 0.51 0 07:37 07.10.2021
5390 Clear 21 1018 49 10000 1.54 180 06:36 07.10.2021
5391 Clear 24 1018 43 10000 4.12 250 00:29 07.10.2021
5392 Clear 27 1018 36 10000 3.09 230 22:59 06.10.2021
5393 Clear 27 1018 34 10000 3.09 250 22:24 06.10.2021
5394 Clear 32 1017 22 10000 2.57 310 20:51 06.10.2021
5395 Clear 33 1017 21 10000 3.6 290 20:26 06.10.2021
5396 Clear 36 1016 15 10000 5.66 280 18:43 06.10.2021
5397 Clear 36 1016 15 10000 4.63 300 17:19 06.10.2021
5398 Clear 35 1016 20 10000 3.09 340 15:34 06.10.2021
5399 Clear 33 1017 22 10000 1.03 0 14:34 06.10.2021
5400 Clear 30 1018 28 10000 1.54 0 13:24 06.10.2021
5401 Clear 27 1019 34 10000 1.03 0 12:45 06.10.2021
5402 Clear 27 1019 34 10000 1.03 0 12:23 06.10.2021
5403 Clear 21 1018 46 10000 0.51 0 10:37 06.10.2021
5404 Clear 18 1018 55 10000 1.03 0 09:39 06.10.2021
5405 Clear 17 1017 59 10000 1.54 130 08:57 06.10.2021
5406 Clear 17 1017 55 10000 0.51 0 07:54 06.10.2021
5407 Clear 20 1017 49 10000 0.51 0 05:37 06.10.2021
5408 Clear 23 1018 43 10000 1.54 80 01:37 06.10.2021
5409 Clear 25 1019 38 10000 2.06 60 00:20 06.10.2021
5410 Clear 25 1019 38 10000 2.06 60 23:50 05.10.2021
5411 Clear 26 1019 36 10000 1.54 50 23:29 05.10.2021
5412 Clear 27 1018 34 10000 2.57 10 22:30 05.10.2021
5413 Clear 28 1018 30 10000 2.06 300 21:51 05.10.2021
5414 Clear 29 1017 28 10000 1.03 0 20:51 05.10.2021
5415 Clear 30 1017 26 10000 1.03 0 20:25 05.10.2021
5416 Clear 32 1017 23 10000 1.03 0 19:50 05.10.2021
5417 Clear 32 1017 23 10000 1.54 290 19:21 05.10.2021
5418 Clear 32 1017 25 10000 2.57 0 17:40 05.10.2021
5419 Clear 30 1018 23 10000 2.57 300 15:27 05.10.2021
5420 Clear 27 1018 34 10000 2.06 10 13:44 05.10.2021
5421 Clear 25 1019 38 10000 2.06 70 12:57 05.10.2021
5422 Clear 23 1019 40 10000 3.09 90 12:33 05.10.2021
5423 Clear 20 1019 49 10000 1.54 50 11:22 05.10.2021
5424 Clear 17 1019 63 8000 0.51 0 10:21 05.10.2021
5425 Clear 18 1017 55 8000 2.06 80 05:56 05.10.2021
5426 Clouds 22 1019 49 8000 2.57 40 00:58 05.10.2021
5427 Clear 24 1018 43 10000 5.14 30 22:51 04.10.2021
5428 Clear 27 1016 41 10000 2.57 20 20:51 04.10.2021
5429 Clear 30 1016 32 10000 2.57 40 18:47 04.10.2021
5430 Clear 29 1017 37 10000 3.6 40 16:55 04.10.2021
5431 Clear 27 1018 41 10000 2.06 0 15:32 04.10.2021
5432 Clear 26 1018 47 10000 3.6 0 14:44 04.10.2021
5433 Clear 26 1019 47 10000 3.09 30 13:58 04.10.2021
5434 Clear 24 1019 53 10000 2.06 0 13:31 04.10.2021
5435 Clear 23 1020 56 10000 2.06 0 12:31 04.10.2021
5436 Clear 21 1020 64 10000 2.06 60 11:32 04.10.2021
5437 Clear 19 1019 72 10000 2.06 40 10:41 04.10.2021
5438 Clear 17 1018 77 10000 1.54 50 09:33 04.10.2021
5439 Clear 17 1018 77 10000 1.03 0 07:52 04.10.2021
5440 Clear 19 1019 68 10000 2.57 110 03:44 04.10.2021
5441 Clear 22 1020 60 10000 3.6 30 22:48 03.10.2021
5442 Clear 23 1019 56 10000 4.63 0 21:52 03.10.2021
5443 Clouds 24 1019 53 10000 4.12 10 21:29 03.10.2021
5444 Clouds 27 1017 36 10000 4.12 360 20:43 03.10.2021
5445 Clouds 29 1016 30 10000 1.54 330 19:33 03.10.2021
5446 Clouds 29 1016 32 10000 1.03 0 18:28 03.10.2021
5447 Clear 29 1017 34 10000 1.03 0 17:31 03.10.2021
5448 Clear 26 1019 47 10000 2.06 0 14:49 03.10.2021
5449 Clear 26 1019 50 10000 2.57 320 14:28 03.10.2021
5450 Clear 24 1019 53 10000 1.54 0 13:35 03.10.2021
5451 Clear 23 1019 60 10000 1.54 320 12:43 03.10.2021
5452 Clouds 17 1019 88 8000 2.06 280 10:57 03.10.2021
5453 Clouds 16 1018 94 6000 1.54 0 09:42 03.10.2021
5454 Clear 18 1017 63 10000 3.09 260 05:25 03.10.2021
5455 Clear 28 1017 36 10000 2.06 20 22:49 02.10.2021
5456 Clear 31 1016 22 10000 2.06 350 21:35 02.10.2021
5457 Clear 34 1015 17 10000 2.57 350 20:18 02.10.2021
5458 Clear 36 1015 14 10000 4.12 350 18:56 02.10.2021
5459 Clear 37 1015 12 10000 3.09 320 18:18 02.10.2021
5460 Clear 38 1015 13 10000 3.09 310 17:36 02.10.2021
5461 Clear 37 1016 14 10000 2.57 310 16:22 02.10.2021
5462 Clouds 21 1018 46 8000 1.03 0 06:39 02.10.2021
5463 Clouds 40 1018 13 8000 3.09 350 15:37 30.09.2021
5464 Clear 37 1020 22 8000 2.06 0 13:53 30.09.2021
5465 Clear 31 1021 33 8000 1.54 40 11:42 30.09.2021
5466 Clear 27 1020 41 8000 1.54 80 10:46 30.09.2021
5467 Clear 22 1020 53 8000 1.54 90 09:44 30.09.2021
5468 Clouds 21 1019 56 8000 1.54 110 08:30 30.09.2021
5469 Clouds 21 1019 56 8000 2.06 130 07:34 30.09.2021
5470 Clouds 22 1019 60 8000 2.06 90 05:18 30.09.2021
5471 Clouds 25 1020 53 10000 1.54 110 01:20 30.09.2021
5472 Clouds 26 1020 53 10000 1.54 20 00:23 30.09.2021
5473 Clouds 29 1019 45 10000 2.06 20 22:37 29.09.2021
5474 Clouds 32 1018 29 10000 0.51 0 21:24 29.09.2021
5475 Clouds 33 1018 29 10000 1.03 0 20:27 29.09.2021
5476 Clouds 34 1018 27 10000 1.54 360 19:51 29.09.2021
5477 Clouds 35 1017 28 10000 1.03 0 18:45 29.09.2021
5478 Clouds 35 1017 31 10000 2.06 250 17:38 29.09.2021
5479 Clouds 34 1018 31 10000 2.06 260 16:47 29.09.2021
5480 Clouds 31 1018 40 10000 2.57 0 15:58 29.09.2021
5481 Clear 29 1019 42 10000 3.09 60 14:39 29.09.2021
5482 Clear 28 1019 44 10000 2.57 0 13:42 29.09.2021
5483 Clear 26 1020 50 10000 2.06 60 12:58 29.09.2021
5484 Clear 23 1021 60 10000 1.54 0 11:55 29.09.2021
5485 Clear 21 1021 68 10000 1.54 90 10:47 29.09.2021
5486 Clear 20 1020 68 10000 1.03 0 09:50 29.09.2021
5487 Clear 16 1020 77 10000 1.03 0 09:18 29.09.2021
5488 Clear 18 1020 77 10000 0.51 0 07:31 29.09.2021
5489 Clear 20 1020 64 10000 1.03 0 03:58 29.09.2021
5490 Clear 24 1021 46 10000 4.12 20 23:26 28.09.2021
5491 Clouds 27 1020 34 10000 2.06 40 22:23 28.09.2021
5492 Clouds 28 1020 34 10000 2.57 10 21:37 28.09.2021
5493 Clouds 29 1020 34 10000 1.03 0 20:36 28.09.2021
5494 Clear 30 1018 21 10000 5.12 8 19:43 28.09.2021
5495 Clouds 30 1019 37 10000 2.06 0 18:46 28.09.2021
5496 Clouds 29 1020 45 10000 4.09 350 17:54 28.09.2021
5497 Clouds 26 1021 53 10000 1.03 0 15:56 28.09.2021
5498 Clouds 22 1023 68 10000 2.06 230 13:44 28.09.2021
5499 Clouds 20 1023 83 8000 1.03 0 12:48 28.09.2021
5500 Clouds 18 1023 88 8000 1.54 150 12:19 28.09.2021
5501 Clouds 18 1023 88 8000 1.54 150 11:45 28.09.2021
5502 Clouds 18 1023 88 8000 1.03 0 10:57 28.09.2021
5503 Clouds 17 1022 94 8000 1.03 0 09:53 28.09.2021
5504 Clouds 17 1022 88 8000 1.54 270 08:58 28.09.2021
5505 Clouds 16 1021 94 8000 1.54 250 08:38 28.09.2021
5506 Clouds 16 1021 94 8000 3.09 240 07:31 28.09.2021
5507 Clear 17 1021 88 10000 3.6 240 05:28 28.09.2021
5508 Clear 23 1021 60 10000 4.12 240 01:23 28.09.2021
5509 Clear 24 1021 57 10000 4.63 240 00:25 28.09.2021
5510 Clear 25 1021 53 10000 4.12 240 23:41 27.09.2021
5511 Clear 26 1021 47 10000 3.09 250 22:55 27.09.2021
5512 Clear 29 1020 32 10000 2.06 250 21:54 27.09.2021
5513 Clear 31 1020 30 10000 2.57 240 20:44 27.09.2021
5514 Clouds 34 1020 24 10000 5.66 260 19:55 27.09.2021
5515 Clouds 35 1019 21 10000 4.63 280 19:28 27.09.2021
5516 Clouds 35 1019 21 10000 4.63 290 18:50 27.09.2021
5517 Clouds 35 1020 21 10000 4.63 270 17:29 27.09.2021
5518 Clouds 35 1020 21 10000 4.63 270 16:50 27.09.2021
5519 Clear 34 1020 26 10000 3.6 300 15:45 27.09.2021
5520 Clear 33 1021 27 10000 3.09 310 15:18 27.09.2021
5521 Clear 29 1021 42 10000 2.06 340 13:32 27.09.2021
5522 Clear 26 1021 47 10000 1.54 300 11:49 27.09.2021
5523 Clear 24 1021 53 10000 0.51 0 10:37 27.09.2021
5524 Clear 18 1021 72 10000 1.03 0 08:59 27.09.2021
5525 Clear 20 1021 64 10000 1.54 250 05:22 27.09.2021
5526 Clear 21 1021 56 10000 2.06 260 03:21 27.09.2021
5527 Clear 28 1019 24 10000 1.03 0 22:38 26.09.2021
5528 Clear 29 1019 24 10000 1.54 250 21:53 26.09.2021
5529 Clear 30 1019 23 10000 3.09 250 21:25 26.09.2021
5530 Clear 34 1018 17 10000 1.54 290 20:23 26.09.2021
5531 Clear 35 1018 17 10000 1.03 0 19:52 26.09.2021
5532 Clear 36 1018 17 10000 1.54 0 18:47 26.09.2021
5533 Clear 36 1018 16 10000 1.03 0 17:57 26.09.2021
5534 Clear 35 1019 14 10000 2.57 0 17:24 26.09.2021
5535 Clear 35 1019 17 10000 2.06 20 16:58 26.09.2021
5536 Clear 35 1019 18 10000 1.54 0 16:21 26.09.2021
5537 Clear 34 1019 20 10000 2.06 10 15:22 26.09.2021
5538 Clear 31 1020 35 10000 2.06 0 13:57 26.09.2021
5539 Clear 29 1021 37 10000 2.57 30 13:29 26.09.2021
5540 Clear 27 1021 47 10000 1.54 70 12:25 26.09.2021
5541 Clear 25 1021 50 10000 2.06 80 11:51 26.09.2021
5542 Clear 21 1021 60 10000 2.57 90 10:38 26.09.2021
5543 Clear 17 1020 72 10000 2.06 80 09:21 26.09.2021
5544 Clear 19 1020 68 10000 2.06 160 07:57 26.09.2021
5545 Clear 24 1020 53 10000 2.57 30 00:28 26.09.2021
5546 Clear 26 1019 41 10000 4.12 10 23:40 25.09.2021
5547 Clear 28 1019 34 10000 2.57 20 22:38 25.09.2021
5548 Clear 28 1019 34 10000 2.57 20 22:18 25.09.2021
5549 Clear 29 1018 34 10000 2.06 330 21:33 25.09.2021
5550 Clear 29 1018 34 10000 2.06 330 21:33 25.09.2021
5551 Clear 29 1018 34 10000 2.57 320 20:51 25.09.2021
5552 Clear 31 1017 33 10000 2.57 340 19:32 25.09.2021
5553 Clear 31 1017 33 10000 3.09 310 18:26 25.09.2021
5554 Clear 31 1017 35 10000 2.06 350 17:18 25.09.2021
5555 Clear 27 1019 47 10000 2.06 0 14:25 25.09.2021
5556 Clear 25 1019 50 10000 2.06 0 13:54 25.09.2021
5557 Clear 23 1019 56 10000 2.57 10 12:29 25.09.2021
5558 Clear 21 1019 64 10000 0.51 0 10:36 25.09.2021
5559 Clear 18 1019 72 10000 2.06 170 09:56 25.09.2021
5560 Clear 17 1019 77 10000 2.57 220 08:45 25.09.2021
5561 Clear 17 1018 77 10000 2.06 230 07:27 25.09.2021
5562 Clouds 21 1018 56 10000 3.09 310 00:50 25.09.2021
5563 Clouds 21 1018 56 10000 3.09 310 00:50 25.09.2021
5564 Clouds 26 1017 44 10000 3.09 290 21:57 24.09.2021
5565 Clouds 26 1017 44 10000 3.09 310 21:25 24.09.2021
5566 Clouds 27 1016 44 10000 2.06 300 20:19 24.09.2021
5567 Clouds 27 1016 47 10000 5.14 280 18:36 24.09.2021
5568 Clouds 28 1016 47 10000 4.12 290 17:56 24.09.2021
5569 Clouds 27 1015 47 10000 4.12 310 17:37 24.09.2021
5570 Clouds 28 1015 47 10000 5.66 290 17:19 24.09.2021
5571 Clouds 28 1015 44 10000 4.63 300 15:38 24.09.2021
5572 Clouds 26 1016 50 10000 1.54 110 13:20 24.09.2021
5573 Clouds 25 1016 57 10000 1.54 0 12:41 24.09.2021
5574 Clouds 24 1016 57 10000 2.06 190 12:23 24.09.2021
5575 Clouds 20 1016 77 8000 1.03 0 10:38 24.09.2021
5576 Clouds 19 1015 82 8000 2.57 240 08:59 24.09.2021
5577 Clouds 19 1015 82 8000 3.09 240 07:55 24.09.2021
5578 Clouds 19 1014 77 8000 3.09 240 06:51 24.09.2021
5579 Clouds 19 1014 77 8000 3.09 250 05:22 24.09.2021
5580 Clear 21 1015 68 10000 3.6 270 00:48 24.09.2021
5581 Clouds 25 1013 47 10000 2.06 260 22:36 23.09.2021
5582 Clouds 27 1013 44 10000 2.57 270 21:57 23.09.2021
5583 Clouds 28 1013 39 10000 3.6 270 20:37 23.09.2021
5584 Clouds 28 1013 39 10000 3.6 270 20:19 23.09.2021
5585 Clouds 30 1013 39 8000 1.03 0 18:27 23.09.2021
5586 Clouds 27 1013 50 8000 2.06 0 15:37 23.09.2021
5587 Clouds 27 1013 50 8000 2.06 0 15:18 23.09.2021
5588 Clouds 25 1014 57 8000 1.54 0 13:57 23.09.2021
5589 Clouds 26 1014 61 8000 0.51 0 13:23 23.09.2021
5590 Clouds 24 1014 60 8000 1.03 0 12:53 23.09.2021
5591 Clouds 22 1015 73 8000 2.57 300 12:23 23.09.2021
5592 Clouds 22 1014 68 8000 2.06 310 11:55 23.09.2021
5593 Clouds 21 1014 78 8000 1.54 0 10:28 23.09.2021
5594 Clouds 20 1013 83 10000 2.06 250 09:53 23.09.2021
5595 Clear 18 1013 88 10000 2.57 230 08:38 23.09.2021
5596 Clear 19 1013 82 10000 3.09 240 05:27 23.09.2021
5597 Clear 23 1014 60 10000 3.09 350 23:48 22.09.2021
5598 Clouds 26 1012 44 10000 5.14 340 22:44 22.09.2021
5599 Clouds 28 1012 32 10000 2.57 350 21:57 22.09.2021
5600 Clouds 28 1012 32 10000 3.09 340 21:34 22.09.2021
5601 Clouds 28 1012 34 10000 3.09 350 20:57 22.09.2021
5602 Clear 30 1012 30 10000 2.57 0 19:34 22.09.2021
5603 Clear 31 1012 33 10000 2.06 0 18:46 22.09.2021
5604 Clear 31 1012 33 10000 3.09 0 18:22 22.09.2021
5605 Clouds 30 1010 29 10000 3.79 313 16:41 22.09.2021
5606 Clouds 30 1011 32 10000 3.36 313 15:38 22.09.2021
5607 Clouds 27 1014 47 8000 2.06 340 14:25 22.09.2021
5608 Clouds 24 1015 69 7000 1.03 0 12:19 22.09.2021
5609 Clouds 21 1014 83 6000 1.03 0 10:57 22.09.2021
5610 Mist 17 1014 94 2000 2.06 250 09:29 22.09.2021
5611 Mist 18 1014 88 4000 2.06 250 08:31 22.09.2021
5612 Clear 18 1013 88 10000 1.54 260 07:25 22.09.2021
5613 Clear 18 1013 88 10000 2.57 240 06:19 22.09.2021
5614 Clear 18 1013 88 10000 3.6 230 05:38 22.09.2021
5615 Clear 19 1014 82 10000 2.57 250 03:52 22.09.2021
5616 Clear 21 1015 73 10000 3.6 240 02:43 22.09.2021
5617 Clouds 25 1015 57 10000 3.09 340 23:30 21.09.2021
5618 Clear 29 1013 34 10000 2.57 320 21:38 21.09.2021
5619 Clear 30 1011 24 10000 3.72 329 20:27 21.09.2021
5620 Clear 31 1012 30 10000 2.57 310 19:23 21.09.2021
5621 Clear 31 1011 23 10000 3.74 328 17:59 21.09.2021
5622 Clear 29 1013 39 10000 3.09 310 16:40 21.09.2021
5623 Clear 29 1014 42 10000 2.57 0 15:56 21.09.2021
5624 Clear 28 1015 44 10000 2.06 350 14:58 21.09.2021
5625 Clear 26 1015 53 8000 2.57 360 13:57 21.09.2021
5626 Clear 25 1016 61 8000 2.06 290 13:39 21.09.2021
5627 Clear 22 1016 73 8000 2.06 0 12:44 21.09.2021
5628 Mist 17 1015 94 2000 2.06 250 10:39 21.09.2021
5629 Clear 17 1015 88 8000 2.57 250 08:41 21.09.2021
5630 Clear 18 1015 82 10000 3.09 240 07:37 21.09.2021
5631 Clear 22 1018 56 10000 1.03 0 01:52 21.09.2021
5632 Clear 26 1017 44 10000 4.63 10 22:42 20.09.2021
5633 Clear 28 1016 39 10000 5.14 360 21:42 20.09.2021
5634 Clear 29 1016 32 10000 3.6 360 21:20 20.09.2021
5635 Clouds 32 1015 27 10000 2.06 20 19:46 20.09.2021
5636 Clouds 33 1016 29 10000 2.06 40 17:54 20.09.2021
5637 Clouds 32 1016 29 10000 1.54 0 16:57 20.09.2021
5638 Clouds 30 1017 35 10000 3.09 340 15:57 20.09.2021
5639 Clouds 30 1017 37 10000 2.06 0 15:33 20.09.2021
5640 Clouds 27 1018 47 10000 2.06 0 14:26 20.09.2021
5641 Clouds 24 1019 60 8000 1.54 0 12:44 20.09.2021
5642 Clouds 23 1019 68 8000 1.54 0 12:21 20.09.2021
5643 Clouds 22 1019 73 8000 1.54 270 12:21 20.09.2021
5644 Clouds 18 1019 88 6000 3.6 230 10:36 20.09.2021
5645 Clouds 17 1019 94 8000 3.09 260 09:48 20.09.2021
5646 Clouds 17 1019 94 8000 3.09 260 09:29 20.09.2021
5647 Clear 17 1018 88 8000 2.57 240 08:34 20.09.2021
5648 Clouds 22 1018 56 10000 2.06 80 02:29 20.09.2021
5649 Clouds 25 1018 50 10000 4.12 360 22:57 19.09.2021
5650 Clouds 27 1017 44 10000 2.57 10 21:48 19.09.2021
5651 Clouds 27 1017 44 10000 2.57 320 20:59 19.09.2021
5652 Clouds 28 1016 42 10000 3.6 340 19:54 19.09.2021
5653 Clouds 28 1016 44 10000 2.06 10 18:42 19.09.2021
5654 Clouds 28 1016 44 10000 2.57 340 17:33 19.09.2021
5655 Clouds 28 1016 47 10000 3.09 320 16:33 19.09.2021
5656 Clouds 27 1017 54 10000 3.09 0 15:31 19.09.2021
5657 Clouds 26 1017 53 10000 2.57 330 14:49 19.09.2021
5658 Clouds 26 1018 57 10000 2.06 0 13:52 19.09.2021
5659 Clouds 24 1018 64 10000 1.54 310 12:55 19.09.2021
5660 Clouds 23 1018 73 10000 1.54 230 11:46 19.09.2021
5661 Clouds 23 1018 73 10000 1.54 200 11:22 19.09.2021
5662 Clouds 19 1018 82 10000 2.06 250 09:51 19.09.2021
5663 Clear 18 1018 88 10000 2.57 240 09:23 19.09.2021
5664 Clear 19 1017 82 10000 2.57 240 06:48 19.09.2021
5665 Clear 19 1017 82 10000 2.57 240 06:48 19.09.2021
5666 Clear 24 1017 64 10000 3.09 40 00:48 19.09.2021
5667 Clear 26 1016 53 10000 5.14 20 22:58 18.09.2021
5668 Clouds 28 1015 44 10000 5.66 360 21:56 18.09.2021
5669 Clouds 31 1014 37 10000 4.12 350 20:46 18.09.2021
5670 Clouds 32 1014 35 10000 2.57 360 19:42 18.09.2021
5671 Clouds 33 1014 35 10000 1.03 0 19:22 18.09.2021
5672 Clouds 33 1014 35 10000 3.09 360 18:58 18.09.2021
5673 Clouds 33 1014 35 10000 2.06 60 18:29 18.09.2021
5674 Clear 31 1015 40 10000 3.6 330 16:35 18.09.2021
5675 Clear 27 1017 54 10000 2.06 0 13:53 18.09.2021
5676 Clear 27 1017 54 10000 1.54 0 13:31 18.09.2021
5677 Clear 26 1017 57 10000 1.54 0 12:52 18.09.2021
5678 Clear 24 1017 64 10000 1.03 0 11:59 18.09.2021
5679 Clear 24 1017 64 10000 1.54 160 11:29 18.09.2021
5680 Clear 20 1017 77 10000 1.54 250 10:23 18.09.2021
5681 Clear 18 1016 82 10000 2.06 240 09:23 18.09.2021
5682 Clear 18 1016 82 10000 2.57 240 08:24 18.09.2021
5683 Clear 23 1016 54 10000 3.37 36 00:52 18.09.2021
5684 Clear 23 1016 52 10000 4.6 34 23:55 17.09.2021
5685 Clear 24 1015 48 10000 7.32 17 22:45 17.09.2021
5686 Clouds 27 1015 47 10000 4.63 360 22:22 17.09.2021
5687 Clouds 28 1014 44 10000 6.17 360 21:31 17.09.2021
5688 Clouds 32 1014 35 10000 2.57 40 19:30 17.09.2021
5689 Clouds 32 1014 37 10000 2.57 110 18:30 17.09.2021
5690 Clouds 31 1015 40 10000 2.57 0 16:34 17.09.2021
5691 Clear 28 1016 51 8000 2.57 340 14:34 17.09.2021
5692 Clear 24 1017 64 8000 1.03 0 11:43 17.09.2021
5693 Clear 19 1017 77 8000 1.54 250 09:57 17.09.2021
5694 Clear 19 1016 77 10000 0.51 0 07:42 17.09.2021
5695 Clear 20 1016 73 10000 1.03 0 05:27 17.09.2021
5696 Clouds 23 1018 60 10000 4.12 70 00:29 17.09.2021
5697 Clouds 24 1018 57 10000 6.17 30 22:41 16.09.2021
5698 Clouds 25 1017 53 10000 6.69 20 22:23 16.09.2021
5699 Clouds 27 1016 47 10000 7.2 350 21:31 16.09.2021
5700 Clouds 29 1015 37 10000 2.57 360 20:29 16.09.2021
5701 Clouds 31 1015 35 10000 3.09 0 18:38 16.09.2021
5702 Clouds 31 1015 35 10000 3.09 0 18:18 16.09.2021
5703 Clouds 29 1016 42 10000 3.09 70 15:33 16.09.2021
5704 Clouds 28 1017 44 10000 3.6 40 14:43 16.09.2021
5705 Clouds 26 1018 53 10000 2.06 350 13:23 16.09.2021
5706 Clouds 25 1018 57 8000 1.54 0 12:40 16.09.2021
5707 Clouds 24 1018 64 8000 2.06 30 11:46 16.09.2021
5708 Clouds 22 1018 68 8000 2.06 20 10:51 16.09.2021
5709 Clouds 21 1018 73 8000 2.06 30 10:21 16.09.2021
5710 Clouds 21 1017 73 8000 1.03 0 09:18 16.09.2021
5711 Clouds 20 1017 77 8000 2.06 30 07:47 16.09.2021
5712 Clouds 20 1016 77 8000 2.57 10 06:56 16.09.2021
5713 Clouds 21 1016 73 8000 2.57 30 06:37 16.09.2021
5714 Clouds 22 1018 68 8000 2.57 30 03:22 16.09.2021
5715 Clouds 22 1018 64 10000 4.12 30 00:46 16.09.2021
5716 Clouds 24 1017 57 10000 4.63 360 22:59 15.09.2021
5717 Clouds 25 1017 53 10000 4.12 350 22:20 15.09.2021
5718 Clouds 26 1016 50 10000 5.14 340 21:30 15.09.2021
5719 Clouds 28 1015 42 10000 4.12 360 20:26 15.09.2021
5720 Clouds 29 1016 34 10000 3.09 340 19:31 15.09.2021
5721 Clouds 30 1015 32 10000 3.09 300 18:37 15.09.2021
5722 Clouds 30 1016 35 10000 2.57 0 17:33 15.09.2021
5723 Clouds 29 1016 39 10000 3.6 250 16:28 15.09.2021
5724 Clouds 28 1017 44 10000 1.54 0 14:53 15.09.2021
5725 Clouds 27 1017 47 10000 1.54 0 14:33 15.09.2021
5726 Clouds 26 1018 50 10000 2.06 20 13:42 15.09.2021
5727 Clouds 26 1018 53 10000 1.54 310 13:23 15.09.2021
5728 Clouds 25 1018 61 10000 1.03 0 12:23 15.09.2021
5729 Clouds 25 1018 61 10000 1.03 0 11:49 15.09.2021
5730 Clouds 22 1017 68 10000 1.54 30 10:57 15.09.2021
5731 Clouds 22 1017 68 10000 0.51 0 09:44 15.09.2021
5732 Clouds 19 1017 77 10000 1.03 0 08:41 15.09.2021
5733 Clouds 19 1016 77 10000 1.54 270 06:28 15.09.2021
5734 Clouds 22 1017 64 10000 4.63 300 00:37 15.09.2021
5735 Clouds 24 1015 57 8000 4.63 280 21:59 14.09.2021
5736 Clouds 25 1015 57 8000 6.17 290 20:56 14.09.2021
5737 Clouds 27 1014 47 8000 6.17 280 19:54 14.09.2021
5738 Clouds 29 1013 48 8000 5.66 310 18:40 14.09.2021
5739 Clouds 29 1013 48 8000 3.09 320 17:29 14.09.2021
5740 Clouds 28 1013 51 10000 3.09 0 15:58 14.09.2021
5741 Clouds 27 1014 50 10000 3.09 320 14:32 14.09.2021
5742 Clouds 26 1014 53 8000 2.06 0 13:26 14.09.2021
5743 Clouds 22 1014 73 8000 3.09 290 10:57 14.09.2021
5744 Clouds 21 1014 83 8000 3.09 230 09:51 14.09.2021
5745 Clouds 21 1014 83 8000 2.57 240 09:18 14.09.2021
5746 Clouds 21 1012 78 8000 4.63 280 07:28 14.09.2021
5747 Clouds 23 1015 68 8000 1.54 280 00:56 14.09.2021
5748 Clouds 26 1015 53 8000 4.12 280 22:58 13.09.2021
5749 Clouds 26 1015 53 8000 3.09 280 22:27 13.09.2021
5750 Clouds 27 1014 50 8000 3.6 300 21:54 13.09.2021
5751 Clouds 27 1014 50 8000 4.63 290 21:19 13.09.2021
5752 Clouds 27 1014 50 8000 3.09 300 21:19 13.09.2021
5753 Clouds 28 1012 42 8000 5.66 280 19:34 13.09.2021
5754 Clouds 28 1012 42 8000 5.66 290 18:43 13.09.2021
5755 Clouds 31 1012 33 8000 4.63 300 17:18 13.09.2021
5756 Clouds 31 1012 35 8000 6.17 290 15:50 13.09.2021
5757 Clouds 31 1013 33 10000 2.06 320 14:19 13.09.2021
5758 Clouds 30 1013 32 6000 2.57 280 11:21 13.09.2021
5759 Sand 31 1012 29 3000 6.69 190 09:54 13.09.2021
5760 Clouds 29 1012 34 8000 4.63 120 07:31 13.09.2021
5761 Clouds 25 1017 44 8000 3.09 270 23:50 12.09.2021
5762 Clouds 29 1015 37 8000 1.03 0 22:26 12.09.2021
5763 Clouds 30 1015 35 6000 1.54 100 21:51 12.09.2021
5764 Clouds 30 1015 35 6000 2.57 270 20:41 12.09.2021
5765 Clouds 31 1014 33 6000 2.06 0 19:54 12.09.2021
5766 Clouds 32 1014 31 4000 3.09 320 19:28 12.09.2021
5767 Clouds 32 1014 29 3000 4.12 310 18:32 12.09.2021
5768 Clouds 36 1013 20 3000 4.12 300 16:42 12.09.2021
5769 Clouds 40 1013 17 10000 2.57 280 15:29 12.09.2021
5770 Clouds 38 1013 22 10000 1.03 0 13:55 12.09.2021
5771 Clear 34 1014 31 10000 2.57 90 11:47 12.09.2021
5772 Clear 28 1015 39 10000 2.57 110 10:18 12.09.2021
5773 Clear 23 1015 56 10000 1.54 130 08:38 12.09.2021
5774 Clear 25 1016 53 10000 1.54 280 02:56 12.09.2021
5775 Clear 27 1017 47 10000 2.57 250 00:44 12.09.2021
5776 Clouds 32 1016 37 10000 2.57 300 22:25 11.09.2021
5777 Clouds 34 1016 29 10000 6.17 270 21:37 11.09.2021
5778 Clouds 39 1015 16 10000 4.12 290 19:33 11.09.2021
5779 Clouds 40 1015 16 10000 3.09 320 17:53 11.09.2021
5780 Clouds 39 1015 19 10000 2.57 0 16:24 11.09.2021
5781 Clear 37 1017 20 10000 1.54 0 14:27 11.09.2021
5782 Clear 35 1018 26 10000 1.03 0 13:20 11.09.2021
5783 Clear 28 1018 44 10000 1.03 0 11:34 11.09.2021
5784 Clear 23 1017 49 10000 1.03 0 09:41 11.09.2021
5785 Clear 22 1017 60 10000 1.54 100 07:53 11.09.2021
5786 Clear 22 1017 60 10000 1.03 0 07:34 11.09.2021
5787 Clear 27 1019 54 10000 1.03 0 01:20 11.09.2021
5788 Clear 30 1017 42 10000 2.57 10 22:26 10.09.2021
5789 Clear 33 1017 22 10000 2.06 350 21:55 10.09.2021
5790 Clear 36 1016 20 10000 2.06 320 20:31 10.09.2021
5791 Clear 37 1016 22 10000 1.54 340 18:34 10.09.2021
5792 Clear 37 1016 20 10000 2.06 0 17:27 10.09.2021
5793 Clear 34 1017 29 10000 3.09 40 15:36 10.09.2021
5794 Clear 29 1019 42 10000 2.57 80 13:18 10.09.2021
5795 Clear 23 1018 64 10000 1.03 120 09:51 10.09.2021
5796 Clear 19 1018 72 10000 2.06 60 07:51 10.09.2021
5797 Clear 23 1019 60 10000 1.54 100 04:21 10.09.2021
5798 Clear 30 1017 35 10000 3.09 360 22:33 09.09.2021
5799 Clear 32 1017 29 10000 2.57 340 21:46 09.09.2021
5800 Clouds 33 1017 25 10000 2.06 330 20:47 09.09.2021
5801 Clouds 34 1017 24 10000 2.57 350 20:22 09.09.2021
5802 Clouds 36 1017 23 10000 1.54 0 18:35 09.09.2021
5803 Clouds 35 1018 28 10000 2.57 0 16:41 09.09.2021
5804 Clouds 34 1018 33 10000 2.06 10 16:21 09.09.2021
5805 Clear 29 1019 45 10000 2.06 0 13:22 09.09.2021
5806 Clear 28 1019 51 10000 1.03 0 11:49 09.09.2021
5807 Clear 22 1019 73 10000 2.06 250 10:31 09.09.2021
5808 Clear 21 1019 73 10000 3.09 240 08:55 09.09.2021
5809 Clear 22 1018 64 10000 2.06 250 06:39 09.09.2021
5810 Clear 25 1019 53 10000 2.06 270 02:57 09.09.2021
5811 Clouds 30 1019 42 10000 3.09 360 22:53 08.09.2021
5812 Clouds 33 1018 33 10000 3.09 340 21:36 08.09.2021
5813 Clouds 36 1017 30 10000 4.12 320 20:19 08.09.2021
5814 Clouds 37 1017 26 10000 4.63 290 19:23 08.09.2021
5815 -273 0 0 0 0 0 18:31 08.09.2021
5816 Clouds 38 1017 25 10000 4.12 280 18:30 08.09.2021
5817 Clouds 37 1017 30 8000 3.6 280 17:57 08.09.2021
5818 Clouds 36 1017 30 8000 3.6 300 16:38 08.09.2021
5819 Clouds 33 1018 40 10000 3.09 290 14:30 08.09.2021
5820 Clouds 33 1018 40 10000 3.09 290 14:30 08.09.2021
5821 Clouds 30 1019 48 10000 2.06 330 12:57 08.09.2021
5822 Clouds 29 1019 51 10000 1.03 0 12:28 08.09.2021
5823 Clouds 28 1018 54 10000 1.54 0 11:38 08.09.2021
5824 Clouds 27 1018 57 10000 1.54 80 10:43 08.09.2021
5825 Clouds 26 1018 61 10000 1.03 0 10:24 08.09.2021
5826 Clouds 23 1018 68 10000 1.54 80 09:21 08.09.2021
5827 Clouds 23 1018 73 10000 1.03 0 07:38 08.09.2021
5828 Clouds 23 1018 73 10000 2.06 240 05:35 08.09.2021
5829 Clouds 32 1017 43 10000 3.09 340 22:50 07.09.2021
5830 Clouds 34 1017 33 10000 3.6 350 22:18 07.09.2021
5831 Clouds 38 1016 27 10000 0.51 0 20:23 07.09.2021
5832 Clouds 38 1016 27 10000 4.63 250 18:45 07.09.2021
5833 Clouds 38 1016 27 10000 4.63 260 18:18 07.09.2021
5834 Clouds 38 1016 27 10000 4.63 260 18:18 07.09.2021
5835 Clouds 40 1016 20 10000 3.09 300 16:42 07.09.2021
5836 Clouds 38 1016 27 10000 2.06 320 15:40 07.09.2021
5837 Clouds 35 1017 34 10000 3.09 360 14:44 07.09.2021
5838 Clouds 32 1018 37 10000 2.57 150 12:44 07.09.2021
5839 Clouds 31 1017 42 10000 4.12 100 11:51 07.09.2021
5840 Clouds 26 1018 53 10000 2.57 300 10:41 07.09.2021
5841 Clouds 25 1016 53 10000 3.6 80 08:39 07.09.2021
5842 Clouds 24 1016 57 10000 2.57 0 07:44 07.09.2021
5843 Clear 24 1016 57 10000 0.51 0 05:41 07.09.2021
5844 Clouds 25 1018 53 10000 4.12 240 02:36 07.09.2021
5845 Clouds 27 1018 50 10000 2.57 260 00:46 07.09.2021
5846 Clouds 30 1018 39 8000 3.6 250 23:34 06.09.2021
5847 Clouds 31 1018 37 6000 4.63 260 22:53 06.09.2021
5848 Clouds 32 1017 35 6000 4.12 260 22:33 06.09.2021
5849 Clouds 36 1015 26 6000 5.14 280 20:56 06.09.2021
5850 Clouds 39 1014 22 8000 5.66 270 19:31 06.09.2021
5851 Clouds 41 1014 15 8000 6.69 270 18:50 06.09.2021
5852 Clouds 42 1014 13 10000 5.14 300 18:23 06.09.2021
5853 Clouds 42 1014 13 10000 4.63 300 17:36 06.09.2021
5854 Clouds 41 1014 15 10000 3.6 330 15:52 06.09.2021
5855 Clouds 37 1015 22 10000 1.54 360 13:48 06.09.2021
5856 Clouds 35 1015 26 10000 1.54 0 12:47 06.09.2021
5857 Clouds 29 1015 37 10000 1.54 270 10:48 06.09.2021
5858 Clouds 27 1014 39 10000 1.54 100 08:35 06.09.2021
5859 Clouds 27 1015 36 10000 2.57 70 04:48 06.09.2021
5860 Clouds 29 1017 30 10000 2.57 270 23:37 05.09.2021
5861 Clouds 29 1017 32 10000 2.57 260 22:50 05.09.2021
5862 Clouds 31 1015 29 8000 4.12 270 21:58 05.09.2021
5863 Clouds 32 1015 29 8000 5.66 270 21:31 05.09.2021
5864 Clouds 32 1015 29 8000 5.66 270 21:30 05.09.2021
5865 Clouds 35 1014 24 6000 6.69 280 20:21 05.09.2021
5866 Clouds 41 1012 16 6000 7.72 290 18:42 05.09.2021
5867 Clouds 41 1011 12 6000 7.72 280 17:31 05.09.2021
5868 Clouds 41 1011 12 6000 7.72 280 17:30 05.09.2021
5869 Clouds 43 1012 11 10000 3.09 10 15:28 05.09.2021
5870 Clouds 41 1013 12 10000 3.09 30 14:19 05.09.2021
5871 Clouds 34 1014 27 10000 4.12 70 12:29 05.09.2021
5872 Clouds 29 1014 32 10000 3.09 80 10:48 05.09.2021
5873 Clouds 27 1014 39 10000 3.6 90 10:23 05.09.2021
5874 Clouds 23 1014 49 10000 0.51 0 09:21 05.09.2021
5875 Clear 22 1014 49 10000 0.51 0 07:48 05.09.2021
5876 Clear 29 1015 39 10000 1.03 0 00:51 05.09.2021
5877 Clear 30 1015 35 10000 2.06 50 00:27 05.09.2021
5878 Clear 30 1015 35 10000 1.03 0 23:35 04.09.2021
5879 Clear 33 1014 27 10000 1.54 340 22:36 04.09.2021
5880 Clear 34 1013 26 10000 2.57 330 21:56 04.09.2021
5881 Clouds 37 1012 22 10000 4.63 280 19:41 04.09.2021
5882 Clear 37 1012 22 10000 4.63 0 18:43 04.09.2021
5883 Clear 37 1013 23 10000 2.57 0 16:22 04.09.2021
5884 Clear 33 1014 35 10000 1.03 0 13:18 04.09.2021
5885 Clear 28 1015 47 10000 1.03 0 11:19 04.09.2021
5886 Clear 20 1014 68 10000 2.06 260 08:58 04.09.2021
5887 Clear 22 1014 60 8000 0.51 0 05:50 04.09.2021
5888 Clear 27 1016 44 10000 2.57 50 00:25 04.09.2021
5889 Clear 28 1015 44 10000 3.6 30 23:31 03.09.2021
5890 Clear 31 1014 33 10000 4.63 360 21:59 03.09.2021
5891 Clear 32 1014 31 10000 3.6 350 21:34 03.09.2021
5892 Clear 33 1014 31 10000 3.6 350 20:42 03.09.2021
5893 Clear 35 1014 29 10000 2.57 350 19:49 03.09.2021
5894 Clear 36 1014 28 10000 2.57 0 18:55 03.09.2021
5895 Clear 35 1014 31 10000 1.54 0 17:42 03.09.2021
5896 Clear 34 1015 33 10000 2.06 0 16:25 03.09.2021
5897 Clear 32 1016 37 8000 2.57 0 14:47 03.09.2021
5898 Clear 27 1017 54 8000 1.54 0 11:57 03.09.2021
5899 Clear 24 1017 69 10000 1.98 47 10:26 03.09.2021
5900 Clear 21 1017 78 10000 2.06 330 08:44 03.09.2021
5901 Clear 22 1017 73 10000 1.84 39 07:39 03.09.2021
5902 Clear 25 1018 61 10000 2.25 28 00:44 03.09.2021
5903 Clouds 27 1017 54 10000 5.14 10 22:55 02.09.2021
5904 Clouds 31 1016 35 10000 3.09 320 21:25 02.09.2021
5905 Clouds 34 1016 29 10000 2.57 0 19:27 02.09.2021
5906 Clear 33 1016 33 8000 2.06 0 17:31 02.09.2021
5907 Clear 33 1016 33 8000 2.06 0 17:31 02.09.2021
5908 Clear 32 1017 35 10000 2.06 360 15:49 02.09.2021
5909 Clear 29 1018 45 8000 1.54 0 13:57 02.09.2021
5910 Clear 27 1018 54 8000 1.03 0 12:36 02.09.2021
5911 Clear 25 1018 61 8000 1.03 0 11:33 02.09.2021
5912 Clear 19 1017 82 8000 1.54 260 09:40 02.09.2021
5913 Clouds 19 1017 77 8000 2.06 240 07:47 02.09.2021
5914 Clouds 19 1017 77 8000 1.54 280 06:58 02.09.2021
5915 Clouds 22 1018 60 8000 3.6 230 02:51 02.09.2021
5916 Clouds 23 1018 60 8000 3.6 260 01:55 02.09.2021
5917 Clouds 24 1018 53 8000 3.09 270 01:19 02.09.2021
5918 Clouds 26 1018 50 8000 3.09 350 23:35 01.09.2021
5919 Clouds 28 1017 44 8000 6.17 350 22:34 01.09.2021
5920 Clouds 29 1016 42 8000 4.63 340 21:34 01.09.2021
5921 Clear 32 1015 29 8000 2.57 360 20:28 01.09.2021
5922 Clear 34 1015 27 8000 2.57 0 18:29 01.09.2021
5923 Clear 33 1015 27 8000 3.09 310 17:35 01.09.2021
5924 Clear 33 1015 27 8000 3.6 320 16:46 01.09.2021
5925 Clear 31 1016 35 8000 3.09 270 15:25 01.09.2021
5926 Clear 24 1017 64 8000 2.06 300 11:50 01.09.2021
5927 Clear 22 1017 73 8000 1.54 270 10:55 01.09.2021
5928 Clouds 18 1016 82 8000 2.06 250 08:46 01.09.2021
5929 Clear 19 1016 77 10000 2.57 280 07:50 01.09.2021
5930 Clear 24 1016 60 10000 2.06 100 00:50 01.09.2021
5931 Clouds 27 1015 47 10000 4.63 10 22:30 31.08.2021
5932 Clouds 31 1013 35 10000 3.09 360 20:57 31.08.2021
5933 Clear 33 1013 33 10000 3.09 340 19:44 31.08.2021
5934 Clear 34 1013 33 10000 2.06 0 18:23 31.08.2021
5935 Clear 33 1013 33 10000 3.09 360 17:34 31.08.2021
5936 Clear 32 1013 37 10000 2.06 0 16:52 31.08.2021
5937 Clear 31 1014 40 10000 2.57 340 16:23 31.08.2021
5938 Clear 26 1015 57 10000 1.03 0 12:56 31.08.2021
5939 Clear 23 1015 68 10000 1.54 250 11:26 31.08.2021
5940 Clear 23 1015 68 10000 1.54 260 10:49 31.08.2021
5941 Clear 20 1015 83 10000 1.54 230 09:43 31.08.2021
5942 Clear 18 1015 88 10000 2.57 240 08:36 31.08.2021
5943 Clear 20 1014 73 10000 2.06 240 05:58 31.08.2021
5944 Clear 25 1014 53 10000 2.57 20 00:23 31.08.2021
5945 Clear 26 1014 50 10000 4.63 30 23:25 30.08.2021
5946 Clear 29 1012 39 10000 5.14 360 21:43 30.08.2021
5947 Clear 33 1012 25 10000 3.09 340 20:42 30.08.2021
5948 Clear 34 1012 26 10000 2.57 330 19:58 30.08.2021
5949 Clouds 34 1012 27 10000 1.54 0 19:29 30.08.2021
5950 Clouds 34 1011 27 10000 2.57 0 18:23 30.08.2021
5951 Clear 33 1012 29 10000 2.06 40 16:49 30.08.2021
5952 Clear 32 1013 31 10000 3.09 330 15:50 30.08.2021
5953 Clear 29 1013 37 10000 2.06 0 14:37 30.08.2021
5954 Clear 28 1014 42 8000 2.06 320 13:22 30.08.2021
5955 Clear 25 1014 50 10000 1.54 0 11:48 30.08.2021
5956 Clear 20 1014 57 10000 1.66 15 08:23 30.08.2021
5957 Clouds 28 1015 42 10000 4.12 360 22:18 29.08.2021
5958 Clouds 31 1014 37 10000 3.09 10 21:25 29.08.2021
5959 Clouds 34 1014 29 10000 2.57 0 19:32 29.08.2021
5960 Clouds 35 1014 24 10000 3.6 330 18:30 29.08.2021
5961 Clear 33 1015 29 10000 2.06 0 16:25 29.08.2021
5962 Clear 33 1015 29 10000 2.06 0 16:25 29.08.2021
5963 Clear 30 1017 37 10000 2.06 0 14:34 29.08.2021
5964 Clear 30 1017 42 10000 1.03 0 13:55 29.08.2021
5965 Clear 28 1018 47 10000 1.54 0 12:58 29.08.2021
5966 Clear 26 1018 53 10000 1.03 0 12:18 29.08.2021
5967 Clear 26 1018 53 10000 1.54 220 12:18 29.08.2021
5968 Clear 25 1018 61 10000 1.03 0 11:40 29.08.2021
5969 Clear 24 1018 64 10000 1.03 0 10:48 29.08.2021
5970 Clear 22 1018 68 10000 1.54 290 10:29 29.08.2021
5971 Clear 19 1018 77 10000 2.06 260 09:32 29.08.2021
5972 Clear 23 1017 60 10000 1.03 0 04:21 29.08.2021
5973 Clear 29 1018 42 10000 5.14 40 22:57 28.08.2021
5974 Clouds 37 1016 18 8000 2.06 350 20:33 28.08.2021
5975 Clouds 38 1016 15 8000 3.09 330 19:29 28.08.2021
5976 Clouds 38 1015 16 8000 3.09 30 18:24 28.08.2021
5977 Clear 38 1016 16 8000 1.54 340 17:46 28.08.2021
5978 Clear 37 1016 23 8000 4.14 340 16:44 28.08.2021
5979 Clear 36 1017 24 8000 1.54 80 15:20 28.08.2021
5980 Clear 33 1018 31 10000 3.23 4 13:58 28.08.2021
5981 Clear 32 1019 35 10000 3.19 358 13:39 28.08.2021
5982 Clear 31 1019 40 10000 1.54 0 12:30 28.08.2021
5983 Clear 26 1019 53 10000 1.54 0 10:47 28.08.2021
5984 Clouds 23 1018 60 10000 0.51 0 09:34 28.08.2021
5985 Clear 21 1018 64 10000 1.54 250 07:34 28.08.2021
5986 Clouds 27 1019 47 8000 3.09 50 23:49 27.08.2021
5987 Clouds 32 1017 35 8000 4.63 340 21:29 27.08.2021
5988 Clouds 33 1016 35 8000 3.6 330 20:52 27.08.2021
5989 Clouds 35 1016 31 8000 2.06 290 19:33 27.08.2021
5990 Clouds 34 1016 33 8000 3.6 360 18:39 27.08.2021
5991 Clouds 34 1016 38 8000 3.09 270 17:54 27.08.2021
5992 Clouds 33 1016 40 8000 3.6 270 16:35 27.08.2021
5993 Clouds 30 1017 51 8000 2.06 280 14:44 27.08.2021
5994 Clouds 27 1017 57 8000 3.07 314 13:30 27.08.2021
5995 Clouds 24 1017 69 8000 2.57 280 11:58 27.08.2021
5996 Clouds 22 1016 78 8000 3.6 0 10:50 27.08.2021
5997 Clouds 21 1016 78 8000 3.6 0 10:23 27.08.2021
5998 Clouds 21 1016 78 8000 2.57 0 08:57 27.08.2021
5999 Clouds 21 1015 78 8000 2.57 220 08:35 27.08.2021
6000 Clouds 23 1015 68 8000 3.09 250 05:35 27.08.2021
6001 Clouds 28 1015 51 8000 3.09 220 00:41 27.08.2021
6002 Clouds 28 1015 51 6000 2.57 230 00:18 27.08.2021
6003 Clouds 33 1014 33 6000 3.6 30 22:25 26.08.2021
6004 Clouds 34 1013 31 8000 3.09 10 21:36 26.08.2021
6005 Clouds 36 1012 28 8000 2.57 0 19:30 26.08.2021
6006 Clouds 36 1013 30 8000 2.06 320 17:52 26.08.2021
6007 Clouds 35 1013 31 8000 1.54 0 17:25 26.08.2021
6008 Clouds 34 1013 36 8000 1.54 0 16:26 26.08.2021
6009 Clear 31 1014 45 8000 2.06 360 14:21 26.08.2021
6010 Clear 29 1014 48 8000 1.54 0 13:20 26.08.2021
6011 Clear 27 1015 54 8000 1.03 0 12:33 26.08.2021
6012 Clear 24 1014 64 8000 1.54 310 11:37 26.08.2021
6013 Clear 19 1013 82 8000 2.57 240 08:36 26.08.2021
6014 Clear 19 1013 82 8000 2.06 240 07:54 26.08.2021
6015 Clear 27 1013 50 8000 2.57 260 23:25 25.08.2021
6016 Clear 29 1012 45 8000 4.12 260 22:37 25.08.2021
6017 Clear 29 1012 45 8000 4.12 260 22:18 25.08.2021
6018 Clear 33 1011 31 8000 2.06 340 20:57 25.08.2021
6019 Clear 34 1011 29 8000 2.06 0 20:29 25.08.2021
6020 Clear 35 1011 31 8000 1.03 0 18:46 25.08.2021
6021 Clear 35 1011 34 8000 1.54 0 17:52 25.08.2021
6022 Clear 32 1013 40 8000 2.06 0 15:51 25.08.2021
6023 Clear 32 1013 43 8000 1.54 360 15:26 25.08.2021
6024 Clear 31 1013 42 8000 2.06 10 14:45 25.08.2021
6025 Clear 29 1014 48 8000 2.06 0 13:44 25.08.2021
6026 Clear 24 1014 64 8000 2.06 330 11:36 25.08.2021
6027 Clear 23 1014 68 8000 2.06 340 10:56 25.08.2021
6028 Clear 20 1014 77 8000 2.06 270 09:59 25.08.2021
6029 Clear 19 1014 82 8000 1.54 300 09:30 25.08.2021
6030 Clear 18 1013 82 8000 2.06 260 08:33 25.08.2021
6031 Clear 19 1013 77 8000 3.09 240 06:19 25.08.2021
6032 Clear 24 1015 60 8000 3.09 250 00:55 25.08.2021
6033 Clouds 27 1014 50 8000 3.6 10 22:51 24.08.2021
6034 Clear 31 1013 42 8000 3.6 320 20:53 24.08.2021
6035 Clear 33 1012 40 8000 3.6 280 19:53 24.08.2021
6036 Clear 34 1013 36 8000 2.06 0 18:54 24.08.2021
6037 Clear 34 1013 38 6000 2.06 0 17:52 24.08.2021
6038 Clear 32 1013 40 6000 2.06 0 17:21 24.08.2021
6039 Clear 29 1014 51 6000 2.57 320 14:45 24.08.2021
6040 Clouds 25 1015 69 6000 3.09 290 13:29 24.08.2021
6041 Clouds 23 1015 73 6000 3.09 280 12:36 24.08.2021
6042 Clouds 21 1015 83 6000 2.57 270 11:19 24.08.2021
6043 Clouds 20 1015 88 5000 3.6 250 10:45 24.08.2021
6044 Mist 19 1015 88 3000 4.12 250 09:24 24.08.2021
6045 Mist 19 1014 88 4000 3.09 240 07:28 24.08.2021
6046 Clouds 20 1014 83 8000 4.63 270 05:37 24.08.2021
6047 Clouds 23 1015 68 7000 2.57 250 02:40 24.08.2021
6048 Clouds 28 1014 54 8000 3.09 340 23:28 23.08.2021
6049 Clouds 29 1014 48 8000 3.09 330 22:42 23.08.2021
6050 Clouds 33 1013 35 8000 3.6 350 20:58 23.08.2021
6051 Clouds 36 1012 30 8000 1.54 330 19:30 23.08.2021
6052 Clouds 36 1012 30 8000 1.54 330 19:30 23.08.2021
6053 Clouds 34 1013 33 8000 2.57 0 16:45 23.08.2021
6054 Clouds 33 1014 35 8000 2.06 270 15:24 23.08.2021
6055 Clear 29 1014 48 8000 2.57 350 13:47 23.08.2021
6056 Clear 27 1015 57 8000 1.54 0 12:30 23.08.2021
6057 Clouds 22 1015 78 8000 2.06 270 10:46 23.08.2021
6058 Clouds 21 1015 78 8000 2.57 270 09:52 23.08.2021
6059 Clouds 20 1015 77 8000 2.57 260 08:34 23.08.2021
6060 Clear 20 1015 77 10000 2.06 250 06:56 23.08.2021
6061 Clear 21 1015 73 10000 2.57 250 06:37 23.08.2021
6062 Clear 26 1017 53 10000 2.06 80 00:57 23.08.2021
6063 Clouds 28 1016 47 10000 4.12 360 22:51 22.08.2021
6064 Clouds 29 1016 45 10000 4.63 360 22:28 22.08.2021
6065 Clouds 34 1014 33 10000 2.57 300 20:23 22.08.2021
6066 Clouds 35 1015 29 10000 1.54 0 19:57 22.08.2021
6067 Clouds 34 1015 31 10000 2.06 0 17:37 22.08.2021
6068 Clear 32 1016 37 10000 2.06 0 15:32 22.08.2021
6069 Clear 31 1017 42 10000 2.57 360 14:51 22.08.2021
6070 Clear 29 1017 51 10000 2.57 330 13:37 22.08.2021
6071 Clear 29 1017 51 10000 2.57 330 13:19 22.08.2021
6072 Clear 27 1018 57 10000 1.54 0 12:29 22.08.2021
6073 Clear 26 1018 61 10000 1.54 0 11:43 22.08.2021
6074 Clear 23 1018 73 8000 1.03 0 10:43 22.08.2021
6075 Clear 19 1017 82 10000 2.57 250 08:36 22.08.2021
6076 Clear 21 1018 73 8000 3.09 240 04:58 22.08.2021
6077 Clear 25 1019 61 10000 2.57 60 00:32 22.08.2021
6078 Clear 28 1018 44 10000 5.14 10 22:35 21.08.2021
6079 Clouds 31 1017 33 10000 5.14 350 20:56 21.08.2021
6080 Clouds 35 1017 23 10000 2.06 0 18:46 21.08.2021
6081 Clouds 35 1017 20 10000 1.54 0 17:59 21.08.2021
6082 Clouds 34 1018 21 10000 2.06 0 16:56 21.08.2021
6083 Clouds 33 1018 29 10000 2.06 0 16:29 21.08.2021
6084 Clouds 32 1018 33 10000 3.09 320 15:37 21.08.2021
6085 Clouds 31 1018 37 10000 2.06 0 14:54 21.08.2021
6086 Clouds 27 1019 50 10000 2.57 280 13:34 21.08.2021
6087 Clouds 25 1019 61 10000 2.06 0 12:38 21.08.2021
6088 Clouds 18 1018 88 8000 3.09 240 09:31 21.08.2021
6089 Clouds 19 1016 77 10000 2.57 250 06:20 21.08.2021
6090 Clear 27 1017 39 10000 2.06 340 23:50 20.08.2021
6091 Clear 30 1015 35 10000 4.12 340 21:54 20.08.2021
6092 Clear 37 1013 19 10000 3.09 280 18:31 20.08.2021
6093 Clear 36 1014 21 10000 2.06 330 16:26 20.08.2021
6094 Clear 31 1015 33 10000 1.54 0 13:48 20.08.2021
6095 Clear 26 1015 53 10000 2.06 290 11:51 20.08.2021
6096 Clear 24 1015 57 10000 2.06 280 11:25 20.08.2021
6097 Clear 20 1015 68 10000 2.57 270 09:43 20.08.2021
6098 Clear 19 1014 68 10000 1.54 260 08:51 20.08.2021
6099 Clear 19 1014 63 10000 1.54 270 07:56 20.08.2021
6100 Clear 22 1014 53 10000 2.57 260 04:23 20.08.2021
6101 Clear 28 1014 36 10000 1.54 60 00:36 20.08.2021
6102 Clear 29 1014 34 10000 4.63 30 23:26 19.08.2021
6103 Clear 31 1013 29 10000 4.63 10 22:35 19.08.2021
6104 Clouds 35 1012 21 10000 4.63 360 20:55 19.08.2021
6105 Clouds 37 1012 19 10000 3.09 0 19:52 19.08.2021
6106 Clouds 36 1012 20 10000 3.6 290 17:28 19.08.2021
6107 Clouds 37 1013 20 10000 1.54 0 16:32 19.08.2021
6108 Clear 32 1014 29 10000 1.54 0 13:58 19.08.2021
6109 Clear 29 1015 34 10000 1.54 0 12:38 19.08.2021
6110 Clear 26 1014 44 10000 2.57 250 11:36 19.08.2021
6111 Clear 23 1014 53 10000 3.09 270 10:24 19.08.2021
6112 Clear 22 1014 56 10000 3.09 260 09:48 19.08.2021
6113 Clear 22 1014 56 10000 2.06 280 09:22 19.08.2021
6114 Clear 21 1014 52 10000 2.06 250 07:40 19.08.2021
6115 Clear 27 1016 39 10000 2.06 60 02:26 19.08.2021
6116 Clear 27 1016 41 10000 2.57 50 01:55 19.08.2021
6117 Clear 31 1015 29 10000 5.66 30 22:56 18.08.2021
6118 Clear 31 1015 29 10000 5.66 30 22:56 18.08.2021
6119 Clear 33 1014 25 10000 5.14 360 21:42 18.08.2021
6120 Clouds 37 1014 15 10000 5.14 340 20:33 18.08.2021
6121 Clouds 38 1014 15 10000 4.12 350 19:51 18.08.2021
6122 Clouds 39 1014 11 10000 2.57 310 18:55 18.08.2021
6123 Clouds 39 1014 12 10000 2.06 0 17:57 18.08.2021
6124 Clouds 38 1015 14 10000 3.09 0 16:24 18.08.2021
6125 Clouds 36 1016 19 10000 2.57 350 15:38 18.08.2021
6126 Clouds 36 1016 19 10000 2.57 350 15:20 18.08.2021
6127 Clouds 31 1017 35 10000 1.03 0 12:43 18.08.2021
6128 Clouds 31 1017 35 10000 1.03 0 12:25 18.08.2021
6129 Clear 27 1017 44 10000 1.03 0 10:50 18.08.2021
6130 Clear 21 1017 56 10000 2.06 250 07:48 18.08.2021
6131 Clear 30 1020 30 10000 2.06 20 00:45 18.08.2021
6132 Clear 35 1018 20 10000 4.12 360 22:30 17.08.2021
6133 Clear 36 1017 17 10000 5.14 360 21:27 17.08.2021
6134 Clear 39 1017 17 10000 4.63 10 20:45 17.08.2021
6135 Clear 41 1016 10 10000 4.12 30 19:18 17.08.2021
6136 Clouds 42 1017 9 10000 3.09 0 17:33 17.08.2021
6137 Clouds 42 1017 9 10000 3.09 0 17:33 17.08.2021
6138 Clouds 41 1018 8 10000 4.12 0 16:39 17.08.2021
6139 Clouds 42 1019 6 10000 1.03 0 15:38 17.08.2021
6140 Clear 39 1019 10 10000 2.57 360 14:28 17.08.2021
6141 Clear 36 1020 13 10000 1.54 0 12:23 17.08.2021
6142 Clear 25 1019 29 10000 0.51 0 09:22 17.08.2021
6143 Clear 25 1018 27 10000 0.51 0 07:48 17.08.2021
6144 Clear 31 1018 22 10000 3.09 210 04:33 17.08.2021
6145 Clouds 36 1017 19 8000 5.14 10 22:58 16.08.2021
6146 Clouds 37 1017 18 8000 5.14 10 22:40 16.08.2021
6147 Clouds 38 1016 18 8000 6.69 10 22:21 16.08.2021
6148 Clouds 39 1016 16 7000 6.69 10 21:25 16.08.2021
6149 Clouds 40 1015 15 6000 7.2 10 20:49 16.08.2021
6150 Dust 44 1015 12 4000 6.17 360 19:24 16.08.2021
6151 Clouds 45 1014 11 10000 4.12 360 18:24 16.08.2021
6152 Clouds 45 1014 11 10000 5.14 340 17:51 16.08.2021
6153 Clouds 44 1016 14 10000 2.57 330 15:49 16.08.2021
6154 Clouds 42 1016 14 8000 3.09 360 14:50 16.08.2021
6155 Clouds 39 1017 18 8000 2.06 360 13:38 16.08.2021
6156 Clouds 38 1018 19 8000 1.54 350 12:55 16.08.2021
6157 Clouds 33 1017 24 8000 0.51 0 10:38 16.08.2021
6158 Clouds 29 1016 26 8000 2.57 160 08:49 16.08.2021
6159 Clouds 28 1016 30 8000 1.54 110 07:35 16.08.2021
6160 Clouds 28 1016 30 8000 0 0 06:44 16.08.2021
6161 Clouds 31 1016 25 8000 1.54 280 02:22 16.08.2021
6162 Clouds 38 1015 17 6000 4.12 350 22:49 15.08.2021
6163 Clouds 42 1014 12 8000 3.6 350 20:51 15.08.2021
6164 Clouds 44 1013 10 10000 5.14 90 18:47 15.08.2021
6165 Clouds 45 1013 9 10000 4.12 10 17:56 15.08.2021
6166 Clouds 47 1013 8 10000 2.06 0 17:34 15.08.2021
6167 Clouds 47 1014 7 10000 3.09 30 16:26 15.08.2021
6168 Clouds 45 1015 11 10000 2.57 350 14:48 15.08.2021
6169 Clouds 44 1015 13 7000 2.57 30 14:26 15.08.2021
6170 Clear 36 1016 20 8000 1.03 0 11:30 15.08.2021
6171 Clouds 29 1016 28 7000 1.54 90 09:26 15.08.2021
6172 Clouds 34 1017 21 7000 0.51 0 03:59 15.08.2021
6173 Clouds 37 1018 20 7000 4.63 290 00:42 15.08.2021
6174 Clouds 40 1016 13 7000 3.6 360 22:29 14.08.2021
6175 Clouds 43 1015 12 7000 5.66 20 20:58 14.08.2021
6176 Clouds 44 1015 10 8000 6.17 10 19:44 14.08.2021
6177 Clouds 46 1015 8 8000 5.14 350 18:56 14.08.2021
6178 Clouds 47 1016 8 8000 1.54 0 17:21 14.08.2021
6179 Clouds 47 1016 8 8000 2.57 0 15:52 14.08.2021
6180 Clouds 46 1017 9 8000 1.54 0 14:25 14.08.2021
6181 Clouds 40 1018 22 8000 1.54 40 12:21 14.08.2021
6182 Clouds 34 1018 36 8000 3.6 80 10:53 14.08.2021
6183 Clouds 27 1017 41 10000 2.06 70 07:48 14.08.2021
6184 Clouds 33 1018 46 7000 4.63 260 23:54 13.08.2021
6185 Clouds 40 1016 18 7000 1.54 360 22:30 13.08.2021
6186 Clouds 41 1015 22 7000 3.09 320 21:40 13.08.2021
6187 Clouds 46 1015 9 7000 4.63 150 18:48 13.08.2021
6188 Clouds 47 1015 8 7000 2.06 360 17:56 13.08.2021
6189 Clouds 46 1016 9 7000 2.57 360 16:32 13.08.2021
6190 Clear 40 1017 29 10000 1.54 0 14:30 13.08.2021
6191 Clear 32 1018 45 10000 2.06 30 11:20 13.08.2021
6192 Clear 28 1018 57 10000 1.54 50 09:49 13.08.2021
6193 Clear 26 1017 57 10000 1.54 120 08:36 13.08.2021
6194 Clear 26 1016 61 10000 0.51 0 07:20 13.08.2021
6195 Clear 27 1017 57 10000 1.03 0 04:59 13.08.2021
6196 Clouds 32 1018 45 10000 2.57 270 23:49 12.08.2021
6197 Clouds 37 1016 32 10000 2.06 310 21:21 12.08.2021
6198 Clouds 37 1016 32 10000 3.09 240 20:24 12.08.2021
6199 Clouds 37 1016 34 10000 4.12 250 19:45 12.08.2021
6200 Clouds 37 1015 36 10000 4.63 270 17:54 12.08.2021
6201 Clouds 35 1016 38 10000 3.09 0 16:34 12.08.2021
6202 Clouds 33 1016 43 10000 2.57 310 15:20 12.08.2021
6203 Clouds 29 1017 54 10000 2.06 0 13:20 12.08.2021
6204 Clouds 25 1017 69 10000 1.54 310 11:30 12.08.2021
6205 Clear 20 1016 83 10000 2.06 230 07:59 12.08.2021
6206 Clear 21 1016 78 10000 2.57 250 05:19 12.08.2021
6207 Clear 29 1017 54 10000 4.12 350 22:55 11.08.2021
6208 Clear 34 1015 31 10000 2.06 310 21:23 11.08.2021
6209 Clear 35 1014 34 10000 1.54 0 18:33 11.08.2021
6210 Clear 34 1015 36 10000 3.09 0 17:40 11.08.2021
6211 Clear 30 1016 42 10000 2.57 0 15:21 11.08.2021
6212 Clear 28 1016 51 8000 2.57 0 14:23 11.08.2021
6213 Clear 25 1017 57 8000 1.54 320 12:35 11.08.2021
6214 Clear 24 1017 60 8000 1.54 0 11:47 11.08.2021
6215 Clear 23 1017 68 8000 1.03 0 11:22 11.08.2021
6216 Clear 19 1017 82 8000 1.54 270 10:20 11.08.2021
6217 Clear 17 1017 88 8000 1.54 250 08:31 11.08.2021
6218 Clear 24 1016 53 8000 3.09 270 00:39 11.08.2021
6219 Clear 27 1015 47 8000 4.63 310 22:32 10.08.2021
6220 Clear 30 1014 39 8000 4.12 270 21:33 10.08.2021
6221 Clear 32 1013 33 8000 4.12 270 20:36 10.08.2021
6222 Clouds 33 1013 33 8000 2.06 0 18:59 10.08.2021
6223 Clouds 31 1014 37 8000 3.6 260 16:49 10.08.2021
6224 Clouds 28 1014 44 8000 2.06 0 15:22 10.08.2021
6225 Clouds 26 1015 53 8000 1.54 0 13:29 10.08.2021
6226 Clouds 20 1015 77 8000 2.06 260 10:47 10.08.2021
6227 Clear 17 1015 82 10000 3.6 250 07:23 10.08.2021
6228 Clear 19 1015 72 10000 3.6 240 04:59 10.08.2021
6229 Clear 25 1015 47 10000 4.63 40 23:48 09.08.2021
6230 Clouds 28 1014 42 10000 4.12 360 21:58 09.08.2021
6231 Clouds 30 1014 37 10000 3.09 320 21:37 09.08.2021
6232 Clouds 32 1013 35 10000 1.54 0 19:55 09.08.2021
6233 Clouds 31 1014 37 10000 2.57 0 17:57 09.08.2021
6234 Clouds 29 1014 42 10000 1.54 0 15:35 09.08.2021
6235 Clear 27 1015 47 10000 3.6 20 14:25 09.08.2021
6236 Clear 26 1015 50 10000 2.57 0 13:28 09.08.2021
6237 Clear 23 1015 64 10000 1.54 360 11:47 09.08.2021
6238 Clear 17 1015 82 10000 2.57 260 08:35 09.08.2021
6239 Clear 17 1015 82 10000 2.1 4 07:47 09.08.2021
6240 Clear 29 1013 39 10000 6.69 350 21:28 08.08.2021
6241 Clear 33 1013 31 10000 3.6 320 19:55 08.08.2021
6242 Clear 33 1013 33 10000 1.54 300 16:56 08.08.2021
6243 Clear 30 1014 39 10000 2.57 320 15:43 08.08.2021
6244 Clouds 27 1015 47 8000 3.09 340 13:54 08.08.2021
6245 Clouds 24 1015 60 8000 2.57 0 11:53 08.08.2021
6246 Clouds 21 1015 73 8000 3.09 70 09:49 08.08.2021
6247 Clear 21 1014 73 8000 3.09 40 06:40 08.08.2021
6248 Clear 24 1016 64 8000 3.09 50 00:44 08.08.2021
6249 Clear 24 1016 64 8000 4.63 40 00:24 08.08.2021
6250 Clouds 31 1013 35 10000 4.63 20 21:43 07.08.2021
6251 Clouds 32 1013 33 10000 4.12 10 20:59 07.08.2021
6252 Clouds 34 1013 27 10000 2.57 320 18:18 07.08.2021
6253 Clear 33 1013 31 10000 3.6 330 16:50 07.08.2021
6254 Clear 31 1014 40 10000 2.57 10 15:28 07.08.2021
6255 Clear 26 1015 57 8000 3.09 330 13:34 07.08.2021
6256 Clouds 20 1015 83 7000 1.54 0 10:28 07.08.2021
6257 Clear 19 1014 82 10000 3.6 250 06:31 07.08.2021
6258 Clear 24 1015 60 10000 3.09 260 02:18 07.08.2021
6259 Clear 32 1012 35 10000 4.12 360 22:19 06.08.2021
6260 Clear 36 1011 28 10000 3.09 350 20:34 06.08.2021
6261 Clear 36 1011 28 10000 4.12 330 19:57 06.08.2021
6262 Clear 37 1012 26 10000 3.09 300 18:45 06.08.2021
6263 Clear 37 1012 28 10000 1.54 0 17:23 06.08.2021
6264 Clear 25 1015 57 10000 2.57 280 10:53 06.08.2021
6265 Clear 23 1015 64 10000 3.09 270 09:56 06.08.2021
6266 Clear 21 1014 73 10000 2.06 260 07:54 06.08.2021
6267 Clear 29 1015 45 10000 4.12 30 23:34 05.08.2021
6268 Clear 31 1014 42 10000 6.17 20 22:28 05.08.2021
6269 Clear 38 1013 25 10000 1.03 0 20:44 05.08.2021
6270 Clear 38 1013 25 10000 2.57 10 19:29 05.08.2021
6271 Clear 37 1014 30 10000 2.57 0 16:53 05.08.2021
6272 Clear 33 1016 35 8000 2.57 0 14:49 05.08.2021
6273 Clear 26 1017 50 10000 1.54 0 11:34 05.08.2021
6274 Clear 20 1016 64 10000 2.06 270 08:38 05.08.2021
6275 Clear 24 1016 46 10000 2.06 40 04:50 05.08.2021
6276 Clear 29 1017 39 8000 6.69 30 23:20 04.08.2021
6277 Clear 33 1015 31 6000 6.69 10 21:44 04.08.2021
6278 Clear 33 1015 31 6000 6.69 10 21:21 04.08.2021
6279 Clear 37 1015 25 8000 2.57 40 18:22 04.08.2021
6280 Clear 35 1016 29 8000 4.12 40 16:40 04.08.2021
6281 Clear 32 1016 37 8000 2.57 10 14:42 04.08.2021
6282 Clear 25 1018 61 10000 0.51 0 11:20 04.08.2021
6283 Clear 25 1017 53 10000 2.06 30 01:46 04.08.2021
6284 Clear 34 1013 26 10000 3.09 20 20:35 03.08.2021
6285 Clear 35 1013 26 10000 2.06 360 19:58 03.08.2021
6286 Clear 34 1013 29 10000 2.06 0 17:50 03.08.2021
6287 Clear 32 1014 37 10000 2.57 310 16:23 03.08.2021
6288 Clear 25 1015 57 10000 1.03 0 11:44 03.08.2021
6289 Clear 22 1015 68 10000 1.03 0 10:39 03.08.2021
6290 Clear 22 1015 68 10000 1.03 0 10:39 03.08.2021
6291 Clear 22 1015 64 10000 3.09 30 02:38 03.08.2021
6292 Clear 32 1013 25 10000 2.57 90 17:34 02.08.2021
6293 Clear 30 1014 30 10000 2.57 70 16:38 02.08.2021
6294 Clear 27 1015 39 10000 2.57 0 14:44 02.08.2021
6295 Clear 23 1016 53 10000 1.54 320 11:59 02.08.2021
6296 Clear 23 1016 56 10000 1.54 0 11:34 02.08.2021
6297 Clear 19 1016 68 10000 2.06 260 09:49 02.08.2021
6298 Clouds 27 1015 39 10000 5.66 360 22:33 01.08.2021
6299 Clouds 33 1015 24 10000 2.57 0 18:19 01.08.2021
6300 Clear 26 1018 44 8000 2.06 0 13:38 01.08.2021
6301 Clear 23 1018 60 10000 1.03 0 11:38 01.08.2021
6302 Clear 18 1018 72 10000 2.06 30 08:36 01.08.2021
6303 Clear 21 1018 64 10000 3.6 40 03:47 01.08.2021
6304 Clear 28 1018 42 10000 5.66 30 22:48 31.07.2021
6305 Clear 33 1016 27 8000 5.66 20 20:28 31.07.2021
6306 Clouds 36 1016 23 10000 3.09 0 16:59 31.07.2021
6307 Clouds 36 1017 20 10000 3.6 320 15:57 31.07.2021
6308 Clouds 29 1019 45 10000 1.54 0 12:27 31.07.2021
6309 Clouds 22 1016 64 10000 2.06 270 06:56 31.07.2021
6310 Clouds 33 1017 33 6000 2.06 340 23:58 30.07.2021
6311 Clouds 37 1016 30 8000 5.14 270 20:28 30.07.2021
6312 Clouds 39 1014 27 8000 4.12 320 16:33 30.07.2021
6313 Clouds 39 1014 17 8000 3.6 140 22:27 29.07.2021
6314 Clouds 30 1014 54 10000 2.57 80 12:34 29.07.2021
6315 Clear 25 1012 61 10000 2.06 270 04:53 29.07.2021
6316 Clear 26 1012 57 10000 2.57 250 04:28 29.07.2021
6317 Clear 39 1011 24 10000 4.12 340 20:52 28.07.2021
6318 Clouds 40 1010 25 10000 2.06 0 17:19 28.07.2021
6319 Clear 26 1012 61 10000 1.03 0 10:48 28.07.2021
6320 Clear 27 1012 54 10000 1.54 10 01:53 28.07.2021
6321 Clear 36 1009 28 10000 3.6 350 21:37 27.07.2021
6322 Clear 37 1009 28 10000 1.54 0 18:26 27.07.2021
6323 Clear 32 1011 43 10000 2.06 0 14:51 27.07.2021
6324 Clear 23 1012 68 10000 1.54 0 10:44 27.07.2021
6325 Clear 19 1012 77 10000 2.06 250 07:31 27.07.2021
6326 Clear 32 1014 33 10000 2.06 0 15:35 26.07.2021
6327 Clear 28 1015 44 10000 2.06 360 13:43 26.07.2021
6328 Clear 34 1014 24 10000 5.14 360 21:44 25.07.2021
6329 Clear 35 1014 21 10000 4.12 350 20:54 25.07.2021
6330 Clear 38 1014 17 10000 1.54 0 17:45 25.07.2021
6331 Clouds 34 1015 27 10000 2.06 0 15:27 25.07.2021
6332 Clouds 24 1016 64 10000 2.57 260 10:19 25.07.2021
6333 Clouds 22 1014 64 10000 3.6 280 08:18 25.07.2021
6334 Clouds 40 1011 14 10000 8.93 294 20:23 24.07.2021
6335 Clouds 41 1012 22 8000 4.12 300 19:36 24.07.2021
6336 Clouds 31 1013 45 8000 1.54 300 11:27 24.07.2021
6337 Clouds 47 1010 12 10000 2.06 0 17:35 23.07.2021
6338 Clouds 43 1012 19 10000 2.57 300 14:35 23.07.2021
6339 Clear 36 1012 26 10000 2.06 0 12:40 23.07.2021
6340 Clear 36 1012 26 10000 2.06 0 12:40 23.07.2021
6341 Clouds 34 1015 31 10000 2.57 330 22:51 22.07.2021
6342 Clouds 42 1013 20 10000 2.06 310 14:58 22.07.2021
6343 Clear 32 1015 37 10000 1.03 0 11:19 22.07.2021
6344 Clouds 24 1014 53 10000 2.06 250 08:34 22.07.2021
6345 Clouds 34 1015 27 10000 3.09 10 22:35 21.07.2021
6346 Clouds 35 1015 26 10000 3.6 350 21:34 21.07.2021
6347 Clouds 40 1014 22 10000 2.06 310 19:27 21.07.2021
6348 Clear 22 1016 64 10000 2.57 280 10:37 21.07.2021
6349 Clear 24 1015 41 10000 1.32 3 09:19 21.07.2021
6350 Clear 20 1015 68 10000 2.57 250 09:19 21.07.2021
6351 Clear 22 1014 56 10000 3.09 240 05:41 21.07.2021
6352 Clear 33 1014 25 10000 5.66 10 21:43 20.07.2021
6353 Clear 37 1014 18 10000 2.57 0 16:36 20.07.2021
6354 Clear 36 1014 21 10000 3.09 290 15:27 20.07.2021
6355 Clear 28 1015 44 10000 1.03 0 11:20 20.07.2021
6356 Clear 20 1015 60 10000 2.06 250 07:45 20.07.2021
6357 Clear 27 1015 32 10000 2.57 20 03:18 20.07.2021
6358 Clear 39 1013 10 10000 4.63 50 18:24 19.07.2021
6359 Clear 34 1016 20 10000 3.09 40 12:47 19.07.2021
6360 Clear 23 1016 43 8000 2.57 90 07:27 19.07.2021
6361 Clouds 41 1016 9 10000 3.6 0 16:29 18.07.2021
6362 Clear 29 1019 26 10000 3.09 100 10:20 18.07.2021
6363 Clouds 36 1017 14 10000 4.63 20 22:58 17.07.2021
6364 Clouds 38 1016 14 10000 5.14 20 21:58 17.07.2021
6365 Clouds 39 1016 12 10000 5.66 20 21:40 17.07.2021
6366 Clouds 38 1017 22 10000 2.57 350 13:46 17.07.2021
6367 Clear 32 1017 40 10000 1.03 0 11:30 17.07.2021
6368 Clear 25 1015 53 10000 1.03 0 04:48 17.07.2021
6369 Clouds 42 1013 17 10000 1.54 0 17:41 16.07.2021
6370 Clear 31 1014 40 10000 2.06 320 11:44 16.07.2021
6371 Clear 22 1014 56 10000 1.54 270 07:24 16.07.2021
6372 Clouds 39 1012 17 10000 2.57 20 19:47 15.07.2021
6373 Clouds 32 1013 33 10000 2.57 310 13:50 15.07.2021
6374 Clear 24 1013 53 10000 1.54 260 09:51 15.07.2021
6375 Clear 28 1013 32 10000 2.57 50 00:31 15.07.2021
6376 Clear 37 1013 18 10000 1.54 0 16:54 14.07.2021
6377 Clear 26 1015 47 10000 1.54 0 12:01 14.07.2021
6378 Clear 21 1015 56 10000 1.54 250 04:44 14.07.2021
6379 Clear 36 1015 20 10000 4.12 10 20:23 13.07.2021
6380 Clear 36 1015 20 10000 4.12 350 19:50 13.07.2021
6381 Clear 37 1016 19 10000 3.09 0 19:23 13.07.2021
6382 Clear 37 1016 20 10000 4.12 330 18:44 13.07.2021
6383 Clear 37 1016 20 10000 4.12 330 18:24 13.07.2021
6384 Clear 36 1018 24 10000 3.09 360 15:31 13.07.2021
6385 Clear 24 1019 60 8000 1.54 280 09:48 13.07.2021
6386 Clouds 32 1021 35 6000 4.12 30 00:19 13.07.2021
6387 Haze 43 1017 19 4000 1.54 0 17:29 12.07.2021
6388 Haze 41 1019 20 4000 1.54 0 15:21 12.07.2021
6389 Clouds 29 1019 42 7000 1.03 0 07:58 12.07.2021
6390 Dust 35 1018 36 3500 3.09 20 21:58 11.07.2021
6391 Dust 40 1017 21 3000 2.06 70 15:50 11.07.2021
6392 Dust 36 1013 21 3000 2.06 120 02:31 11.07.2021
6393 Dust 46 1010 9 2000 1.03 0 17:38 10.07.2021
6394 Clear 25 1011 61 10000 0.51 0 07:58 10.07.2021
6395 Clear 26 1011 57 10000 1.54 240 07:22 10.07.2021
6396 Clouds 40 1009 24 10000 3.6 320 20:42 09.07.2021
6397 Clouds 35 1011 29 10000 2.57 300 14:52 09.07.2021
6398 Clear 30 1012 39 10000 2.57 20 12:55 09.07.2021
6399 Clear 25 1015 44 10000 3.6 60 01:35 09.07.2021
6400 Clear 28 1014 36 10000 5.66 40 22:52 08.07.2021
6401 Clear 33 1013 29 10000 6.17 20 20:52 08.07.2021
6402 Clear 36 1013 21 10000 2.06 0 18:41 08.07.2021
6403 Clear 28 1017 47 10000 2.57 0 13:52 08.07.2021
6404 Clear 28 1017 47 10000 2.06 0 13:30 08.07.2021
6405 Clear 25 1017 53 10000 1.54 0 12:35 08.07.2021
6406 Clear 23 1018 56 10000 1.54 0 11:21 08.07.2021
6407 Clear 19 1017 68 10000 2.06 250 06:52 08.07.2021
6408 Clear 21 1018 68 10000 3.09 20 03:52 08.07.2021
6409 Clear 26 1017 50 10000 7.72 20 22:59 07.07.2021
6410 Clear 28 1017 42 10000 5.14 10 22:20 07.07.2021
6411 Clouds 30 1016 37 10000 6.17 360 21:45 07.07.2021
6412 Clouds 31 1016 35 10000 5.66 10 21:24 07.07.2021
6413 Clouds 35 1016 26 10000 3.09 30 19:59 07.07.2021
6414 Clouds 35 1016 26 10000 2.57 0 19:30 07.07.2021
6415 Clouds 35 1016 26 10000 2.57 0 19:30 07.07.2021
6416 Clouds 35 1016 26 10000 2.57 0 19:30 07.07.2021
6417 Clouds 35 1016 26 10000 4.12 100 18:52 07.07.2021
6418 Clouds 33 1018 35 10000 2.06 0 15:55 07.07.2021
6419 Clouds 30 1019 39 10000 3.09 330 14:58 07.07.2021
6420 Clouds 30 1019 39 10000 3.09 330 14:58 07.07.2021
6421 Clear 24 1019 60 10000 2.57 330 11:24 07.07.2021
6422 Clear 19 1017 72 10000 2.57 260 07:19 07.07.2021
6423 Clear 20 1017 68 10000 2.06 260 05:50 07.07.2021
6424 Clear 24 1018 57 10000 2.06 30 02:55 07.07.2021
6425 Clouds 36 1015 28 10000 4.63 360 20:18 06.07.2021
6426 Clouds 39 1014 24 10000 3.09 320 18:57 06.07.2021
6427 Clouds 38 1014 25 10000 2.57 290 18:37 06.07.2021
6428 Clouds 38 1015 25 10000 2.57 0 17:43 06.07.2021
6429 Clear 31 1017 42 10000 2.06 360 13:33 06.07.2021
6430 Clear 22 1018 73 10000 2.06 280 09:44 06.07.2021
6431 Clear 20 1017 77 10000 2.57 250 08:36 06.07.2021
6432 Clear 20 1017 77 10000 4.12 230 07:39 06.07.2021
6433 Clear 28 1017 44 10000 1.54 310 01:57 06.07.2021
6434 Clear 30 1016 39 10000 3.6 40 23:57 05.07.2021
6435 Clouds 35 1015 26 10000 4.12 20 21:58 05.07.2021
6436 Clouds 38 1016 25 10000 2.06 0 17:21 05.07.2021
6437 Clear 21 1017 73 10000 3.09 250 09:22 05.07.2021
6438 Clear 22 1016 64 10000 1.54 260 05:49 05.07.2021
6439 Clear 23 1016 56 10000 2.06 260 04:41 05.07.2021
6440 Clouds 31 1017 37 10000 4.12 20 23:22 04.07.2021
6441 Clouds 39 1015 19 10000 2.06 10 20:47 04.07.2021
6442 Clear 38 1015 20 10000 2.57 330 17:35 04.07.2021
6443 Clear 32 1017 35 10000 2.06 320 14:36 04.07.2021
6444 Clear 25 1018 57 10000 1.03 0 10:47 04.07.2021
6445 Clear 21 1018 60 10000 3.09 230 06:47 04.07.2021
6446 Clear 29 1019 34 10000 3.09 20 23:26 03.07.2021
6447 Clear 40 1016 16 10000 3.09 330 19:46 03.07.2021
6448 Clear 33 1018 27 10000 2.06 290 12:43 03.07.2021
6449 Clear 28 1019 36 10000 1.54 300 11:29 03.07.2021
6450 Clear 22 1018 49 10000 3.09 260 09:27 03.07.2021
6451 Clear 22 1018 46 10000 3.09 270 08:45 03.07.2021
6452 Clouds 33 1017 31 10000 3.6 350 22:21 02.07.2021
6453 Clouds 21 1018 60 10000 1.03 0 08:58 02.07.2021
6454 Clouds 21 1017 60 10000 2.06 250 07:28 02.07.2021
6455 Clear 25 1018 50 10000 1.03 0 02:19 02.07.2021
6456 Clouds 33 1017 33 10000 3.6 360 22:30 01.07.2021
6457 Clear 36 1016 24 10000 1.54 260 21:35 01.07.2021
6458 Clear 37 1016 23 10000 2.57 300 19:40 01.07.2021
6459 Clear 37 1016 23 10000 3.09 310 19:20 01.07.2021
6460 Clear 37 1016 23 10000 3.09 310 18:47 01.07.2021
6461 Clear 37 1016 26 10000 1.54 0 17:33 01.07.2021
6462 Clear 33 1017 33 10000 1.54 0 15:57 01.07.2021
6463 Clear 33 1017 35 10000 2.06 0 15:22 01.07.2021
6464 Clear 27 1018 50 10000 2.06 330 12:31 01.07.2021
6465 Clear 19 1017 77 10000 2.57 240 09:40 01.07.2021
6466 Clear 25 1017 47 10000 1.54 50 00:30 01.07.2021
6467 Clear 28 1015 39 10000 4.63 30 23:18 30.06.2021
6468 Clear 31 1014 35 10000 4.63 350 21:57 30.06.2021
6469 Clear 34 1014 27 10000 2.57 340 21:19 30.06.2021
6470 Clear 35 1014 28 10000 1.54 0 20:21 30.06.2021
6471 Clear 33 1015 31 10000 2.57 280 16:45 30.06.2021
6472 Clear 26 1016 50 10000 3.09 300 13:26 30.06.2021
6473 Clear 20 1016 73 10000 2.57 260 10:27 30.06.2021
6474 Clear 24 1016 50 10000 3.6 30 00:53 30.06.2021
6475 Clear 33 1014 24 10000 3.6 10 20:23 29.06.2021
6476 Clear 34 1015 22 10000 3.09 10 17:47 29.06.2021
6477 Clear 33 1015 24 10000 3.09 360 17:28 29.06.2021
6478 Clear 31 1016 30 10000 2.57 0 15:51 29.06.2021
6479 Clear 31 1016 30 10000 2.57 0 15:51 29.06.2021
6480 Clear 31 1016 30 10000 2.57 0 15:51 29.06.2021
6481 Clear 29 1017 37 10000 2.57 0 14:55 29.06.2021
6482 Clear 26 1017 47 10000 2.06 310 13:24 29.06.2021
6483 Clear 19 1017 63 10000 2.57 20 05:25 29.06.2021
6484 Clear 24 1018 46 10000 4.63 40 23:26 28.06.2021
6485 Clear 32 1016 27 10000 5.66 10 20:59 28.06.2021
6486 Clear 33 1017 22 10000 4.12 40 18:44 28.06.2021
6487 Clear 32 1017 27 10000 2.57 330 16:58 28.06.2021
6488 Clear 28 1019 39 8000 2.06 0 14:31 28.06.2021
6489 Clear 25 1019 50 8000 2.57 340 12:24 28.06.2021
6490 Clear 24 1018 50 10000 4.63 40 23:48 27.06.2021
6491 Clear 28 1016 39 10000 6.17 360 22:32 27.06.2021
6492 Clouds 35 1015 23 10000 3.09 350 19:45 27.06.2021
6493 Clouds 35 1015 23 10000 3.6 330 18:56 27.06.2021
6494 Clear 32 1017 29 10000 2.06 0 15:39 27.06.2021
6495 Clear 25 1017 61 10000 2.06 0 11:23 27.06.2021
6496 Clear 25 1018 53 10000 2.06 40 00:54 27.06.2021
6497 Clear 29 1016 42 10000 5.14 350 22:30 26.06.2021
6498 Clear 34 1015 27 10000 3.6 340 20:54 26.06.2021
6499 Clear 35 1015 24 10000 3.6 330 20:35 26.06.2021
6500 Clear 35 1016 26 10000 2.06 320 16:22 26.06.2021
6501 Clear 31 1017 30 8000 2.57 340 14:37 26.06.2021
6502 Clear 27 1018 50 8000 1.54 0 12:24 26.06.2021
6503 Clouds 17 1018 88 8000 1.54 260 07:25 26.06.2021
6504 Clear 26 1018 47 8000 3.6 290 23:24 25.06.2021
6505 Clear 33 1015 33 8000 6.69 270 20:38 25.06.2021
6506 Clear 35 1015 26 8000 3.09 300 18:59 25.06.2021
6507 Clear 35 1015 28 8000 2.57 0 17:31 25.06.2021
6508 Clear 34 1016 29 8000 1.54 0 16:42 25.06.2021
6509 Clear 28 1017 47 8000 2.06 0 13:58 25.06.2021
6510 Clear 21 1017 73 8000 3.09 280 10:31 25.06.2021
6511 Clear 18 1016 72 10000 3.6 250 07:27 25.06.2021
6512 Clear 19 1015 72 10000 4.12 240 06:32 25.06.2021
6513 Clouds 25 1016 50 10000 2.57 240 01:40 25.06.2021
6514 Clear 31 1014 37 10000 4.12 360 21:49 24.06.2021
6515 Clear 35 1013 24 10000 2.06 10 20:44 24.06.2021
6516 Clear 35 1013 24 10000 2.57 310 20:21 24.06.2021
6517 Clear 35 1013 24 10000 2.06 0 18:35 24.06.2021
6518 Clear 31 1015 35 10000 2.57 360 15:24 24.06.2021
6519 Clear 30 1015 39 10000 2.06 340 14:55 24.06.2021
6520 Clear 27 1015 47 10000 1.54 0 13:39 24.06.2021
6521 Clear 20 1015 73 10000 2.06 260 10:36 24.06.2021
6522 Clear 17 1015 82 10000 3.6 240 08:33 24.06.2021
6523 Clear 17 1014 77 10000 2.57 250 07:38 24.06.2021
6524 Clear 22 1016 60 10000 2.57 50 01:24 24.06.2021
6525 Clouds 27 1014 39 10000 5.66 10 22:30 23.06.2021
6526 Clouds 31 1013 27 10000 3.09 60 21:35 23.06.2021
6527 Clouds 32 1013 29 10000 2.06 0 20:21 23.06.2021
6528 Clouds 32 1013 31 10000 2.57 60 18:32 23.06.2021
6529 Clouds 31 1014 33 10000 2.57 0 17:19 23.06.2021
6530 Clear 26 1016 44 10000 2.57 0 14:32 23.06.2021
6531 Clear 24 1016 53 10000 2.06 0 12:50 23.06.2021
6532 Clear 21 1017 60 10000 2.06 70 11:44 23.06.2021
6533 Clear 18 1017 68 10000 2.57 30 09:54 23.06.2021
6534 Clear 16 1017 77 8000 1.54 50 08:42 23.06.2021
6535 Clear 15 1017 82 8000 2.06 50 07:50 23.06.2021
6536 Clear 16 1017 77 8000 3.6 30 05:55 23.06.2021
6537 Clear 18 1018 68 8000 5.14 40 02:26 23.06.2021
6538 Clear 20 1018 60 8000 4.63 30 00:21 23.06.2021
6539 Clear 21 1018 56 8000 5.14 20 23:47 22.06.2021
6540 Clouds 23 1017 49 8000 6.69 20 22:43 22.06.2021
6541 Clouds 26 1016 41 10000 5.14 360 21:46 22.06.2021
6542 Clouds 29 1016 37 10000 3.09 30 20:55 22.06.2021
6543 Clouds 29 1016 37 10000 3.09 90 19:22 22.06.2021
6544 Clouds 29 1016 39 10000 2.57 0 18:37 22.06.2021
6545 Clouds 29 1016 39 10000 2.57 0 18:18 22.06.2021
6546 Clouds 27 1017 41 10000 2.57 0 17:20 22.06.2021
6547 Clouds 26 1017 47 10000 2.57 50 15:45 22.06.2021
6548 Clouds 24 1018 53 8000 2.06 10 14:29 22.06.2021
6549 Clouds 22 1018 56 8000 2.06 0 13:42 22.06.2021
6550 Clouds 20 1018 64 8000 2.57 40 12:31 22.06.2021
6551 Clouds 19 1018 68 8000 3.09 40 10:55 22.06.2021
6552 Clouds 18 1017 72 8000 3.09 10 08:52 22.06.2021
6553 Clear 21 1017 60 10000 4.12 20 00:57 22.06.2021
6554 Clear 22 1017 56 10000 4.12 20 00:37 22.06.2021
6555 Clear 24 1016 53 10000 4.12 360 22:52 21.06.2021
6556 Clear 27 1015 47 8000 5.14 10 21:37 21.06.2021
6557 Clear 28 1014 44 8000 6.69 10 20:51 21.06.2021
6558 Clear 32 1014 31 8000 1.54 0 19:56 21.06.2021
6559 Clear 32 1014 31 8000 2.06 0 19:29 21.06.2021
6560 Clear 31 1015 33 8000 3.82 326 18:20 21.06.2021
6561 Clear 29 1015 32 8000 3.09 0 16:53 21.06.2021
6562 Clear 30 1015 32 8000 2.06 0 16:27 21.06.2021
6563 Clear 29 1016 34 8000 2.06 0 15:56 21.06.2021
6564 Clear 28 1016 36 8000 3.09 300 15:19 21.06.2021
6565 Clear 24 1017 43 10000 2.57 10 13:40 21.06.2021
6566 Clear 24 1017 43 10000 2.06 0 12:55 21.06.2021
6567 Clear 23 1017 49 10000 2.06 320 12:31 21.06.2021
6568 Clear 20 1017 56 10000 1.03 0 10:42 21.06.2021
6569 Clear 19 1017 63 10000 1.03 0 10:18 21.06.2021
6570 Clear 15 1016 77 10000 3.09 230 08:32 21.06.2021
6571 Clear 15 1016 72 8000 2.57 240 07:56 21.06.2021
6572 Clear 21 1017 49 10000 1.54 320 01:20 21.06.2021
6573 Clear 23 1016 43 10000 4.12 50 23:52 20.06.2021
6574 Clear 24 1016 43 10000 4.63 30 23:32 20.06.2021
6575 Clear 24 1015 43 10000 4.63 10 22:47 20.06.2021
6576 Clear 28 1014 32 10000 3.6 360 21:44 20.06.2021
6577 Clear 30 1014 28 10000 3.09 10 20:26 20.06.2021
6578 Clear 32 1014 25 10000 1.54 0 19:35 20.06.2021
6579 Clear 31 1014 27 10000 3.09 360 18:44 20.06.2021
6580 Clear 30 1015 32 10000 3.09 10 17:37 20.06.2021
6581 Clear 29 1015 34 10000 2.06 0 16:39 20.06.2021
6582 Clear 28 1016 36 10000 2.06 0 15:38 20.06.2021
6583 Clear 26 1016 44 10000 3.09 0 14:55 20.06.2021
6584 Clear 26 1017 44 10000 2.06 0 14:36 20.06.2021
6585 Clear 25 1017 47 10000 2.06 0 13:19 20.06.2021
6586 Clear 25 1017 47 10000 2.06 0 13:19 20.06.2021
6587 Clear 23 1018 53 10000 1.03 0 11:48 20.06.2021
6588 Clear 21 1018 60 10000 1.03 0 10:55 20.06.2021
6589 Clear 18 1018 68 10000 2.06 120 09:49 20.06.2021
6590 Clear 17 1018 72 10000 2.06 50 08:57 20.06.2021
6591 Clouds 20 1018 56 8000 6.69 20 00:38 20.06.2021
6592 Clouds 22 1017 49 8000 5.14 10 23:33 19.06.2021
6593 Clouds 24 1017 43 8000 4.63 30 22:30 19.06.2021
6594 Clouds 25 1016 41 10000 4.12 360 21:44 19.06.2021
6595 Clouds 26 1016 38 10000 3.09 10 20:29 19.06.2021
6596 Clouds 27 1016 36 10000 4.12 40 18:47 19.06.2021
6597 Clouds 27 1016 36 8000 2.57 110 17:53 19.06.2021
6598 Clouds 26 1017 41 8000 4.12 80 17:20 19.06.2021
6599 Clouds 24 1017 41 8000 3.6 80 15:50 19.06.2021
6600 Clouds 23 1018 46 8000 3.6 50 14:20 19.06.2021
6601 Clouds 21 1018 52 8000 3.09 60 12:45 19.06.2021
6602 Clouds 18 1018 63 8000 3.09 50 11:43 19.06.2021
6603 Clouds 18 1018 63 8000 3.09 50 10:41 19.06.2021
6604 Clouds 18 1018 63 8000 3.09 40 10:21 19.06.2021
6605 Clouds 17 1017 63 8000 3.6 30 08:36 19.06.2021
6606 Clouds 17 1017 63 8000 1.54 50 07:42 19.06.2021
6607 Clouds 17 1017 63 8000 2.57 40 05:54 19.06.2021
6608 Clouds 20 1018 56 8000 4.63 40 00:27 19.06.2021
6609 Clouds 20 1018 56 8000 4.63 20 23:59 18.06.2021
6610 Clouds 20 1017 60 8000 4.63 30 23:25 18.06.2021
6611 Clouds 20 1017 60 8000 5.66 30 22:47 18.06.2021
6612 Clouds 22 1017 53 8000 4.12 20 21:57 18.06.2021
6613 Clouds 22 1017 53 8000 3.6 20 21:28 18.06.2021
6614 Clouds 23 1016 53 8000 2.57 10 20:38 18.06.2021
6615 Clouds 22 1016 56 8000 5.14 360 19:18 18.06.2021
6616 Clouds 23 1016 56 8000 3.09 350 18:21 18.06.2021
6617 Clouds 24 1017 53 8000 3.09 340 16:59 18.06.2021
6618 Clouds 23 1017 56 8000 3.6 330 15:54 18.06.2021
6619 Clouds 23 1017 56 6000 2.06 280 14:56 18.06.2021
6620 Clouds 22 1017 60 6000 2.57 290 14:29 18.06.2021
6621 Clouds 21 1017 64 6000 3.6 300 13:30 18.06.2021
6622 Clouds 21 1017 68 6000 1.03 0 12:44 18.06.2021
6623 Clouds 21 1016 68 6000 1.03 0 11:55 18.06.2021
6624 Clouds 20 1017 73 6000 1.54 0 11:20 18.06.2021
6625 Clouds 19 1017 77 6000 1.54 0 10:51 18.06.2021
6626 Clouds 18 1016 77 6000 2.57 270 10:20 18.06.2021
6627 Clouds 18 1016 77 6000 2.57 270 09:29 18.06.2021
6628 Clouds 18 1016 77 6000 2.57 260 08:43 18.06.2021
6629 Clouds 18 1016 77 6000 3.09 280 07:48 18.06.2021
6630 Clouds 18 1016 77 10000 3.09 260 06:32 18.06.2021
6631 Clouds 20 1017 68 10000 4.63 290 00:41 18.06.2021
6632 Clouds 22 1016 60 10000 5.66 300 23:41 17.06.2021
6633 Clouds 23 1016 56 8000 4.63 300 22:44 17.06.2021
6634 Clouds 23 1016 56 8000 5.14 300 22:23 17.06.2021
6635 Clouds 27 1015 41 10000 3.6 310 21:38 17.06.2021
6636 Clouds 28 1015 36 10000 4.63 260 20:48 17.06.2021
6637 Clouds 29 1014 32 10000 3.6 270 20:23 17.06.2021
6638 Clouds 29 1014 34 10000 2.57 310 19:45 17.06.2021
6639 Clouds 28 1015 34 10000 3.6 290 18:33 17.06.2021
6640 Clouds 29 1015 34 10000 2.06 0 17:42 17.06.2021
6641 Clouds 27 1015 39 10000 2.57 240 17:19 17.06.2021
6642 Clouds 27 1015 41 10000 2.06 0 16:25 17.06.2021
6643 Clouds 25 1016 50 10000 3.09 250 14:58 17.06.2021
6644 Clouds 23 1017 56 10000 4.12 290 13:59 17.06.2021
6645 Clouds 22 1017 60 8000 2.57 270 12:41 17.06.2021
6646 Clouds 21 1017 64 8000 2.06 0 12:22 17.06.2021
6647 Clouds 18 1017 77 6000 2.06 300 10:54 17.06.2021
6648 Clouds 18 1017 82 6000 1.54 250 10:30 17.06.2021
6649 Clouds 18 1017 82 6000 1.54 250 10:30 17.06.2021
6650 Clouds 17 1017 88 6000 1.54 280 09:50 17.06.2021
6651 Clouds 17 1016 88 6000 2.06 260 09:22 17.06.2021
6652 Clouds 14 1016 94 8000 1.54 270 07:58 17.06.2021
6653 Clouds 15 1016 88 8000 1.54 270 06:49 17.06.2021
6654 Clouds 17 1016 77 8000 2.06 270 03:45 17.06.2021
6655 Clouds 21 1017 56 8000 4.63 300 23:50 16.06.2021
6656 Clouds 21 1017 56 8000 4.12 310 23:27 16.06.2021
6657 Clouds 23 1016 49 8000 5.66 290 22:36 16.06.2021
6658 Clouds 24 1015 50 8000 5.14 290 21:47 16.06.2021
6659 Clouds 24 1015 50 8000 5.14 290 21:22 16.06.2021
6660 Clouds 25 1015 47 8000 5.66 290 20:45 16.06.2021
6661 Clouds 25 1015 44 8000